<?xml version="1.0" encoding="UTF-8" standalone="no" ?>
<gpx xmlns="http://www.topografix.com/GPX/1/1" xmlns:xsi="http://www.w3.org/2001/XMLSchema-instance" xsi:schemaLocation="http://www.topografix.com/GPX/1/1 http://www.topografix.com/GPX/1/1/gpx.xsd" version="1.1" creator="VisuGPX - https://www.visugpx.com">
  <metadata>
    <name>Grobreuil_4_VisuGpx</name>
  </metadata>
  <trk>
    <name><![CDATA[Grobreuil_4_VisuGpx]]></name>
    <extensions>
      <line xmlns="http://www.topografix.com/GPX/gpx_style/0/2">
        <color>ff0088</color>
        <width>4</width>
      </line>
    </extensions>
    <trkseg>
      <trkpt lat="46.50977" lon="-1.75955">
        <ele>-500</ele>
        <time>2021-03-23T07:57:06Z</time>
      </trkpt>
      <trkpt lat="46.50977" lon="-1.75955">
        <ele>-500</ele>
        <time>2021-03-23T07:57:06Z</time>
      </trkpt>
      <trkpt lat="46.50978" lon="-1.75936">
        <ele>-500</ele>
        <time>2021-03-23T07:57:10Z</time>
      </trkpt>
      <trkpt lat="46.5098" lon="-1.75932">
        <ele>-499.20001220703</ele>
        <time>2021-03-23T07:57:11Z</time>
      </trkpt>
      <trkpt lat="46.50983" lon="-1.75929">
        <ele>-497.60000610352</ele>
        <time>2021-03-23T07:57:12Z</time>
      </trkpt>
      <trkpt lat="46.50986" lon="-1.75927">
        <ele>-496</ele>
        <time>2021-03-23T07:57:13Z</time>
      </trkpt>
      <trkpt lat="46.50991" lon="-1.75925">
        <ele>-494.39999389648</ele>
        <time>2021-03-23T07:57:14Z</time>
      </trkpt>
      <trkpt lat="46.50995" lon="-1.75924">
        <ele>-494.39999389648</ele>
        <time>2021-03-23T07:57:15Z</time>
      </trkpt>
      <trkpt lat="46.51004" lon="-1.75923">
        <ele>-494.39999389648</ele>
        <time>2021-03-23T07:57:17Z</time>
      </trkpt>
      <trkpt lat="46.51009" lon="-1.75923">
        <ele>-494.39999389648</ele>
        <time>2021-03-23T07:57:18Z</time>
      </trkpt>
      <trkpt lat="46.51034" lon="-1.75917">
        <ele>-494.39999389648</ele>
        <time>2021-03-23T07:57:23Z</time>
      </trkpt>
      <trkpt lat="46.51039" lon="-1.75915">
        <ele>-494.39999389648</ele>
        <time>2021-03-23T07:57:24Z</time>
      </trkpt>
      <trkpt lat="46.51043" lon="-1.75913">
        <ele>-496.20001220703</ele>
        <time>2021-03-23T07:57:25Z</time>
      </trkpt>
      <trkpt lat="46.51048" lon="-1.7591">
        <ele>-497.79998779297</ele>
        <time>2021-03-23T07:57:26Z</time>
      </trkpt>
      <trkpt lat="46.51053" lon="-1.75908">
        <ele>-499.60000610352</ele>
        <time>2021-03-23T07:57:27Z</time>
      </trkpt>
      <trkpt lat="46.51058" lon="-1.75908">
        <ele>-500</ele>
        <time>2021-03-23T07:57:28Z</time>
      </trkpt>
      <trkpt lat="46.51064" lon="-1.75908">
        <ele>-500</ele>
        <time>2021-03-23T07:57:29Z</time>
      </trkpt>
      <trkpt lat="46.51073" lon="-1.75896">
        <ele>-500</ele>
        <time>2021-03-23T07:57:31Z</time>
      </trkpt>
      <trkpt lat="46.51073" lon="-1.75896">
        <ele>-500</ele>
        <time>2021-03-23T07:57:32Z</time>
      </trkpt>
      <trkpt lat="46.51073" lon="-1.75891">
        <ele>-500</ele>
        <time>2021-03-23T07:57:33Z</time>
      </trkpt>
      <trkpt lat="46.5107" lon="-1.75883">
        <ele>-500</ele>
        <time>2021-03-23T07:57:35Z</time>
      </trkpt>
      <trkpt lat="46.51055" lon="-1.75852">
        <ele>-500</ele>
        <time>2021-03-23T07:57:43Z</time>
      </trkpt>
      <trkpt lat="46.51049" lon="-1.7583">
        <ele>-500</ele>
        <time>2021-03-23T07:57:50Z</time>
      </trkpt>
      <trkpt lat="46.51039" lon="-1.7581">
        <ele>-500</ele>
        <time>2021-03-23T07:57:57Z</time>
      </trkpt>
      <trkpt lat="46.51027" lon="-1.75808">
        <ele>-500</ele>
        <time>2021-03-23T07:58:02Z</time>
      </trkpt>
      <trkpt lat="46.51024" lon="-1.75808">
        <ele>-500</ele>
        <time>2021-03-23T07:58:06Z</time>
      </trkpt>
      <trkpt lat="46.51025" lon="-1.75806">
        <ele>-500</ele>
        <time>2021-03-23T08:06:25Z</time>
      </trkpt>
      <trkpt lat="46.51033" lon="-1.75806">
        <ele>-500</ele>
        <time>2021-03-23T08:06:29Z</time>
      </trkpt>
      <trkpt lat="46.51042" lon="-1.75816">
        <ele>-500</ele>
        <time>2021-03-23T08:06:33Z</time>
      </trkpt>
      <trkpt lat="46.5105" lon="-1.75841">
        <ele>-500</ele>
        <time>2021-03-23T08:06:38Z</time>
      </trkpt>
      <trkpt lat="46.51066" lon="-1.75881">
        <ele>-500</ele>
        <time>2021-03-23T08:06:45Z</time>
      </trkpt>
      <trkpt lat="46.51071" lon="-1.75901">
        <ele>-500</ele>
        <time>2021-03-23T08:06:49Z</time>
      </trkpt>
      <trkpt lat="46.51062" lon="-1.75906">
        <ele>-500</ele>
        <time>2021-03-23T08:06:52Z</time>
      </trkpt>
      <trkpt lat="46.51053" lon="-1.75906">
        <ele>-500</ele>
        <time>2021-03-23T08:06:54Z</time>
      </trkpt>
      <trkpt lat="46.51042" lon="-1.75905">
        <ele>-500</ele>
        <time>2021-03-23T08:06:57Z</time>
      </trkpt>
      <trkpt lat="46.5104" lon="-1.75902">
        <ele>-500</ele>
        <time>2021-03-23T08:06:58Z</time>
      </trkpt>
      <trkpt lat="46.51039" lon="-1.75896">
        <ele>-500</ele>
        <time>2021-03-23T08:07:00Z</time>
      </trkpt>
      <trkpt lat="46.51037" lon="-1.75892">
        <ele>-500</ele>
        <time>2021-03-23T08:07:02Z</time>
      </trkpt>
      <trkpt lat="46.51033" lon="-1.75882">
        <ele>-500</ele>
        <time>2021-03-23T08:07:05Z</time>
      </trkpt>
      <trkpt lat="46.51028" lon="-1.75866">
        <ele>-500</ele>
        <time>2021-03-23T08:07:08Z</time>
      </trkpt>
      <trkpt lat="46.51026" lon="-1.75861">
        <ele>-500</ele>
        <time>2021-03-23T08:07:09Z</time>
      </trkpt>
      <trkpt lat="46.51018" lon="-1.75844">
        <ele>-500</ele>
        <time>2021-03-23T08:07:12Z</time>
      </trkpt>
      <trkpt lat="46.51017" lon="-1.75839">
        <ele>-500</ele>
        <time>2021-03-23T08:07:13Z</time>
      </trkpt>
      <trkpt lat="46.51015" lon="-1.75834">
        <ele>-500</ele>
        <time>2021-03-23T08:07:14Z</time>
      </trkpt>
      <trkpt lat="46.51013" lon="-1.75828">
        <ele>-500</ele>
        <time>2021-03-23T08:07:15Z</time>
      </trkpt>
      <trkpt lat="46.51" lon="-1.75798">
        <ele>-500</ele>
        <time>2021-03-23T08:07:21Z</time>
      </trkpt>
      <trkpt lat="46.50984" lon="-1.75757">
        <ele>-500</ele>
        <time>2021-03-23T08:07:29Z</time>
      </trkpt>
      <trkpt lat="46.50981" lon="-1.75751">
        <ele>-500</ele>
        <time>2021-03-23T08:07:30Z</time>
      </trkpt>
      <trkpt lat="46.50969" lon="-1.75745">
        <ele>-500</ele>
        <time>2021-03-23T08:07:33Z</time>
      </trkpt>
      <trkpt lat="46.50965" lon="-1.75744">
        <ele>-500</ele>
        <time>2021-03-23T08:07:34Z</time>
      </trkpt>
      <trkpt lat="46.50947" lon="-1.75747">
        <ele>-500</ele>
        <time>2021-03-23T08:07:39Z</time>
      </trkpt>
      <trkpt lat="46.50941" lon="-1.7575">
        <ele>-500</ele>
        <time>2021-03-23T08:07:42Z</time>
      </trkpt>
      <trkpt lat="46.5094" lon="-1.75747">
        <ele>-500</ele>
        <time>2021-03-23T08:07:43Z</time>
      </trkpt>
      <trkpt lat="46.50943" lon="-1.75736">
        <ele>-500</ele>
        <time>2021-03-23T08:07:46Z</time>
      </trkpt>
      <trkpt lat="46.50945" lon="-1.7573">
        <ele>-500</ele>
        <time>2021-03-23T08:07:47Z</time>
      </trkpt>
      <trkpt lat="46.50946" lon="-1.75722">
        <ele>-500</ele>
        <time>2021-03-23T08:07:48Z</time>
      </trkpt>
      <trkpt lat="46.50949" lon="-1.75697">
        <ele>-500</ele>
        <time>2021-03-23T08:07:51Z</time>
      </trkpt>
      <trkpt lat="46.50949" lon="-1.75689">
        <ele>-500</ele>
        <time>2021-03-23T08:07:52Z</time>
      </trkpt>
      <trkpt lat="46.50948" lon="-1.75664">
        <ele>-500</ele>
        <time>2021-03-23T08:07:56Z</time>
      </trkpt>
      <trkpt lat="46.50947" lon="-1.75651">
        <ele>-500</ele>
        <time>2021-03-23T08:07:58Z</time>
      </trkpt>
      <trkpt lat="46.50946" lon="-1.75644">
        <ele>-500</ele>
        <time>2021-03-23T08:07:59Z</time>
      </trkpt>
      <trkpt lat="46.50945" lon="-1.75638">
        <ele>-499.79998779297</ele>
        <time>2021-03-23T08:08:00Z</time>
      </trkpt>
      <trkpt lat="46.50944" lon="-1.75631">
        <ele>-499.39999389648</ele>
        <time>2021-03-23T08:08:01Z</time>
      </trkpt>
      <trkpt lat="46.50943" lon="-1.75624">
        <ele>-499</ele>
        <time>2021-03-23T08:08:02Z</time>
      </trkpt>
      <trkpt lat="46.50943" lon="-1.75617">
        <ele>-499</ele>
        <time>2021-03-23T08:08:03Z</time>
      </trkpt>
      <trkpt lat="46.50937" lon="-1.75574">
        <ele>-499</ele>
        <time>2021-03-23T08:08:10Z</time>
      </trkpt>
      <trkpt lat="46.5093" lon="-1.75536">
        <ele>-499</ele>
        <time>2021-03-23T08:08:16Z</time>
      </trkpt>
      <trkpt lat="46.50921" lon="-1.75486">
        <ele>-498.60000610352</ele>
        <time>2021-03-23T08:08:24Z</time>
      </trkpt>
      <trkpt lat="46.5092" lon="-1.7548">
        <ele>-498.20001220703</ele>
        <time>2021-03-23T08:08:25Z</time>
      </trkpt>
      <trkpt lat="46.5092" lon="-1.75473">
        <ele>-497.79998779297</ele>
        <time>2021-03-23T08:08:26Z</time>
      </trkpt>
      <trkpt lat="46.50919" lon="-1.75467">
        <ele>-497</ele>
        <time>2021-03-23T08:08:27Z</time>
      </trkpt>
      <trkpt lat="46.50917" lon="-1.75446">
        <ele>-497</ele>
        <time>2021-03-23T08:08:30Z</time>
      </trkpt>
      <trkpt lat="46.50915" lon="-1.754">
        <ele>-497</ele>
        <time>2021-03-23T08:08:37Z</time>
      </trkpt>
      <trkpt lat="46.50917" lon="-1.75339">
        <ele>-497</ele>
        <time>2021-03-23T08:08:46Z</time>
      </trkpt>
      <trkpt lat="46.50919" lon="-1.75275">
        <ele>-497</ele>
        <time>2021-03-23T08:08:55Z</time>
      </trkpt>
      <trkpt lat="46.5092" lon="-1.75238">
        <ele>-497</ele>
        <time>2021-03-23T08:09:01Z</time>
      </trkpt>
      <trkpt lat="46.50917" lon="-1.75203">
        <ele>-497</ele>
        <time>2021-03-23T08:09:07Z</time>
      </trkpt>
      <trkpt lat="46.50914" lon="-1.75188">
        <ele>-496.39999389648</ele>
        <time>2021-03-23T08:09:09Z</time>
      </trkpt>
      <trkpt lat="46.50912" lon="-1.7518">
        <ele>-496</ele>
        <time>2021-03-23T08:09:10Z</time>
      </trkpt>
      <trkpt lat="46.50911" lon="-1.75173">
        <ele>-495.60000610352</ele>
        <time>2021-03-23T08:09:11Z</time>
      </trkpt>
      <trkpt lat="46.50909" lon="-1.75166">
        <ele>-495.20001220703</ele>
        <time>2021-03-23T08:09:12Z</time>
      </trkpt>
      <trkpt lat="46.50907" lon="-1.75159">
        <ele>-494.79998779297</ele>
        <time>2021-03-23T08:09:13Z</time>
      </trkpt>
      <trkpt lat="46.50896" lon="-1.75118">
        <ele>-494.79998779297</ele>
        <time>2021-03-23T08:09:19Z</time>
      </trkpt>
      <trkpt lat="46.50882" lon="-1.75061">
        <ele>-494.79998779297</ele>
        <time>2021-03-23T08:09:28Z</time>
      </trkpt>
      <trkpt lat="46.50874" lon="-1.75026">
        <ele>-494.79998779297</ele>
        <time>2021-03-23T08:09:33Z</time>
      </trkpt>
      <trkpt lat="46.50873" lon="-1.75019">
        <ele>-494.39999389648</ele>
        <time>2021-03-23T08:09:34Z</time>
      </trkpt>
      <trkpt lat="46.50871" lon="-1.75013">
        <ele>-493.79998779297</ele>
        <time>2021-03-23T08:09:35Z</time>
      </trkpt>
      <trkpt lat="46.50869" lon="-1.75006">
        <ele>-493.39999389648</ele>
        <time>2021-03-23T08:09:36Z</time>
      </trkpt>
      <trkpt lat="46.50868" lon="-1.74999">
        <ele>-493</ele>
        <time>2021-03-23T08:09:37Z</time>
      </trkpt>
      <trkpt lat="46.50866" lon="-1.74992">
        <ele>-492.60000610352</ele>
        <time>2021-03-23T08:09:38Z</time>
      </trkpt>
      <trkpt lat="46.50863" lon="-1.74979">
        <ele>-492.60000610352</ele>
        <time>2021-03-23T08:09:40Z</time>
      </trkpt>
      <trkpt lat="46.50849" lon="-1.7493">
        <ele>-492.60000610352</ele>
        <time>2021-03-23T08:09:48Z</time>
      </trkpt>
      <trkpt lat="46.50841" lon="-1.74913">
        <ele>-492.60000610352</ele>
        <time>2021-03-23T08:09:51Z</time>
      </trkpt>
      <trkpt lat="46.50834" lon="-1.74905">
        <ele>-492.60000610352</ele>
        <time>2021-03-23T08:09:53Z</time>
      </trkpt>
      <trkpt lat="46.50823" lon="-1.74894">
        <ele>-492.60000610352</ele>
        <time>2021-03-23T08:09:57Z</time>
      </trkpt>
      <trkpt lat="46.50823" lon="-1.74878">
        <ele>-492.60000610352</ele>
        <time>2021-03-23T08:10:00Z</time>
      </trkpt>
      <trkpt lat="46.50823" lon="-1.74865">
        <ele>-492.60000610352</ele>
        <time>2021-03-23T08:10:02Z</time>
      </trkpt>
      <trkpt lat="46.50825" lon="-1.7484">
        <ele>-492.60000610352</ele>
        <time>2021-03-23T08:10:06Z</time>
      </trkpt>
      <trkpt lat="46.5082" lon="-1.74822">
        <ele>-492.60000610352</ele>
        <time>2021-03-23T08:10:09Z</time>
      </trkpt>
      <trkpt lat="46.50817" lon="-1.74817">
        <ele>-492.60000610352</ele>
        <time>2021-03-23T08:10:10Z</time>
      </trkpt>
      <trkpt lat="46.50815" lon="-1.74811">
        <ele>-492.60000610352</ele>
        <time>2021-03-23T08:10:11Z</time>
      </trkpt>
      <trkpt lat="46.50807" lon="-1.7479">
        <ele>-492.60000610352</ele>
        <time>2021-03-23T08:10:15Z</time>
      </trkpt>
      <trkpt lat="46.50807" lon="-1.74785">
        <ele>-492.60000610352</ele>
        <time>2021-03-23T08:10:16Z</time>
      </trkpt>
      <trkpt lat="46.50813" lon="-1.74777">
        <ele>-492.60000610352</ele>
        <time>2021-03-23T08:10:18Z</time>
      </trkpt>
      <trkpt lat="46.50827" lon="-1.74763">
        <ele>-492.60000610352</ele>
        <time>2021-03-23T08:10:22Z</time>
      </trkpt>
      <trkpt lat="46.50839" lon="-1.74755">
        <ele>-492.60000610352</ele>
        <time>2021-03-23T08:10:25Z</time>
      </trkpt>
      <trkpt lat="46.50863" lon="-1.74739">
        <ele>-492.60000610352</ele>
        <time>2021-03-23T08:10:31Z</time>
      </trkpt>
      <trkpt lat="46.50865" lon="-1.74733">
        <ele>-492.60000610352</ele>
        <time>2021-03-23T08:10:32Z</time>
      </trkpt>
      <trkpt lat="46.5087" lon="-1.74698">
        <ele>-492.60000610352</ele>
        <time>2021-03-23T08:10:37Z</time>
      </trkpt>
      <trkpt lat="46.5087" lon="-1.74676">
        <ele>-492.60000610352</ele>
        <time>2021-03-23T08:10:40Z</time>
      </trkpt>
      <trkpt lat="46.50867" lon="-1.74663">
        <ele>-492.60000610352</ele>
        <time>2021-03-23T08:10:42Z</time>
      </trkpt>
      <trkpt lat="46.50863" lon="-1.74625">
        <ele>-492.60000610352</ele>
        <time>2021-03-23T08:10:48Z</time>
      </trkpt>
      <trkpt lat="46.50859" lon="-1.74599">
        <ele>-492.60000610352</ele>
        <time>2021-03-23T08:10:53Z</time>
      </trkpt>
      <trkpt lat="46.50858" lon="-1.74593">
        <ele>-492.60000610352</ele>
        <time>2021-03-23T08:10:54Z</time>
      </trkpt>
      <trkpt lat="46.50853" lon="-1.74573">
        <ele>-492.60000610352</ele>
        <time>2021-03-23T08:10:57Z</time>
      </trkpt>
      <trkpt lat="46.50843" lon="-1.74526">
        <ele>-492.20001220703</ele>
        <time>2021-03-23T08:11:04Z</time>
      </trkpt>
      <trkpt lat="46.50842" lon="-1.74519">
        <ele>-491.79998779297</ele>
        <time>2021-03-23T08:11:05Z</time>
      </trkpt>
      <trkpt lat="46.50841" lon="-1.74513">
        <ele>-491.20001220703</ele>
        <time>2021-03-23T08:11:06Z</time>
      </trkpt>
      <trkpt lat="46.50841" lon="-1.74506">
        <ele>-490.79998779297</ele>
        <time>2021-03-23T08:11:07Z</time>
      </trkpt>
      <trkpt lat="46.5084" lon="-1.74499">
        <ele>-490.39999389648</ele>
        <time>2021-03-23T08:11:08Z</time>
      </trkpt>
      <trkpt lat="46.50835" lon="-1.74466">
        <ele>-490.39999389648</ele>
        <time>2021-03-23T08:11:13Z</time>
      </trkpt>
      <trkpt lat="46.50835" lon="-1.74451">
        <ele>-490.39999389648</ele>
        <time>2021-03-23T08:11:16Z</time>
      </trkpt>
      <trkpt lat="46.50838" lon="-1.74446">
        <ele>-490.39999389648</ele>
        <time>2021-03-23T08:11:17Z</time>
      </trkpt>
      <trkpt lat="46.50847" lon="-1.74433">
        <ele>-490.39999389648</ele>
        <time>2021-03-23T08:11:20Z</time>
      </trkpt>
      <trkpt lat="46.50849" lon="-1.74419">
        <ele>-490.39999389648</ele>
        <time>2021-03-23T08:11:22Z</time>
      </trkpt>
      <trkpt lat="46.50846" lon="-1.744">
        <ele>-490.39999389648</ele>
        <time>2021-03-23T08:11:25Z</time>
      </trkpt>
      <trkpt lat="46.50844" lon="-1.74386">
        <ele>-490.39999389648</ele>
        <time>2021-03-23T08:11:27Z</time>
      </trkpt>
      <trkpt lat="46.50838" lon="-1.74369">
        <ele>-490.39999389648</ele>
        <time>2021-03-23T08:11:31Z</time>
      </trkpt>
      <trkpt lat="46.50836" lon="-1.74368">
        <ele>-490.39999389648</ele>
        <time>2021-03-23T08:11:32Z</time>
      </trkpt>
      <trkpt lat="46.50828" lon="-1.74367">
        <ele>-490.39999389648</ele>
        <time>2021-03-23T08:11:35Z</time>
      </trkpt>
      <trkpt lat="46.50825" lon="-1.74366">
        <ele>-490.39999389648</ele>
        <time>2021-03-23T08:11:36Z</time>
      </trkpt>
      <trkpt lat="46.50823" lon="-1.74362">
        <ele>-490.39999389648</ele>
        <time>2021-03-23T08:11:37Z</time>
      </trkpt>
      <trkpt lat="46.50822" lon="-1.74356">
        <ele>-490.39999389648</ele>
        <time>2021-03-23T08:11:38Z</time>
      </trkpt>
      <trkpt lat="46.5082" lon="-1.74335">
        <ele>-490.39999389648</ele>
        <time>2021-03-23T08:11:41Z</time>
      </trkpt>
      <trkpt lat="46.50816" lon="-1.74321">
        <ele>-490.39999389648</ele>
        <time>2021-03-23T08:11:43Z</time>
      </trkpt>
      <trkpt lat="46.50801" lon="-1.74271">
        <ele>-490.39999389648</ele>
        <time>2021-03-23T08:11:51Z</time>
      </trkpt>
      <trkpt lat="46.50796" lon="-1.74244">
        <ele>-490.39999389648</ele>
        <time>2021-03-23T08:11:55Z</time>
      </trkpt>
      <trkpt lat="46.50794" lon="-1.74225">
        <ele>-490.39999389648</ele>
        <time>2021-03-23T08:11:58Z</time>
      </trkpt>
      <trkpt lat="46.50792" lon="-1.74214">
        <ele>-490.39999389648</ele>
        <time>2021-03-23T08:12:00Z</time>
      </trkpt>
      <trkpt lat="46.50789" lon="-1.74195">
        <ele>-490.39999389648</ele>
        <time>2021-03-23T08:12:03Z</time>
      </trkpt>
      <trkpt lat="46.50779" lon="-1.74137">
        <ele>-490.39999389648</ele>
        <time>2021-03-23T08:12:12Z</time>
      </trkpt>
      <trkpt lat="46.50767" lon="-1.74098">
        <ele>-490.39999389648</ele>
        <time>2021-03-23T08:12:19Z</time>
      </trkpt>
      <trkpt lat="46.50768" lon="-1.74089">
        <ele>-490.39999389648</ele>
        <time>2021-03-23T08:12:21Z</time>
      </trkpt>
      <trkpt lat="46.50771" lon="-1.74086">
        <ele>-490.39999389648</ele>
        <time>2021-03-23T08:12:22Z</time>
      </trkpt>
      <trkpt lat="46.50784" lon="-1.74071">
        <ele>-490.39999389648</ele>
        <time>2021-03-23T08:12:26Z</time>
      </trkpt>
      <trkpt lat="46.50787" lon="-1.74067">
        <ele>-490.39999389648</ele>
        <time>2021-03-23T08:12:27Z</time>
      </trkpt>
      <trkpt lat="46.50796" lon="-1.74053">
        <ele>-490.39999389648</ele>
        <time>2021-03-23T08:12:31Z</time>
      </trkpt>
      <trkpt lat="46.50792" lon="-1.74034">
        <ele>-490.39999389648</ele>
        <time>2021-03-23T08:12:35Z</time>
      </trkpt>
      <trkpt lat="46.50791" lon="-1.74029">
        <ele>-490</ele>
        <time>2021-03-23T08:12:36Z</time>
      </trkpt>
      <trkpt lat="46.5079" lon="-1.74025">
        <ele>-489.60000610352</ele>
        <time>2021-03-23T08:12:37Z</time>
      </trkpt>
      <trkpt lat="46.50788" lon="-1.7402">
        <ele>-489</ele>
        <time>2021-03-23T08:12:38Z</time>
      </trkpt>
      <trkpt lat="46.50788" lon="-1.74014">
        <ele>-488.60000610352</ele>
        <time>2021-03-23T08:12:39Z</time>
      </trkpt>
      <trkpt lat="46.50787" lon="-1.74007">
        <ele>-488.20001220703</ele>
        <time>2021-03-23T08:12:40Z</time>
      </trkpt>
      <trkpt lat="46.50783" lon="-1.73953">
        <ele>-488.20001220703</ele>
        <time>2021-03-23T08:12:48Z</time>
      </trkpt>
      <trkpt lat="46.50775" lon="-1.7388">
        <ele>-488.20001220703</ele>
        <time>2021-03-23T08:12:58Z</time>
      </trkpt>
      <trkpt lat="46.5077" lon="-1.7382">
        <ele>-488.20001220703</ele>
        <time>2021-03-23T08:13:06Z</time>
      </trkpt>
      <trkpt lat="46.50767" lon="-1.7379">
        <ele>-488.60000610352</ele>
        <time>2021-03-23T08:13:10Z</time>
      </trkpt>
      <trkpt lat="46.50766" lon="-1.73782">
        <ele>-489</ele>
        <time>2021-03-23T08:13:11Z</time>
      </trkpt>
      <trkpt lat="46.50765" lon="-1.73774">
        <ele>-489.60000610352</ele>
        <time>2021-03-23T08:13:12Z</time>
      </trkpt>
      <trkpt lat="46.50764" lon="-1.73767">
        <ele>-490</ele>
        <time>2021-03-23T08:13:13Z</time>
      </trkpt>
      <trkpt lat="46.50763" lon="-1.73759">
        <ele>-490.39999389648</ele>
        <time>2021-03-23T08:13:14Z</time>
      </trkpt>
      <trkpt lat="46.5076" lon="-1.73733">
        <ele>-490.39999389648</ele>
        <time>2021-03-23T08:13:17Z</time>
      </trkpt>
      <trkpt lat="46.50756" lon="-1.73689">
        <ele>-490.79998779297</ele>
        <time>2021-03-23T08:13:22Z</time>
      </trkpt>
      <trkpt lat="46.50756" lon="-1.7368">
        <ele>-491.79998779297</ele>
        <time>2021-03-23T08:13:23Z</time>
      </trkpt>
      <trkpt lat="46.50755" lon="-1.73672">
        <ele>-492.20001220703</ele>
        <time>2021-03-23T08:13:24Z</time>
      </trkpt>
      <trkpt lat="46.50754" lon="-1.73664">
        <ele>-492.60000610352</ele>
        <time>2021-03-23T08:13:25Z</time>
      </trkpt>
      <trkpt lat="46.50749" lon="-1.73625">
        <ele>-492.60000610352</ele>
        <time>2021-03-23T08:13:30Z</time>
      </trkpt>
      <trkpt lat="46.50747" lon="-1.73603">
        <ele>-492.60000610352</ele>
        <time>2021-03-23T08:13:33Z</time>
      </trkpt>
      <trkpt lat="46.50745" lon="-1.73592">
        <ele>-492.60000610352</ele>
        <time>2021-03-23T08:13:35Z</time>
      </trkpt>
      <trkpt lat="46.5074" lon="-1.73584">
        <ele>-492.60000610352</ele>
        <time>2021-03-23T08:13:37Z</time>
      </trkpt>
      <trkpt lat="46.50736" lon="-1.73583">
        <ele>-492.60000610352</ele>
        <time>2021-03-23T08:13:38Z</time>
      </trkpt>
      <trkpt lat="46.50732" lon="-1.73584">
        <ele>-492.20001220703</ele>
        <time>2021-03-23T08:13:39Z</time>
      </trkpt>
      <trkpt lat="46.50727" lon="-1.73585">
        <ele>-491.79998779297</ele>
        <time>2021-03-23T08:13:40Z</time>
      </trkpt>
      <trkpt lat="46.50722" lon="-1.73585">
        <ele>-491.39999389648</ele>
        <time>2021-03-23T08:13:41Z</time>
      </trkpt>
      <trkpt lat="46.50717" lon="-1.73584">
        <ele>-491</ele>
        <time>2021-03-23T08:13:42Z</time>
      </trkpt>
      <trkpt lat="46.50712" lon="-1.73584">
        <ele>-490.60000610352</ele>
        <time>2021-03-23T08:13:43Z</time>
      </trkpt>
      <trkpt lat="46.50702" lon="-1.73581">
        <ele>-490.60000610352</ele>
        <time>2021-03-23T08:13:45Z</time>
      </trkpt>
      <trkpt lat="46.50693" lon="-1.73575">
        <ele>-490.60000610352</ele>
        <time>2021-03-23T08:13:47Z</time>
      </trkpt>
      <trkpt lat="46.50684" lon="-1.73566">
        <ele>-490.60000610352</ele>
        <time>2021-03-23T08:13:49Z</time>
      </trkpt>
      <trkpt lat="46.50675" lon="-1.73558">
        <ele>-490.60000610352</ele>
        <time>2021-03-23T08:13:51Z</time>
      </trkpt>
      <trkpt lat="46.50669" lon="-1.73555">
        <ele>-490.60000610352</ele>
        <time>2021-03-23T08:13:52Z</time>
      </trkpt>
      <trkpt lat="46.50652" lon="-1.73551">
        <ele>-490.60000610352</ele>
        <time>2021-03-23T08:13:55Z</time>
      </trkpt>
      <trkpt lat="46.50641" lon="-1.73549">
        <ele>-490.60000610352</ele>
        <time>2021-03-23T08:13:57Z</time>
      </trkpt>
      <trkpt lat="46.50624" lon="-1.73542">
        <ele>-490.60000610352</ele>
        <time>2021-03-23T08:14:01Z</time>
      </trkpt>
      <trkpt lat="46.50616" lon="-1.73538">
        <ele>-490.60000610352</ele>
        <time>2021-03-23T08:14:03Z</time>
      </trkpt>
      <trkpt lat="46.50603" lon="-1.73528">
        <ele>-490.60000610352</ele>
        <time>2021-03-23T08:14:07Z</time>
      </trkpt>
      <trkpt lat="46.50601" lon="-1.73522">
        <ele>-490.60000610352</ele>
        <time>2021-03-23T08:14:08Z</time>
      </trkpt>
      <trkpt lat="46.506" lon="-1.73517">
        <ele>-490</ele>
        <time>2021-03-23T08:14:09Z</time>
      </trkpt>
      <trkpt lat="46.50599" lon="-1.73511">
        <ele>-489.60000610352</ele>
        <time>2021-03-23T08:14:10Z</time>
      </trkpt>
      <trkpt lat="46.506" lon="-1.73505">
        <ele>-489.20001220703</ele>
        <time>2021-03-23T08:14:11Z</time>
      </trkpt>
      <trkpt lat="46.50599" lon="-1.73499">
        <ele>-488.20001220703</ele>
        <time>2021-03-23T08:14:12Z</time>
      </trkpt>
      <trkpt lat="46.50596" lon="-1.73473">
        <ele>-488.20001220703</ele>
        <time>2021-03-23T08:14:16Z</time>
      </trkpt>
      <trkpt lat="46.50588" lon="-1.73468">
        <ele>-488.20001220703</ele>
        <time>2021-03-23T08:14:18Z</time>
      </trkpt>
      <trkpt lat="46.50579" lon="-1.73469">
        <ele>-488.20001220703</ele>
        <time>2021-03-23T08:14:20Z</time>
      </trkpt>
      <trkpt lat="46.50569" lon="-1.7347">
        <ele>-488.20001220703</ele>
        <time>2021-03-23T08:14:22Z</time>
      </trkpt>
      <trkpt lat="46.50564" lon="-1.73471">
        <ele>-488.20001220703</ele>
        <time>2021-03-23T08:14:23Z</time>
      </trkpt>
      <trkpt lat="46.50545" lon="-1.73471">
        <ele>-488.20001220703</ele>
        <time>2021-03-23T08:14:27Z</time>
      </trkpt>
      <trkpt lat="46.50533" lon="-1.73458">
        <ele>-488.20001220703</ele>
        <time>2021-03-23T08:14:30Z</time>
      </trkpt>
      <trkpt lat="46.50528" lon="-1.73444">
        <ele>-488.20001220703</ele>
        <time>2021-03-23T08:14:32Z</time>
      </trkpt>
      <trkpt lat="46.50526" lon="-1.73436">
        <ele>-488.20001220703</ele>
        <time>2021-03-23T08:14:33Z</time>
      </trkpt>
      <trkpt lat="46.50522" lon="-1.73422">
        <ele>-488.20001220703</ele>
        <time>2021-03-23T08:14:35Z</time>
      </trkpt>
      <trkpt lat="46.50514" lon="-1.73395">
        <ele>-487.79998779297</ele>
        <time>2021-03-23T08:14:39Z</time>
      </trkpt>
      <trkpt lat="46.50512" lon="-1.73388">
        <ele>-487.39999389648</ele>
        <time>2021-03-23T08:14:40Z</time>
      </trkpt>
      <trkpt lat="46.5051" lon="-1.73381">
        <ele>-487</ele>
        <time>2021-03-23T08:14:41Z</time>
      </trkpt>
      <trkpt lat="46.50508" lon="-1.73375">
        <ele>-486.60000610352</ele>
        <time>2021-03-23T08:14:42Z</time>
      </trkpt>
      <trkpt lat="46.50507" lon="-1.73368">
        <ele>-486.20001220703</ele>
        <time>2021-03-23T08:14:43Z</time>
      </trkpt>
      <trkpt lat="46.50498" lon="-1.73328">
        <ele>-486.20001220703</ele>
        <time>2021-03-23T08:14:49Z</time>
      </trkpt>
      <trkpt lat="46.50496" lon="-1.73321">
        <ele>-486.20001220703</ele>
        <time>2021-03-23T08:14:50Z</time>
      </trkpt>
      <trkpt lat="46.50494" lon="-1.73286">
        <ele>-486.20001220703</ele>
        <time>2021-03-23T08:14:56Z</time>
      </trkpt>
      <trkpt lat="46.50501" lon="-1.73273">
        <ele>-486.20001220703</ele>
        <time>2021-03-23T08:14:59Z</time>
      </trkpt>
      <trkpt lat="46.50517" lon="-1.73269">
        <ele>-486.20001220703</ele>
        <time>2021-03-23T08:15:03Z</time>
      </trkpt>
      <trkpt lat="46.50539" lon="-1.73264">
        <ele>-486.20001220703</ele>
        <time>2021-03-23T08:15:08Z</time>
      </trkpt>
      <trkpt lat="46.50545" lon="-1.73253">
        <ele>-486.20001220703</ele>
        <time>2021-03-23T08:15:10Z</time>
      </trkpt>
      <trkpt lat="46.50545" lon="-1.73246">
        <ele>-485.79998779297</ele>
        <time>2021-03-23T08:15:11Z</time>
      </trkpt>
      <trkpt lat="46.50545" lon="-1.7324">
        <ele>-485.20001220703</ele>
        <time>2021-03-23T08:15:12Z</time>
      </trkpt>
      <trkpt lat="46.50544" lon="-1.73233">
        <ele>-484.60000610352</ele>
        <time>2021-03-23T08:15:13Z</time>
      </trkpt>
      <trkpt lat="46.50544" lon="-1.73226">
        <ele>-484.20001220703</ele>
        <time>2021-03-23T08:15:14Z</time>
      </trkpt>
      <trkpt lat="46.50543" lon="-1.73219">
        <ele>-483.60000610352</ele>
        <time>2021-03-23T08:15:15Z</time>
      </trkpt>
      <trkpt lat="46.50543" lon="-1.73211">
        <ele>-483.20001220703</ele>
        <time>2021-03-23T08:15:16Z</time>
      </trkpt>
      <trkpt lat="46.50543" lon="-1.73205">
        <ele>-482.60000610352</ele>
        <time>2021-03-23T08:15:17Z</time>
      </trkpt>
      <trkpt lat="46.50543" lon="-1.73198">
        <ele>-482.20001220703</ele>
        <time>2021-03-23T08:15:18Z</time>
      </trkpt>
      <trkpt lat="46.50542" lon="-1.73192">
        <ele>-481.60000610352</ele>
        <time>2021-03-23T08:15:19Z</time>
      </trkpt>
      <trkpt lat="46.50541" lon="-1.73174">
        <ele>-481.60000610352</ele>
        <time>2021-03-23T08:15:22Z</time>
      </trkpt>
      <trkpt lat="46.50533" lon="-1.73168">
        <ele>-481.60000610352</ele>
        <time>2021-03-23T08:15:24Z</time>
      </trkpt>
      <trkpt lat="46.50518" lon="-1.73172">
        <ele>-481.60000610352</ele>
        <time>2021-03-23T08:15:27Z</time>
      </trkpt>
      <trkpt lat="46.50508" lon="-1.73159">
        <ele>-481.60000610352</ele>
        <time>2021-03-23T08:15:30Z</time>
      </trkpt>
      <trkpt lat="46.50506" lon="-1.73137">
        <ele>-481.60000610352</ele>
        <time>2021-03-23T08:15:33Z</time>
      </trkpt>
      <trkpt lat="46.50506" lon="-1.73129">
        <ele>-481.60000610352</ele>
        <time>2021-03-23T08:15:34Z</time>
      </trkpt>
      <trkpt lat="46.50502" lon="-1.73074">
        <ele>-481.60000610352</ele>
        <time>2021-03-23T08:15:42Z</time>
      </trkpt>
      <trkpt lat="46.505" lon="-1.73028">
        <ele>-481.60000610352</ele>
        <time>2021-03-23T08:15:49Z</time>
      </trkpt>
      <trkpt lat="46.505" lon="-1.73021">
        <ele>-481.60000610352</ele>
        <time>2021-03-23T08:15:50Z</time>
      </trkpt>
      <trkpt lat="46.50505" lon="-1.73001">
        <ele>-481.60000610352</ele>
        <time>2021-03-23T08:15:53Z</time>
      </trkpt>
      <trkpt lat="46.5051" lon="-1.72988">
        <ele>-481.60000610352</ele>
        <time>2021-03-23T08:15:55Z</time>
      </trkpt>
      <trkpt lat="46.50518" lon="-1.7296">
        <ele>-481.60000610352</ele>
        <time>2021-03-23T08:15:59Z</time>
      </trkpt>
      <trkpt lat="46.5052" lon="-1.72914">
        <ele>-481.60000610352</ele>
        <time>2021-03-23T08:16:05Z</time>
      </trkpt>
      <trkpt lat="46.50524" lon="-1.72872">
        <ele>-481.60000610352</ele>
        <time>2021-03-23T08:16:11Z</time>
      </trkpt>
      <trkpt lat="46.50526" lon="-1.72832">
        <ele>-481.60000610352</ele>
        <time>2021-03-23T08:16:17Z</time>
      </trkpt>
      <trkpt lat="46.50532" lon="-1.72779">
        <ele>-481.60000610352</ele>
        <time>2021-03-23T08:16:25Z</time>
      </trkpt>
      <trkpt lat="46.50539" lon="-1.72732">
        <ele>-481.60000610352</ele>
        <time>2021-03-23T08:16:31Z</time>
      </trkpt>
      <trkpt lat="46.50542" lon="-1.72709">
        <ele>-481.20001220703</ele>
        <time>2021-03-23T08:16:34Z</time>
      </trkpt>
      <trkpt lat="46.50543" lon="-1.72701">
        <ele>-480.79998779297</ele>
        <time>2021-03-23T08:16:35Z</time>
      </trkpt>
      <trkpt lat="46.50544" lon="-1.72694">
        <ele>-480.39999389648</ele>
        <time>2021-03-23T08:16:36Z</time>
      </trkpt>
      <trkpt lat="46.50545" lon="-1.72687">
        <ele>-480</ele>
        <time>2021-03-23T08:16:37Z</time>
      </trkpt>
      <trkpt lat="46.50546" lon="-1.7268">
        <ele>-479.60000610352</ele>
        <time>2021-03-23T08:16:38Z</time>
      </trkpt>
      <trkpt lat="46.50553" lon="-1.72636">
        <ele>-479.60000610352</ele>
        <time>2021-03-23T08:16:44Z</time>
      </trkpt>
      <trkpt lat="46.50555" lon="-1.72629">
        <ele>-479.60000610352</ele>
        <time>2021-03-23T08:16:45Z</time>
      </trkpt>
      <trkpt lat="46.50556" lon="-1.72622">
        <ele>-479.20001220703</ele>
        <time>2021-03-23T08:16:46Z</time>
      </trkpt>
      <trkpt lat="46.50558" lon="-1.72614">
        <ele>-478.60000610352</ele>
        <time>2021-03-23T08:16:47Z</time>
      </trkpt>
      <trkpt lat="46.50561" lon="-1.72607">
        <ele>-478.20001220703</ele>
        <time>2021-03-23T08:16:48Z</time>
      </trkpt>
      <trkpt lat="46.50563" lon="-1.72601">
        <ele>-477.79998779297</ele>
        <time>2021-03-23T08:16:49Z</time>
      </trkpt>
      <trkpt lat="46.50566" lon="-1.72594">
        <ele>-477.39999389648</ele>
        <time>2021-03-23T08:16:50Z</time>
      </trkpt>
      <trkpt lat="46.50568" lon="-1.72588">
        <ele>-477.39999389648</ele>
        <time>2021-03-23T08:16:51Z</time>
      </trkpt>
      <trkpt lat="46.50589" lon="-1.72538">
        <ele>-477.39999389648</ele>
        <time>2021-03-23T08:16:59Z</time>
      </trkpt>
      <trkpt lat="46.50593" lon="-1.72526">
        <ele>-477.39999389648</ele>
        <time>2021-03-23T08:17:01Z</time>
      </trkpt>
      <trkpt lat="46.50592" lon="-1.72506">
        <ele>-477.39999389648</ele>
        <time>2021-03-23T08:17:04Z</time>
      </trkpt>
      <trkpt lat="46.50579" lon="-1.72495">
        <ele>-477.39999389648</ele>
        <time>2021-03-23T08:17:07Z</time>
      </trkpt>
      <trkpt lat="46.50569" lon="-1.72489">
        <ele>-477.39999389648</ele>
        <time>2021-03-23T08:17:09Z</time>
      </trkpt>
      <trkpt lat="46.50542" lon="-1.72473">
        <ele>-477.39999389648</ele>
        <time>2021-03-23T08:17:15Z</time>
      </trkpt>
      <trkpt lat="46.50523" lon="-1.72466">
        <ele>-477.39999389648</ele>
        <time>2021-03-23T08:17:21Z</time>
      </trkpt>
      <trkpt lat="46.50518" lon="-1.72459">
        <ele>-477.39999389648</ele>
        <time>2021-03-23T08:17:24Z</time>
      </trkpt>
      <trkpt lat="46.50519" lon="-1.7244">
        <ele>-477.39999389648</ele>
        <time>2021-03-23T08:17:28Z</time>
      </trkpt>
      <trkpt lat="46.50525" lon="-1.72419">
        <ele>-477.39999389648</ele>
        <time>2021-03-23T08:17:32Z</time>
      </trkpt>
      <trkpt lat="46.50522" lon="-1.72409">
        <ele>-477.39999389648</ele>
        <time>2021-03-23T08:17:35Z</time>
      </trkpt>
      <trkpt lat="46.50523" lon="-1.72405">
        <ele>-477.39999389648</ele>
        <time>2021-03-23T08:17:36Z</time>
      </trkpt>
      <trkpt lat="46.50528" lon="-1.72382">
        <ele>-477.39999389648</ele>
        <time>2021-03-23T08:17:40Z</time>
      </trkpt>
      <trkpt lat="46.50538" lon="-1.72345">
        <ele>-477.39999389648</ele>
        <time>2021-03-23T08:17:45Z</time>
      </trkpt>
      <trkpt lat="46.50558" lon="-1.72272">
        <ele>-477</ele>
        <time>2021-03-23T08:17:55Z</time>
      </trkpt>
      <trkpt lat="46.5056" lon="-1.72265">
        <ele>-476.60000610352</ele>
        <time>2021-03-23T08:17:56Z</time>
      </trkpt>
      <trkpt lat="46.50562" lon="-1.72258">
        <ele>-476.20001220703</ele>
        <time>2021-03-23T08:17:57Z</time>
      </trkpt>
      <trkpt lat="46.50564" lon="-1.72251">
        <ele>-475.79998779297</ele>
        <time>2021-03-23T08:17:58Z</time>
      </trkpt>
      <trkpt lat="46.50566" lon="-1.72244">
        <ele>-475.39999389648</ele>
        <time>2021-03-23T08:17:59Z</time>
      </trkpt>
      <trkpt lat="46.50573" lon="-1.72218">
        <ele>-475.39999389648</ele>
        <time>2021-03-23T08:18:03Z</time>
      </trkpt>
      <trkpt lat="46.50582" lon="-1.72188">
        <ele>-475.39999389648</ele>
        <time>2021-03-23T08:18:08Z</time>
      </trkpt>
      <trkpt lat="46.50587" lon="-1.72168">
        <ele>-475.39999389648</ele>
        <time>2021-03-23T08:18:11Z</time>
      </trkpt>
      <trkpt lat="46.50594" lon="-1.72144">
        <ele>-475</ele>
        <time>2021-03-23T08:18:15Z</time>
      </trkpt>
      <trkpt lat="46.50595" lon="-1.72139">
        <ele>-474.39999389648</ele>
        <time>2021-03-23T08:18:16Z</time>
      </trkpt>
      <trkpt lat="46.50597" lon="-1.72133">
        <ele>-474</ele>
        <time>2021-03-23T08:18:17Z</time>
      </trkpt>
      <trkpt lat="46.50599" lon="-1.72127">
        <ele>-473.60000610352</ele>
        <time>2021-03-23T08:18:18Z</time>
      </trkpt>
      <trkpt lat="46.506" lon="-1.72122">
        <ele>-473.20001220703</ele>
        <time>2021-03-23T08:18:19Z</time>
      </trkpt>
      <trkpt lat="46.50613" lon="-1.72083">
        <ele>-473.20001220703</ele>
        <time>2021-03-23T08:18:26Z</time>
      </trkpt>
      <trkpt lat="46.50617" lon="-1.72072">
        <ele>-473.20001220703</ele>
        <time>2021-03-23T08:18:28Z</time>
      </trkpt>
      <trkpt lat="46.50619" lon="-1.72066">
        <ele>-472.79998779297</ele>
        <time>2021-03-23T08:18:29Z</time>
      </trkpt>
      <trkpt lat="46.50621" lon="-1.7206">
        <ele>-472.39999389648</ele>
        <time>2021-03-23T08:18:30Z</time>
      </trkpt>
      <trkpt lat="46.50623" lon="-1.72055">
        <ele>-472</ele>
        <time>2021-03-23T08:18:31Z</time>
      </trkpt>
      <trkpt lat="46.50625" lon="-1.72049">
        <ele>-471.60000610352</ele>
        <time>2021-03-23T08:18:32Z</time>
      </trkpt>
      <trkpt lat="46.50627" lon="-1.72044">
        <ele>-471.20001220703</ele>
        <time>2021-03-23T08:18:33Z</time>
      </trkpt>
      <trkpt lat="46.50638" lon="-1.72018">
        <ele>-471.20001220703</ele>
        <time>2021-03-23T08:18:38Z</time>
      </trkpt>
      <trkpt lat="46.50649" lon="-1.7199">
        <ele>-470.79998779297</ele>
        <time>2021-03-23T08:18:43Z</time>
      </trkpt>
      <trkpt lat="46.50651" lon="-1.71984">
        <ele>-470</ele>
        <time>2021-03-23T08:18:44Z</time>
      </trkpt>
      <trkpt lat="46.50653" lon="-1.71979">
        <ele>-469.60000610352</ele>
        <time>2021-03-23T08:18:45Z</time>
      </trkpt>
      <trkpt lat="46.50656" lon="-1.71974">
        <ele>-469.20001220703</ele>
        <time>2021-03-23T08:18:46Z</time>
      </trkpt>
      <trkpt lat="46.50676" lon="-1.71933">
        <ele>-469.20001220703</ele>
        <time>2021-03-23T08:18:53Z</time>
      </trkpt>
      <trkpt lat="46.50696" lon="-1.7189">
        <ele>-468.79998779297</ele>
        <time>2021-03-23T08:19:01Z</time>
      </trkpt>
      <trkpt lat="46.50699" lon="-1.71885">
        <ele>-468.39999389648</ele>
        <time>2021-03-23T08:19:02Z</time>
      </trkpt>
      <trkpt lat="46.50702" lon="-1.71879">
        <ele>-468</ele>
        <time>2021-03-23T08:19:03Z</time>
      </trkpt>
      <trkpt lat="46.50705" lon="-1.71874">
        <ele>-467.39999389648</ele>
        <time>2021-03-23T08:19:04Z</time>
      </trkpt>
      <trkpt lat="46.50707" lon="-1.71868">
        <ele>-467</ele>
        <time>2021-03-23T08:19:05Z</time>
      </trkpt>
      <trkpt lat="46.50718" lon="-1.71847">
        <ele>-467</ele>
        <time>2021-03-23T08:19:09Z</time>
      </trkpt>
      <trkpt lat="46.50732" lon="-1.71817">
        <ele>-467</ele>
        <time>2021-03-23T08:19:15Z</time>
      </trkpt>
      <trkpt lat="46.50735" lon="-1.71812">
        <ele>-467</ele>
        <time>2021-03-23T08:19:16Z</time>
      </trkpt>
      <trkpt lat="46.50748" lon="-1.71786">
        <ele>-467</ele>
        <time>2021-03-23T08:19:21Z</time>
      </trkpt>
      <trkpt lat="46.50753" lon="-1.71778">
        <ele>-467</ele>
        <time>2021-03-23T08:19:23Z</time>
      </trkpt>
      <trkpt lat="46.50762" lon="-1.7177">
        <ele>-467</ele>
        <time>2021-03-23T08:19:27Z</time>
      </trkpt>
      <trkpt lat="46.50773" lon="-1.71782">
        <ele>-467</ele>
        <time>2021-03-23T08:19:30Z</time>
      </trkpt>
      <trkpt lat="46.50799" lon="-1.71804">
        <ele>-467</ele>
        <time>2021-03-23T08:19:36Z</time>
      </trkpt>
      <trkpt lat="46.50824" lon="-1.71814">
        <ele>-467</ele>
        <time>2021-03-23T08:19:42Z</time>
      </trkpt>
      <trkpt lat="46.5085" lon="-1.71826">
        <ele>-467</ele>
        <time>2021-03-23T08:19:49Z</time>
      </trkpt>
      <trkpt lat="46.50855" lon="-1.71828">
        <ele>-467</ele>
        <time>2021-03-23T08:19:53Z</time>
      </trkpt>
      <trkpt lat="46.50856" lon="-1.71828">
        <ele>-467</ele>
        <time>2021-03-23T08:19:56Z</time>
      </trkpt>
      <trkpt lat="46.5086" lon="-1.71835">
        <ele>-467</ele>
        <time>2021-03-23T08:20:13Z</time>
      </trkpt>
      <trkpt lat="46.50862" lon="-1.71837">
        <ele>-467</ele>
        <time>2021-03-23T08:20:14Z</time>
      </trkpt>
      <trkpt lat="46.50873" lon="-1.71843">
        <ele>-467</ele>
        <time>2021-03-23T08:20:18Z</time>
      </trkpt>
      <trkpt lat="46.50897" lon="-1.7186">
        <ele>-467</ele>
        <time>2021-03-23T08:20:23Z</time>
      </trkpt>
      <trkpt lat="46.50938" lon="-1.71889">
        <ele>-467</ele>
        <time>2021-03-23T08:20:30Z</time>
      </trkpt>
      <trkpt lat="46.50983" lon="-1.71918">
        <ele>-467</ele>
        <time>2021-03-23T08:20:37Z</time>
      </trkpt>
      <trkpt lat="46.5104" lon="-1.71946">
        <ele>-467</ele>
        <time>2021-03-23T08:20:45Z</time>
      </trkpt>
      <trkpt lat="46.51062" lon="-1.71958">
        <ele>-467.39999389648</ele>
        <time>2021-03-23T08:20:48Z</time>
      </trkpt>
      <trkpt lat="46.5107" lon="-1.71961">
        <ele>-467.79998779297</ele>
        <time>2021-03-23T08:20:49Z</time>
      </trkpt>
      <trkpt lat="46.51078" lon="-1.71963">
        <ele>-468.20001220703</ele>
        <time>2021-03-23T08:20:50Z</time>
      </trkpt>
      <trkpt lat="46.51085" lon="-1.71966">
        <ele>-468.79998779297</ele>
        <time>2021-03-23T08:20:51Z</time>
      </trkpt>
      <trkpt lat="46.51093" lon="-1.71969">
        <ele>-469.20001220703</ele>
        <time>2021-03-23T08:20:52Z</time>
      </trkpt>
      <trkpt lat="46.511" lon="-1.71971">
        <ele>-469.60000610352</ele>
        <time>2021-03-23T08:20:53Z</time>
      </trkpt>
      <trkpt lat="46.51107" lon="-1.71974">
        <ele>-470</ele>
        <time>2021-03-23T08:20:54Z</time>
      </trkpt>
      <trkpt lat="46.51114" lon="-1.71976">
        <ele>-470.60000610352</ele>
        <time>2021-03-23T08:20:55Z</time>
      </trkpt>
      <trkpt lat="46.51121" lon="-1.71979">
        <ele>-471</ele>
        <time>2021-03-23T08:20:56Z</time>
      </trkpt>
      <trkpt lat="46.51128" lon="-1.71981">
        <ele>-471.60000610352</ele>
        <time>2021-03-23T08:20:57Z</time>
      </trkpt>
      <trkpt lat="46.51135" lon="-1.71984">
        <ele>-472.20001220703</ele>
        <time>2021-03-23T08:20:58Z</time>
      </trkpt>
      <trkpt lat="46.51142" lon="-1.71986">
        <ele>-472.60000610352</ele>
        <time>2021-03-23T08:20:59Z</time>
      </trkpt>
      <trkpt lat="46.51148" lon="-1.71988">
        <ele>-473.20001220703</ele>
        <time>2021-03-23T08:21:00Z</time>
      </trkpt>
      <trkpt lat="46.51155" lon="-1.71989">
        <ele>-473.79998779297</ele>
        <time>2021-03-23T08:21:01Z</time>
      </trkpt>
      <trkpt lat="46.51175" lon="-1.71992">
        <ele>-473.79998779297</ele>
        <time>2021-03-23T08:21:04Z</time>
      </trkpt>
      <trkpt lat="46.51194" lon="-1.71994">
        <ele>-473.79998779297</ele>
        <time>2021-03-23T08:21:07Z</time>
      </trkpt>
      <trkpt lat="46.51207" lon="-1.71998">
        <ele>-473.79998779297</ele>
        <time>2021-03-23T08:21:09Z</time>
      </trkpt>
      <trkpt lat="46.51243" lon="-1.72014">
        <ele>-473.79998779297</ele>
        <time>2021-03-23T08:21:15Z</time>
      </trkpt>
      <trkpt lat="46.51274" lon="-1.72031">
        <ele>-473.79998779297</ele>
        <time>2021-03-23T08:21:21Z</time>
      </trkpt>
      <trkpt lat="46.51278" lon="-1.72035">
        <ele>-473.79998779297</ele>
        <time>2021-03-23T08:21:22Z</time>
      </trkpt>
      <trkpt lat="46.51291" lon="-1.72033">
        <ele>-473.79998779297</ele>
        <time>2021-03-23T08:21:25Z</time>
      </trkpt>
      <trkpt lat="46.513" lon="-1.72013">
        <ele>-473.79998779297</ele>
        <time>2021-03-23T08:21:28Z</time>
      </trkpt>
      <trkpt lat="46.51302" lon="-1.72006">
        <ele>-473.79998779297</ele>
        <time>2021-03-23T08:21:29Z</time>
      </trkpt>
      <trkpt lat="46.51318" lon="-1.71962">
        <ele>-473.79998779297</ele>
        <time>2021-03-23T08:21:35Z</time>
      </trkpt>
      <trkpt lat="46.51337" lon="-1.719">
        <ele>-473.79998779297</ele>
        <time>2021-03-23T08:21:43Z</time>
      </trkpt>
      <trkpt lat="46.51344" lon="-1.71871">
        <ele>-473.79998779297</ele>
        <time>2021-03-23T08:21:47Z</time>
      </trkpt>
      <trkpt lat="46.51347" lon="-1.71855">
        <ele>-473.79998779297</ele>
        <time>2021-03-23T08:21:49Z</time>
      </trkpt>
      <trkpt lat="46.51355" lon="-1.71799">
        <ele>-473.20001220703</ele>
        <time>2021-03-23T08:21:56Z</time>
      </trkpt>
      <trkpt lat="46.51355" lon="-1.7179">
        <ele>-472.79998779297</ele>
        <time>2021-03-23T08:21:57Z</time>
      </trkpt>
      <trkpt lat="46.51356" lon="-1.71783">
        <ele>-472.39999389648</ele>
        <time>2021-03-23T08:21:58Z</time>
      </trkpt>
      <trkpt lat="46.51356" lon="-1.71775">
        <ele>-472</ele>
        <time>2021-03-23T08:21:59Z</time>
      </trkpt>
      <trkpt lat="46.51356" lon="-1.71766">
        <ele>-471.60000610352</ele>
        <time>2021-03-23T08:22:00Z</time>
      </trkpt>
      <trkpt lat="46.51352" lon="-1.71735">
        <ele>-471.60000610352</ele>
        <time>2021-03-23T08:22:04Z</time>
      </trkpt>
      <trkpt lat="46.51349" lon="-1.71707">
        <ele>-471.20001220703</ele>
        <time>2021-03-23T08:22:08Z</time>
      </trkpt>
      <trkpt lat="46.51347" lon="-1.717">
        <ele>-470.79998779297</ele>
        <time>2021-03-23T08:22:09Z</time>
      </trkpt>
      <trkpt lat="46.51346" lon="-1.71693">
        <ele>-470.20001220703</ele>
        <time>2021-03-23T08:22:10Z</time>
      </trkpt>
      <trkpt lat="46.51345" lon="-1.71687">
        <ele>-469.79998779297</ele>
        <time>2021-03-23T08:22:11Z</time>
      </trkpt>
      <trkpt lat="46.51344" lon="-1.71681">
        <ele>-469.39999389648</ele>
        <time>2021-03-23T08:22:12Z</time>
      </trkpt>
      <trkpt lat="46.51341" lon="-1.71663">
        <ele>-469.39999389648</ele>
        <time>2021-03-23T08:22:16Z</time>
      </trkpt>
      <trkpt lat="46.51348" lon="-1.71652">
        <ele>-469.39999389648</ele>
        <time>2021-03-23T08:22:19Z</time>
      </trkpt>
      <trkpt lat="46.51364" lon="-1.71646">
        <ele>-469.39999389648</ele>
        <time>2021-03-23T08:22:23Z</time>
      </trkpt>
      <trkpt lat="46.51368" lon="-1.71644">
        <ele>-469.39999389648</ele>
        <time>2021-03-23T08:22:24Z</time>
      </trkpt>
      <trkpt lat="46.51372" lon="-1.71643">
        <ele>-469</ele>
        <time>2021-03-23T08:22:25Z</time>
      </trkpt>
      <trkpt lat="46.51376" lon="-1.71641">
        <ele>-468.20001220703</ele>
        <time>2021-03-23T08:22:26Z</time>
      </trkpt>
      <trkpt lat="46.5138" lon="-1.7164">
        <ele>-467.79998779297</ele>
        <time>2021-03-23T08:22:27Z</time>
      </trkpt>
      <trkpt lat="46.51384" lon="-1.71638">
        <ele>-467.39999389648</ele>
        <time>2021-03-23T08:22:28Z</time>
      </trkpt>
      <trkpt lat="46.51388" lon="-1.71637">
        <ele>-467.39999389648</ele>
        <time>2021-03-23T08:22:29Z</time>
      </trkpt>
      <trkpt lat="46.51401" lon="-1.71633">
        <ele>-467.39999389648</ele>
        <time>2021-03-23T08:22:32Z</time>
      </trkpt>
      <trkpt lat="46.51405" lon="-1.71631">
        <ele>-467</ele>
        <time>2021-03-23T08:22:33Z</time>
      </trkpt>
      <trkpt lat="46.51409" lon="-1.7163">
        <ele>-466.60000610352</ele>
        <time>2021-03-23T08:22:34Z</time>
      </trkpt>
      <trkpt lat="46.51413" lon="-1.71628">
        <ele>-466.20001220703</ele>
        <time>2021-03-23T08:22:35Z</time>
      </trkpt>
      <trkpt lat="46.51418" lon="-1.71627">
        <ele>-465.79998779297</ele>
        <time>2021-03-23T08:22:36Z</time>
      </trkpt>
      <trkpt lat="46.51422" lon="-1.71626">
        <ele>-465.39999389648</ele>
        <time>2021-03-23T08:22:37Z</time>
      </trkpt>
      <trkpt lat="46.5144" lon="-1.7162">
        <ele>-465.39999389648</ele>
        <time>2021-03-23T08:22:41Z</time>
      </trkpt>
      <trkpt lat="46.51475" lon="-1.71608">
        <ele>-465.39999389648</ele>
        <time>2021-03-23T08:22:48Z</time>
      </trkpt>
      <trkpt lat="46.5148" lon="-1.71605">
        <ele>-465.39999389648</ele>
        <time>2021-03-23T08:22:49Z</time>
      </trkpt>
      <trkpt lat="46.51505" lon="-1.71584">
        <ele>-465.39999389648</ele>
        <time>2021-03-23T08:22:54Z</time>
      </trkpt>
      <trkpt lat="46.5153" lon="-1.7155">
        <ele>-465.39999389648</ele>
        <time>2021-03-23T08:22:59Z</time>
      </trkpt>
      <trkpt lat="46.5154" lon="-1.71533">
        <ele>-465.79998779297</ele>
        <time>2021-03-23T08:23:01Z</time>
      </trkpt>
      <trkpt lat="46.51545" lon="-1.71525">
        <ele>-466.20001220703</ele>
        <time>2021-03-23T08:23:02Z</time>
      </trkpt>
      <trkpt lat="46.51551" lon="-1.71515">
        <ele>-466.60000610352</ele>
        <time>2021-03-23T08:23:03Z</time>
      </trkpt>
      <trkpt lat="46.51557" lon="-1.71506">
        <ele>-467</ele>
        <time>2021-03-23T08:23:04Z</time>
      </trkpt>
      <trkpt lat="46.51562" lon="-1.71497">
        <ele>-467.60000610352</ele>
        <time>2021-03-23T08:23:05Z</time>
      </trkpt>
      <trkpt lat="46.51568" lon="-1.71487">
        <ele>-468.20001220703</ele>
        <time>2021-03-23T08:23:06Z</time>
      </trkpt>
      <trkpt lat="46.51573" lon="-1.71478">
        <ele>-468.79998779297</ele>
        <time>2021-03-23T08:23:07Z</time>
      </trkpt>
      <trkpt lat="46.51579" lon="-1.71468">
        <ele>-469.20001220703</ele>
        <time>2021-03-23T08:23:08Z</time>
      </trkpt>
      <trkpt lat="46.51584" lon="-1.7146">
        <ele>-469.79998779297</ele>
        <time>2021-03-23T08:23:09Z</time>
      </trkpt>
      <trkpt lat="46.51602" lon="-1.71426">
        <ele>-469.79998779297</ele>
        <time>2021-03-23T08:23:13Z</time>
      </trkpt>
      <trkpt lat="46.51609" lon="-1.71412">
        <ele>-470.39999389648</ele>
        <time>2021-03-23T08:23:15Z</time>
      </trkpt>
      <trkpt lat="46.51612" lon="-1.71404">
        <ele>-470.79998779297</ele>
        <time>2021-03-23T08:23:16Z</time>
      </trkpt>
      <trkpt lat="46.51616" lon="-1.71397">
        <ele>-471.39999389648</ele>
        <time>2021-03-23T08:23:17Z</time>
      </trkpt>
      <trkpt lat="46.5162" lon="-1.71389">
        <ele>-471.79998779297</ele>
        <time>2021-03-23T08:23:18Z</time>
      </trkpt>
      <trkpt lat="46.51623" lon="-1.71381">
        <ele>-472.39999389648</ele>
        <time>2021-03-23T08:23:19Z</time>
      </trkpt>
      <trkpt lat="46.51629" lon="-1.71357">
        <ele>-472.39999389648</ele>
        <time>2021-03-23T08:23:22Z</time>
      </trkpt>
      <trkpt lat="46.51631" lon="-1.71342">
        <ele>-472.39999389648</ele>
        <time>2021-03-23T08:23:24Z</time>
      </trkpt>
      <trkpt lat="46.51631" lon="-1.71327">
        <ele>-472</ele>
        <time>2021-03-23T08:23:26Z</time>
      </trkpt>
      <trkpt lat="46.51631" lon="-1.7132">
        <ele>-471.39999389648</ele>
        <time>2021-03-23T08:23:27Z</time>
      </trkpt>
      <trkpt lat="46.5163" lon="-1.71313">
        <ele>-471</ele>
        <time>2021-03-23T08:23:28Z</time>
      </trkpt>
      <trkpt lat="46.5163" lon="-1.71306">
        <ele>-470.60000610352</ele>
        <time>2021-03-23T08:23:29Z</time>
      </trkpt>
      <trkpt lat="46.51629" lon="-1.71299">
        <ele>-470.20001220703</ele>
        <time>2021-03-23T08:23:30Z</time>
      </trkpt>
      <trkpt lat="46.51624" lon="-1.71257">
        <ele>-470.20001220703</ele>
        <time>2021-03-23T08:23:36Z</time>
      </trkpt>
      <trkpt lat="46.51622" lon="-1.7123">
        <ele>-469.79998779297</ele>
        <time>2021-03-23T08:23:40Z</time>
      </trkpt>
      <trkpt lat="46.51621" lon="-1.71222">
        <ele>-469.39999389648</ele>
        <time>2021-03-23T08:23:41Z</time>
      </trkpt>
      <trkpt lat="46.51621" lon="-1.71215">
        <ele>-469</ele>
        <time>2021-03-23T08:23:42Z</time>
      </trkpt>
      <trkpt lat="46.5162" lon="-1.71208">
        <ele>-468.60000610352</ele>
        <time>2021-03-23T08:23:43Z</time>
      </trkpt>
      <trkpt lat="46.5162" lon="-1.712">
        <ele>-468</ele>
        <time>2021-03-23T08:23:44Z</time>
      </trkpt>
      <trkpt lat="46.5162" lon="-1.71193">
        <ele>-468</ele>
        <time>2021-03-23T08:23:45Z</time>
      </trkpt>
      <trkpt lat="46.51614" lon="-1.71116">
        <ele>-468</ele>
        <time>2021-03-23T08:23:55Z</time>
      </trkpt>
      <trkpt lat="46.51603" lon="-1.71064">
        <ele>-468</ele>
        <time>2021-03-23T08:24:02Z</time>
      </trkpt>
      <trkpt lat="46.51589" lon="-1.7101">
        <ele>-468</ele>
        <time>2021-03-23T08:24:10Z</time>
      </trkpt>
      <trkpt lat="46.51573" lon="-1.7096">
        <ele>-468</ele>
        <time>2021-03-23T08:24:17Z</time>
      </trkpt>
      <trkpt lat="46.51558" lon="-1.70899">
        <ele>-468</ele>
        <time>2021-03-23T08:24:25Z</time>
      </trkpt>
      <trkpt lat="46.51552" lon="-1.70868">
        <ele>-467.60000610352</ele>
        <time>2021-03-23T08:24:29Z</time>
      </trkpt>
      <trkpt lat="46.51551" lon="-1.70861">
        <ele>-466.79998779297</ele>
        <time>2021-03-23T08:24:30Z</time>
      </trkpt>
      <trkpt lat="46.5155" lon="-1.70853">
        <ele>-466.39999389648</ele>
        <time>2021-03-23T08:24:31Z</time>
      </trkpt>
      <trkpt lat="46.51548" lon="-1.70845">
        <ele>-466</ele>
        <time>2021-03-23T08:24:32Z</time>
      </trkpt>
      <trkpt lat="46.51537" lon="-1.70768">
        <ele>-466</ele>
        <time>2021-03-23T08:24:42Z</time>
      </trkpt>
      <trkpt lat="46.51522" lon="-1.70708">
        <ele>-466</ele>
        <time>2021-03-23T08:24:50Z</time>
      </trkpt>
      <trkpt lat="46.51518" lon="-1.70701">
        <ele>-466</ele>
        <time>2021-03-23T08:24:51Z</time>
      </trkpt>
      <trkpt lat="46.51503" lon="-1.70679">
        <ele>-466</ele>
        <time>2021-03-23T08:24:55Z</time>
      </trkpt>
      <trkpt lat="46.51477" lon="-1.70653">
        <ele>-466</ele>
        <time>2021-03-23T08:25:01Z</time>
      </trkpt>
      <trkpt lat="46.51452" lon="-1.70639">
        <ele>-465.39999389648</ele>
        <time>2021-03-23T08:25:06Z</time>
      </trkpt>
      <trkpt lat="46.51447" lon="-1.70636">
        <ele>-465</ele>
        <time>2021-03-23T08:25:07Z</time>
      </trkpt>
      <trkpt lat="46.51442" lon="-1.70633">
        <ele>-464.60000610352</ele>
        <time>2021-03-23T08:25:08Z</time>
      </trkpt>
      <trkpt lat="46.51437" lon="-1.7063">
        <ele>-464.20001220703</ele>
        <time>2021-03-23T08:25:09Z</time>
      </trkpt>
      <trkpt lat="46.51431" lon="-1.70627">
        <ele>-463.79998779297</ele>
        <time>2021-03-23T08:25:10Z</time>
      </trkpt>
      <trkpt lat="46.51426" lon="-1.70624">
        <ele>-463.79998779297</ele>
        <time>2021-03-23T08:25:11Z</time>
      </trkpt>
      <trkpt lat="46.5138" lon="-1.70597">
        <ele>-463.79998779297</ele>
        <time>2021-03-23T08:25:20Z</time>
      </trkpt>
      <trkpt lat="46.51357" lon="-1.7058">
        <ele>-463.79998779297</ele>
        <time>2021-03-23T08:25:25Z</time>
      </trkpt>
      <trkpt lat="46.51354" lon="-1.70572">
        <ele>-463.79998779297</ele>
        <time>2021-03-23T08:25:26Z</time>
      </trkpt>
      <trkpt lat="46.51355" lon="-1.70548">
        <ele>-463.79998779297</ele>
        <time>2021-03-23T08:25:29Z</time>
      </trkpt>
      <trkpt lat="46.51357" lon="-1.70533">
        <ele>-463.79998779297</ele>
        <time>2021-03-23T08:25:31Z</time>
      </trkpt>
      <trkpt lat="46.51361" lon="-1.70501">
        <ele>-463.79998779297</ele>
        <time>2021-03-23T08:25:35Z</time>
      </trkpt>
      <trkpt lat="46.51371" lon="-1.70437">
        <ele>-463.79998779297</ele>
        <time>2021-03-23T08:25:43Z</time>
      </trkpt>
      <trkpt lat="46.51374" lon="-1.70421">
        <ele>-463.39999389648</ele>
        <time>2021-03-23T08:25:45Z</time>
      </trkpt>
      <trkpt lat="46.51375" lon="-1.70413">
        <ele>-463</ele>
        <time>2021-03-23T08:25:46Z</time>
      </trkpt>
      <trkpt lat="46.51377" lon="-1.70406">
        <ele>-462.39999389648</ele>
        <time>2021-03-23T08:25:47Z</time>
      </trkpt>
      <trkpt lat="46.51379" lon="-1.70398">
        <ele>-462</ele>
        <time>2021-03-23T08:25:48Z</time>
      </trkpt>
      <trkpt lat="46.5138" lon="-1.70391">
        <ele>-461.60000610352</ele>
        <time>2021-03-23T08:25:49Z</time>
      </trkpt>
      <trkpt lat="46.51384" lon="-1.70377">
        <ele>-461.60000610352</ele>
        <time>2021-03-23T08:25:51Z</time>
      </trkpt>
      <trkpt lat="46.51397" lon="-1.70336">
        <ele>-461.60000610352</ele>
        <time>2021-03-23T08:25:58Z</time>
      </trkpt>
      <trkpt lat="46.51406" lon="-1.70312">
        <ele>-461.60000610352</ele>
        <time>2021-03-23T08:26:03Z</time>
      </trkpt>
      <trkpt lat="46.51415" lon="-1.70278">
        <ele>-461.60000610352</ele>
        <time>2021-03-23T08:26:08Z</time>
      </trkpt>
      <trkpt lat="46.51431" lon="-1.70226">
        <ele>-461.60000610352</ele>
        <time>2021-03-23T08:26:15Z</time>
      </trkpt>
      <trkpt lat="46.51449" lon="-1.70149">
        <ele>-461.60000610352</ele>
        <time>2021-03-23T08:26:25Z</time>
      </trkpt>
      <trkpt lat="46.51457" lon="-1.70108">
        <ele>-462.20001220703</ele>
        <time>2021-03-23T08:26:30Z</time>
      </trkpt>
      <trkpt lat="46.51458" lon="-1.70099">
        <ele>-462.60000610352</ele>
        <time>2021-03-23T08:26:31Z</time>
      </trkpt>
      <trkpt lat="46.5146" lon="-1.70091">
        <ele>-463</ele>
        <time>2021-03-23T08:26:32Z</time>
      </trkpt>
      <trkpt lat="46.51462" lon="-1.70083">
        <ele>-464</ele>
        <time>2021-03-23T08:26:33Z</time>
      </trkpt>
      <trkpt lat="46.51465" lon="-1.70075">
        <ele>-464</ele>
        <time>2021-03-23T08:26:34Z</time>
      </trkpt>
      <trkpt lat="46.51481" lon="-1.70012">
        <ele>-464</ele>
        <time>2021-03-23T08:26:42Z</time>
      </trkpt>
      <trkpt lat="46.51494" lon="-1.69945">
        <ele>-464</ele>
        <time>2021-03-23T08:26:51Z</time>
      </trkpt>
      <trkpt lat="46.51506" lon="-1.69882">
        <ele>-464</ele>
        <time>2021-03-23T08:27:00Z</time>
      </trkpt>
      <trkpt lat="46.51514" lon="-1.69831">
        <ele>-464</ele>
        <time>2021-03-23T08:27:07Z</time>
      </trkpt>
      <trkpt lat="46.51519" lon="-1.69787">
        <ele>-464</ele>
        <time>2021-03-23T08:27:13Z</time>
      </trkpt>
      <trkpt lat="46.51521" lon="-1.69774">
        <ele>-464</ele>
        <time>2021-03-23T08:27:15Z</time>
      </trkpt>
      <trkpt lat="46.51523" lon="-1.69752">
        <ele>-464</ele>
        <time>2021-03-23T08:27:18Z</time>
      </trkpt>
      <trkpt lat="46.5153" lon="-1.69695">
        <ele>-464</ele>
        <time>2021-03-23T08:27:26Z</time>
      </trkpt>
      <trkpt lat="46.51532" lon="-1.69669">
        <ele>-464</ele>
        <time>2021-03-23T08:27:30Z</time>
      </trkpt>
      <trkpt lat="46.51533" lon="-1.69658">
        <ele>-464</ele>
        <time>2021-03-23T08:27:32Z</time>
      </trkpt>
      <trkpt lat="46.51539" lon="-1.69635">
        <ele>-464</ele>
        <time>2021-03-23T08:27:37Z</time>
      </trkpt>
      <trkpt lat="46.51542" lon="-1.69632">
        <ele>-464</ele>
        <time>2021-03-23T08:27:38Z</time>
      </trkpt>
      <trkpt lat="46.51555" lon="-1.69623">
        <ele>-464</ele>
        <time>2021-03-23T08:27:41Z</time>
      </trkpt>
      <trkpt lat="46.51562" lon="-1.69618">
        <ele>-464</ele>
        <time>2021-03-23T08:27:43Z</time>
      </trkpt>
      <trkpt lat="46.51588" lon="-1.69594">
        <ele>-464</ele>
        <time>2021-03-23T08:27:48Z</time>
      </trkpt>
      <trkpt lat="46.5159" lon="-1.69584">
        <ele>-464</ele>
        <time>2021-03-23T08:27:49Z</time>
      </trkpt>
      <trkpt lat="46.51591" lon="-1.69576">
        <ele>-464</ele>
        <time>2021-03-23T08:27:50Z</time>
      </trkpt>
      <trkpt lat="46.51588" lon="-1.69545">
        <ele>-464</ele>
        <time>2021-03-23T08:27:54Z</time>
      </trkpt>
      <trkpt lat="46.51585" lon="-1.69477">
        <ele>-464</ele>
        <time>2021-03-23T08:28:03Z</time>
      </trkpt>
      <trkpt lat="46.51583" lon="-1.69431">
        <ele>-463.60000610352</ele>
        <time>2021-03-23T08:28:09Z</time>
      </trkpt>
      <trkpt lat="46.51583" lon="-1.69424">
        <ele>-463.20001220703</ele>
        <time>2021-03-23T08:28:10Z</time>
      </trkpt>
      <trkpt lat="46.51583" lon="-1.69417">
        <ele>-462.79998779297</ele>
        <time>2021-03-23T08:28:11Z</time>
      </trkpt>
      <trkpt lat="46.51583" lon="-1.69409">
        <ele>-462</ele>
        <time>2021-03-23T08:28:12Z</time>
      </trkpt>
      <trkpt lat="46.51584" lon="-1.69402">
        <ele>-462</ele>
        <time>2021-03-23T08:28:13Z</time>
      </trkpt>
      <trkpt lat="46.51586" lon="-1.69356">
        <ele>-462</ele>
        <time>2021-03-23T08:28:19Z</time>
      </trkpt>
      <trkpt lat="46.51586" lon="-1.69349">
        <ele>-462</ele>
        <time>2021-03-23T08:28:20Z</time>
      </trkpt>
      <trkpt lat="46.51591" lon="-1.69292">
        <ele>-462</ele>
        <time>2021-03-23T08:28:28Z</time>
      </trkpt>
      <trkpt lat="46.51592" lon="-1.69285">
        <ele>-461.39999389648</ele>
        <time>2021-03-23T08:28:29Z</time>
      </trkpt>
      <trkpt lat="46.51593" lon="-1.69278">
        <ele>-461</ele>
        <time>2021-03-23T08:28:30Z</time>
      </trkpt>
      <trkpt lat="46.51594" lon="-1.69271">
        <ele>-460.60000610352</ele>
        <time>2021-03-23T08:28:31Z</time>
      </trkpt>
      <trkpt lat="46.51594" lon="-1.69264">
        <ele>-460</ele>
        <time>2021-03-23T08:28:32Z</time>
      </trkpt>
      <trkpt lat="46.51594" lon="-1.69256">
        <ele>-459.60000610352</ele>
        <time>2021-03-23T08:28:33Z</time>
      </trkpt>
      <trkpt lat="46.51594" lon="-1.69235">
        <ele>-459.60000610352</ele>
        <time>2021-03-23T08:28:36Z</time>
      </trkpt>
      <trkpt lat="46.51591" lon="-1.69207">
        <ele>-459.20001220703</ele>
        <time>2021-03-23T08:28:40Z</time>
      </trkpt>
      <trkpt lat="46.51591" lon="-1.692">
        <ele>-458.60000610352</ele>
        <time>2021-03-23T08:28:41Z</time>
      </trkpt>
      <trkpt lat="46.5159" lon="-1.69193">
        <ele>-458.20001220703</ele>
        <time>2021-03-23T08:28:42Z</time>
      </trkpt>
      <trkpt lat="46.51589" lon="-1.69185">
        <ele>-457.79998779297</ele>
        <time>2021-03-23T08:28:43Z</time>
      </trkpt>
      <trkpt lat="46.51589" lon="-1.69178">
        <ele>-457.39999389648</ele>
        <time>2021-03-23T08:28:44Z</time>
      </trkpt>
      <trkpt lat="46.51584" lon="-1.69137">
        <ele>-457.39999389648</ele>
        <time>2021-03-23T08:28:50Z</time>
      </trkpt>
      <trkpt lat="46.51583" lon="-1.69131">
        <ele>-457.39999389648</ele>
        <time>2021-03-23T08:28:51Z</time>
      </trkpt>
      <trkpt lat="46.51584" lon="-1.69112">
        <ele>-457.39999389648</ele>
        <time>2021-03-23T08:28:54Z</time>
      </trkpt>
      <trkpt lat="46.51594" lon="-1.69099">
        <ele>-457.39999389648</ele>
        <time>2021-03-23T08:28:57Z</time>
      </trkpt>
      <trkpt lat="46.51612" lon="-1.6909">
        <ele>-457.39999389648</ele>
        <time>2021-03-23T08:29:01Z</time>
      </trkpt>
      <trkpt lat="46.51616" lon="-1.69087">
        <ele>-457.39999389648</ele>
        <time>2021-03-23T08:29:02Z</time>
      </trkpt>
      <trkpt lat="46.51651" lon="-1.69068">
        <ele>-457.39999389648</ele>
        <time>2021-03-23T08:29:09Z</time>
      </trkpt>
      <trkpt lat="46.51677" lon="-1.69049">
        <ele>-457.39999389648</ele>
        <time>2021-03-23T08:29:15Z</time>
      </trkpt>
      <trkpt lat="46.51682" lon="-1.69044">
        <ele>-457.39999389648</ele>
        <time>2021-03-23T08:29:16Z</time>
      </trkpt>
      <trkpt lat="46.51705" lon="-1.69023">
        <ele>-457.39999389648</ele>
        <time>2021-03-23T08:29:21Z</time>
      </trkpt>
      <trkpt lat="46.51726" lon="-1.69004">
        <ele>-457.39999389648</ele>
        <time>2021-03-23T08:29:26Z</time>
      </trkpt>
      <trkpt lat="46.51734" lon="-1.68997">
        <ele>-457.39999389648</ele>
        <time>2021-03-23T08:29:28Z</time>
      </trkpt>
      <trkpt lat="46.51739" lon="-1.68986">
        <ele>-457.39999389648</ele>
        <time>2021-03-23T08:29:30Z</time>
      </trkpt>
      <trkpt lat="46.51734" lon="-1.68965">
        <ele>-457.39999389648</ele>
        <time>2021-03-23T08:29:33Z</time>
      </trkpt>
      <trkpt lat="46.51718" lon="-1.6894">
        <ele>-457.39999389648</ele>
        <time>2021-03-23T08:29:37Z</time>
      </trkpt>
      <trkpt lat="46.51715" lon="-1.68933">
        <ele>-457.39999389648</ele>
        <time>2021-03-23T08:29:38Z</time>
      </trkpt>
      <trkpt lat="46.51691" lon="-1.68884">
        <ele>-457.39999389648</ele>
        <time>2021-03-23T08:29:45Z</time>
      </trkpt>
      <trkpt lat="46.51667" lon="-1.68837">
        <ele>-457.39999389648</ele>
        <time>2021-03-23T08:29:52Z</time>
      </trkpt>
      <trkpt lat="46.51656" lon="-1.68819">
        <ele>-457.39999389648</ele>
        <time>2021-03-23T08:29:55Z</time>
      </trkpt>
      <trkpt lat="46.5164" lon="-1.68796">
        <ele>-457.39999389648</ele>
        <time>2021-03-23T08:29:59Z</time>
      </trkpt>
      <trkpt lat="46.51605" lon="-1.68752">
        <ele>-457.39999389648</ele>
        <time>2021-03-23T08:30:07Z</time>
      </trkpt>
      <trkpt lat="46.51575" lon="-1.68712">
        <ele>-457.39999389648</ele>
        <time>2021-03-23T08:30:14Z</time>
      </trkpt>
      <trkpt lat="46.51549" lon="-1.68679">
        <ele>-457.39999389648</ele>
        <time>2021-03-23T08:30:20Z</time>
      </trkpt>
      <trkpt lat="46.51533" lon="-1.68658">
        <ele>-457.79998779297</ele>
        <time>2021-03-23T08:30:24Z</time>
      </trkpt>
      <trkpt lat="46.51529" lon="-1.68653">
        <ele>-458.20001220703</ele>
        <time>2021-03-23T08:30:25Z</time>
      </trkpt>
      <trkpt lat="46.51524" lon="-1.68647">
        <ele>-458.60000610352</ele>
        <time>2021-03-23T08:30:26Z</time>
      </trkpt>
      <trkpt lat="46.5152" lon="-1.68642">
        <ele>-459</ele>
        <time>2021-03-23T08:30:27Z</time>
      </trkpt>
      <trkpt lat="46.51516" lon="-1.68637">
        <ele>-459.39999389648</ele>
        <time>2021-03-23T08:30:28Z</time>
      </trkpt>
      <trkpt lat="46.5149" lon="-1.68603">
        <ele>-459.39999389648</ele>
        <time>2021-03-23T08:30:35Z</time>
      </trkpt>
      <trkpt lat="46.51484" lon="-1.68595">
        <ele>-459.39999389648</ele>
        <time>2021-03-23T08:30:37Z</time>
      </trkpt>
      <trkpt lat="46.51476" lon="-1.68586">
        <ele>-459.39999389648</ele>
        <time>2021-03-23T08:30:40Z</time>
      </trkpt>
      <trkpt lat="46.51474" lon="-1.68582">
        <ele>-459.39999389648</ele>
        <time>2021-03-23T08:30:44Z</time>
      </trkpt>
      <trkpt lat="46.51472" lon="-1.68581">
        <ele>-459.39999389648</ele>
        <time>2021-03-23T08:30:48Z</time>
      </trkpt>
      <trkpt lat="46.51468" lon="-1.68579">
        <ele>-459.39999389648</ele>
        <time>2021-03-23T08:30:50Z</time>
      </trkpt>
      <trkpt lat="46.51457" lon="-1.68579">
        <ele>-459.39999389648</ele>
        <time>2021-03-23T08:30:54Z</time>
      </trkpt>
      <trkpt lat="46.51449" lon="-1.68574">
        <ele>-459.39999389648</ele>
        <time>2021-03-23T08:30:56Z</time>
      </trkpt>
      <trkpt lat="46.51445" lon="-1.68571">
        <ele>-459.39999389648</ele>
        <time>2021-03-23T08:30:57Z</time>
      </trkpt>
      <trkpt lat="46.51442" lon="-1.68566">
        <ele>-459.39999389648</ele>
        <time>2021-03-23T08:30:58Z</time>
      </trkpt>
      <trkpt lat="46.51411" lon="-1.68533">
        <ele>-459.39999389648</ele>
        <time>2021-03-23T08:31:05Z</time>
      </trkpt>
      <trkpt lat="46.51372" lon="-1.68486">
        <ele>-459.39999389648</ele>
        <time>2021-03-23T08:31:14Z</time>
      </trkpt>
      <trkpt lat="46.51342" lon="-1.68461">
        <ele>-459.39999389648</ele>
        <time>2021-03-23T08:31:20Z</time>
      </trkpt>
      <trkpt lat="46.51311" lon="-1.6844">
        <ele>-459.39999389648</ele>
        <time>2021-03-23T08:31:26Z</time>
      </trkpt>
      <trkpt lat="46.51284" lon="-1.6843">
        <ele>-459.39999389648</ele>
        <time>2021-03-23T08:31:31Z</time>
      </trkpt>
      <trkpt lat="46.51279" lon="-1.68429">
        <ele>-459.39999389648</ele>
        <time>2021-03-23T08:31:32Z</time>
      </trkpt>
      <trkpt lat="46.51243" lon="-1.68416">
        <ele>-459.39999389648</ele>
        <time>2021-03-23T08:31:39Z</time>
      </trkpt>
      <trkpt lat="46.51212" lon="-1.68399">
        <ele>-459.39999389648</ele>
        <time>2021-03-23T08:31:45Z</time>
      </trkpt>
      <trkpt lat="46.51181" lon="-1.68374">
        <ele>-459.39999389648</ele>
        <time>2021-03-23T08:31:51Z</time>
      </trkpt>
      <trkpt lat="46.51144" lon="-1.68338">
        <ele>-459.39999389648</ele>
        <time>2021-03-23T08:31:58Z</time>
      </trkpt>
      <trkpt lat="46.5112" lon="-1.6831">
        <ele>-459.39999389648</ele>
        <time>2021-03-23T08:32:04Z</time>
      </trkpt>
      <trkpt lat="46.51118" lon="-1.68292">
        <ele>-459.39999389648</ele>
        <time>2021-03-23T08:32:07Z</time>
      </trkpt>
      <trkpt lat="46.51124" lon="-1.68281">
        <ele>-459.39999389648</ele>
        <time>2021-03-23T08:32:09Z</time>
      </trkpt>
      <trkpt lat="46.51131" lon="-1.6827">
        <ele>-459.39999389648</ele>
        <time>2021-03-23T08:32:11Z</time>
      </trkpt>
      <trkpt lat="46.51156" lon="-1.68234">
        <ele>-459.39999389648</ele>
        <time>2021-03-23T08:32:17Z</time>
      </trkpt>
      <trkpt lat="46.51168" lon="-1.68216">
        <ele>-459.39999389648</ele>
        <time>2021-03-23T08:32:20Z</time>
      </trkpt>
      <trkpt lat="46.51181" lon="-1.68198">
        <ele>-459.39999389648</ele>
        <time>2021-03-23T08:32:23Z</time>
      </trkpt>
      <trkpt lat="46.51206" lon="-1.6816">
        <ele>-459.39999389648</ele>
        <time>2021-03-23T08:32:29Z</time>
      </trkpt>
      <trkpt lat="46.5121" lon="-1.68153">
        <ele>-459.79998779297</ele>
        <time>2021-03-23T08:32:30Z</time>
      </trkpt>
      <trkpt lat="46.51214" lon="-1.68147">
        <ele>-460.20001220703</ele>
        <time>2021-03-23T08:32:31Z</time>
      </trkpt>
      <trkpt lat="46.51218" lon="-1.68141">
        <ele>-460.79998779297</ele>
        <time>2021-03-23T08:32:32Z</time>
      </trkpt>
      <trkpt lat="46.51222" lon="-1.68134">
        <ele>-461.20001220703</ele>
        <time>2021-03-23T08:32:33Z</time>
      </trkpt>
      <trkpt lat="46.51227" lon="-1.68128">
        <ele>-461.60000610352</ele>
        <time>2021-03-23T08:32:34Z</time>
      </trkpt>
      <trkpt lat="46.51235" lon="-1.68116">
        <ele>-461.60000610352</ele>
        <time>2021-03-23T08:32:36Z</time>
      </trkpt>
      <trkpt lat="46.51244" lon="-1.68103">
        <ele>-461.60000610352</ele>
        <time>2021-03-23T08:32:38Z</time>
      </trkpt>
      <trkpt lat="46.5126" lon="-1.68076">
        <ele>-461.60000610352</ele>
        <time>2021-03-23T08:32:42Z</time>
      </trkpt>
      <trkpt lat="46.51289" lon="-1.68031">
        <ele>-461.60000610352</ele>
        <time>2021-03-23T08:32:49Z</time>
      </trkpt>
      <trkpt lat="46.51319" lon="-1.67988">
        <ele>-461.60000610352</ele>
        <time>2021-03-23T08:32:56Z</time>
      </trkpt>
      <trkpt lat="46.51346" lon="-1.67945">
        <ele>-461.60000610352</ele>
        <time>2021-03-23T08:33:03Z</time>
      </trkpt>
      <trkpt lat="46.51376" lon="-1.67897">
        <ele>-461.60000610352</ele>
        <time>2021-03-23T08:33:11Z</time>
      </trkpt>
      <trkpt lat="46.51414" lon="-1.67841">
        <ele>-461.60000610352</ele>
        <time>2021-03-23T08:33:20Z</time>
      </trkpt>
      <trkpt lat="46.51452" lon="-1.67783">
        <ele>-461.60000610352</ele>
        <time>2021-03-23T08:33:29Z</time>
      </trkpt>
      <trkpt lat="46.51456" lon="-1.67777">
        <ele>-461.60000610352</ele>
        <time>2021-03-23T08:33:30Z</time>
      </trkpt>
      <trkpt lat="46.51488" lon="-1.67726">
        <ele>-461.60000610352</ele>
        <time>2021-03-23T08:33:38Z</time>
      </trkpt>
      <trkpt lat="46.51513" lon="-1.6769">
        <ele>-461.60000610352</ele>
        <time>2021-03-23T08:33:44Z</time>
      </trkpt>
      <trkpt lat="46.51541" lon="-1.67647">
        <ele>-461.60000610352</ele>
        <time>2021-03-23T08:33:51Z</time>
      </trkpt>
      <trkpt lat="46.51569" lon="-1.67605">
        <ele>-461.60000610352</ele>
        <time>2021-03-23T08:33:58Z</time>
      </trkpt>
      <trkpt lat="46.51597" lon="-1.67565">
        <ele>-461.60000610352</ele>
        <time>2021-03-23T08:34:05Z</time>
      </trkpt>
      <trkpt lat="46.51609" lon="-1.67542">
        <ele>-461.60000610352</ele>
        <time>2021-03-23T08:34:09Z</time>
      </trkpt>
      <trkpt lat="46.51611" lon="-1.67535">
        <ele>-461.60000610352</ele>
        <time>2021-03-23T08:34:10Z</time>
      </trkpt>
      <trkpt lat="46.51613" lon="-1.67511">
        <ele>-461.60000610352</ele>
        <time>2021-03-23T08:34:13Z</time>
      </trkpt>
      <trkpt lat="46.51613" lon="-1.67502">
        <ele>-461.60000610352</ele>
        <time>2021-03-23T08:34:14Z</time>
      </trkpt>
      <trkpt lat="46.51612" lon="-1.67423">
        <ele>-461.60000610352</ele>
        <time>2021-03-23T08:34:23Z</time>
      </trkpt>
      <trkpt lat="46.51612" lon="-1.67354">
        <ele>-461.60000610352</ele>
        <time>2021-03-23T08:34:31Z</time>
      </trkpt>
      <trkpt lat="46.51612" lon="-1.67294">
        <ele>-461.60000610352</ele>
        <time>2021-03-23T08:34:38Z</time>
      </trkpt>
      <trkpt lat="46.51611" lon="-1.67226">
        <ele>-461.60000610352</ele>
        <time>2021-03-23T08:34:46Z</time>
      </trkpt>
      <trkpt lat="46.51613" lon="-1.67166">
        <ele>-461.60000610352</ele>
        <time>2021-03-23T08:34:53Z</time>
      </trkpt>
      <trkpt lat="46.51615" lon="-1.67118">
        <ele>-461.60000610352</ele>
        <time>2021-03-23T08:34:59Z</time>
      </trkpt>
      <trkpt lat="46.51618" lon="-1.67057">
        <ele>-461.60000610352</ele>
        <time>2021-03-23T08:35:06Z</time>
      </trkpt>
      <trkpt lat="46.51621" lon="-1.67007">
        <ele>-461.60000610352</ele>
        <time>2021-03-23T08:35:12Z</time>
      </trkpt>
      <trkpt lat="46.51621" lon="-1.67">
        <ele>-461.60000610352</ele>
        <time>2021-03-23T08:35:13Z</time>
      </trkpt>
      <trkpt lat="46.51622" lon="-1.66969">
        <ele>-461.60000610352</ele>
        <time>2021-03-23T08:35:17Z</time>
      </trkpt>
      <trkpt lat="46.51623" lon="-1.66955">
        <ele>-461.60000610352</ele>
        <time>2021-03-23T08:35:19Z</time>
      </trkpt>
      <trkpt lat="46.51624" lon="-1.66927">
        <ele>-461.60000610352</ele>
        <time>2021-03-23T08:35:23Z</time>
      </trkpt>
      <trkpt lat="46.51625" lon="-1.66918">
        <ele>-461.60000610352</ele>
        <time>2021-03-23T08:35:25Z</time>
      </trkpt>
      <trkpt lat="46.51625" lon="-1.6691">
        <ele>-461.60000610352</ele>
        <time>2021-03-23T08:35:27Z</time>
      </trkpt>
      <trkpt lat="46.51625" lon="-1.66892">
        <ele>-461.60000610352</ele>
        <time>2021-03-23T08:35:31Z</time>
      </trkpt>
      <trkpt lat="46.51624" lon="-1.66855">
        <ele>-461.60000610352</ele>
        <time>2021-03-23T08:35:37Z</time>
      </trkpt>
      <trkpt lat="46.51623" lon="-1.66822">
        <ele>-461.60000610352</ele>
        <time>2021-03-23T08:35:41Z</time>
      </trkpt>
      <trkpt lat="46.51623" lon="-1.66812">
        <ele>-461.60000610352</ele>
        <time>2021-03-23T08:35:42Z</time>
      </trkpt>
      <trkpt lat="46.51622" lon="-1.66749">
        <ele>-461.60000610352</ele>
        <time>2021-03-23T08:35:50Z</time>
      </trkpt>
      <trkpt lat="46.51621" lon="-1.66732">
        <ele>-461.60000610352</ele>
        <time>2021-03-23T08:35:52Z</time>
      </trkpt>
      <trkpt lat="46.5162" lon="-1.667">
        <ele>-461.60000610352</ele>
        <time>2021-03-23T08:35:56Z</time>
      </trkpt>
      <trkpt lat="46.51619" lon="-1.66635">
        <ele>-461.60000610352</ele>
        <time>2021-03-23T08:36:04Z</time>
      </trkpt>
      <trkpt lat="46.51619" lon="-1.66579">
        <ele>-461.60000610352</ele>
        <time>2021-03-23T08:36:11Z</time>
      </trkpt>
      <trkpt lat="46.5162" lon="-1.66522">
        <ele>-461.60000610352</ele>
        <time>2021-03-23T08:36:18Z</time>
      </trkpt>
      <trkpt lat="46.5162" lon="-1.66474">
        <ele>-461.60000610352</ele>
        <time>2021-03-23T08:36:24Z</time>
      </trkpt>
      <trkpt lat="46.5162" lon="-1.66411">
        <ele>-461.60000610352</ele>
        <time>2021-03-23T08:36:32Z</time>
      </trkpt>
      <trkpt lat="46.5162" lon="-1.66354">
        <ele>-461.60000610352</ele>
        <time>2021-03-23T08:36:39Z</time>
      </trkpt>
      <trkpt lat="46.51621" lon="-1.66318">
        <ele>-461.60000610352</ele>
        <time>2021-03-23T08:36:44Z</time>
      </trkpt>
      <trkpt lat="46.51622" lon="-1.66313">
        <ele>-461.60000610352</ele>
        <time>2021-03-23T08:36:45Z</time>
      </trkpt>
      <trkpt lat="46.51626" lon="-1.66305">
        <ele>-461.60000610352</ele>
        <time>2021-03-23T08:36:47Z</time>
      </trkpt>
      <trkpt lat="46.51634" lon="-1.66303">
        <ele>-461.60000610352</ele>
        <time>2021-03-23T08:36:49Z</time>
      </trkpt>
      <trkpt lat="46.51643" lon="-1.66304">
        <ele>-461.60000610352</ele>
        <time>2021-03-23T08:36:51Z</time>
      </trkpt>
      <trkpt lat="46.51659" lon="-1.66309">
        <ele>-461.60000610352</ele>
        <time>2021-03-23T08:36:54Z</time>
      </trkpt>
      <trkpt lat="46.51699" lon="-1.66313">
        <ele>-461.60000610352</ele>
        <time>2021-03-23T08:37:01Z</time>
      </trkpt>
      <trkpt lat="46.51723" lon="-1.66317">
        <ele>-461.60000610352</ele>
        <time>2021-03-23T08:37:05Z</time>
      </trkpt>
      <trkpt lat="46.51736" lon="-1.66317">
        <ele>-461.60000610352</ele>
        <time>2021-03-23T08:37:07Z</time>
      </trkpt>
      <trkpt lat="46.51776" lon="-1.66319">
        <ele>-461.60000610352</ele>
        <time>2021-03-23T08:37:14Z</time>
      </trkpt>
      <trkpt lat="46.51822" lon="-1.66322">
        <ele>-461.60000610352</ele>
        <time>2021-03-23T08:37:22Z</time>
      </trkpt>
      <trkpt lat="46.5188" lon="-1.66325">
        <ele>-461.60000610352</ele>
        <time>2021-03-23T08:37:32Z</time>
      </trkpt>
      <trkpt lat="46.51929" lon="-1.66328">
        <ele>-461.60000610352</ele>
        <time>2021-03-23T08:37:40Z</time>
      </trkpt>
      <trkpt lat="46.51976" lon="-1.66324">
        <ele>-461.60000610352</ele>
        <time>2021-03-23T08:37:48Z</time>
      </trkpt>
      <trkpt lat="46.52027" lon="-1.6632">
        <ele>-462</ele>
        <time>2021-03-23T08:37:56Z</time>
      </trkpt>
      <trkpt lat="46.52034" lon="-1.66319">
        <ele>-462.39999389648</ele>
        <time>2021-03-23T08:37:57Z</time>
      </trkpt>
      <trkpt lat="46.5204" lon="-1.66318">
        <ele>-462.79998779297</ele>
        <time>2021-03-23T08:37:58Z</time>
      </trkpt>
      <trkpt lat="46.52047" lon="-1.66318">
        <ele>-463.20001220703</ele>
        <time>2021-03-23T08:37:59Z</time>
      </trkpt>
      <trkpt lat="46.52053" lon="-1.66317">
        <ele>-463.60000610352</ele>
        <time>2021-03-23T08:38:00Z</time>
      </trkpt>
      <trkpt lat="46.52072" lon="-1.66315">
        <ele>-463.60000610352</ele>
        <time>2021-03-23T08:38:03Z</time>
      </trkpt>
      <trkpt lat="46.52129" lon="-1.66312">
        <ele>-463.60000610352</ele>
        <time>2021-03-23T08:38:12Z</time>
      </trkpt>
      <trkpt lat="46.52164" lon="-1.6631">
        <ele>-463.60000610352</ele>
        <time>2021-03-23T08:38:18Z</time>
      </trkpt>
      <trkpt lat="46.52196" lon="-1.66306">
        <ele>-463.60000610352</ele>
        <time>2021-03-23T08:38:24Z</time>
      </trkpt>
      <trkpt lat="46.52243" lon="-1.66303">
        <ele>-463.60000610352</ele>
        <time>2021-03-23T08:38:32Z</time>
      </trkpt>
      <trkpt lat="46.52284" lon="-1.66299">
        <ele>-463.60000610352</ele>
        <time>2021-03-23T08:38:39Z</time>
      </trkpt>
      <trkpt lat="46.52324" lon="-1.66295">
        <ele>-463.60000610352</ele>
        <time>2021-03-23T08:38:46Z</time>
      </trkpt>
      <trkpt lat="46.52364" lon="-1.66295">
        <ele>-463.60000610352</ele>
        <time>2021-03-23T08:38:53Z</time>
      </trkpt>
      <trkpt lat="46.52404" lon="-1.66298">
        <ele>-463.60000610352</ele>
        <time>2021-03-23T08:39:00Z</time>
      </trkpt>
      <trkpt lat="46.52422" lon="-1.66301">
        <ele>-463.60000610352</ele>
        <time>2021-03-23T08:39:05Z</time>
      </trkpt>
      <trkpt lat="46.52432" lon="-1.66305">
        <ele>-463.60000610352</ele>
        <time>2021-03-23T08:39:10Z</time>
      </trkpt>
      <trkpt lat="46.52451" lon="-1.66314">
        <ele>-463.60000610352</ele>
        <time>2021-03-23T08:39:15Z</time>
      </trkpt>
      <trkpt lat="46.52466" lon="-1.6632">
        <ele>-463.60000610352</ele>
        <time>2021-03-23T08:39:18Z</time>
      </trkpt>
      <trkpt lat="46.52481" lon="-1.66327">
        <ele>-463.60000610352</ele>
        <time>2021-03-23T08:39:21Z</time>
      </trkpt>
      <trkpt lat="46.525" lon="-1.66336">
        <ele>-464</ele>
        <time>2021-03-23T08:39:25Z</time>
      </trkpt>
      <trkpt lat="46.52504" lon="-1.66337">
        <ele>-464.39999389648</ele>
        <time>2021-03-23T08:39:26Z</time>
      </trkpt>
      <trkpt lat="46.52508" lon="-1.66338">
        <ele>-465</ele>
        <time>2021-03-23T08:39:27Z</time>
      </trkpt>
      <trkpt lat="46.52511" lon="-1.66339">
        <ele>-465.39999389648</ele>
        <time>2021-03-23T08:39:28Z</time>
      </trkpt>
      <trkpt lat="46.52514" lon="-1.6634">
        <ele>-465.79998779297</ele>
        <time>2021-03-23T08:39:29Z</time>
      </trkpt>
      <trkpt lat="46.52521" lon="-1.66344">
        <ele>-465.79998779297</ele>
        <time>2021-03-23T08:39:32Z</time>
      </trkpt>
      <trkpt lat="46.52539" lon="-1.66352">
        <ele>-465.79998779297</ele>
        <time>2021-03-23T08:39:41Z</time>
      </trkpt>
      <trkpt lat="46.52546" lon="-1.66356">
        <ele>-465.79998779297</ele>
        <time>2021-03-23T08:39:47Z</time>
      </trkpt>
      <trkpt lat="46.52548" lon="-1.6636">
        <ele>-465.79998779297</ele>
        <time>2021-03-23T08:39:52Z</time>
      </trkpt>
      <trkpt lat="46.52545" lon="-1.66358">
        <ele>-465.79998779297</ele>
        <time>2021-03-23T08:39:55Z</time>
      </trkpt>
      <trkpt lat="46.52543" lon="-1.66358">
        <ele>-465.79998779297</ele>
        <time>2021-03-23T08:39:57Z</time>
      </trkpt>
      <trkpt lat="46.5254" lon="-1.66355">
        <ele>-465.79998779297</ele>
        <time>2021-03-23T08:40:01Z</time>
      </trkpt>
      <trkpt lat="46.5254" lon="-1.66354">
        <ele>-465.79998779297</ele>
        <time>2021-03-23T08:40:03Z</time>
      </trkpt>
      <trkpt lat="46.52542" lon="-1.66355">
        <ele>-465.79998779297</ele>
        <time>2021-03-23T08:40:05Z</time>
      </trkpt>
      <trkpt lat="46.52544" lon="-1.66356">
        <ele>-465.79998779297</ele>
        <time>2021-03-23T08:40:07Z</time>
      </trkpt>
      <trkpt lat="46.52547" lon="-1.66357">
        <ele>-465.79998779297</ele>
        <time>2021-03-23T08:40:11Z</time>
      </trkpt>
      <trkpt lat="46.52549" lon="-1.66358">
        <ele>-465.79998779297</ele>
        <time>2021-03-23T08:40:13Z</time>
      </trkpt>
      <trkpt lat="46.52553" lon="-1.66363">
        <ele>-465.79998779297</ele>
        <time>2021-03-23T08:40:19Z</time>
      </trkpt>
      <trkpt lat="46.52567" lon="-1.66366">
        <ele>-465.79998779297</ele>
        <time>2021-03-23T08:40:24Z</time>
      </trkpt>
      <trkpt lat="46.52581" lon="-1.66374">
        <ele>-465.79998779297</ele>
        <time>2021-03-23T08:40:28Z</time>
      </trkpt>
      <trkpt lat="46.52595" lon="-1.66379">
        <ele>-465.79998779297</ele>
        <time>2021-03-23T08:40:31Z</time>
      </trkpt>
      <trkpt lat="46.52604" lon="-1.66384">
        <ele>-465.79998779297</ele>
        <time>2021-03-23T08:40:33Z</time>
      </trkpt>
      <trkpt lat="46.52639" lon="-1.66399">
        <ele>-465.79998779297</ele>
        <time>2021-03-23T08:40:40Z</time>
      </trkpt>
      <trkpt lat="46.52681" lon="-1.66417">
        <ele>-465.79998779297</ele>
        <time>2021-03-23T08:40:48Z</time>
      </trkpt>
      <trkpt lat="46.52722" lon="-1.66436">
        <ele>-465.79998779297</ele>
        <time>2021-03-23T08:40:56Z</time>
      </trkpt>
      <trkpt lat="46.52765" lon="-1.66453">
        <ele>-465.79998779297</ele>
        <time>2021-03-23T08:41:04Z</time>
      </trkpt>
      <trkpt lat="46.5278" lon="-1.66441">
        <ele>-465.79998779297</ele>
        <time>2021-03-23T08:41:07Z</time>
      </trkpt>
      <trkpt lat="46.52796" lon="-1.6642">
        <ele>-465.79998779297</ele>
        <time>2021-03-23T08:41:11Z</time>
      </trkpt>
      <trkpt lat="46.528" lon="-1.66416">
        <ele>-465.79998779297</ele>
        <time>2021-03-23T08:41:12Z</time>
      </trkpt>
      <trkpt lat="46.52804" lon="-1.6641">
        <ele>-465.79998779297</ele>
        <time>2021-03-23T08:41:13Z</time>
      </trkpt>
      <trkpt lat="46.52811" lon="-1.66388">
        <ele>-465.79998779297</ele>
        <time>2021-03-23T08:41:16Z</time>
      </trkpt>
      <trkpt lat="46.52812" lon="-1.66371">
        <ele>-465.79998779297</ele>
        <time>2021-03-23T08:41:18Z</time>
      </trkpt>
      <trkpt lat="46.52814" lon="-1.66349">
        <ele>-465.79998779297</ele>
        <time>2021-03-23T08:41:21Z</time>
      </trkpt>
      <trkpt lat="46.52816" lon="-1.66327">
        <ele>-465.79998779297</ele>
        <time>2021-03-23T08:41:24Z</time>
      </trkpt>
      <trkpt lat="46.52817" lon="-1.66304">
        <ele>-465.79998779297</ele>
        <time>2021-03-23T08:41:27Z</time>
      </trkpt>
      <trkpt lat="46.52815" lon="-1.66289">
        <ele>-465.39999389648</ele>
        <time>2021-03-23T08:41:29Z</time>
      </trkpt>
      <trkpt lat="46.52815" lon="-1.66281">
        <ele>-465</ele>
        <time>2021-03-23T08:41:30Z</time>
      </trkpt>
      <trkpt lat="46.52814" lon="-1.66274">
        <ele>-464.60000610352</ele>
        <time>2021-03-23T08:41:31Z</time>
      </trkpt>
      <trkpt lat="46.52813" lon="-1.66266">
        <ele>-464</ele>
        <time>2021-03-23T08:41:32Z</time>
      </trkpt>
      <trkpt lat="46.52812" lon="-1.66259">
        <ele>-463.60000610352</ele>
        <time>2021-03-23T08:41:33Z</time>
      </trkpt>
      <trkpt lat="46.5281" lon="-1.6622">
        <ele>-463.60000610352</ele>
        <time>2021-03-23T08:41:38Z</time>
      </trkpt>
      <trkpt lat="46.52811" lon="-1.66213">
        <ele>-463.60000610352</ele>
        <time>2021-03-23T08:41:39Z</time>
      </trkpt>
      <trkpt lat="46.52813" lon="-1.66186">
        <ele>-463.60000610352</ele>
        <time>2021-03-23T08:41:43Z</time>
      </trkpt>
      <trkpt lat="46.52812" lon="-1.66164">
        <ele>-463.60000610352</ele>
        <time>2021-03-23T08:41:48Z</time>
      </trkpt>
      <trkpt lat="46.52808" lon="-1.66136">
        <ele>-463.60000610352</ele>
        <time>2021-03-23T08:41:55Z</time>
      </trkpt>
      <trkpt lat="46.52805" lon="-1.66128">
        <ele>-463.60000610352</ele>
        <time>2021-03-23T08:41:57Z</time>
      </trkpt>
      <trkpt lat="46.528" lon="-1.66122">
        <ele>-463.60000610352</ele>
        <time>2021-03-23T08:41:59Z</time>
      </trkpt>
      <trkpt lat="46.52774" lon="-1.66092">
        <ele>-463.60000610352</ele>
        <time>2021-03-23T08:42:08Z</time>
      </trkpt>
      <trkpt lat="46.52758" lon="-1.66073">
        <ele>-464</ele>
        <time>2021-03-23T08:42:13Z</time>
      </trkpt>
      <trkpt lat="46.52755" lon="-1.66069">
        <ele>-464.39999389648</ele>
        <time>2021-03-23T08:42:14Z</time>
      </trkpt>
      <trkpt lat="46.52752" lon="-1.66066">
        <ele>-465</ele>
        <time>2021-03-23T08:42:15Z</time>
      </trkpt>
      <trkpt lat="46.52749" lon="-1.66062">
        <ele>-465.39999389648</ele>
        <time>2021-03-23T08:42:16Z</time>
      </trkpt>
      <trkpt lat="46.52745" lon="-1.66058">
        <ele>-465.79998779297</ele>
        <time>2021-03-23T08:42:17Z</time>
      </trkpt>
      <trkpt lat="46.52729" lon="-1.66041">
        <ele>-465.79998779297</ele>
        <time>2021-03-23T08:42:22Z</time>
      </trkpt>
      <trkpt lat="46.52712" lon="-1.66023">
        <ele>-465.79998779297</ele>
        <time>2021-03-23T08:42:29Z</time>
      </trkpt>
      <trkpt lat="46.5269" lon="-1.66005">
        <ele>-465.79998779297</ele>
        <time>2021-03-23T08:42:36Z</time>
      </trkpt>
      <trkpt lat="46.52674" lon="-1.65992">
        <ele>-465.79998779297</ele>
        <time>2021-03-23T08:42:41Z</time>
      </trkpt>
      <trkpt lat="46.52664" lon="-1.65985">
        <ele>-466.20001220703</ele>
        <time>2021-03-23T08:42:44Z</time>
      </trkpt>
      <trkpt lat="46.52661" lon="-1.65983">
        <ele>-466.60000610352</ele>
        <time>2021-03-23T08:42:45Z</time>
      </trkpt>
      <trkpt lat="46.52658" lon="-1.65981">
        <ele>-467</ele>
        <time>2021-03-23T08:42:46Z</time>
      </trkpt>
      <trkpt lat="46.52656" lon="-1.65978">
        <ele>-467.39999389648</ele>
        <time>2021-03-23T08:42:47Z</time>
      </trkpt>
      <trkpt lat="46.52654" lon="-1.65977">
        <ele>-467.79998779297</ele>
        <time>2021-03-23T08:42:48Z</time>
      </trkpt>
      <trkpt lat="46.5265" lon="-1.65975">
        <ele>-467.79998779297</ele>
        <time>2021-03-23T08:42:52Z</time>
      </trkpt>
      <trkpt lat="46.52649" lon="-1.65973">
        <ele>-467.79998779297</ele>
        <time>2021-03-23T08:42:53Z</time>
      </trkpt>
      <trkpt lat="46.5265" lon="-1.65955">
        <ele>-467.79998779297</ele>
        <time>2021-03-23T08:42:58Z</time>
      </trkpt>
      <trkpt lat="46.52659" lon="-1.65942">
        <ele>-467.79998779297</ele>
        <time>2021-03-23T08:43:01Z</time>
      </trkpt>
      <trkpt lat="46.52662" lon="-1.65937">
        <ele>-467.79998779297</ele>
        <time>2021-03-23T08:43:02Z</time>
      </trkpt>
      <trkpt lat="46.52685" lon="-1.65903">
        <ele>-467.79998779297</ele>
        <time>2021-03-23T08:43:08Z</time>
      </trkpt>
      <trkpt lat="46.52703" lon="-1.65877">
        <ele>-467.39999389648</ele>
        <time>2021-03-23T08:43:12Z</time>
      </trkpt>
      <trkpt lat="46.52707" lon="-1.65871">
        <ele>-467</ele>
        <time>2021-03-23T08:43:13Z</time>
      </trkpt>
      <trkpt lat="46.52711" lon="-1.65865">
        <ele>-466.60000610352</ele>
        <time>2021-03-23T08:43:14Z</time>
      </trkpt>
      <trkpt lat="46.52715" lon="-1.65858">
        <ele>-466.20001220703</ele>
        <time>2021-03-23T08:43:15Z</time>
      </trkpt>
      <trkpt lat="46.52719" lon="-1.65851">
        <ele>-465.79998779297</ele>
        <time>2021-03-23T08:43:16Z</time>
      </trkpt>
      <trkpt lat="46.52745" lon="-1.65811">
        <ele>-465.79998779297</ele>
        <time>2021-03-23T08:43:22Z</time>
      </trkpt>
      <trkpt lat="46.52778" lon="-1.65758">
        <ele>-465.79998779297</ele>
        <time>2021-03-23T08:43:30Z</time>
      </trkpt>
      <trkpt lat="46.52775" lon="-1.65744">
        <ele>-465.79998779297</ele>
        <time>2021-03-23T08:43:32Z</time>
      </trkpt>
      <trkpt lat="46.52761" lon="-1.65732">
        <ele>-465.79998779297</ele>
        <time>2021-03-23T08:43:35Z</time>
      </trkpt>
      <trkpt lat="46.5274" lon="-1.65713">
        <ele>-465.79998779297</ele>
        <time>2021-03-23T08:43:39Z</time>
      </trkpt>
      <trkpt lat="46.52736" lon="-1.65705">
        <ele>-465.79998779297</ele>
        <time>2021-03-23T08:43:40Z</time>
      </trkpt>
      <trkpt lat="46.52732" lon="-1.6568">
        <ele>-465.79998779297</ele>
        <time>2021-03-23T08:43:43Z</time>
      </trkpt>
      <trkpt lat="46.52728" lon="-1.65673">
        <ele>-466.20001220703</ele>
        <time>2021-03-23T08:43:44Z</time>
      </trkpt>
      <trkpt lat="46.52722" lon="-1.65669">
        <ele>-466.60000610352</ele>
        <time>2021-03-23T08:43:45Z</time>
      </trkpt>
      <trkpt lat="46.52716" lon="-1.65666">
        <ele>-467</ele>
        <time>2021-03-23T08:43:46Z</time>
      </trkpt>
      <trkpt lat="46.5271" lon="-1.65663">
        <ele>-467.60000610352</ele>
        <time>2021-03-23T08:43:47Z</time>
      </trkpt>
      <trkpt lat="46.52704" lon="-1.6566">
        <ele>-468</ele>
        <time>2021-03-23T08:43:48Z</time>
      </trkpt>
      <trkpt lat="46.52679" lon="-1.65649">
        <ele>-469</ele>
        <time>2021-03-23T08:43:52Z</time>
      </trkpt>
      <trkpt lat="46.52673" lon="-1.65645">
        <ele>-469.39999389648</ele>
        <time>2021-03-23T08:43:53Z</time>
      </trkpt>
      <trkpt lat="46.52667" lon="-1.65641">
        <ele>-470</ele>
        <time>2021-03-23T08:43:55Z</time>
      </trkpt>
      <trkpt lat="46.5266" lon="-1.65637">
        <ele>-470.39999389648</ele>
        <time>2021-03-23T08:43:56Z</time>
      </trkpt>
      <trkpt lat="46.52649" lon="-1.65627">
        <ele>-470.79998779297</ele>
        <time>2021-03-23T08:43:58Z</time>
      </trkpt>
      <trkpt lat="46.52643" lon="-1.65621">
        <ele>-471.20001220703</ele>
        <time>2021-03-23T08:43:59Z</time>
      </trkpt>
      <trkpt lat="46.52638" lon="-1.65616">
        <ele>-471.60000610352</ele>
        <time>2021-03-23T08:44:00Z</time>
      </trkpt>
      <trkpt lat="46.52633" lon="-1.6561">
        <ele>-472</ele>
        <time>2021-03-23T08:44:01Z</time>
      </trkpt>
      <trkpt lat="46.52628" lon="-1.65605">
        <ele>-472.60000610352</ele>
        <time>2021-03-23T08:44:02Z</time>
      </trkpt>
      <trkpt lat="46.52601" lon="-1.65584">
        <ele>-472.60000610352</ele>
        <time>2021-03-23T08:44:07Z</time>
      </trkpt>
      <trkpt lat="46.52572" lon="-1.65559">
        <ele>-472.60000610352</ele>
        <time>2021-03-23T08:44:13Z</time>
      </trkpt>
      <trkpt lat="46.52547" lon="-1.65539">
        <ele>-472.60000610352</ele>
        <time>2021-03-23T08:44:18Z</time>
      </trkpt>
      <trkpt lat="46.52543" lon="-1.65533">
        <ele>-472.60000610352</ele>
        <time>2021-03-23T08:44:19Z</time>
      </trkpt>
      <trkpt lat="46.52536" lon="-1.65511">
        <ele>-472.60000610352</ele>
        <time>2021-03-23T08:44:22Z</time>
      </trkpt>
      <trkpt lat="46.52533" lon="-1.65485">
        <ele>-472.60000610352</ele>
        <time>2021-03-23T08:44:25Z</time>
      </trkpt>
      <trkpt lat="46.5253" lon="-1.65458">
        <ele>-472.60000610352</ele>
        <time>2021-03-23T08:44:28Z</time>
      </trkpt>
      <trkpt lat="46.52529" lon="-1.65433">
        <ele>-472.60000610352</ele>
        <time>2021-03-23T08:44:31Z</time>
      </trkpt>
      <trkpt lat="46.5253" lon="-1.65425">
        <ele>-472.60000610352</ele>
        <time>2021-03-23T08:44:32Z</time>
      </trkpt>
      <trkpt lat="46.52536" lon="-1.65378">
        <ele>-472.60000610352</ele>
        <time>2021-03-23T08:44:38Z</time>
      </trkpt>
      <trkpt lat="46.52538" lon="-1.65339">
        <ele>-472.60000610352</ele>
        <time>2021-03-23T08:44:43Z</time>
      </trkpt>
      <trkpt lat="46.52538" lon="-1.65332">
        <ele>-472</ele>
        <time>2021-03-23T08:44:44Z</time>
      </trkpt>
      <trkpt lat="46.52538" lon="-1.65326">
        <ele>-471.60000610352</ele>
        <time>2021-03-23T08:44:45Z</time>
      </trkpt>
      <trkpt lat="46.52538" lon="-1.65319">
        <ele>-471.20001220703</ele>
        <time>2021-03-23T08:44:46Z</time>
      </trkpt>
      <trkpt lat="46.52538" lon="-1.65313">
        <ele>-470.79998779297</ele>
        <time>2021-03-23T08:44:47Z</time>
      </trkpt>
      <trkpt lat="46.52538" lon="-1.65306">
        <ele>-470.20001220703</ele>
        <time>2021-03-23T08:44:48Z</time>
      </trkpt>
      <trkpt lat="46.52538" lon="-1.65293">
        <ele>-469.79998779297</ele>
        <time>2021-03-23T08:44:50Z</time>
      </trkpt>
      <trkpt lat="46.52538" lon="-1.65287">
        <ele>-469.39999389648</ele>
        <time>2021-03-23T08:44:51Z</time>
      </trkpt>
      <trkpt lat="46.52538" lon="-1.6528">
        <ele>-469</ele>
        <time>2021-03-23T08:44:52Z</time>
      </trkpt>
      <trkpt lat="46.52537" lon="-1.65274">
        <ele>-468.60000610352</ele>
        <time>2021-03-23T08:44:53Z</time>
      </trkpt>
      <trkpt lat="46.52537" lon="-1.65267">
        <ele>-468.20001220703</ele>
        <time>2021-03-23T08:44:54Z</time>
      </trkpt>
      <trkpt lat="46.52537" lon="-1.65232">
        <ele>-468.20001220703</ele>
        <time>2021-03-23T08:44:59Z</time>
      </trkpt>
      <trkpt lat="46.52534" lon="-1.65177">
        <ele>-467.79998779297</ele>
        <time>2021-03-23T08:45:07Z</time>
      </trkpt>
      <trkpt lat="46.52533" lon="-1.6517">
        <ele>-467.39999389648</ele>
        <time>2021-03-23T08:45:08Z</time>
      </trkpt>
      <trkpt lat="46.52533" lon="-1.65164">
        <ele>-467</ele>
        <time>2021-03-23T08:45:09Z</time>
      </trkpt>
      <trkpt lat="46.52533" lon="-1.65157">
        <ele>-466.60000610352</ele>
        <time>2021-03-23T08:45:10Z</time>
      </trkpt>
      <trkpt lat="46.52532" lon="-1.6515">
        <ele>-466.20001220703</ele>
        <time>2021-03-23T08:45:11Z</time>
      </trkpt>
      <trkpt lat="46.5253" lon="-1.65122">
        <ele>-466.20001220703</ele>
        <time>2021-03-23T08:45:15Z</time>
      </trkpt>
      <trkpt lat="46.52524" lon="-1.65081">
        <ele>-466.20001220703</ele>
        <time>2021-03-23T08:45:22Z</time>
      </trkpt>
      <trkpt lat="46.52516" lon="-1.65037">
        <ele>-466.20001220703</ele>
        <time>2021-03-23T08:45:30Z</time>
      </trkpt>
      <trkpt lat="46.52507" lon="-1.64993">
        <ele>-466.20001220703</ele>
        <time>2021-03-23T08:45:37Z</time>
      </trkpt>
      <trkpt lat="46.52498" lon="-1.64954">
        <ele>-466.20001220703</ele>
        <time>2021-03-23T08:45:43Z</time>
      </trkpt>
      <trkpt lat="46.52492" lon="-1.64913">
        <ele>-466.60000610352</ele>
        <time>2021-03-23T08:45:49Z</time>
      </trkpt>
      <trkpt lat="46.52491" lon="-1.64905">
        <ele>-467</ele>
        <time>2021-03-23T08:45:50Z</time>
      </trkpt>
      <trkpt lat="46.5249" lon="-1.64898">
        <ele>-467.60000610352</ele>
        <time>2021-03-23T08:45:51Z</time>
      </trkpt>
      <trkpt lat="46.52489" lon="-1.64892">
        <ele>-468</ele>
        <time>2021-03-23T08:45:52Z</time>
      </trkpt>
      <trkpt lat="46.52489" lon="-1.64885">
        <ele>-468.39999389648</ele>
        <time>2021-03-23T08:45:53Z</time>
      </trkpt>
      <trkpt lat="46.52483" lon="-1.6486">
        <ele>-468.39999389648</ele>
        <time>2021-03-23T08:45:57Z</time>
      </trkpt>
      <trkpt lat="46.52468" lon="-1.64845">
        <ele>-468.39999389648</ele>
        <time>2021-03-23T08:46:01Z</time>
      </trkpt>
      <trkpt lat="46.52449" lon="-1.64848">
        <ele>-468.39999389648</ele>
        <time>2021-03-23T08:46:05Z</time>
      </trkpt>
      <trkpt lat="46.52434" lon="-1.64848">
        <ele>-468.39999389648</ele>
        <time>2021-03-23T08:46:08Z</time>
      </trkpt>
      <trkpt lat="46.52424" lon="-1.64844">
        <ele>-468.39999389648</ele>
        <time>2021-03-23T08:46:10Z</time>
      </trkpt>
      <trkpt lat="46.52398" lon="-1.64837">
        <ele>-468.39999389648</ele>
        <time>2021-03-23T08:46:16Z</time>
      </trkpt>
      <trkpt lat="46.52378" lon="-1.64829">
        <ele>-468.39999389648</ele>
        <time>2021-03-23T08:46:22Z</time>
      </trkpt>
      <trkpt lat="46.5236" lon="-1.64823">
        <ele>-468.79998779297</ele>
        <time>2021-03-23T08:46:28Z</time>
      </trkpt>
      <trkpt lat="46.52358" lon="-1.64821">
        <ele>-469.20001220703</ele>
        <time>2021-03-23T08:46:29Z</time>
      </trkpt>
      <trkpt lat="46.52355" lon="-1.6482">
        <ele>-469.60000610352</ele>
        <time>2021-03-23T08:46:30Z</time>
      </trkpt>
      <trkpt lat="46.52352" lon="-1.64819">
        <ele>-470</ele>
        <time>2021-03-23T08:46:31Z</time>
      </trkpt>
      <trkpt lat="46.52349" lon="-1.64818">
        <ele>-470.39999389648</ele>
        <time>2021-03-23T08:46:32Z</time>
      </trkpt>
      <trkpt lat="46.52342" lon="-1.64815">
        <ele>-470.39999389648</ele>
        <time>2021-03-23T08:46:35Z</time>
      </trkpt>
      <trkpt lat="46.52332" lon="-1.648">
        <ele>-470.39999389648</ele>
        <time>2021-03-23T08:46:41Z</time>
      </trkpt>
      <trkpt lat="46.52327" lon="-1.64777">
        <ele>-470.39999389648</ele>
        <time>2021-03-23T08:46:47Z</time>
      </trkpt>
      <trkpt lat="46.52324" lon="-1.64754">
        <ele>-470.39999389648</ele>
        <time>2021-03-23T08:46:52Z</time>
      </trkpt>
      <trkpt lat="46.52313" lon="-1.64716">
        <ele>-470.39999389648</ele>
        <time>2021-03-23T08:46:59Z</time>
      </trkpt>
      <trkpt lat="46.52293" lon="-1.64686">
        <ele>-470.39999389648</ele>
        <time>2021-03-23T08:47:06Z</time>
      </trkpt>
      <trkpt lat="46.52277" lon="-1.64669">
        <ele>-470.39999389648</ele>
        <time>2021-03-23T08:47:12Z</time>
      </trkpt>
      <trkpt lat="46.52259" lon="-1.64666">
        <ele>-470.39999389648</ele>
        <time>2021-03-23T08:47:18Z</time>
      </trkpt>
      <trkpt lat="46.52242" lon="-1.64664">
        <ele>-470.39999389648</ele>
        <time>2021-03-23T08:47:23Z</time>
      </trkpt>
      <trkpt lat="46.52225" lon="-1.64657">
        <ele>-470</ele>
        <time>2021-03-23T08:47:28Z</time>
      </trkpt>
      <trkpt lat="46.52222" lon="-1.64656">
        <ele>-469.60000610352</ele>
        <time>2021-03-23T08:47:29Z</time>
      </trkpt>
      <trkpt lat="46.52218" lon="-1.64654">
        <ele>-469.20001220703</ele>
        <time>2021-03-23T08:47:30Z</time>
      </trkpt>
      <trkpt lat="46.52214" lon="-1.64651">
        <ele>-468.79998779297</ele>
        <time>2021-03-23T08:47:31Z</time>
      </trkpt>
      <trkpt lat="46.52212" lon="-1.64648">
        <ele>-468.39999389648</ele>
        <time>2021-03-23T08:47:32Z</time>
      </trkpt>
      <trkpt lat="46.52199" lon="-1.64637">
        <ele>-468.39999389648</ele>
        <time>2021-03-23T08:47:35Z</time>
      </trkpt>
      <trkpt lat="46.52173" lon="-1.64617">
        <ele>-468.39999389648</ele>
        <time>2021-03-23T08:47:42Z</time>
      </trkpt>
      <trkpt lat="46.52158" lon="-1.64599">
        <ele>-468</ele>
        <time>2021-03-23T08:47:47Z</time>
      </trkpt>
      <trkpt lat="46.52157" lon="-1.64593">
        <ele>-467.39999389648</ele>
        <time>2021-03-23T08:47:48Z</time>
      </trkpt>
      <trkpt lat="46.52157" lon="-1.64587">
        <ele>-467</ele>
        <time>2021-03-23T08:47:49Z</time>
      </trkpt>
      <trkpt lat="46.52158" lon="-1.6458">
        <ele>-466.60000610352</ele>
        <time>2021-03-23T08:47:50Z</time>
      </trkpt>
      <trkpt lat="46.52159" lon="-1.64573">
        <ele>-466</ele>
        <time>2021-03-23T08:47:51Z</time>
      </trkpt>
      <trkpt lat="46.5216" lon="-1.64566">
        <ele>-466</ele>
        <time>2021-03-23T08:47:52Z</time>
      </trkpt>
      <trkpt lat="46.52168" lon="-1.64521">
        <ele>-466</ele>
        <time>2021-03-23T08:47:59Z</time>
      </trkpt>
      <trkpt lat="46.52174" lon="-1.64468">
        <ele>-466</ele>
        <time>2021-03-23T08:48:06Z</time>
      </trkpt>
      <trkpt lat="46.52176" lon="-1.6444">
        <ele>-466.39999389648</ele>
        <time>2021-03-23T08:48:09Z</time>
      </trkpt>
      <trkpt lat="46.52176" lon="-1.64431">
        <ele>-466.79998779297</ele>
        <time>2021-03-23T08:48:10Z</time>
      </trkpt>
      <trkpt lat="46.52177" lon="-1.64423">
        <ele>-467.39999389648</ele>
        <time>2021-03-23T08:48:11Z</time>
      </trkpt>
      <trkpt lat="46.52177" lon="-1.64415">
        <ele>-467.79998779297</ele>
        <time>2021-03-23T08:48:12Z</time>
      </trkpt>
      <trkpt lat="46.52177" lon="-1.64407">
        <ele>-468.20001220703</ele>
        <time>2021-03-23T08:48:13Z</time>
      </trkpt>
      <trkpt lat="46.52178" lon="-1.64356">
        <ele>-468.20001220703</ele>
        <time>2021-03-23T08:48:20Z</time>
      </trkpt>
      <trkpt lat="46.52179" lon="-1.64331">
        <ele>-468.20001220703</ele>
        <time>2021-03-23T08:48:25Z</time>
      </trkpt>
      <trkpt lat="46.52176" lon="-1.64325">
        <ele>-468.20001220703</ele>
        <time>2021-03-23T08:48:29Z</time>
      </trkpt>
      <trkpt lat="46.52176" lon="-1.64324">
        <ele>-468.20001220703</ele>
        <time>2021-03-23T08:48:31Z</time>
      </trkpt>
      <trkpt lat="46.52172" lon="-1.64323">
        <ele>-466.20001220703</ele>
        <time>2021-03-23T08:51:01Z</time>
      </trkpt>
      <trkpt lat="46.52171" lon="-1.64323">
        <ele>-466.20001220703</ele>
        <time>2021-03-23T08:51:02Z</time>
      </trkpt>
      <trkpt lat="46.52163" lon="-1.64324">
        <ele>-466.20001220703</ele>
        <time>2021-03-23T08:51:06Z</time>
      </trkpt>
      <trkpt lat="46.5216" lon="-1.64325">
        <ele>-466.20001220703</ele>
        <time>2021-03-23T08:51:07Z</time>
      </trkpt>
      <trkpt lat="46.52142" lon="-1.64322">
        <ele>-466.20001220703</ele>
        <time>2021-03-23T08:51:12Z</time>
      </trkpt>
      <trkpt lat="46.52106" lon="-1.64319">
        <ele>-466.20001220703</ele>
        <time>2021-03-23T08:51:19Z</time>
      </trkpt>
      <trkpt lat="46.52101" lon="-1.64319">
        <ele>-465.79998779297</ele>
        <time>2021-03-23T08:51:20Z</time>
      </trkpt>
      <trkpt lat="46.52095" lon="-1.64318">
        <ele>-465.39999389648</ele>
        <time>2021-03-23T08:51:21Z</time>
      </trkpt>
      <trkpt lat="46.5209" lon="-1.64318">
        <ele>-465</ele>
        <time>2021-03-23T08:51:22Z</time>
      </trkpt>
      <trkpt lat="46.52084" lon="-1.64317">
        <ele>-464.60000610352</ele>
        <time>2021-03-23T08:51:23Z</time>
      </trkpt>
      <trkpt lat="46.52079" lon="-1.64316">
        <ele>-464.20001220703</ele>
        <time>2021-03-23T08:51:24Z</time>
      </trkpt>
      <trkpt lat="46.52072" lon="-1.64314">
        <ele>-464.20001220703</ele>
        <time>2021-03-23T08:51:26Z</time>
      </trkpt>
      <trkpt lat="46.52066" lon="-1.64312">
        <ele>-464.20001220703</ele>
        <time>2021-03-23T08:51:30Z</time>
      </trkpt>
      <trkpt lat="46.52069" lon="-1.64311">
        <ele>-464.20001220703</ele>
        <time>2021-03-23T08:51:33Z</time>
      </trkpt>
      <trkpt lat="46.52075" lon="-1.64313">
        <ele>-464.20001220703</ele>
        <time>2021-03-23T08:51:35Z</time>
      </trkpt>
      <trkpt lat="46.52087" lon="-1.64315">
        <ele>-464.20001220703</ele>
        <time>2021-03-23T08:51:38Z</time>
      </trkpt>
      <trkpt lat="46.5211" lon="-1.64319">
        <ele>-464.20001220703</ele>
        <time>2021-03-23T08:51:43Z</time>
      </trkpt>
      <trkpt lat="46.5215" lon="-1.64323">
        <ele>-464.20001220703</ele>
        <time>2021-03-23T08:51:50Z</time>
      </trkpt>
      <trkpt lat="46.52172" lon="-1.64319">
        <ele>-464.20001220703</ele>
        <time>2021-03-23T08:51:54Z</time>
      </trkpt>
      <trkpt lat="46.52183" lon="-1.64314">
        <ele>-464.20001220703</ele>
        <time>2021-03-23T08:51:56Z</time>
      </trkpt>
      <trkpt lat="46.52215" lon="-1.64288">
        <ele>-464.20001220703</ele>
        <time>2021-03-23T08:52:02Z</time>
      </trkpt>
      <trkpt lat="46.52258" lon="-1.64252">
        <ele>-464.20001220703</ele>
        <time>2021-03-23T08:52:10Z</time>
      </trkpt>
      <trkpt lat="46.52294" lon="-1.64234">
        <ele>-464.20001220703</ele>
        <time>2021-03-23T08:52:16Z</time>
      </trkpt>
      <trkpt lat="46.52298" lon="-1.64232">
        <ele>-464.60000610352</ele>
        <time>2021-03-23T08:52:17Z</time>
      </trkpt>
      <trkpt lat="46.52302" lon="-1.64231">
        <ele>-465</ele>
        <time>2021-03-23T08:52:18Z</time>
      </trkpt>
      <trkpt lat="46.52305" lon="-1.64229">
        <ele>-465.39999389648</ele>
        <time>2021-03-23T08:52:19Z</time>
      </trkpt>
      <trkpt lat="46.52306" lon="-1.64228">
        <ele>-465.79998779297</ele>
        <time>2021-03-23T08:52:20Z</time>
      </trkpt>
      <trkpt lat="46.52306" lon="-1.64225">
        <ele>-466.20001220703</ele>
        <time>2021-03-23T08:52:21Z</time>
      </trkpt>
      <trkpt lat="46.52305" lon="-1.64223">
        <ele>-466.20001220703</ele>
        <time>2021-03-23T08:52:22Z</time>
      </trkpt>
      <trkpt lat="46.523" lon="-1.64224">
        <ele>-466.20001220703</ele>
        <time>2021-03-23T08:52:26Z</time>
      </trkpt>
      <trkpt lat="46.52301" lon="-1.64231">
        <ele>-466.20001220703</ele>
        <time>2021-03-23T08:52:31Z</time>
      </trkpt>
      <trkpt lat="46.52308" lon="-1.64226">
        <ele>-466.20001220703</ele>
        <time>2021-03-23T08:52:34Z</time>
      </trkpt>
      <trkpt lat="46.52311" lon="-1.64224">
        <ele>-466.20001220703</ele>
        <time>2021-03-23T08:52:35Z</time>
      </trkpt>
      <trkpt lat="46.52325" lon="-1.64214">
        <ele>-466.20001220703</ele>
        <time>2021-03-23T08:52:39Z</time>
      </trkpt>
      <trkpt lat="46.52355" lon="-1.64184">
        <ele>-466.20001220703</ele>
        <time>2021-03-23T08:52:46Z</time>
      </trkpt>
      <trkpt lat="46.52383" lon="-1.64152">
        <ele>-466.20001220703</ele>
        <time>2021-03-23T08:52:52Z</time>
      </trkpt>
      <trkpt lat="46.52404" lon="-1.6413">
        <ele>-465.20001220703</ele>
        <time>2021-03-23T08:52:56Z</time>
      </trkpt>
      <trkpt lat="46.52409" lon="-1.64125">
        <ele>-464.79998779297</ele>
        <time>2021-03-23T08:52:57Z</time>
      </trkpt>
      <trkpt lat="46.52414" lon="-1.64119">
        <ele>-464.39999389648</ele>
        <time>2021-03-23T08:52:58Z</time>
      </trkpt>
      <trkpt lat="46.5242" lon="-1.64114">
        <ele>-463.79998779297</ele>
        <time>2021-03-23T08:52:59Z</time>
      </trkpt>
      <trkpt lat="46.52425" lon="-1.64108">
        <ele>-463.79998779297</ele>
        <time>2021-03-23T08:53:00Z</time>
      </trkpt>
      <trkpt lat="46.52452" lon="-1.64063">
        <ele>-463.79998779297</ele>
        <time>2021-03-23T08:53:06Z</time>
      </trkpt>
      <trkpt lat="46.5248" lon="-1.64006">
        <ele>-464.39999389648</ele>
        <time>2021-03-23T08:53:13Z</time>
      </trkpt>
      <trkpt lat="46.52484" lon="-1.63998">
        <ele>-464.79998779297</ele>
        <time>2021-03-23T08:53:14Z</time>
      </trkpt>
      <trkpt lat="46.52488" lon="-1.6399">
        <ele>-465.20001220703</ele>
        <time>2021-03-23T08:53:15Z</time>
      </trkpt>
      <trkpt lat="46.52492" lon="-1.63982">
        <ele>-465.60000610352</ele>
        <time>2021-03-23T08:53:16Z</time>
      </trkpt>
      <trkpt lat="46.52496" lon="-1.63974">
        <ele>-466.20001220703</ele>
        <time>2021-03-23T08:53:17Z</time>
      </trkpt>
      <trkpt lat="46.52516" lon="-1.63932">
        <ele>-466.20001220703</ele>
        <time>2021-03-23T08:53:22Z</time>
      </trkpt>
      <trkpt lat="46.52525" lon="-1.63915">
        <ele>-466.20001220703</ele>
        <time>2021-03-23T08:53:24Z</time>
      </trkpt>
      <trkpt lat="46.5253" lon="-1.63905">
        <ele>-466.60000610352</ele>
        <time>2021-03-23T08:53:25Z</time>
      </trkpt>
      <trkpt lat="46.52534" lon="-1.63896">
        <ele>-467.20001220703</ele>
        <time>2021-03-23T08:53:26Z</time>
      </trkpt>
      <trkpt lat="46.52538" lon="-1.63887">
        <ele>-467.60000610352</ele>
        <time>2021-03-23T08:53:27Z</time>
      </trkpt>
      <trkpt lat="46.52543" lon="-1.63878">
        <ele>-468.20001220703</ele>
        <time>2021-03-23T08:53:28Z</time>
      </trkpt>
      <trkpt lat="46.52547" lon="-1.63869">
        <ele>-468.60000610352</ele>
        <time>2021-03-23T08:53:29Z</time>
      </trkpt>
      <trkpt lat="46.52551" lon="-1.63861">
        <ele>-468.60000610352</ele>
        <time>2021-03-23T08:53:30Z</time>
      </trkpt>
      <trkpt lat="46.52565" lon="-1.63834">
        <ele>-469</ele>
        <time>2021-03-23T08:53:33Z</time>
      </trkpt>
      <trkpt lat="46.52569" lon="-1.63825">
        <ele>-469.39999389648</ele>
        <time>2021-03-23T08:53:34Z</time>
      </trkpt>
      <trkpt lat="46.52574" lon="-1.63817">
        <ele>-469.79998779297</ele>
        <time>2021-03-23T08:53:35Z</time>
      </trkpt>
      <trkpt lat="46.52578" lon="-1.63808">
        <ele>-470.20001220703</ele>
        <time>2021-03-23T08:53:36Z</time>
      </trkpt>
      <trkpt lat="46.52583" lon="-1.638">
        <ele>-470.60000610352</ele>
        <time>2021-03-23T08:53:37Z</time>
      </trkpt>
      <trkpt lat="46.52593" lon="-1.63785">
        <ele>-470.60000610352</ele>
        <time>2021-03-23T08:53:39Z</time>
      </trkpt>
      <trkpt lat="46.52599" lon="-1.63779">
        <ele>-470.60000610352</ele>
        <time>2021-03-23T08:53:40Z</time>
      </trkpt>
      <trkpt lat="46.52615" lon="-1.63764">
        <ele>-470.60000610352</ele>
        <time>2021-03-23T08:53:43Z</time>
      </trkpt>
      <trkpt lat="46.52654" lon="-1.63735">
        <ele>-470.60000610352</ele>
        <time>2021-03-23T08:53:50Z</time>
      </trkpt>
      <trkpt lat="46.52683" lon="-1.63709">
        <ele>-470.60000610352</ele>
        <time>2021-03-23T08:53:56Z</time>
      </trkpt>
      <trkpt lat="46.52697" lon="-1.63681">
        <ele>-470.60000610352</ele>
        <time>2021-03-23T08:54:00Z</time>
      </trkpt>
      <trkpt lat="46.52701" lon="-1.6365">
        <ele>-470.60000610352</ele>
        <time>2021-03-23T08:54:04Z</time>
      </trkpt>
      <trkpt lat="46.52702" lon="-1.63642">
        <ele>-470.20001220703</ele>
        <time>2021-03-23T08:54:05Z</time>
      </trkpt>
      <trkpt lat="46.52702" lon="-1.63635">
        <ele>-469.79998779297</ele>
        <time>2021-03-23T08:54:06Z</time>
      </trkpt>
      <trkpt lat="46.52702" lon="-1.63628">
        <ele>-469.39999389648</ele>
        <time>2021-03-23T08:54:07Z</time>
      </trkpt>
      <trkpt lat="46.52703" lon="-1.63621">
        <ele>-468.79998779297</ele>
        <time>2021-03-23T08:54:08Z</time>
      </trkpt>
      <trkpt lat="46.52703" lon="-1.63614">
        <ele>-468.39999389648</ele>
        <time>2021-03-23T08:54:09Z</time>
      </trkpt>
      <trkpt lat="46.52704" lon="-1.63599">
        <ele>-468.39999389648</ele>
        <time>2021-03-23T08:54:11Z</time>
      </trkpt>
      <trkpt lat="46.52709" lon="-1.63538">
        <ele>-468.39999389648</ele>
        <time>2021-03-23T08:54:19Z</time>
      </trkpt>
      <trkpt lat="46.52719" lon="-1.63492">
        <ele>-468.39999389648</ele>
        <time>2021-03-23T08:54:25Z</time>
      </trkpt>
      <trkpt lat="46.5273" lon="-1.63474">
        <ele>-468.39999389648</ele>
        <time>2021-03-23T08:54:28Z</time>
      </trkpt>
      <trkpt lat="46.52738" lon="-1.63462">
        <ele>-468.39999389648</ele>
        <time>2021-03-23T08:54:30Z</time>
      </trkpt>
      <trkpt lat="46.52745" lon="-1.63449">
        <ele>-468.39999389648</ele>
        <time>2021-03-23T08:54:32Z</time>
      </trkpt>
      <trkpt lat="46.52751" lon="-1.63424">
        <ele>-468.39999389648</ele>
        <time>2021-03-23T08:54:35Z</time>
      </trkpt>
      <trkpt lat="46.52753" lon="-1.63415">
        <ele>-468.39999389648</ele>
        <time>2021-03-23T08:54:36Z</time>
      </trkpt>
      <trkpt lat="46.5276" lon="-1.63383">
        <ele>-468.39999389648</ele>
        <time>2021-03-23T08:54:40Z</time>
      </trkpt>
      <trkpt lat="46.52759" lon="-1.63375">
        <ele>-468.39999389648</ele>
        <time>2021-03-23T08:54:41Z</time>
      </trkpt>
      <trkpt lat="46.52748" lon="-1.63359">
        <ele>-468.39999389648</ele>
        <time>2021-03-23T08:54:44Z</time>
      </trkpt>
      <trkpt lat="46.52737" lon="-1.63353">
        <ele>-468.39999389648</ele>
        <time>2021-03-23T08:54:46Z</time>
      </trkpt>
      <trkpt lat="46.52727" lon="-1.63345">
        <ele>-468.39999389648</ele>
        <time>2021-03-23T08:54:48Z</time>
      </trkpt>
      <trkpt lat="46.52701" lon="-1.63316">
        <ele>-468.39999389648</ele>
        <time>2021-03-23T08:54:54Z</time>
      </trkpt>
      <trkpt lat="46.52688" lon="-1.63298">
        <ele>-468.39999389648</ele>
        <time>2021-03-23T08:54:57Z</time>
      </trkpt>
      <trkpt lat="46.52681" lon="-1.63287">
        <ele>-468.39999389648</ele>
        <time>2021-03-23T08:54:59Z</time>
      </trkpt>
      <trkpt lat="46.52677" lon="-1.63282">
        <ele>-468.39999389648</ele>
        <time>2021-03-23T08:55:00Z</time>
      </trkpt>
      <trkpt lat="46.52649" lon="-1.63243">
        <ele>-468.39999389648</ele>
        <time>2021-03-23T08:55:07Z</time>
      </trkpt>
      <trkpt lat="46.52619" lon="-1.63201">
        <ele>-468.39999389648</ele>
        <time>2021-03-23T08:55:15Z</time>
      </trkpt>
      <trkpt lat="46.52595" lon="-1.63167">
        <ele>-468.39999389648</ele>
        <time>2021-03-23T08:55:21Z</time>
      </trkpt>
      <trkpt lat="46.52566" lon="-1.63131">
        <ele>-468.39999389648</ele>
        <time>2021-03-23T08:55:28Z</time>
      </trkpt>
      <trkpt lat="46.5255" lon="-1.6311">
        <ele>-468.79998779297</ele>
        <time>2021-03-23T08:55:32Z</time>
      </trkpt>
      <trkpt lat="46.52545" lon="-1.63105">
        <ele>-469.20001220703</ele>
        <time>2021-03-23T08:55:33Z</time>
      </trkpt>
      <trkpt lat="46.52541" lon="-1.631">
        <ele>-469.60000610352</ele>
        <time>2021-03-23T08:55:34Z</time>
      </trkpt>
      <trkpt lat="46.52537" lon="-1.63095">
        <ele>-470</ele>
        <time>2021-03-23T08:55:35Z</time>
      </trkpt>
      <trkpt lat="46.52533" lon="-1.63089">
        <ele>-470.39999389648</ele>
        <time>2021-03-23T08:55:36Z</time>
      </trkpt>
      <trkpt lat="46.52525" lon="-1.63078">
        <ele>-470.39999389648</ele>
        <time>2021-03-23T08:55:38Z</time>
      </trkpt>
      <trkpt lat="46.5252" lon="-1.63066">
        <ele>-470.39999389648</ele>
        <time>2021-03-23T08:55:40Z</time>
      </trkpt>
      <trkpt lat="46.52514" lon="-1.63046">
        <ele>-470.39999389648</ele>
        <time>2021-03-23T08:55:43Z</time>
      </trkpt>
      <trkpt lat="46.52511" lon="-1.63034">
        <ele>-470.39999389648</ele>
        <time>2021-03-23T08:55:45Z</time>
      </trkpt>
      <trkpt lat="46.52507" lon="-1.6303">
        <ele>-470.39999389648</ele>
        <time>2021-03-23T08:55:46Z</time>
      </trkpt>
      <trkpt lat="46.52489" lon="-1.63019">
        <ele>-470.39999389648</ele>
        <time>2021-03-23T08:55:50Z</time>
      </trkpt>
      <trkpt lat="46.52463" lon="-1.62999">
        <ele>-470.39999389648</ele>
        <time>2021-03-23T08:55:56Z</time>
      </trkpt>
      <trkpt lat="46.52436" lon="-1.62982">
        <ele>-470.39999389648</ele>
        <time>2021-03-23T08:56:03Z</time>
      </trkpt>
      <trkpt lat="46.52412" lon="-1.62972">
        <ele>-470</ele>
        <time>2021-03-23T08:56:09Z</time>
      </trkpt>
      <trkpt lat="46.52407" lon="-1.62971">
        <ele>-469.60000610352</ele>
        <time>2021-03-23T08:56:10Z</time>
      </trkpt>
      <trkpt lat="46.52403" lon="-1.62969">
        <ele>-469.20001220703</ele>
        <time>2021-03-23T08:56:11Z</time>
      </trkpt>
      <trkpt lat="46.52399" lon="-1.62968">
        <ele>-468.79998779297</ele>
        <time>2021-03-23T08:56:12Z</time>
      </trkpt>
      <trkpt lat="46.52394" lon="-1.62967">
        <ele>-468.39999389648</ele>
        <time>2021-03-23T08:56:13Z</time>
      </trkpt>
      <trkpt lat="46.52376" lon="-1.6296">
        <ele>-468.39999389648</ele>
        <time>2021-03-23T08:56:17Z</time>
      </trkpt>
      <trkpt lat="46.52349" lon="-1.62948">
        <ele>-468.39999389648</ele>
        <time>2021-03-23T08:56:24Z</time>
      </trkpt>
      <trkpt lat="46.52331" lon="-1.62939">
        <ele>-468.39999389648</ele>
        <time>2021-03-23T08:56:31Z</time>
      </trkpt>
      <trkpt lat="46.52315" lon="-1.62929">
        <ele>-468.39999389648</ele>
        <time>2021-03-23T08:56:37Z</time>
      </trkpt>
      <trkpt lat="46.52313" lon="-1.62927">
        <ele>-467.60000610352</ele>
        <time>2021-03-23T08:56:38Z</time>
      </trkpt>
      <trkpt lat="46.5231" lon="-1.62925">
        <ele>-467.20001220703</ele>
        <time>2021-03-23T08:56:39Z</time>
      </trkpt>
      <trkpt lat="46.52307" lon="-1.62924">
        <ele>-466.79998779297</ele>
        <time>2021-03-23T08:56:40Z</time>
      </trkpt>
      <trkpt lat="46.52305" lon="-1.62922">
        <ele>-466.20001220703</ele>
        <time>2021-03-23T08:56:41Z</time>
      </trkpt>
      <trkpt lat="46.523" lon="-1.6292">
        <ele>-466.20001220703</ele>
        <time>2021-03-23T08:56:43Z</time>
      </trkpt>
      <trkpt lat="46.52285" lon="-1.62913">
        <ele>-466.20001220703</ele>
        <time>2021-03-23T08:56:48Z</time>
      </trkpt>
      <trkpt lat="46.52259" lon="-1.62899">
        <ele>-466.20001220703</ele>
        <time>2021-03-23T08:56:56Z</time>
      </trkpt>
      <trkpt lat="46.52233" lon="-1.62885">
        <ele>-466.20001220703</ele>
        <time>2021-03-23T08:57:04Z</time>
      </trkpt>
      <trkpt lat="46.52216" lon="-1.62876">
        <ele>-465.79998779297</ele>
        <time>2021-03-23T08:57:09Z</time>
      </trkpt>
      <trkpt lat="46.52213" lon="-1.62875">
        <ele>-465.39999389648</ele>
        <time>2021-03-23T08:57:10Z</time>
      </trkpt>
      <trkpt lat="46.52209" lon="-1.62873">
        <ele>-465</ele>
        <time>2021-03-23T08:57:11Z</time>
      </trkpt>
      <trkpt lat="46.52206" lon="-1.62871">
        <ele>-464.60000610352</ele>
        <time>2021-03-23T08:57:12Z</time>
      </trkpt>
      <trkpt lat="46.52202" lon="-1.62869">
        <ele>-464.20001220703</ele>
        <time>2021-03-23T08:57:13Z</time>
      </trkpt>
      <trkpt lat="46.52188" lon="-1.62863">
        <ele>-464.20001220703</ele>
        <time>2021-03-23T08:57:17Z</time>
      </trkpt>
      <trkpt lat="46.52161" lon="-1.62852">
        <ele>-464.20001220703</ele>
        <time>2021-03-23T08:57:25Z</time>
      </trkpt>
      <trkpt lat="46.52137" lon="-1.62841">
        <ele>-464.20001220703</ele>
        <time>2021-03-23T08:57:33Z</time>
      </trkpt>
      <trkpt lat="46.52111" lon="-1.62828">
        <ele>-464.20001220703</ele>
        <time>2021-03-23T08:57:41Z</time>
      </trkpt>
      <trkpt lat="46.52107" lon="-1.62826">
        <ele>-463.79998779297</ele>
        <time>2021-03-23T08:57:42Z</time>
      </trkpt>
      <trkpt lat="46.52104" lon="-1.62824">
        <ele>-463.39999389648</ele>
        <time>2021-03-23T08:57:43Z</time>
      </trkpt>
      <trkpt lat="46.52101" lon="-1.62823">
        <ele>-463</ele>
        <time>2021-03-23T08:57:44Z</time>
      </trkpt>
      <trkpt lat="46.52098" lon="-1.62821">
        <ele>-462.60000610352</ele>
        <time>2021-03-23T08:57:45Z</time>
      </trkpt>
      <trkpt lat="46.52095" lon="-1.62819">
        <ele>-462</ele>
        <time>2021-03-23T08:57:46Z</time>
      </trkpt>
      <trkpt lat="46.52091" lon="-1.62816">
        <ele>-462</ele>
        <time>2021-03-23T08:57:47Z</time>
      </trkpt>
      <trkpt lat="46.52066" lon="-1.62802">
        <ele>-462</ele>
        <time>2021-03-23T08:57:54Z</time>
      </trkpt>
      <trkpt lat="46.52044" lon="-1.62791">
        <ele>-462</ele>
        <time>2021-03-23T08:58:00Z</time>
      </trkpt>
      <trkpt lat="46.52022" lon="-1.62776">
        <ele>-462</ele>
        <time>2021-03-23T08:58:06Z</time>
      </trkpt>
      <trkpt lat="46.52002" lon="-1.62767">
        <ele>-461.60000610352</ele>
        <time>2021-03-23T08:58:11Z</time>
      </trkpt>
      <trkpt lat="46.51998" lon="-1.62764">
        <ele>-461.20001220703</ele>
        <time>2021-03-23T08:58:12Z</time>
      </trkpt>
      <trkpt lat="46.51994" lon="-1.62762">
        <ele>-460.79998779297</ele>
        <time>2021-03-23T08:58:13Z</time>
      </trkpt>
      <trkpt lat="46.5199" lon="-1.6276">
        <ele>-460.39999389648</ele>
        <time>2021-03-23T08:58:14Z</time>
      </trkpt>
      <trkpt lat="46.51986" lon="-1.62758">
        <ele>-460</ele>
        <time>2021-03-23T08:58:15Z</time>
      </trkpt>
      <trkpt lat="46.51962" lon="-1.62746">
        <ele>-460</ele>
        <time>2021-03-23T08:58:21Z</time>
      </trkpt>
      <trkpt lat="46.51931" lon="-1.62733">
        <ele>-460</ele>
        <time>2021-03-23T08:58:28Z</time>
      </trkpt>
      <trkpt lat="46.51927" lon="-1.62731">
        <ele>-460</ele>
        <time>2021-03-23T08:58:29Z</time>
      </trkpt>
      <trkpt lat="46.51906" lon="-1.62722">
        <ele>-460</ele>
        <time>2021-03-23T08:58:34Z</time>
      </trkpt>
      <trkpt lat="46.51881" lon="-1.62707">
        <ele>-460</ele>
        <time>2021-03-23T08:58:40Z</time>
      </trkpt>
      <trkpt lat="46.51877" lon="-1.62705">
        <ele>-460</ele>
        <time>2021-03-23T08:58:41Z</time>
      </trkpt>
      <trkpt lat="46.51855" lon="-1.62696">
        <ele>-460</ele>
        <time>2021-03-23T08:58:46Z</time>
      </trkpt>
      <trkpt lat="46.51828" lon="-1.62684">
        <ele>-460</ele>
        <time>2021-03-23T08:58:52Z</time>
      </trkpt>
      <trkpt lat="46.51796" lon="-1.62672">
        <ele>-460</ele>
        <time>2021-03-23T08:58:59Z</time>
      </trkpt>
      <trkpt lat="46.51768" lon="-1.62663">
        <ele>-460</ele>
        <time>2021-03-23T08:59:05Z</time>
      </trkpt>
      <trkpt lat="46.51736" lon="-1.62652">
        <ele>-460</ele>
        <time>2021-03-23T08:59:12Z</time>
      </trkpt>
      <trkpt lat="46.51711" lon="-1.62643">
        <ele>-460</ele>
        <time>2021-03-23T08:59:19Z</time>
      </trkpt>
      <trkpt lat="46.51706" lon="-1.62636">
        <ele>-460</ele>
        <time>2021-03-23T08:59:21Z</time>
      </trkpt>
      <trkpt lat="46.51705" lon="-1.62626">
        <ele>-460</ele>
        <time>2021-03-23T08:59:23Z</time>
      </trkpt>
      <trkpt lat="46.51705" lon="-1.62613">
        <ele>-460</ele>
        <time>2021-03-23T08:59:25Z</time>
      </trkpt>
      <trkpt lat="46.51706" lon="-1.62585">
        <ele>-460</ele>
        <time>2021-03-23T08:59:29Z</time>
      </trkpt>
      <trkpt lat="46.51708" lon="-1.62536">
        <ele>-460</ele>
        <time>2021-03-23T08:59:36Z</time>
      </trkpt>
      <trkpt lat="46.51708" lon="-1.62492">
        <ele>-460</ele>
        <time>2021-03-23T08:59:42Z</time>
      </trkpt>
      <trkpt lat="46.51709" lon="-1.62431">
        <ele>-460</ele>
        <time>2021-03-23T08:59:50Z</time>
      </trkpt>
      <trkpt lat="46.5171" lon="-1.62372">
        <ele>-460</ele>
        <time>2021-03-23T08:59:58Z</time>
      </trkpt>
      <trkpt lat="46.51711" lon="-1.62337">
        <ele>-460</ele>
        <time>2021-03-23T09:00:04Z</time>
      </trkpt>
      <trkpt lat="46.51707" lon="-1.62327">
        <ele>-460</ele>
        <time>2021-03-23T09:00:08Z</time>
      </trkpt>
      <trkpt lat="46.5171" lon="-1.62309">
        <ele>-460</ele>
        <time>2021-03-23T09:00:12Z</time>
      </trkpt>
      <trkpt lat="46.51711" lon="-1.62302">
        <ele>-460</ele>
        <time>2021-03-23T09:00:13Z</time>
      </trkpt>
      <trkpt lat="46.51711" lon="-1.62273">
        <ele>-460</ele>
        <time>2021-03-23T09:00:17Z</time>
      </trkpt>
      <trkpt lat="46.51711" lon="-1.62214">
        <ele>-460</ele>
        <time>2021-03-23T09:00:24Z</time>
      </trkpt>
      <trkpt lat="46.51711" lon="-1.62143">
        <ele>-460</ele>
        <time>2021-03-23T09:00:32Z</time>
      </trkpt>
      <trkpt lat="46.51712" lon="-1.62085">
        <ele>-460</ele>
        <time>2021-03-23T09:00:39Z</time>
      </trkpt>
      <trkpt lat="46.51713" lon="-1.62037">
        <ele>-460</ele>
        <time>2021-03-23T09:00:45Z</time>
      </trkpt>
      <trkpt lat="46.51714" lon="-1.61973">
        <ele>-460</ele>
        <time>2021-03-23T09:00:53Z</time>
      </trkpt>
      <trkpt lat="46.51715" lon="-1.61929">
        <ele>-460</ele>
        <time>2021-03-23T09:00:59Z</time>
      </trkpt>
      <trkpt lat="46.51714" lon="-1.61921">
        <ele>-460</ele>
        <time>2021-03-23T09:01:00Z</time>
      </trkpt>
      <trkpt lat="46.51714" lon="-1.61874">
        <ele>-460</ele>
        <time>2021-03-23T09:01:06Z</time>
      </trkpt>
      <trkpt lat="46.51714" lon="-1.61865">
        <ele>-460</ele>
        <time>2021-03-23T09:01:07Z</time>
      </trkpt>
      <trkpt lat="46.51714" lon="-1.61786">
        <ele>-460</ele>
        <time>2021-03-23T09:01:16Z</time>
      </trkpt>
      <trkpt lat="46.51714" lon="-1.6171">
        <ele>-460</ele>
        <time>2021-03-23T09:01:25Z</time>
      </trkpt>
      <trkpt lat="46.51715" lon="-1.61675">
        <ele>-460</ele>
        <time>2021-03-23T09:01:30Z</time>
      </trkpt>
      <trkpt lat="46.51718" lon="-1.6167">
        <ele>-460</ele>
        <time>2021-03-23T09:01:31Z</time>
      </trkpt>
      <trkpt lat="46.51732" lon="-1.61661">
        <ele>-461</ele>
        <time>2021-03-23T09:01:34Z</time>
      </trkpt>
      <trkpt lat="46.51737" lon="-1.61659">
        <ele>-461.39999389648</ele>
        <time>2021-03-23T09:01:35Z</time>
      </trkpt>
      <trkpt lat="46.51742" lon="-1.61657">
        <ele>-462</ele>
        <time>2021-03-23T09:01:36Z</time>
      </trkpt>
      <trkpt lat="46.51747" lon="-1.61655">
        <ele>-462.39999389648</ele>
        <time>2021-03-23T09:01:37Z</time>
      </trkpt>
      <trkpt lat="46.51774" lon="-1.61643">
        <ele>-462.39999389648</ele>
        <time>2021-03-23T09:01:42Z</time>
      </trkpt>
      <trkpt lat="46.51816" lon="-1.61625">
        <ele>-462.39999389648</ele>
        <time>2021-03-23T09:01:49Z</time>
      </trkpt>
      <trkpt lat="46.51862" lon="-1.6161">
        <ele>-462.39999389648</ele>
        <time>2021-03-23T09:01:57Z</time>
      </trkpt>
      <trkpt lat="46.51892" lon="-1.61599">
        <ele>-462.39999389648</ele>
        <time>2021-03-23T09:02:03Z</time>
      </trkpt>
      <trkpt lat="46.51929" lon="-1.6158">
        <ele>-462.39999389648</ele>
        <time>2021-03-23T09:02:10Z</time>
      </trkpt>
      <trkpt lat="46.51973" lon="-1.61558">
        <ele>-462.39999389648</ele>
        <time>2021-03-23T09:02:18Z</time>
      </trkpt>
      <trkpt lat="46.52011" lon="-1.61545">
        <ele>-462.39999389648</ele>
        <time>2021-03-23T09:02:25Z</time>
      </trkpt>
      <trkpt lat="46.52052" lon="-1.61539">
        <ele>-462.39999389648</ele>
        <time>2021-03-23T09:02:32Z</time>
      </trkpt>
      <trkpt lat="46.52081" lon="-1.61549">
        <ele>-462.39999389648</ele>
        <time>2021-03-23T09:02:37Z</time>
      </trkpt>
      <trkpt lat="46.52091" lon="-1.61552">
        <ele>-462.39999389648</ele>
        <time>2021-03-23T09:02:39Z</time>
      </trkpt>
      <trkpt lat="46.52107" lon="-1.61553">
        <ele>-462.39999389648</ele>
        <time>2021-03-23T09:02:42Z</time>
      </trkpt>
      <trkpt lat="46.52128" lon="-1.61544">
        <ele>-462.39999389648</ele>
        <time>2021-03-23T09:02:46Z</time>
      </trkpt>
      <trkpt lat="46.52158" lon="-1.61525">
        <ele>-462.39999389648</ele>
        <time>2021-03-23T09:02:52Z</time>
      </trkpt>
      <trkpt lat="46.52184" lon="-1.61506">
        <ele>-462.79998779297</ele>
        <time>2021-03-23T09:02:57Z</time>
      </trkpt>
      <trkpt lat="46.5219" lon="-1.61503">
        <ele>-463.20001220703</ele>
        <time>2021-03-23T09:02:58Z</time>
      </trkpt>
      <trkpt lat="46.52196" lon="-1.61499">
        <ele>-463.60000610352</ele>
        <time>2021-03-23T09:02:59Z</time>
      </trkpt>
      <trkpt lat="46.52202" lon="-1.61494">
        <ele>-464</ele>
        <time>2021-03-23T09:03:00Z</time>
      </trkpt>
      <trkpt lat="46.52208" lon="-1.6149">
        <ele>-464.39999389648</ele>
        <time>2021-03-23T09:03:01Z</time>
      </trkpt>
      <trkpt lat="46.52233" lon="-1.61474">
        <ele>-464.39999389648</ele>
        <time>2021-03-23T09:03:05Z</time>
      </trkpt>
      <trkpt lat="46.52259" lon="-1.61458">
        <ele>-464.79998779297</ele>
        <time>2021-03-23T09:03:09Z</time>
      </trkpt>
      <trkpt lat="46.52265" lon="-1.61454">
        <ele>-465.20001220703</ele>
        <time>2021-03-23T09:03:10Z</time>
      </trkpt>
      <trkpt lat="46.52271" lon="-1.6145">
        <ele>-465.60000610352</ele>
        <time>2021-03-23T09:03:11Z</time>
      </trkpt>
      <trkpt lat="46.52277" lon="-1.61446">
        <ele>-466.20001220703</ele>
        <time>2021-03-23T09:03:12Z</time>
      </trkpt>
      <trkpt lat="46.52283" lon="-1.61442">
        <ele>-466.60000610352</ele>
        <time>2021-03-23T09:03:13Z</time>
      </trkpt>
      <trkpt lat="46.52295" lon="-1.61435">
        <ele>-466.60000610352</ele>
        <time>2021-03-23T09:03:15Z</time>
      </trkpt>
      <trkpt lat="46.52306" lon="-1.61425">
        <ele>-466.60000610352</ele>
        <time>2021-03-23T09:03:17Z</time>
      </trkpt>
      <trkpt lat="46.52342" lon="-1.61397">
        <ele>-466.60000610352</ele>
        <time>2021-03-23T09:03:23Z</time>
      </trkpt>
      <trkpt lat="46.52385" lon="-1.61368">
        <ele>-467</ele>
        <time>2021-03-23T09:03:30Z</time>
      </trkpt>
      <trkpt lat="46.52392" lon="-1.61364">
        <ele>-467.39999389648</ele>
        <time>2021-03-23T09:03:31Z</time>
      </trkpt>
      <trkpt lat="46.52398" lon="-1.6136">
        <ele>-468</ele>
        <time>2021-03-23T09:03:32Z</time>
      </trkpt>
      <trkpt lat="46.52404" lon="-1.61355">
        <ele>-468.39999389648</ele>
        <time>2021-03-23T09:03:33Z</time>
      </trkpt>
      <trkpt lat="46.5241" lon="-1.61352">
        <ele>-468.79998779297</ele>
        <time>2021-03-23T09:03:34Z</time>
      </trkpt>
      <trkpt lat="46.52428" lon="-1.61343">
        <ele>-468.79998779297</ele>
        <time>2021-03-23T09:03:37Z</time>
      </trkpt>
      <trkpt lat="46.52439" lon="-1.61339">
        <ele>-469.20001220703</ele>
        <time>2021-03-23T09:03:39Z</time>
      </trkpt>
      <trkpt lat="46.52445" lon="-1.61337">
        <ele>-469.60000610352</ele>
        <time>2021-03-23T09:03:40Z</time>
      </trkpt>
      <trkpt lat="46.5245" lon="-1.61336">
        <ele>-470</ele>
        <time>2021-03-23T09:03:41Z</time>
      </trkpt>
      <trkpt lat="46.52455" lon="-1.61334">
        <ele>-470.39999389648</ele>
        <time>2021-03-23T09:03:42Z</time>
      </trkpt>
      <trkpt lat="46.5246" lon="-1.61332">
        <ele>-470.79998779297</ele>
        <time>2021-03-23T09:03:43Z</time>
      </trkpt>
      <trkpt lat="46.52466" lon="-1.61331">
        <ele>-470.79998779297</ele>
        <time>2021-03-23T09:03:44Z</time>
      </trkpt>
      <trkpt lat="46.52483" lon="-1.61324">
        <ele>-470.39999389648</ele>
        <time>2021-03-23T09:03:47Z</time>
      </trkpt>
      <trkpt lat="46.52489" lon="-1.61322">
        <ele>-470</ele>
        <time>2021-03-23T09:03:48Z</time>
      </trkpt>
      <trkpt lat="46.52495" lon="-1.61319">
        <ele>-469.60000610352</ele>
        <time>2021-03-23T09:03:49Z</time>
      </trkpt>
      <trkpt lat="46.525" lon="-1.61315">
        <ele>-469.20001220703</ele>
        <time>2021-03-23T09:03:50Z</time>
      </trkpt>
      <trkpt lat="46.52505" lon="-1.61312">
        <ele>-468.79998779297</ele>
        <time>2021-03-23T09:03:51Z</time>
      </trkpt>
      <trkpt lat="46.5253" lon="-1.61291">
        <ele>-468.79998779297</ele>
        <time>2021-03-23T09:03:57Z</time>
      </trkpt>
      <trkpt lat="46.52538" lon="-1.61284">
        <ele>-468.39999389648</ele>
        <time>2021-03-23T09:03:59Z</time>
      </trkpt>
      <trkpt lat="46.52541" lon="-1.6128">
        <ele>-468</ele>
        <time>2021-03-23T09:04:00Z</time>
      </trkpt>
      <trkpt lat="46.52546" lon="-1.61276">
        <ele>-467.60000610352</ele>
        <time>2021-03-23T09:04:01Z</time>
      </trkpt>
      <trkpt lat="46.5255" lon="-1.61272">
        <ele>-467.20001220703</ele>
        <time>2021-03-23T09:04:02Z</time>
      </trkpt>
      <trkpt lat="46.52554" lon="-1.61268">
        <ele>-466.79998779297</ele>
        <time>2021-03-23T09:04:03Z</time>
      </trkpt>
      <trkpt lat="46.52562" lon="-1.61261">
        <ele>-466.79998779297</ele>
        <time>2021-03-23T09:04:05Z</time>
      </trkpt>
      <trkpt lat="46.526" lon="-1.61234">
        <ele>-466.79998779297</ele>
        <time>2021-03-23T09:04:14Z</time>
      </trkpt>
      <trkpt lat="46.52637" lon="-1.61223">
        <ele>-466.79998779297</ele>
        <time>2021-03-23T09:04:22Z</time>
      </trkpt>
      <trkpt lat="46.52654" lon="-1.61211">
        <ele>-466.39999389648</ele>
        <time>2021-03-23T09:04:26Z</time>
      </trkpt>
      <trkpt lat="46.52658" lon="-1.61207">
        <ele>-466</ele>
        <time>2021-03-23T09:04:27Z</time>
      </trkpt>
      <trkpt lat="46.52662" lon="-1.61203">
        <ele>-465.20001220703</ele>
        <time>2021-03-23T09:04:28Z</time>
      </trkpt>
      <trkpt lat="46.52666" lon="-1.61198">
        <ele>-464.60000610352</ele>
        <time>2021-03-23T09:04:29Z</time>
      </trkpt>
      <trkpt lat="46.52679" lon="-1.61181">
        <ele>-464.60000610352</ele>
        <time>2021-03-23T09:04:33Z</time>
      </trkpt>
      <trkpt lat="46.52683" lon="-1.61162">
        <ele>-464.60000610352</ele>
        <time>2021-03-23T09:04:36Z</time>
      </trkpt>
      <trkpt lat="46.52678" lon="-1.61142">
        <ele>-464.60000610352</ele>
        <time>2021-03-23T09:04:39Z</time>
      </trkpt>
      <trkpt lat="46.52675" lon="-1.61134">
        <ele>-464.60000610352</ele>
        <time>2021-03-23T09:04:40Z</time>
      </trkpt>
      <trkpt lat="46.52664" lon="-1.61091">
        <ele>-464.60000610352</ele>
        <time>2021-03-23T09:04:46Z</time>
      </trkpt>
      <trkpt lat="46.52652" lon="-1.61059">
        <ele>-464.60000610352</ele>
        <time>2021-03-23T09:04:51Z</time>
      </trkpt>
      <trkpt lat="46.52633" lon="-1.61015">
        <ele>-464.60000610352</ele>
        <time>2021-03-23T09:04:58Z</time>
      </trkpt>
      <trkpt lat="46.52628" lon="-1.61001">
        <ele>-464.60000610352</ele>
        <time>2021-03-23T09:05:00Z</time>
      </trkpt>
      <trkpt lat="46.52617" lon="-1.60975">
        <ele>-464.60000610352</ele>
        <time>2021-03-23T09:05:04Z</time>
      </trkpt>
      <trkpt lat="46.52598" lon="-1.6093">
        <ele>-464.60000610352</ele>
        <time>2021-03-23T09:05:11Z</time>
      </trkpt>
      <trkpt lat="46.52574" lon="-1.60872">
        <ele>-464.60000610352</ele>
        <time>2021-03-23T09:05:20Z</time>
      </trkpt>
      <trkpt lat="46.52557" lon="-1.60831">
        <ele>-464.60000610352</ele>
        <time>2021-03-23T09:05:26Z</time>
      </trkpt>
      <trkpt lat="46.52543" lon="-1.60798">
        <ele>-464.20001220703</ele>
        <time>2021-03-23T09:05:31Z</time>
      </trkpt>
      <trkpt lat="46.5254" lon="-1.60791">
        <ele>-463.79998779297</ele>
        <time>2021-03-23T09:05:32Z</time>
      </trkpt>
      <trkpt lat="46.52538" lon="-1.60784">
        <ele>-463.39999389648</ele>
        <time>2021-03-23T09:05:33Z</time>
      </trkpt>
      <trkpt lat="46.52535" lon="-1.60778">
        <ele>-463</ele>
        <time>2021-03-23T09:05:34Z</time>
      </trkpt>
      <trkpt lat="46.52532" lon="-1.60772">
        <ele>-462.60000610352</ele>
        <time>2021-03-23T09:05:35Z</time>
      </trkpt>
      <trkpt lat="46.52517" lon="-1.60735">
        <ele>-462.60000610352</ele>
        <time>2021-03-23T09:05:41Z</time>
      </trkpt>
      <trkpt lat="46.52512" lon="-1.60722">
        <ele>-462.60000610352</ele>
        <time>2021-03-23T09:05:43Z</time>
      </trkpt>
      <trkpt lat="46.5251" lon="-1.607">
        <ele>-462.60000610352</ele>
        <time>2021-03-23T09:05:46Z</time>
      </trkpt>
      <trkpt lat="46.52508" lon="-1.6064">
        <ele>-462.60000610352</ele>
        <time>2021-03-23T09:05:54Z</time>
      </trkpt>
      <trkpt lat="46.52509" lon="-1.60596">
        <ele>-462.60000610352</ele>
        <time>2021-03-23T09:06:00Z</time>
      </trkpt>
      <trkpt lat="46.52511" lon="-1.60589">
        <ele>-462.60000610352</ele>
        <time>2021-03-23T09:06:01Z</time>
      </trkpt>
      <trkpt lat="46.52524" lon="-1.60566">
        <ele>-462.60000610352</ele>
        <time>2021-03-23T09:06:05Z</time>
      </trkpt>
      <trkpt lat="46.52534" lon="-1.60558">
        <ele>-462.60000610352</ele>
        <time>2021-03-23T09:06:07Z</time>
      </trkpt>
      <trkpt lat="46.52558" lon="-1.60539">
        <ele>-462.60000610352</ele>
        <time>2021-03-23T09:06:12Z</time>
      </trkpt>
      <trkpt lat="46.52595" lon="-1.60511">
        <ele>-462.60000610352</ele>
        <time>2021-03-23T09:06:20Z</time>
      </trkpt>
      <trkpt lat="46.52618" lon="-1.60496">
        <ele>-462.60000610352</ele>
        <time>2021-03-23T09:06:25Z</time>
      </trkpt>
      <trkpt lat="46.52623" lon="-1.60496">
        <ele>-462.60000610352</ele>
        <time>2021-03-23T09:06:26Z</time>
      </trkpt>
      <trkpt lat="46.52638" lon="-1.60505">
        <ele>-462.60000610352</ele>
        <time>2021-03-23T09:06:29Z</time>
      </trkpt>
      <trkpt lat="46.52668" lon="-1.60537">
        <ele>-462.60000610352</ele>
        <time>2021-03-23T09:06:35Z</time>
      </trkpt>
      <trkpt lat="46.52708" lon="-1.60579">
        <ele>-462.60000610352</ele>
        <time>2021-03-23T09:06:43Z</time>
      </trkpt>
      <trkpt lat="46.52744" lon="-1.60616">
        <ele>-462.60000610352</ele>
        <time>2021-03-23T09:06:50Z</time>
      </trkpt>
      <trkpt lat="46.52769" lon="-1.60642">
        <ele>-462.60000610352</ele>
        <time>2021-03-23T09:06:55Z</time>
      </trkpt>
      <trkpt lat="46.52806" lon="-1.6068">
        <ele>-462.60000610352</ele>
        <time>2021-03-23T09:07:02Z</time>
      </trkpt>
      <trkpt lat="46.52847" lon="-1.60723">
        <ele>-462.60000610352</ele>
        <time>2021-03-23T09:07:10Z</time>
      </trkpt>
      <trkpt lat="46.52853" lon="-1.60728">
        <ele>-463</ele>
        <time>2021-03-23T09:07:11Z</time>
      </trkpt>
      <trkpt lat="46.52858" lon="-1.60734">
        <ele>-463.39999389648</ele>
        <time>2021-03-23T09:07:12Z</time>
      </trkpt>
      <trkpt lat="46.52863" lon="-1.60739">
        <ele>-463.79998779297</ele>
        <time>2021-03-23T09:07:13Z</time>
      </trkpt>
      <trkpt lat="46.52868" lon="-1.60744">
        <ele>-464.20001220703</ele>
        <time>2021-03-23T09:07:14Z</time>
      </trkpt>
      <trkpt lat="46.52873" lon="-1.6075">
        <ele>-464.60000610352</ele>
        <time>2021-03-23T09:07:15Z</time>
      </trkpt>
      <trkpt lat="46.52883" lon="-1.60762">
        <ele>-464.60000610352</ele>
        <time>2021-03-23T09:07:17Z</time>
      </trkpt>
      <trkpt lat="46.52912" lon="-1.608">
        <ele>-464.60000610352</ele>
        <time>2021-03-23T09:07:23Z</time>
      </trkpt>
      <trkpt lat="46.52916" lon="-1.60808">
        <ele>-464.60000610352</ele>
        <time>2021-03-23T09:07:24Z</time>
      </trkpt>
      <trkpt lat="46.52931" lon="-1.60852">
        <ele>-464.60000610352</ele>
        <time>2021-03-23T09:07:29Z</time>
      </trkpt>
      <trkpt lat="46.52943" lon="-1.60881">
        <ele>-465</ele>
        <time>2021-03-23T09:07:32Z</time>
      </trkpt>
      <trkpt lat="46.52947" lon="-1.6089">
        <ele>-465.39999389648</ele>
        <time>2021-03-23T09:07:33Z</time>
      </trkpt>
      <trkpt lat="46.52951" lon="-1.60899">
        <ele>-465.79998779297</ele>
        <time>2021-03-23T09:07:34Z</time>
      </trkpt>
      <trkpt lat="46.52955" lon="-1.60908">
        <ele>-466.20001220703</ele>
        <time>2021-03-23T09:07:35Z</time>
      </trkpt>
      <trkpt lat="46.52961" lon="-1.60916">
        <ele>-466.60000610352</ele>
        <time>2021-03-23T09:07:36Z</time>
      </trkpt>
      <trkpt lat="46.52973" lon="-1.60927">
        <ele>-466.60000610352</ele>
        <time>2021-03-23T09:07:38Z</time>
      </trkpt>
      <trkpt lat="46.52979" lon="-1.60932">
        <ele>-466.60000610352</ele>
        <time>2021-03-23T09:07:39Z</time>
      </trkpt>
      <trkpt lat="46.53015" lon="-1.60964">
        <ele>-466.60000610352</ele>
        <time>2021-03-23T09:07:45Z</time>
      </trkpt>
      <trkpt lat="46.53056" lon="-1.61016">
        <ele>-466.60000610352</ele>
        <time>2021-03-23T09:07:53Z</time>
      </trkpt>
      <trkpt lat="46.53083" lon="-1.61055">
        <ele>-466.60000610352</ele>
        <time>2021-03-23T09:07:59Z</time>
      </trkpt>
      <trkpt lat="46.53116" lon="-1.61093">
        <ele>-466.60000610352</ele>
        <time>2021-03-23T09:08:06Z</time>
      </trkpt>
      <trkpt lat="46.53149" lon="-1.61119">
        <ele>-466.60000610352</ele>
        <time>2021-03-23T09:08:12Z</time>
      </trkpt>
      <trkpt lat="46.53189" lon="-1.61137">
        <ele>-466.60000610352</ele>
        <time>2021-03-23T09:08:19Z</time>
      </trkpt>
      <trkpt lat="46.53235" lon="-1.61156">
        <ele>-466.60000610352</ele>
        <time>2021-03-23T09:08:27Z</time>
      </trkpt>
      <trkpt lat="46.53258" lon="-1.61173">
        <ele>-466.60000610352</ele>
        <time>2021-03-23T09:08:32Z</time>
      </trkpt>
      <trkpt lat="46.53268" lon="-1.61193">
        <ele>-466.60000610352</ele>
        <time>2021-03-23T09:08:35Z</time>
      </trkpt>
      <trkpt lat="46.53271" lon="-1.612">
        <ele>-466.60000610352</ele>
        <time>2021-03-23T09:08:36Z</time>
      </trkpt>
      <trkpt lat="46.53282" lon="-1.61243">
        <ele>-466.60000610352</ele>
        <time>2021-03-23T09:08:41Z</time>
      </trkpt>
      <trkpt lat="46.53293" lon="-1.61277">
        <ele>-466.60000610352</ele>
        <time>2021-03-23T09:08:45Z</time>
      </trkpt>
      <trkpt lat="46.53299" lon="-1.61292">
        <ele>-466.60000610352</ele>
        <time>2021-03-23T09:08:47Z</time>
      </trkpt>
      <trkpt lat="46.5332" lon="-1.61348">
        <ele>-467</ele>
        <time>2021-03-23T09:08:54Z</time>
      </trkpt>
      <trkpt lat="46.53322" lon="-1.61355">
        <ele>-467.39999389648</ele>
        <time>2021-03-23T09:08:55Z</time>
      </trkpt>
      <trkpt lat="46.53323" lon="-1.6136">
        <ele>-467.79998779297</ele>
        <time>2021-03-23T09:08:56Z</time>
      </trkpt>
      <trkpt lat="46.53324" lon="-1.61364">
        <ele>-468.39999389648</ele>
        <time>2021-03-23T09:08:57Z</time>
      </trkpt>
      <trkpt lat="46.53325" lon="-1.61369">
        <ele>-468.79998779297</ele>
        <time>2021-03-23T09:08:58Z</time>
      </trkpt>
      <trkpt lat="46.53328" lon="-1.61373">
        <ele>-468.79998779297</ele>
        <time>2021-03-23T09:08:59Z</time>
      </trkpt>
      <trkpt lat="46.53337" lon="-1.61376">
        <ele>-468.79998779297</ele>
        <time>2021-03-23T09:09:01Z</time>
      </trkpt>
      <trkpt lat="46.53364" lon="-1.61381">
        <ele>-468.79998779297</ele>
        <time>2021-03-23T09:09:06Z</time>
      </trkpt>
      <trkpt lat="46.53392" lon="-1.61388">
        <ele>-468.79998779297</ele>
        <time>2021-03-23T09:09:11Z</time>
      </trkpt>
      <trkpt lat="46.53397" lon="-1.61389">
        <ele>-469.20001220703</ele>
        <time>2021-03-23T09:09:12Z</time>
      </trkpt>
      <trkpt lat="46.53403" lon="-1.61391">
        <ele>-469.60000610352</ele>
        <time>2021-03-23T09:09:13Z</time>
      </trkpt>
      <trkpt lat="46.53409" lon="-1.61393">
        <ele>-470</ele>
        <time>2021-03-23T09:09:14Z</time>
      </trkpt>
      <trkpt lat="46.53415" lon="-1.61394">
        <ele>-470.39999389648</ele>
        <time>2021-03-23T09:09:15Z</time>
      </trkpt>
      <trkpt lat="46.53421" lon="-1.61395">
        <ele>-470.79998779297</ele>
        <time>2021-03-23T09:09:16Z</time>
      </trkpt>
      <trkpt lat="46.53441" lon="-1.614">
        <ele>-470.79998779297</ele>
        <time>2021-03-23T09:09:19Z</time>
      </trkpt>
      <trkpt lat="46.53495" lon="-1.61412">
        <ele>-470.79998779297</ele>
        <time>2021-03-23T09:09:27Z</time>
      </trkpt>
      <trkpt lat="46.53508" lon="-1.61416">
        <ele>-471.39999389648</ele>
        <time>2021-03-23T09:09:29Z</time>
      </trkpt>
      <trkpt lat="46.53514" lon="-1.61418">
        <ele>-471.79998779297</ele>
        <time>2021-03-23T09:09:30Z</time>
      </trkpt>
      <trkpt lat="46.53521" lon="-1.6142">
        <ele>-472.20001220703</ele>
        <time>2021-03-23T09:09:31Z</time>
      </trkpt>
      <trkpt lat="46.53528" lon="-1.61421">
        <ele>-472.60000610352</ele>
        <time>2021-03-23T09:09:32Z</time>
      </trkpt>
      <trkpt lat="46.53535" lon="-1.61423">
        <ele>-473.20001220703</ele>
        <time>2021-03-23T09:09:33Z</time>
      </trkpt>
      <trkpt lat="46.53556" lon="-1.61428">
        <ele>-473.20001220703</ele>
        <time>2021-03-23T09:09:36Z</time>
      </trkpt>
      <trkpt lat="46.53584" lon="-1.61436">
        <ele>-473.60000610352</ele>
        <time>2021-03-23T09:09:40Z</time>
      </trkpt>
      <trkpt lat="46.53591" lon="-1.61438">
        <ele>-474</ele>
        <time>2021-03-23T09:09:41Z</time>
      </trkpt>
      <trkpt lat="46.53599" lon="-1.61439">
        <ele>-474.39999389648</ele>
        <time>2021-03-23T09:09:42Z</time>
      </trkpt>
      <trkpt lat="46.53606" lon="-1.61441">
        <ele>-474.79998779297</ele>
        <time>2021-03-23T09:09:43Z</time>
      </trkpt>
      <trkpt lat="46.53613" lon="-1.61443">
        <ele>-475.20001220703</ele>
        <time>2021-03-23T09:09:44Z</time>
      </trkpt>
      <trkpt lat="46.53656" lon="-1.61455">
        <ele>-475.79998779297</ele>
        <time>2021-03-23T09:09:50Z</time>
      </trkpt>
      <trkpt lat="46.53663" lon="-1.61456">
        <ele>-476.20001220703</ele>
        <time>2021-03-23T09:09:51Z</time>
      </trkpt>
      <trkpt lat="46.5367" lon="-1.61457">
        <ele>-476.60000610352</ele>
        <time>2021-03-23T09:09:52Z</time>
      </trkpt>
      <trkpt lat="46.53677" lon="-1.61459">
        <ele>-477</ele>
        <time>2021-03-23T09:09:53Z</time>
      </trkpt>
      <trkpt lat="46.53685" lon="-1.61461">
        <ele>-477.39999389648</ele>
        <time>2021-03-23T09:09:54Z</time>
      </trkpt>
      <trkpt lat="46.53715" lon="-1.61469">
        <ele>-477.79998779297</ele>
        <time>2021-03-23T09:09:58Z</time>
      </trkpt>
      <trkpt lat="46.53722" lon="-1.61471">
        <ele>-478.20001220703</ele>
        <time>2021-03-23T09:09:59Z</time>
      </trkpt>
      <trkpt lat="46.5373" lon="-1.61473">
        <ele>-478.60000610352</ele>
        <time>2021-03-23T09:10:00Z</time>
      </trkpt>
      <trkpt lat="46.53737" lon="-1.61476">
        <ele>-479</ele>
        <time>2021-03-23T09:10:01Z</time>
      </trkpt>
      <trkpt lat="46.53746" lon="-1.61478">
        <ele>-479.39999389648</ele>
        <time>2021-03-23T09:10:02Z</time>
      </trkpt>
      <trkpt lat="46.53792" lon="-1.61491">
        <ele>-479.39999389648</ele>
        <time>2021-03-23T09:10:08Z</time>
      </trkpt>
      <trkpt lat="46.53832" lon="-1.615">
        <ele>-479.39999389648</ele>
        <time>2021-03-23T09:10:14Z</time>
      </trkpt>
      <trkpt lat="46.53842" lon="-1.615">
        <ele>-479.39999389648</ele>
        <time>2021-03-23T09:10:16Z</time>
      </trkpt>
      <trkpt lat="46.53851" lon="-1.61493">
        <ele>-479.39999389648</ele>
        <time>2021-03-23T09:10:18Z</time>
      </trkpt>
      <trkpt lat="46.53854" lon="-1.61475">
        <ele>-479.39999389648</ele>
        <time>2021-03-23T09:10:21Z</time>
      </trkpt>
      <trkpt lat="46.53852" lon="-1.61462">
        <ele>-479.39999389648</ele>
        <time>2021-03-23T09:10:23Z</time>
      </trkpt>
      <trkpt lat="46.5385" lon="-1.61434">
        <ele>-479.39999389648</ele>
        <time>2021-03-23T09:10:27Z</time>
      </trkpt>
      <trkpt lat="46.53846" lon="-1.61382">
        <ele>-479.39999389648</ele>
        <time>2021-03-23T09:10:34Z</time>
      </trkpt>
      <trkpt lat="46.53841" lon="-1.61317">
        <ele>-479.39999389648</ele>
        <time>2021-03-23T09:10:42Z</time>
      </trkpt>
      <trkpt lat="46.53841" lon="-1.61293">
        <ele>-479</ele>
        <time>2021-03-23T09:10:45Z</time>
      </trkpt>
      <trkpt lat="46.53841" lon="-1.61285">
        <ele>-478.60000610352</ele>
        <time>2021-03-23T09:10:46Z</time>
      </trkpt>
      <trkpt lat="46.53841" lon="-1.61276">
        <ele>-478.20001220703</ele>
        <time>2021-03-23T09:10:47Z</time>
      </trkpt>
      <trkpt lat="46.53841" lon="-1.61268">
        <ele>-477.79998779297</ele>
        <time>2021-03-23T09:10:48Z</time>
      </trkpt>
      <trkpt lat="46.53841" lon="-1.6126">
        <ele>-477.39999389648</ele>
        <time>2021-03-23T09:10:49Z</time>
      </trkpt>
      <trkpt lat="46.53846" lon="-1.61212">
        <ele>-477.39999389648</ele>
        <time>2021-03-23T09:10:55Z</time>
      </trkpt>
      <trkpt lat="46.53851" lon="-1.61154">
        <ele>-476.60000610352</ele>
        <time>2021-03-23T09:11:02Z</time>
      </trkpt>
      <trkpt lat="46.53852" lon="-1.61146">
        <ele>-476.20001220703</ele>
        <time>2021-03-23T09:11:03Z</time>
      </trkpt>
      <trkpt lat="46.53853" lon="-1.61137">
        <ele>-475.79998779297</ele>
        <time>2021-03-23T09:11:04Z</time>
      </trkpt>
      <trkpt lat="46.53853" lon="-1.6113">
        <ele>-475.39999389648</ele>
        <time>2021-03-23T09:11:05Z</time>
      </trkpt>
      <trkpt lat="46.53856" lon="-1.61083">
        <ele>-475.39999389648</ele>
        <time>2021-03-23T09:11:11Z</time>
      </trkpt>
      <trkpt lat="46.5386" lon="-1.61032">
        <ele>-475</ele>
        <time>2021-03-23T09:11:18Z</time>
      </trkpt>
      <trkpt lat="46.5386" lon="-1.61025">
        <ele>-474.39999389648</ele>
        <time>2021-03-23T09:11:19Z</time>
      </trkpt>
      <trkpt lat="46.5386" lon="-1.61018">
        <ele>-474</ele>
        <time>2021-03-23T09:11:20Z</time>
      </trkpt>
      <trkpt lat="46.5386" lon="-1.61011">
        <ele>-473.60000610352</ele>
        <time>2021-03-23T09:11:21Z</time>
      </trkpt>
      <trkpt lat="46.53859" lon="-1.61003">
        <ele>-473.20001220703</ele>
        <time>2021-03-23T09:11:22Z</time>
      </trkpt>
      <trkpt lat="46.53858" lon="-1.60989">
        <ele>-473.20001220703</ele>
        <time>2021-03-23T09:11:24Z</time>
      </trkpt>
      <trkpt lat="46.53854" lon="-1.60969">
        <ele>-472.79998779297</ele>
        <time>2021-03-23T09:11:27Z</time>
      </trkpt>
      <trkpt lat="46.53853" lon="-1.60963">
        <ele>-472.39999389648</ele>
        <time>2021-03-23T09:11:28Z</time>
      </trkpt>
      <trkpt lat="46.53851" lon="-1.60956">
        <ele>-472</ele>
        <time>2021-03-23T09:11:29Z</time>
      </trkpt>
      <trkpt lat="46.53849" lon="-1.60949">
        <ele>-471.60000610352</ele>
        <time>2021-03-23T09:11:30Z</time>
      </trkpt>
      <trkpt lat="46.53848" lon="-1.60943">
        <ele>-471.20001220703</ele>
        <time>2021-03-23T09:11:31Z</time>
      </trkpt>
      <trkpt lat="46.53847" lon="-1.60936">
        <ele>-471.20001220703</ele>
        <time>2021-03-23T09:11:32Z</time>
      </trkpt>
      <trkpt lat="46.53841" lon="-1.60886">
        <ele>-471.20001220703</ele>
        <time>2021-03-23T09:11:39Z</time>
      </trkpt>
      <trkpt lat="46.5384" lon="-1.60858">
        <ele>-471.20001220703</ele>
        <time>2021-03-23T09:11:43Z</time>
      </trkpt>
      <trkpt lat="46.53839" lon="-1.60845">
        <ele>-471.20001220703</ele>
        <time>2021-03-23T09:11:45Z</time>
      </trkpt>
      <trkpt lat="46.53838" lon="-1.60827">
        <ele>-470.60000610352</ele>
        <time>2021-03-23T09:11:48Z</time>
      </trkpt>
      <trkpt lat="46.53838" lon="-1.6082">
        <ele>-470.20001220703</ele>
        <time>2021-03-23T09:11:49Z</time>
      </trkpt>
      <trkpt lat="46.53838" lon="-1.60813">
        <ele>-469.79998779297</ele>
        <time>2021-03-23T09:11:50Z</time>
      </trkpt>
      <trkpt lat="46.53838" lon="-1.60805">
        <ele>-469</ele>
        <time>2021-03-23T09:11:51Z</time>
      </trkpt>
      <trkpt lat="46.53839" lon="-1.6079">
        <ele>-469</ele>
        <time>2021-03-23T09:11:53Z</time>
      </trkpt>
      <trkpt lat="46.5384" lon="-1.60751">
        <ele>-469</ele>
        <time>2021-03-23T09:11:58Z</time>
      </trkpt>
      <trkpt lat="46.5384" lon="-1.60737">
        <ele>-469</ele>
        <time>2021-03-23T09:12:00Z</time>
      </trkpt>
      <trkpt lat="46.53841" lon="-1.60677">
        <ele>-469</ele>
        <time>2021-03-23T09:12:08Z</time>
      </trkpt>
      <trkpt lat="46.53842" lon="-1.60655">
        <ele>-468.60000610352</ele>
        <time>2021-03-23T09:12:11Z</time>
      </trkpt>
      <trkpt lat="46.53842" lon="-1.60647">
        <ele>-468.20001220703</ele>
        <time>2021-03-23T09:12:12Z</time>
      </trkpt>
      <trkpt lat="46.53842" lon="-1.6064">
        <ele>-467.79998779297</ele>
        <time>2021-03-23T09:12:13Z</time>
      </trkpt>
      <trkpt lat="46.53842" lon="-1.60632">
        <ele>-467.39999389648</ele>
        <time>2021-03-23T09:12:14Z</time>
      </trkpt>
      <trkpt lat="46.53842" lon="-1.60625">
        <ele>-466.79998779297</ele>
        <time>2021-03-23T09:12:15Z</time>
      </trkpt>
      <trkpt lat="46.53842" lon="-1.60618">
        <ele>-466.79998779297</ele>
        <time>2021-03-23T09:12:16Z</time>
      </trkpt>
      <trkpt lat="46.53845" lon="-1.60573">
        <ele>-466.79998779297</ele>
        <time>2021-03-23T09:12:22Z</time>
      </trkpt>
      <trkpt lat="46.53852" lon="-1.60517">
        <ele>-466.79998779297</ele>
        <time>2021-03-23T09:12:30Z</time>
      </trkpt>
      <trkpt lat="46.53853" lon="-1.6051">
        <ele>-466.79998779297</ele>
        <time>2021-03-23T09:12:31Z</time>
      </trkpt>
      <trkpt lat="46.53856" lon="-1.60473">
        <ele>-466.79998779297</ele>
        <time>2021-03-23T09:12:36Z</time>
      </trkpt>
      <trkpt lat="46.53855" lon="-1.6042">
        <ele>-466.79998779297</ele>
        <time>2021-03-23T09:12:43Z</time>
      </trkpt>
      <trkpt lat="46.53855" lon="-1.60412">
        <ele>-466.79998779297</ele>
        <time>2021-03-23T09:12:44Z</time>
      </trkpt>
      <trkpt lat="46.53848" lon="-1.60353">
        <ele>-466.79998779297</ele>
        <time>2021-03-23T09:12:52Z</time>
      </trkpt>
      <trkpt lat="46.53845" lon="-1.60332">
        <ele>-466.39999389648</ele>
        <time>2021-03-23T09:12:55Z</time>
      </trkpt>
      <trkpt lat="46.53844" lon="-1.60325">
        <ele>-466</ele>
        <time>2021-03-23T09:12:56Z</time>
      </trkpt>
      <trkpt lat="46.53843" lon="-1.60319">
        <ele>-465.60000610352</ele>
        <time>2021-03-23T09:12:57Z</time>
      </trkpt>
      <trkpt lat="46.53842" lon="-1.60312">
        <ele>-465.20001220703</ele>
        <time>2021-03-23T09:12:58Z</time>
      </trkpt>
      <trkpt lat="46.53842" lon="-1.60306">
        <ele>-464.79998779297</ele>
        <time>2021-03-23T09:12:59Z</time>
      </trkpt>
      <trkpt lat="46.53838" lon="-1.60272">
        <ele>-464.79998779297</ele>
        <time>2021-03-23T09:13:05Z</time>
      </trkpt>
      <trkpt lat="46.53827" lon="-1.60239">
        <ele>-464.79998779297</ele>
        <time>2021-03-23T09:13:11Z</time>
      </trkpt>
      <trkpt lat="46.53825" lon="-1.60233">
        <ele>-464.79998779297</ele>
        <time>2021-03-23T09:13:12Z</time>
      </trkpt>
      <trkpt lat="46.53815" lon="-1.60218">
        <ele>-464.79998779297</ele>
        <time>2021-03-23T09:13:15Z</time>
      </trkpt>
      <trkpt lat="46.53802" lon="-1.60205">
        <ele>-464.79998779297</ele>
        <time>2021-03-23T09:13:18Z</time>
      </trkpt>
      <trkpt lat="46.53766" lon="-1.6017">
        <ele>-464.79998779297</ele>
        <time>2021-03-23T09:13:26Z</time>
      </trkpt>
      <trkpt lat="46.5373" lon="-1.60133">
        <ele>-464.79998779297</ele>
        <time>2021-03-23T09:13:34Z</time>
      </trkpt>
      <trkpt lat="46.53721" lon="-1.60124">
        <ele>-464.79998779297</ele>
        <time>2021-03-23T09:13:36Z</time>
      </trkpt>
      <trkpt lat="46.53709" lon="-1.60108">
        <ele>-464.79998779297</ele>
        <time>2021-03-23T09:13:39Z</time>
      </trkpt>
      <trkpt lat="46.53688" lon="-1.60076">
        <ele>-464.79998779297</ele>
        <time>2021-03-23T09:13:45Z</time>
      </trkpt>
      <trkpt lat="46.53667" lon="-1.60043">
        <ele>-464.79998779297</ele>
        <time>2021-03-23T09:13:51Z</time>
      </trkpt>
      <trkpt lat="46.5364" lon="-1.60006">
        <ele>-464.79998779297</ele>
        <time>2021-03-23T09:13:58Z</time>
      </trkpt>
      <trkpt lat="46.53604" lon="-1.59966">
        <ele>-464.79998779297</ele>
        <time>2021-03-23T09:14:06Z</time>
      </trkpt>
      <trkpt lat="46.53563" lon="-1.59925">
        <ele>-464.79998779297</ele>
        <time>2021-03-23T09:14:15Z</time>
      </trkpt>
      <trkpt lat="46.5353" lon="-1.59895">
        <ele>-464.79998779297</ele>
        <time>2021-03-23T09:14:22Z</time>
      </trkpt>
      <trkpt lat="46.53502" lon="-1.59865">
        <ele>-464.79998779297</ele>
        <time>2021-03-23T09:14:28Z</time>
      </trkpt>
      <trkpt lat="46.53466" lon="-1.59821">
        <ele>-464.79998779297</ele>
        <time>2021-03-23T09:14:36Z</time>
      </trkpt>
      <trkpt lat="46.53429" lon="-1.5978">
        <ele>-464.79998779297</ele>
        <time>2021-03-23T09:14:44Z</time>
      </trkpt>
      <trkpt lat="46.53384" lon="-1.59738">
        <ele>-464.79998779297</ele>
        <time>2021-03-23T09:14:53Z</time>
      </trkpt>
      <trkpt lat="46.53378" lon="-1.59733">
        <ele>-464.79998779297</ele>
        <time>2021-03-23T09:14:54Z</time>
      </trkpt>
      <trkpt lat="46.53346" lon="-1.59714">
        <ele>-464.79998779297</ele>
        <time>2021-03-23T09:15:00Z</time>
      </trkpt>
      <trkpt lat="46.53308" lon="-1.597">
        <ele>-465.39999389648</ele>
        <time>2021-03-23T09:15:06Z</time>
      </trkpt>
      <trkpt lat="46.53301" lon="-1.59698">
        <ele>-465.79998779297</ele>
        <time>2021-03-23T09:15:07Z</time>
      </trkpt>
      <trkpt lat="46.53294" lon="-1.59696">
        <ele>-466.20001220703</ele>
        <time>2021-03-23T09:15:08Z</time>
      </trkpt>
      <trkpt lat="46.53288" lon="-1.59694">
        <ele>-466.79998779297</ele>
        <time>2021-03-23T09:15:09Z</time>
      </trkpt>
      <trkpt lat="46.53281" lon="-1.59691">
        <ele>-467.20001220703</ele>
        <time>2021-03-23T09:15:10Z</time>
      </trkpt>
      <trkpt lat="46.5327" lon="-1.59683">
        <ele>-467.20001220703</ele>
        <time>2021-03-23T09:15:12Z</time>
      </trkpt>
      <trkpt lat="46.53253" lon="-1.59653">
        <ele>-467.20001220703</ele>
        <time>2021-03-23T09:15:16Z</time>
      </trkpt>
      <trkpt lat="46.53249" lon="-1.59645">
        <ele>-467.20001220703</ele>
        <time>2021-03-23T09:15:17Z</time>
      </trkpt>
      <trkpt lat="46.53232" lon="-1.59607">
        <ele>-467.20001220703</ele>
        <time>2021-03-23T09:15:22Z</time>
      </trkpt>
      <trkpt lat="46.53208" lon="-1.59557">
        <ele>-467.20001220703</ele>
        <time>2021-03-23T09:15:29Z</time>
      </trkpt>
      <trkpt lat="46.53186" lon="-1.59512">
        <ele>-467.20001220703</ele>
        <time>2021-03-23T09:15:36Z</time>
      </trkpt>
      <trkpt lat="46.53159" lon="-1.59469">
        <ele>-467.20001220703</ele>
        <time>2021-03-23T09:15:43Z</time>
      </trkpt>
      <trkpt lat="46.53131" lon="-1.59428">
        <ele>-467.20001220703</ele>
        <time>2021-03-23T09:15:50Z</time>
      </trkpt>
      <trkpt lat="46.53101" lon="-1.59381">
        <ele>-467.20001220703</ele>
        <time>2021-03-23T09:15:58Z</time>
      </trkpt>
      <trkpt lat="46.53098" lon="-1.59375">
        <ele>-467.20001220703</ele>
        <time>2021-03-23T09:15:59Z</time>
      </trkpt>
      <trkpt lat="46.53094" lon="-1.59354">
        <ele>-467.20001220703</ele>
        <time>2021-03-23T09:16:02Z</time>
      </trkpt>
      <trkpt lat="46.53093" lon="-1.59341">
        <ele>-467.20001220703</ele>
        <time>2021-03-23T09:16:04Z</time>
      </trkpt>
      <trkpt lat="46.53092" lon="-1.59315">
        <ele>-467.20001220703</ele>
        <time>2021-03-23T09:16:08Z</time>
      </trkpt>
      <trkpt lat="46.53091" lon="-1.59302">
        <ele>-466.79998779297</ele>
        <time>2021-03-23T09:16:10Z</time>
      </trkpt>
      <trkpt lat="46.53091" lon="-1.59296">
        <ele>-466.39999389648</ele>
        <time>2021-03-23T09:16:11Z</time>
      </trkpt>
      <trkpt lat="46.5309" lon="-1.5929">
        <ele>-466</ele>
        <time>2021-03-23T09:16:12Z</time>
      </trkpt>
      <trkpt lat="46.5309" lon="-1.59284">
        <ele>-465.60000610352</ele>
        <time>2021-03-23T09:16:13Z</time>
      </trkpt>
      <trkpt lat="46.5309" lon="-1.59279">
        <ele>-465.20001220703</ele>
        <time>2021-03-23T09:16:14Z</time>
      </trkpt>
      <trkpt lat="46.5309" lon="-1.59273">
        <ele>-465.20001220703</ele>
        <time>2021-03-23T09:16:15Z</time>
      </trkpt>
      <trkpt lat="46.53094" lon="-1.59264">
        <ele>-465.20001220703</ele>
        <time>2021-03-23T09:16:17Z</time>
      </trkpt>
      <trkpt lat="46.53097" lon="-1.59262">
        <ele>-465.20001220703</ele>
        <time>2021-03-23T09:16:18Z</time>
      </trkpt>
      <trkpt lat="46.5311" lon="-1.59263">
        <ele>-465.20001220703</ele>
        <time>2021-03-23T09:16:21Z</time>
      </trkpt>
      <trkpt lat="46.53114" lon="-1.59264">
        <ele>-465.20001220703</ele>
        <time>2021-03-23T09:16:22Z</time>
      </trkpt>
      <trkpt lat="46.53119" lon="-1.59265">
        <ele>-465.20001220703</ele>
        <time>2021-03-23T09:16:23Z</time>
      </trkpt>
      <trkpt lat="46.53141" lon="-1.59273">
        <ele>-465.20001220703</ele>
        <time>2021-03-23T09:16:28Z</time>
      </trkpt>
      <trkpt lat="46.53163" lon="-1.59279">
        <ele>-465.20001220703</ele>
        <time>2021-03-23T09:16:33Z</time>
      </trkpt>
      <trkpt lat="46.53167" lon="-1.5928">
        <ele>-465.20001220703</ele>
        <time>2021-03-23T09:16:34Z</time>
      </trkpt>
      <trkpt lat="46.53178" lon="-1.59284">
        <ele>-465.20001220703</ele>
        <time>2021-03-23T09:16:37Z</time>
      </trkpt>
      <trkpt lat="46.53184" lon="-1.59291">
        <ele>-465.20001220703</ele>
        <time>2021-03-23T09:16:39Z</time>
      </trkpt>
      <trkpt lat="46.53199" lon="-1.59314">
        <ele>-465.20001220703</ele>
        <time>2021-03-23T09:16:44Z</time>
      </trkpt>
      <trkpt lat="46.53202" lon="-1.59318">
        <ele>-465.20001220703</ele>
        <time>2021-03-23T09:16:45Z</time>
      </trkpt>
      <trkpt lat="46.53215" lon="-1.59322">
        <ele>-465.20001220703</ele>
        <time>2021-03-23T09:16:48Z</time>
      </trkpt>
      <trkpt lat="46.53223" lon="-1.5932">
        <ele>-465.20001220703</ele>
        <time>2021-03-23T09:16:50Z</time>
      </trkpt>
      <trkpt lat="46.53239" lon="-1.59311">
        <ele>-465.20001220703</ele>
        <time>2021-03-23T09:16:54Z</time>
      </trkpt>
      <trkpt lat="46.53263" lon="-1.59299">
        <ele>-465.20001220703</ele>
        <time>2021-03-23T09:17:00Z</time>
      </trkpt>
      <trkpt lat="46.53268" lon="-1.59298">
        <ele>-465.20001220703</ele>
        <time>2021-03-23T09:17:01Z</time>
      </trkpt>
      <trkpt lat="46.53287" lon="-1.59293">
        <ele>-465.20001220703</ele>
        <time>2021-03-23T09:17:05Z</time>
      </trkpt>
      <trkpt lat="46.53326" lon="-1.5928">
        <ele>-465.20001220703</ele>
        <time>2021-03-23T09:17:13Z</time>
      </trkpt>
      <trkpt lat="46.53352" lon="-1.5927">
        <ele>-465.20001220703</ele>
        <time>2021-03-23T09:17:19Z</time>
      </trkpt>
      <trkpt lat="46.53381" lon="-1.59259">
        <ele>-465.20001220703</ele>
        <time>2021-03-23T09:17:26Z</time>
      </trkpt>
      <trkpt lat="46.53401" lon="-1.59251">
        <ele>-465.20001220703</ele>
        <time>2021-03-23T09:17:31Z</time>
      </trkpt>
      <trkpt lat="46.53405" lon="-1.59247">
        <ele>-465.20001220703</ele>
        <time>2021-03-23T09:17:32Z</time>
      </trkpt>
      <trkpt lat="46.53413" lon="-1.59238">
        <ele>-465.20001220703</ele>
        <time>2021-03-23T09:17:34Z</time>
      </trkpt>
      <trkpt lat="46.53419" lon="-1.59228">
        <ele>-465.20001220703</ele>
        <time>2021-03-23T09:17:36Z</time>
      </trkpt>
      <trkpt lat="46.53422" lon="-1.59224">
        <ele>-465.20001220703</ele>
        <time>2021-03-23T09:17:37Z</time>
      </trkpt>
      <trkpt lat="46.53431" lon="-1.59216">
        <ele>-465.20001220703</ele>
        <time>2021-03-23T09:17:39Z</time>
      </trkpt>
      <trkpt lat="46.53459" lon="-1.59198">
        <ele>-465.60000610352</ele>
        <time>2021-03-23T09:17:45Z</time>
      </trkpt>
      <trkpt lat="46.53463" lon="-1.59194">
        <ele>-466</ele>
        <time>2021-03-23T09:17:46Z</time>
      </trkpt>
      <trkpt lat="46.53468" lon="-1.59191">
        <ele>-466.39999389648</ele>
        <time>2021-03-23T09:17:47Z</time>
      </trkpt>
      <trkpt lat="46.53473" lon="-1.59187">
        <ele>-466.79998779297</ele>
        <time>2021-03-23T09:17:48Z</time>
      </trkpt>
      <trkpt lat="46.53477" lon="-1.59183">
        <ele>-467.20001220703</ele>
        <time>2021-03-23T09:17:49Z</time>
      </trkpt>
      <trkpt lat="46.53487" lon="-1.59176">
        <ele>-467.20001220703</ele>
        <time>2021-03-23T09:17:51Z</time>
      </trkpt>
      <trkpt lat="46.53498" lon="-1.59167">
        <ele>-467.79998779297</ele>
        <time>2021-03-23T09:17:54Z</time>
      </trkpt>
      <trkpt lat="46.53499" lon="-1.59166">
        <ele>-468.20001220703</ele>
        <time>2021-03-23T09:17:55Z</time>
      </trkpt>
      <trkpt lat="46.53501" lon="-1.59165">
        <ele>-468.79998779297</ele>
        <time>2021-03-23T09:17:56Z</time>
      </trkpt>
      <trkpt lat="46.53502" lon="-1.59164">
        <ele>-469.20001220703</ele>
        <time>2021-03-23T09:17:57Z</time>
      </trkpt>
      <trkpt lat="46.53504" lon="-1.59163">
        <ele>-469.79998779297</ele>
        <time>2021-03-23T09:17:58Z</time>
      </trkpt>
      <trkpt lat="46.53506" lon="-1.59161">
        <ele>-469.79998779297</ele>
        <time>2021-03-23T09:18:00Z</time>
      </trkpt>
      <trkpt lat="46.53512" lon="-1.59163">
        <ele>-469.79998779297</ele>
        <time>2021-03-23T09:18:05Z</time>
      </trkpt>
      <trkpt lat="46.53515" lon="-1.59166">
        <ele>-469.79998779297</ele>
        <time>2021-03-23T09:18:08Z</time>
      </trkpt>
      <trkpt lat="46.53517" lon="-1.59168">
        <ele>-469.79998779297</ele>
        <time>2021-03-23T09:18:11Z</time>
      </trkpt>
      <trkpt lat="46.53519" lon="-1.5917">
        <ele>-470.20001220703</ele>
        <time>2021-03-23T09:18:14Z</time>
      </trkpt>
      <trkpt lat="46.53521" lon="-1.59172">
        <ele>-470.60000610352</ele>
        <time>2021-03-23T09:18:15Z</time>
      </trkpt>
      <trkpt lat="46.53522" lon="-1.59174">
        <ele>-471</ele>
        <time>2021-03-23T09:18:16Z</time>
      </trkpt>
      <trkpt lat="46.53523" lon="-1.59176">
        <ele>-471.39999389648</ele>
        <time>2021-03-23T09:18:17Z</time>
      </trkpt>
      <trkpt lat="46.53525" lon="-1.59177">
        <ele>-471.79998779297</ele>
        <time>2021-03-23T09:18:18Z</time>
      </trkpt>
      <trkpt lat="46.53538" lon="-1.59182">
        <ele>-471.79998779297</ele>
        <time>2021-03-23T09:18:25Z</time>
      </trkpt>
      <trkpt lat="46.53547" lon="-1.59174">
        <ele>-471.79998779297</ele>
        <time>2021-03-23T09:18:31Z</time>
      </trkpt>
      <trkpt lat="46.53557" lon="-1.59166">
        <ele>-471.79998779297</ele>
        <time>2021-03-23T09:18:38Z</time>
      </trkpt>
      <trkpt lat="46.53573" lon="-1.59165">
        <ele>-471.79998779297</ele>
        <time>2021-03-23T09:18:45Z</time>
      </trkpt>
      <trkpt lat="46.5359" lon="-1.59162">
        <ele>-472.20001220703</ele>
        <time>2021-03-23T09:18:52Z</time>
      </trkpt>
      <trkpt lat="46.53592" lon="-1.59161">
        <ele>-473.20001220703</ele>
        <time>2021-03-23T09:18:53Z</time>
      </trkpt>
      <trkpt lat="46.53595" lon="-1.59161">
        <ele>-473.60000610352</ele>
        <time>2021-03-23T09:18:54Z</time>
      </trkpt>
      <trkpt lat="46.53596" lon="-1.5916">
        <ele>-474</ele>
        <time>2021-03-23T09:18:55Z</time>
      </trkpt>
      <trkpt lat="46.53603" lon="-1.59159">
        <ele>-474</ele>
        <time>2021-03-23T09:18:58Z</time>
      </trkpt>
      <trkpt lat="46.53618" lon="-1.5916">
        <ele>-474</ele>
        <time>2021-03-23T09:19:03Z</time>
      </trkpt>
      <trkpt lat="46.5363" lon="-1.59163">
        <ele>-474</ele>
        <time>2021-03-23T09:19:08Z</time>
      </trkpt>
      <trkpt lat="46.53648" lon="-1.59172">
        <ele>-474</ele>
        <time>2021-03-23T09:19:16Z</time>
      </trkpt>
      <trkpt lat="46.53663" lon="-1.59178">
        <ele>-474</ele>
        <time>2021-03-23T09:19:21Z</time>
      </trkpt>
      <trkpt lat="46.53678" lon="-1.59186">
        <ele>-474</ele>
        <time>2021-03-23T09:19:27Z</time>
      </trkpt>
      <trkpt lat="46.53684" lon="-1.59188">
        <ele>-474.39999389648</ele>
        <time>2021-03-23T09:19:29Z</time>
      </trkpt>
      <trkpt lat="46.53687" lon="-1.59189">
        <ele>-474.79998779297</ele>
        <time>2021-03-23T09:19:30Z</time>
      </trkpt>
      <trkpt lat="46.53689" lon="-1.5919">
        <ele>-475.20001220703</ele>
        <time>2021-03-23T09:19:31Z</time>
      </trkpt>
      <trkpt lat="46.53692" lon="-1.59192">
        <ele>-475.60000610352</ele>
        <time>2021-03-23T09:19:32Z</time>
      </trkpt>
      <trkpt lat="46.53694" lon="-1.59193">
        <ele>-476</ele>
        <time>2021-03-23T09:19:33Z</time>
      </trkpt>
      <trkpt lat="46.53697" lon="-1.59195">
        <ele>-476</ele>
        <time>2021-03-23T09:19:34Z</time>
      </trkpt>
      <trkpt lat="46.53707" lon="-1.59205">
        <ele>-476</ele>
        <time>2021-03-23T09:19:38Z</time>
      </trkpt>
      <trkpt lat="46.53713" lon="-1.59211">
        <ele>-476</ele>
        <time>2021-03-23T09:19:40Z</time>
      </trkpt>
      <trkpt lat="46.53728" lon="-1.59224">
        <ele>-476</ele>
        <time>2021-03-23T09:19:45Z</time>
      </trkpt>
      <trkpt lat="46.53746" lon="-1.5924">
        <ele>-476</ele>
        <time>2021-03-23T09:19:51Z</time>
      </trkpt>
      <trkpt lat="46.53762" lon="-1.59255">
        <ele>-476</ele>
        <time>2021-03-23T09:19:58Z</time>
      </trkpt>
      <trkpt lat="46.53771" lon="-1.59264">
        <ele>-476</ele>
        <time>2021-03-23T09:20:02Z</time>
      </trkpt>
      <trkpt lat="46.53778" lon="-1.59287">
        <ele>-476</ele>
        <time>2021-03-23T09:20:07Z</time>
      </trkpt>
      <trkpt lat="46.53782" lon="-1.59292">
        <ele>-476.39999389648</ele>
        <time>2021-03-23T09:20:09Z</time>
      </trkpt>
      <trkpt lat="46.53785" lon="-1.59293">
        <ele>-476.79998779297</ele>
        <time>2021-03-23T09:20:10Z</time>
      </trkpt>
      <trkpt lat="46.53788" lon="-1.59294">
        <ele>-477.20001220703</ele>
        <time>2021-03-23T09:20:11Z</time>
      </trkpt>
      <trkpt lat="46.5379" lon="-1.59294">
        <ele>-477.60000610352</ele>
        <time>2021-03-23T09:20:12Z</time>
      </trkpt>
      <trkpt lat="46.53792" lon="-1.59295">
        <ele>-478</ele>
        <time>2021-03-23T09:20:13Z</time>
      </trkpt>
      <trkpt lat="46.53797" lon="-1.59295">
        <ele>-478</ele>
        <time>2021-03-23T09:20:15Z</time>
      </trkpt>
      <trkpt lat="46.53812" lon="-1.59291">
        <ele>-478</ele>
        <time>2021-03-23T09:20:21Z</time>
      </trkpt>
      <trkpt lat="46.5383" lon="-1.59281">
        <ele>-477.60000610352</ele>
        <time>2021-03-23T09:20:27Z</time>
      </trkpt>
      <trkpt lat="46.53833" lon="-1.59279">
        <ele>-477.20001220703</ele>
        <time>2021-03-23T09:20:28Z</time>
      </trkpt>
      <trkpt lat="46.53835" lon="-1.59277">
        <ele>-476.79998779297</ele>
        <time>2021-03-23T09:20:29Z</time>
      </trkpt>
      <trkpt lat="46.53838" lon="-1.59275">
        <ele>-476.39999389648</ele>
        <time>2021-03-23T09:20:30Z</time>
      </trkpt>
      <trkpt lat="46.5384" lon="-1.59273">
        <ele>-476</ele>
        <time>2021-03-23T09:20:31Z</time>
      </trkpt>
      <trkpt lat="46.53849" lon="-1.59268">
        <ele>-476</ele>
        <time>2021-03-23T09:20:34Z</time>
      </trkpt>
      <trkpt lat="46.53853" lon="-1.59266">
        <ele>-475.39999389648</ele>
        <time>2021-03-23T09:20:36Z</time>
      </trkpt>
      <trkpt lat="46.53856" lon="-1.59265">
        <ele>-475</ele>
        <time>2021-03-23T09:20:37Z</time>
      </trkpt>
      <trkpt lat="46.53859" lon="-1.59265">
        <ele>-474.60000610352</ele>
        <time>2021-03-23T09:20:38Z</time>
      </trkpt>
      <trkpt lat="46.53862" lon="-1.59265">
        <ele>-474.20001220703</ele>
        <time>2021-03-23T09:20:39Z</time>
      </trkpt>
      <trkpt lat="46.53865" lon="-1.59264">
        <ele>-473.79998779297</ele>
        <time>2021-03-23T09:20:40Z</time>
      </trkpt>
      <trkpt lat="46.53876" lon="-1.59263">
        <ele>-473.39999389648</ele>
        <time>2021-03-23T09:20:44Z</time>
      </trkpt>
      <trkpt lat="46.53879" lon="-1.59263">
        <ele>-472.79998779297</ele>
        <time>2021-03-23T09:20:45Z</time>
      </trkpt>
      <trkpt lat="46.53883" lon="-1.59262">
        <ele>-472.39999389648</ele>
        <time>2021-03-23T09:20:46Z</time>
      </trkpt>
      <trkpt lat="46.53886" lon="-1.59261">
        <ele>-472</ele>
        <time>2021-03-23T09:20:47Z</time>
      </trkpt>
      <trkpt lat="46.53889" lon="-1.5926">
        <ele>-471.60000610352</ele>
        <time>2021-03-23T09:20:48Z</time>
      </trkpt>
      <trkpt lat="46.53906" lon="-1.59258">
        <ele>-471.20001220703</ele>
        <time>2021-03-23T09:20:53Z</time>
      </trkpt>
      <trkpt lat="46.53909" lon="-1.59257">
        <ele>-470.79998779297</ele>
        <time>2021-03-23T09:20:54Z</time>
      </trkpt>
      <trkpt lat="46.53912" lon="-1.59257">
        <ele>-470.39999389648</ele>
        <time>2021-03-23T09:20:55Z</time>
      </trkpt>
      <trkpt lat="46.53916" lon="-1.59256">
        <ele>-469.39999389648</ele>
        <time>2021-03-23T09:20:56Z</time>
      </trkpt>
      <trkpt lat="46.53937" lon="-1.59254">
        <ele>-469.39999389648</ele>
        <time>2021-03-23T09:21:02Z</time>
      </trkpt>
      <trkpt lat="46.53951" lon="-1.59252">
        <ele>-469</ele>
        <time>2021-03-23T09:21:06Z</time>
      </trkpt>
      <trkpt lat="46.53954" lon="-1.59251">
        <ele>-468.60000610352</ele>
        <time>2021-03-23T09:21:07Z</time>
      </trkpt>
      <trkpt lat="46.53958" lon="-1.59251">
        <ele>-468.20001220703</ele>
        <time>2021-03-23T09:21:08Z</time>
      </trkpt>
      <trkpt lat="46.53961" lon="-1.59251">
        <ele>-467.79998779297</ele>
        <time>2021-03-23T09:21:09Z</time>
      </trkpt>
      <trkpt lat="46.53964" lon="-1.5925">
        <ele>-467.39999389648</ele>
        <time>2021-03-23T09:21:10Z</time>
      </trkpt>
      <trkpt lat="46.53984" lon="-1.59248">
        <ele>-467.39999389648</ele>
        <time>2021-03-23T09:21:17Z</time>
      </trkpt>
      <trkpt lat="46.53996" lon="-1.59244">
        <ele>-467</ele>
        <time>2021-03-23T09:21:21Z</time>
      </trkpt>
      <trkpt lat="46.53999" lon="-1.59244">
        <ele>-466.60000610352</ele>
        <time>2021-03-23T09:21:22Z</time>
      </trkpt>
      <trkpt lat="46.54002" lon="-1.59243">
        <ele>-466.20001220703</ele>
        <time>2021-03-23T09:21:23Z</time>
      </trkpt>
      <trkpt lat="46.54005" lon="-1.59243">
        <ele>-465.79998779297</ele>
        <time>2021-03-23T09:21:24Z</time>
      </trkpt>
      <trkpt lat="46.54008" lon="-1.59242">
        <ele>-465.39999389648</ele>
        <time>2021-03-23T09:21:25Z</time>
      </trkpt>
      <trkpt lat="46.54021" lon="-1.59241">
        <ele>-465.39999389648</ele>
        <time>2021-03-23T09:21:29Z</time>
      </trkpt>
      <trkpt lat="46.54032" lon="-1.59231">
        <ele>-465.39999389648</ele>
        <time>2021-03-23T09:21:33Z</time>
      </trkpt>
      <trkpt lat="46.54041" lon="-1.59207">
        <ele>-465.39999389648</ele>
        <time>2021-03-23T09:21:38Z</time>
      </trkpt>
      <trkpt lat="46.54056" lon="-1.59199">
        <ele>-465.39999389648</ele>
        <time>2021-03-23T09:21:42Z</time>
      </trkpt>
      <trkpt lat="46.54072" lon="-1.59213">
        <ele>-465.39999389648</ele>
        <time>2021-03-23T09:21:46Z</time>
      </trkpt>
      <trkpt lat="46.54084" lon="-1.59223">
        <ele>-465.39999389648</ele>
        <time>2021-03-23T09:21:49Z</time>
      </trkpt>
      <trkpt lat="46.54094" lon="-1.5923">
        <ele>-465.39999389648</ele>
        <time>2021-03-23T09:21:52Z</time>
      </trkpt>
      <trkpt lat="46.54103" lon="-1.59231">
        <ele>-465.39999389648</ele>
        <time>2021-03-23T09:21:56Z</time>
      </trkpt>
      <trkpt lat="46.54104" lon="-1.59232">
        <ele>-465.39999389648</ele>
        <time>2021-03-23T09:21:57Z</time>
      </trkpt>
      <trkpt lat="46.54107" lon="-1.59232">
        <ele>-465.39999389648</ele>
        <time>2021-03-23T09:22:00Z</time>
      </trkpt>
      <trkpt lat="46.5411" lon="-1.59231">
        <ele>-465.39999389648</ele>
        <time>2021-03-23T09:22:39Z</time>
      </trkpt>
      <trkpt lat="46.54111" lon="-1.59229">
        <ele>-465.39999389648</ele>
        <time>2021-03-23T09:22:40Z</time>
      </trkpt>
      <trkpt lat="46.54115" lon="-1.59214">
        <ele>-465.39999389648</ele>
        <time>2021-03-23T09:22:45Z</time>
      </trkpt>
      <trkpt lat="46.54119" lon="-1.59202">
        <ele>-465.39999389648</ele>
        <time>2021-03-23T09:22:48Z</time>
      </trkpt>
      <trkpt lat="46.54122" lon="-1.592">
        <ele>-465.39999389648</ele>
        <time>2021-03-23T09:22:49Z</time>
      </trkpt>
      <trkpt lat="46.54128" lon="-1.59201">
        <ele>-465.39999389648</ele>
        <time>2021-03-23T09:22:51Z</time>
      </trkpt>
      <trkpt lat="46.54132" lon="-1.59202">
        <ele>-465.39999389648</ele>
        <time>2021-03-23T09:22:52Z</time>
      </trkpt>
      <trkpt lat="46.54135" lon="-1.59203">
        <ele>-465.39999389648</ele>
        <time>2021-03-23T09:22:53Z</time>
      </trkpt>
      <trkpt lat="46.54158" lon="-1.5921">
        <ele>-465.39999389648</ele>
        <time>2021-03-23T09:22:59Z</time>
      </trkpt>
      <trkpt lat="46.54162" lon="-1.5921">
        <ele>-465.39999389648</ele>
        <time>2021-03-23T09:23:00Z</time>
      </trkpt>
      <trkpt lat="46.54184" lon="-1.59211">
        <ele>-465.39999389648</ele>
        <time>2021-03-23T09:23:05Z</time>
      </trkpt>
      <trkpt lat="46.5421" lon="-1.59208">
        <ele>-464.79998779297</ele>
        <time>2021-03-23T09:23:11Z</time>
      </trkpt>
      <trkpt lat="46.54216" lon="-1.59207">
        <ele>-464.39999389648</ele>
        <time>2021-03-23T09:23:12Z</time>
      </trkpt>
      <trkpt lat="46.54221" lon="-1.59206">
        <ele>-464</ele>
        <time>2021-03-23T09:23:13Z</time>
      </trkpt>
      <trkpt lat="46.54226" lon="-1.59202">
        <ele>-463.60000610352</ele>
        <time>2021-03-23T09:23:14Z</time>
      </trkpt>
      <trkpt lat="46.54229" lon="-1.59197">
        <ele>-463.20001220703</ele>
        <time>2021-03-23T09:23:15Z</time>
      </trkpt>
      <trkpt lat="46.54235" lon="-1.59179">
        <ele>-463.20001220703</ele>
        <time>2021-03-23T09:23:18Z</time>
      </trkpt>
      <trkpt lat="46.54237" lon="-1.59172">
        <ele>-463.20001220703</ele>
        <time>2021-03-23T09:23:19Z</time>
      </trkpt>
      <trkpt lat="46.54249" lon="-1.59128">
        <ele>-463.20001220703</ele>
        <time>2021-03-23T09:23:26Z</time>
      </trkpt>
      <trkpt lat="46.54263" lon="-1.59081">
        <ele>-463.20001220703</ele>
        <time>2021-03-23T09:23:33Z</time>
      </trkpt>
      <trkpt lat="46.54268" lon="-1.59074">
        <ele>-463.20001220703</ele>
        <time>2021-03-23T09:23:34Z</time>
      </trkpt>
      <trkpt lat="46.54274" lon="-1.59055">
        <ele>-463.20001220703</ele>
        <time>2021-03-23T09:23:37Z</time>
      </trkpt>
      <trkpt lat="46.54276" lon="-1.59048">
        <ele>-463.20001220703</ele>
        <time>2021-03-23T09:23:38Z</time>
      </trkpt>
      <trkpt lat="46.54278" lon="-1.59035">
        <ele>-463.20001220703</ele>
        <time>2021-03-23T09:23:40Z</time>
      </trkpt>
      <trkpt lat="46.54281" lon="-1.59016">
        <ele>-463.20001220703</ele>
        <time>2021-03-23T09:23:43Z</time>
      </trkpt>
      <trkpt lat="46.54286" lon="-1.58986">
        <ele>-463.20001220703</ele>
        <time>2021-03-23T09:23:48Z</time>
      </trkpt>
      <trkpt lat="46.54287" lon="-1.58979">
        <ele>-463.20001220703</ele>
        <time>2021-03-23T09:23:49Z</time>
      </trkpt>
      <trkpt lat="46.54293" lon="-1.58959">
        <ele>-463.60000610352</ele>
        <time>2021-03-23T09:23:52Z</time>
      </trkpt>
      <trkpt lat="46.54296" lon="-1.58953">
        <ele>-464</ele>
        <time>2021-03-23T09:23:53Z</time>
      </trkpt>
      <trkpt lat="46.54298" lon="-1.58946">
        <ele>-464.39999389648</ele>
        <time>2021-03-23T09:23:54Z</time>
      </trkpt>
      <trkpt lat="46.54301" lon="-1.5894">
        <ele>-464.79998779297</ele>
        <time>2021-03-23T09:23:55Z</time>
      </trkpt>
      <trkpt lat="46.54304" lon="-1.58933">
        <ele>-465.20001220703</ele>
        <time>2021-03-23T09:23:56Z</time>
      </trkpt>
      <trkpt lat="46.54312" lon="-1.58912">
        <ele>-465.20001220703</ele>
        <time>2021-03-23T09:23:59Z</time>
      </trkpt>
      <trkpt lat="46.5433" lon="-1.58863">
        <ele>-465.20001220703</ele>
        <time>2021-03-23T09:24:07Z</time>
      </trkpt>
      <trkpt lat="46.54335" lon="-1.58853">
        <ele>-465.20001220703</ele>
        <time>2021-03-23T09:24:09Z</time>
      </trkpt>
      <trkpt lat="46.54345" lon="-1.58835">
        <ele>-465.20001220703</ele>
        <time>2021-03-23T09:24:12Z</time>
      </trkpt>
      <trkpt lat="46.54349" lon="-1.5883">
        <ele>-465.20001220703</ele>
        <time>2021-03-23T09:24:13Z</time>
      </trkpt>
      <trkpt lat="46.54367" lon="-1.58813">
        <ele>-465.20001220703</ele>
        <time>2021-03-23T09:24:17Z</time>
      </trkpt>
      <trkpt lat="46.54371" lon="-1.5881">
        <ele>-465.20001220703</ele>
        <time>2021-03-23T09:24:18Z</time>
      </trkpt>
      <trkpt lat="46.54397" lon="-1.58793">
        <ele>-465.20001220703</ele>
        <time>2021-03-23T09:24:24Z</time>
      </trkpt>
      <trkpt lat="46.54423" lon="-1.58778">
        <ele>-465.20001220703</ele>
        <time>2021-03-23T09:24:30Z</time>
      </trkpt>
      <trkpt lat="46.54439" lon="-1.58765">
        <ele>-465.20001220703</ele>
        <time>2021-03-23T09:24:34Z</time>
      </trkpt>
      <trkpt lat="46.54444" lon="-1.58755">
        <ele>-465.20001220703</ele>
        <time>2021-03-23T09:24:36Z</time>
      </trkpt>
      <trkpt lat="46.54447" lon="-1.58738">
        <ele>-465.20001220703</ele>
        <time>2021-03-23T09:24:39Z</time>
      </trkpt>
      <trkpt lat="46.54448" lon="-1.58732">
        <ele>-465.20001220703</ele>
        <time>2021-03-23T09:24:40Z</time>
      </trkpt>
      <trkpt lat="46.5445" lon="-1.58726">
        <ele>-465.20001220703</ele>
        <time>2021-03-23T09:24:41Z</time>
      </trkpt>
      <trkpt lat="46.5446" lon="-1.58705">
        <ele>-465.20001220703</ele>
        <time>2021-03-23T09:24:45Z</time>
      </trkpt>
      <trkpt lat="46.54463" lon="-1.58701">
        <ele>-465.20001220703</ele>
        <time>2021-03-23T09:24:46Z</time>
      </trkpt>
      <trkpt lat="46.54471" lon="-1.58692">
        <ele>-465.20001220703</ele>
        <time>2021-03-23T09:24:49Z</time>
      </trkpt>
      <trkpt lat="46.54479" lon="-1.58686">
        <ele>-465.20001220703</ele>
        <time>2021-03-23T09:24:51Z</time>
      </trkpt>
      <trkpt lat="46.54488" lon="-1.58682">
        <ele>-465.20001220703</ele>
        <time>2021-03-23T09:24:53Z</time>
      </trkpt>
      <trkpt lat="46.54508" lon="-1.58678">
        <ele>-465.20001220703</ele>
        <time>2021-03-23T09:24:58Z</time>
      </trkpt>
      <trkpt lat="46.54534" lon="-1.58683">
        <ele>-465.20001220703</ele>
        <time>2021-03-23T09:25:03Z</time>
      </trkpt>
      <trkpt lat="46.54547" lon="-1.58691">
        <ele>-465.20001220703</ele>
        <time>2021-03-23T09:25:05Z</time>
      </trkpt>
      <trkpt lat="46.54559" lon="-1.58702">
        <ele>-465.20001220703</ele>
        <time>2021-03-23T09:25:07Z</time>
      </trkpt>
      <trkpt lat="46.5457" lon="-1.58713">
        <ele>-465.79998779297</ele>
        <time>2021-03-23T09:25:09Z</time>
      </trkpt>
      <trkpt lat="46.54575" lon="-1.58718">
        <ele>-466.20001220703</ele>
        <time>2021-03-23T09:25:10Z</time>
      </trkpt>
      <trkpt lat="46.54582" lon="-1.58721">
        <ele>-466.60000610352</ele>
        <time>2021-03-23T09:25:11Z</time>
      </trkpt>
      <trkpt lat="46.54587" lon="-1.58722">
        <ele>-467</ele>
        <time>2021-03-23T09:25:12Z</time>
      </trkpt>
      <trkpt lat="46.54592" lon="-1.58722">
        <ele>-467.39999389648</ele>
        <time>2021-03-23T09:25:13Z</time>
      </trkpt>
      <trkpt lat="46.54601" lon="-1.58721">
        <ele>-467.39999389648</ele>
        <time>2021-03-23T09:25:15Z</time>
      </trkpt>
      <trkpt lat="46.54605" lon="-1.5872">
        <ele>-467.39999389648</ele>
        <time>2021-03-23T09:25:16Z</time>
      </trkpt>
      <trkpt lat="46.54616" lon="-1.58717">
        <ele>-467.39999389648</ele>
        <time>2021-03-23T09:25:21Z</time>
      </trkpt>
      <trkpt lat="46.54618" lon="-1.58716">
        <ele>-467.39999389648</ele>
        <time>2021-03-23T09:25:22Z</time>
      </trkpt>
      <trkpt lat="46.54625" lon="-1.58711">
        <ele>-467.39999389648</ele>
        <time>2021-03-23T09:25:26Z</time>
      </trkpt>
      <trkpt lat="46.54635" lon="-1.58703">
        <ele>-467</ele>
        <time>2021-03-23T09:25:30Z</time>
      </trkpt>
      <trkpt lat="46.54636" lon="-1.58699">
        <ele>-466.60000610352</ele>
        <time>2021-03-23T09:25:31Z</time>
      </trkpt>
      <trkpt lat="46.54638" lon="-1.58695">
        <ele>-466.20001220703</ele>
        <time>2021-03-23T09:25:32Z</time>
      </trkpt>
      <trkpt lat="46.5464" lon="-1.5869">
        <ele>-465.79998779297</ele>
        <time>2021-03-23T09:25:33Z</time>
      </trkpt>
      <trkpt lat="46.54641" lon="-1.58685">
        <ele>-465.39999389648</ele>
        <time>2021-03-23T09:25:34Z</time>
      </trkpt>
      <trkpt lat="46.54643" lon="-1.58675">
        <ele>-465.39999389648</ele>
        <time>2021-03-23T09:25:36Z</time>
      </trkpt>
      <trkpt lat="46.54646" lon="-1.58656">
        <ele>-465.39999389648</ele>
        <time>2021-03-23T09:25:39Z</time>
      </trkpt>
      <trkpt lat="46.54652" lon="-1.58645">
        <ele>-465.39999389648</ele>
        <time>2021-03-23T09:25:41Z</time>
      </trkpt>
      <trkpt lat="46.54675" lon="-1.58604">
        <ele>-465.39999389648</ele>
        <time>2021-03-23T09:25:48Z</time>
      </trkpt>
      <trkpt lat="46.54681" lon="-1.58591">
        <ele>-465.39999389648</ele>
        <time>2021-03-23T09:25:50Z</time>
      </trkpt>
      <trkpt lat="46.5469" lon="-1.58562">
        <ele>-465.39999389648</ele>
        <time>2021-03-23T09:25:54Z</time>
      </trkpt>
      <trkpt lat="46.5469" lon="-1.58526">
        <ele>-465.39999389648</ele>
        <time>2021-03-23T09:25:58Z</time>
      </trkpt>
      <trkpt lat="46.54676" lon="-1.58493">
        <ele>-465.39999389648</ele>
        <time>2021-03-23T09:26:02Z</time>
      </trkpt>
      <trkpt lat="46.54658" lon="-1.58479">
        <ele>-465.39999389648</ele>
        <time>2021-03-23T09:26:05Z</time>
      </trkpt>
      <trkpt lat="46.54636" lon="-1.58479">
        <ele>-465.39999389648</ele>
        <time>2021-03-23T09:26:08Z</time>
      </trkpt>
      <trkpt lat="46.5463" lon="-1.58479">
        <ele>-465.39999389648</ele>
        <time>2021-03-23T09:26:09Z</time>
      </trkpt>
      <trkpt lat="46.54606" lon="-1.58481">
        <ele>-465.39999389648</ele>
        <time>2021-03-23T09:26:13Z</time>
      </trkpt>
      <trkpt lat="46.54583" lon="-1.58484">
        <ele>-465.39999389648</ele>
        <time>2021-03-23T09:26:18Z</time>
      </trkpt>
      <trkpt lat="46.54555" lon="-1.58488">
        <ele>-465</ele>
        <time>2021-03-23T09:26:24Z</time>
      </trkpt>
      <trkpt lat="46.5455" lon="-1.58488">
        <ele>-464.60000610352</ele>
        <time>2021-03-23T09:26:25Z</time>
      </trkpt>
      <trkpt lat="46.54546" lon="-1.58488">
        <ele>-464.20001220703</ele>
        <time>2021-03-23T09:26:26Z</time>
      </trkpt>
      <trkpt lat="46.54541" lon="-1.58487">
        <ele>-463.79998779297</ele>
        <time>2021-03-23T09:26:27Z</time>
      </trkpt>
      <trkpt lat="46.54536" lon="-1.58486">
        <ele>-463.20001220703</ele>
        <time>2021-03-23T09:26:28Z</time>
      </trkpt>
      <trkpt lat="46.54532" lon="-1.58484">
        <ele>-463.20001220703</ele>
        <time>2021-03-23T09:26:29Z</time>
      </trkpt>
      <trkpt lat="46.54525" lon="-1.58473">
        <ele>-463.20001220703</ele>
        <time>2021-03-23T09:26:31Z</time>
      </trkpt>
      <trkpt lat="46.54523" lon="-1.58452">
        <ele>-463.20001220703</ele>
        <time>2021-03-23T09:26:34Z</time>
      </trkpt>
      <trkpt lat="46.54524" lon="-1.58439">
        <ele>-463.20001220703</ele>
        <time>2021-03-23T09:26:36Z</time>
      </trkpt>
      <trkpt lat="46.54526" lon="-1.58413">
        <ele>-463.20001220703</ele>
        <time>2021-03-23T09:26:40Z</time>
      </trkpt>
      <trkpt lat="46.54526" lon="-1.58406">
        <ele>-462.79998779297</ele>
        <time>2021-03-23T09:26:41Z</time>
      </trkpt>
      <trkpt lat="46.54526" lon="-1.58399">
        <ele>-462.39999389648</ele>
        <time>2021-03-23T09:26:42Z</time>
      </trkpt>
      <trkpt lat="46.54527" lon="-1.58393">
        <ele>-462</ele>
        <time>2021-03-23T09:26:43Z</time>
      </trkpt>
      <trkpt lat="46.54527" lon="-1.58387">
        <ele>-461.60000610352</ele>
        <time>2021-03-23T09:26:44Z</time>
      </trkpt>
      <trkpt lat="46.54527" lon="-1.5838">
        <ele>-461.20001220703</ele>
        <time>2021-03-23T09:26:45Z</time>
      </trkpt>
      <trkpt lat="46.54526" lon="-1.58362">
        <ele>-461.20001220703</ele>
        <time>2021-03-23T09:26:48Z</time>
      </trkpt>
      <trkpt lat="46.54523" lon="-1.58314">
        <ele>-461.20001220703</ele>
        <time>2021-03-23T09:26:56Z</time>
      </trkpt>
      <trkpt lat="46.54517" lon="-1.58271">
        <ele>-461.20001220703</ele>
        <time>2021-03-23T09:27:03Z</time>
      </trkpt>
      <trkpt lat="46.54511" lon="-1.58229">
        <ele>-461.20001220703</ele>
        <time>2021-03-23T09:27:10Z</time>
      </trkpt>
      <trkpt lat="46.54506" lon="-1.58184">
        <ele>-460.79998779297</ele>
        <time>2021-03-23T09:27:17Z</time>
      </trkpt>
      <trkpt lat="46.54505" lon="-1.58178">
        <ele>-460.20001220703</ele>
        <time>2021-03-23T09:27:18Z</time>
      </trkpt>
      <trkpt lat="46.54504" lon="-1.58172">
        <ele>-459.79998779297</ele>
        <time>2021-03-23T09:27:19Z</time>
      </trkpt>
      <trkpt lat="46.54503" lon="-1.58166">
        <ele>-459.39999389648</ele>
        <time>2021-03-23T09:27:20Z</time>
      </trkpt>
      <trkpt lat="46.54502" lon="-1.58159">
        <ele>-459</ele>
        <time>2021-03-23T09:27:21Z</time>
      </trkpt>
      <trkpt lat="46.54498" lon="-1.58126">
        <ele>-459</ele>
        <time>2021-03-23T09:27:26Z</time>
      </trkpt>
      <trkpt lat="46.54494" lon="-1.58081">
        <ele>-459</ele>
        <time>2021-03-23T09:27:33Z</time>
      </trkpt>
      <trkpt lat="46.54492" lon="-1.58043">
        <ele>-459</ele>
        <time>2021-03-23T09:27:39Z</time>
      </trkpt>
      <trkpt lat="46.54491" lon="-1.58029">
        <ele>-458.60000610352</ele>
        <time>2021-03-23T09:27:41Z</time>
      </trkpt>
      <trkpt lat="46.54491" lon="-1.58022">
        <ele>-458.20001220703</ele>
        <time>2021-03-23T09:27:42Z</time>
      </trkpt>
      <trkpt lat="46.5449" lon="-1.58016">
        <ele>-457.79998779297</ele>
        <time>2021-03-23T09:27:43Z</time>
      </trkpt>
      <trkpt lat="46.5449" lon="-1.58009">
        <ele>-457.39999389648</ele>
        <time>2021-03-23T09:27:44Z</time>
      </trkpt>
      <trkpt lat="46.5449" lon="-1.58002">
        <ele>-456.79998779297</ele>
        <time>2021-03-23T09:27:45Z</time>
      </trkpt>
      <trkpt lat="46.54489" lon="-1.57989">
        <ele>-456.79998779297</ele>
        <time>2021-03-23T09:27:47Z</time>
      </trkpt>
      <trkpt lat="46.54486" lon="-1.5794">
        <ele>-456.79998779297</ele>
        <time>2021-03-23T09:27:54Z</time>
      </trkpt>
      <trkpt lat="46.54484" lon="-1.57875">
        <ele>-456.79998779297</ele>
        <time>2021-03-23T09:28:04Z</time>
      </trkpt>
      <trkpt lat="46.54481" lon="-1.57825">
        <ele>-456.79998779297</ele>
        <time>2021-03-23T09:28:11Z</time>
      </trkpt>
      <trkpt lat="46.54477" lon="-1.57778">
        <ele>-456.79998779297</ele>
        <time>2021-03-23T09:28:18Z</time>
      </trkpt>
      <trkpt lat="46.54473" lon="-1.57741">
        <ele>-456.79998779297</ele>
        <time>2021-03-23T09:28:24Z</time>
      </trkpt>
      <trkpt lat="46.54466" lon="-1.57692">
        <ele>-456.79998779297</ele>
        <time>2021-03-23T09:28:32Z</time>
      </trkpt>
      <trkpt lat="46.54459" lon="-1.57672">
        <ele>-456.79998779297</ele>
        <time>2021-03-23T09:28:36Z</time>
      </trkpt>
      <trkpt lat="46.54454" lon="-1.57669">
        <ele>-456.79998779297</ele>
        <time>2021-03-23T09:28:37Z</time>
      </trkpt>
      <trkpt lat="46.54436" lon="-1.57664">
        <ele>-456.79998779297</ele>
        <time>2021-03-23T09:28:41Z</time>
      </trkpt>
      <trkpt lat="46.54431" lon="-1.57663">
        <ele>-456.79998779297</ele>
        <time>2021-03-23T09:28:42Z</time>
      </trkpt>
      <trkpt lat="46.54402" lon="-1.57655">
        <ele>-456.79998779297</ele>
        <time>2021-03-23T09:28:48Z</time>
      </trkpt>
      <trkpt lat="46.54369" lon="-1.57646">
        <ele>-456.79998779297</ele>
        <time>2021-03-23T09:28:55Z</time>
      </trkpt>
      <trkpt lat="46.54332" lon="-1.5764">
        <ele>-456.79998779297</ele>
        <time>2021-03-23T09:29:02Z</time>
      </trkpt>
      <trkpt lat="46.54291" lon="-1.57635">
        <ele>-456.79998779297</ele>
        <time>2021-03-23T09:29:10Z</time>
      </trkpt>
      <trkpt lat="46.54282" lon="-1.57653">
        <ele>-456.79998779297</ele>
        <time>2021-03-23T09:29:13Z</time>
      </trkpt>
      <trkpt lat="46.54283" lon="-1.5767">
        <ele>-456.79998779297</ele>
        <time>2021-03-23T09:29:15Z</time>
      </trkpt>
      <trkpt lat="46.5428" lon="-1.57678">
        <ele>-456.79998779297</ele>
        <time>2021-03-23T09:29:16Z</time>
      </trkpt>
      <trkpt lat="46.54266" lon="-1.57689">
        <ele>-456.79998779297</ele>
        <time>2021-03-23T09:29:19Z</time>
      </trkpt>
      <trkpt lat="46.54249" lon="-1.57693">
        <ele>-456.79998779297</ele>
        <time>2021-03-23T09:29:22Z</time>
      </trkpt>
      <trkpt lat="46.54237" lon="-1.57696">
        <ele>-456.79998779297</ele>
        <time>2021-03-23T09:29:24Z</time>
      </trkpt>
      <trkpt lat="46.54201" lon="-1.57708">
        <ele>-456.79998779297</ele>
        <time>2021-03-23T09:29:31Z</time>
      </trkpt>
      <trkpt lat="46.5417" lon="-1.57714">
        <ele>-456.79998779297</ele>
        <time>2021-03-23T09:29:37Z</time>
      </trkpt>
      <trkpt lat="46.5414" lon="-1.57722">
        <ele>-456.79998779297</ele>
        <time>2021-03-23T09:29:43Z</time>
      </trkpt>
      <trkpt lat="46.54134" lon="-1.57722">
        <ele>-456.79998779297</ele>
        <time>2021-03-23T09:29:44Z</time>
      </trkpt>
      <trkpt lat="46.54098" lon="-1.5772">
        <ele>-456.79998779297</ele>
        <time>2021-03-23T09:29:51Z</time>
      </trkpt>
      <trkpt lat="46.5407" lon="-1.57718">
        <ele>-456.79998779297</ele>
        <time>2021-03-23T09:29:57Z</time>
      </trkpt>
      <trkpt lat="46.54057" lon="-1.57715">
        <ele>-456.79998779297</ele>
        <time>2021-03-23T09:30:00Z</time>
      </trkpt>
      <trkpt lat="46.54057" lon="-1.57715">
        <ele>-456.79998779297</ele>
        <time>2021-03-23T09:30:00Z</time>
      </trkpt>
      <trkpt lat="46.54042" lon="-1.5771">
        <ele>-456.79998779297</ele>
        <time>2021-03-23T09:30:04Z</time>
      </trkpt>
      <trkpt lat="46.54034" lon="-1.57702">
        <ele>-456.79998779297</ele>
        <time>2021-03-23T09:30:08Z</time>
      </trkpt>
      <trkpt lat="46.5403" lon="-1.57697">
        <ele>-456.79998779297</ele>
        <time>2021-03-23T09:30:10Z</time>
      </trkpt>
      <trkpt lat="46.54024" lon="-1.57689">
        <ele>-456.79998779297</ele>
        <time>2021-03-23T09:30:12Z</time>
      </trkpt>
      <trkpt lat="46.54008" lon="-1.57679">
        <ele>-456.79998779297</ele>
        <time>2021-03-23T09:30:16Z</time>
      </trkpt>
      <trkpt lat="46.53978" lon="-1.57668">
        <ele>-456.79998779297</ele>
        <time>2021-03-23T09:30:22Z</time>
      </trkpt>
      <trkpt lat="46.53972" lon="-1.57666">
        <ele>-457.39999389648</ele>
        <time>2021-03-23T09:30:23Z</time>
      </trkpt>
      <trkpt lat="46.53966" lon="-1.57663">
        <ele>-457.79998779297</ele>
        <time>2021-03-23T09:30:24Z</time>
      </trkpt>
      <trkpt lat="46.5396" lon="-1.57661">
        <ele>-458.20001220703</ele>
        <time>2021-03-23T09:30:25Z</time>
      </trkpt>
      <trkpt lat="46.53954" lon="-1.57659">
        <ele>-458.60000610352</ele>
        <time>2021-03-23T09:30:26Z</time>
      </trkpt>
      <trkpt lat="46.53948" lon="-1.57656">
        <ele>-459.20001220703</ele>
        <time>2021-03-23T09:30:27Z</time>
      </trkpt>
      <trkpt lat="46.53934" lon="-1.5765">
        <ele>-459.20001220703</ele>
        <time>2021-03-23T09:30:29Z</time>
      </trkpt>
      <trkpt lat="46.53899" lon="-1.57628">
        <ele>-459.60000610352</ele>
        <time>2021-03-23T09:30:34Z</time>
      </trkpt>
      <trkpt lat="46.53891" lon="-1.57622">
        <ele>-460</ele>
        <time>2021-03-23T09:30:35Z</time>
      </trkpt>
      <trkpt lat="46.53884" lon="-1.57616">
        <ele>-460.39999389648</ele>
        <time>2021-03-23T09:30:36Z</time>
      </trkpt>
      <trkpt lat="46.53876" lon="-1.5761">
        <ele>-460.79998779297</ele>
        <time>2021-03-23T09:30:37Z</time>
      </trkpt>
      <trkpt lat="46.53868" lon="-1.57603">
        <ele>-461.39999389648</ele>
        <time>2021-03-23T09:30:38Z</time>
      </trkpt>
      <trkpt lat="46.5386" lon="-1.57597">
        <ele>-461.79998779297</ele>
        <time>2021-03-23T09:30:39Z</time>
      </trkpt>
      <trkpt lat="46.53852" lon="-1.57591">
        <ele>-462.39999389648</ele>
        <time>2021-03-23T09:30:40Z</time>
      </trkpt>
      <trkpt lat="46.53844" lon="-1.57584">
        <ele>-462.79998779297</ele>
        <time>2021-03-23T09:30:41Z</time>
      </trkpt>
      <trkpt lat="46.53836" lon="-1.57577">
        <ele>-463.39999389648</ele>
        <time>2021-03-23T09:30:42Z</time>
      </trkpt>
      <trkpt lat="46.53828" lon="-1.57571">
        <ele>-463.79998779297</ele>
        <time>2021-03-23T09:30:43Z</time>
      </trkpt>
      <trkpt lat="46.53821" lon="-1.57565">
        <ele>-464.20001220703</ele>
        <time>2021-03-23T09:30:44Z</time>
      </trkpt>
      <trkpt lat="46.53815" lon="-1.57559">
        <ele>-464.60000610352</ele>
        <time>2021-03-23T09:30:45Z</time>
      </trkpt>
      <trkpt lat="46.53809" lon="-1.57553">
        <ele>-465</ele>
        <time>2021-03-23T09:30:46Z</time>
      </trkpt>
      <trkpt lat="46.53803" lon="-1.57549">
        <ele>-465.39999389648</ele>
        <time>2021-03-23T09:30:47Z</time>
      </trkpt>
      <trkpt lat="46.53775" lon="-1.57527">
        <ele>-465.39999389648</ele>
        <time>2021-03-23T09:30:52Z</time>
      </trkpt>
      <trkpt lat="46.53747" lon="-1.57511">
        <ele>-465.39999389648</ele>
        <time>2021-03-23T09:30:58Z</time>
      </trkpt>
      <trkpt lat="46.53719" lon="-1.57502">
        <ele>-465</ele>
        <time>2021-03-23T09:31:04Z</time>
      </trkpt>
      <trkpt lat="46.53715" lon="-1.57502">
        <ele>-464.60000610352</ele>
        <time>2021-03-23T09:31:05Z</time>
      </trkpt>
      <trkpt lat="46.53711" lon="-1.57502">
        <ele>-464</ele>
        <time>2021-03-23T09:31:06Z</time>
      </trkpt>
      <trkpt lat="46.53706" lon="-1.57502">
        <ele>-463.60000610352</ele>
        <time>2021-03-23T09:31:07Z</time>
      </trkpt>
      <trkpt lat="46.53701" lon="-1.57502">
        <ele>-463.20001220703</ele>
        <time>2021-03-23T09:31:08Z</time>
      </trkpt>
      <trkpt lat="46.53684" lon="-1.57501">
        <ele>-462.79998779297</ele>
        <time>2021-03-23T09:31:12Z</time>
      </trkpt>
      <trkpt lat="46.53679" lon="-1.57501">
        <ele>-462.39999389648</ele>
        <time>2021-03-23T09:31:13Z</time>
      </trkpt>
      <trkpt lat="46.53675" lon="-1.575">
        <ele>-462</ele>
        <time>2021-03-23T09:31:14Z</time>
      </trkpt>
      <trkpt lat="46.5367" lon="-1.575">
        <ele>-461.60000610352</ele>
        <time>2021-03-23T09:31:15Z</time>
      </trkpt>
      <trkpt lat="46.53666" lon="-1.575">
        <ele>-461.20001220703</ele>
        <time>2021-03-23T09:31:16Z</time>
      </trkpt>
      <trkpt lat="46.53645" lon="-1.57497">
        <ele>-461.20001220703</ele>
        <time>2021-03-23T09:31:21Z</time>
      </trkpt>
      <trkpt lat="46.53637" lon="-1.57496">
        <ele>-460.79998779297</ele>
        <time>2021-03-23T09:31:23Z</time>
      </trkpt>
      <trkpt lat="46.53633" lon="-1.57495">
        <ele>-460.39999389648</ele>
        <time>2021-03-23T09:31:24Z</time>
      </trkpt>
      <trkpt lat="46.53629" lon="-1.57494">
        <ele>-460</ele>
        <time>2021-03-23T09:31:25Z</time>
      </trkpt>
      <trkpt lat="46.53625" lon="-1.57493">
        <ele>-459.39999389648</ele>
        <time>2021-03-23T09:31:26Z</time>
      </trkpt>
      <trkpt lat="46.53622" lon="-1.57492">
        <ele>-459</ele>
        <time>2021-03-23T09:31:27Z</time>
      </trkpt>
      <trkpt lat="46.5361" lon="-1.57487">
        <ele>-459</ele>
        <time>2021-03-23T09:31:30Z</time>
      </trkpt>
      <trkpt lat="46.53602" lon="-1.57485">
        <ele>-459</ele>
        <time>2021-03-23T09:31:32Z</time>
      </trkpt>
      <trkpt lat="46.53586" lon="-1.57485">
        <ele>-459</ele>
        <time>2021-03-23T09:31:36Z</time>
      </trkpt>
      <trkpt lat="46.53576" lon="-1.57488">
        <ele>-459</ele>
        <time>2021-03-23T09:31:38Z</time>
      </trkpt>
      <trkpt lat="46.53565" lon="-1.57498">
        <ele>-459</ele>
        <time>2021-03-23T09:31:41Z</time>
      </trkpt>
      <trkpt lat="46.53561" lon="-1.57502">
        <ele>-459</ele>
        <time>2021-03-23T09:31:42Z</time>
      </trkpt>
      <trkpt lat="46.5354" lon="-1.5753">
        <ele>-459</ele>
        <time>2021-03-23T09:31:48Z</time>
      </trkpt>
      <trkpt lat="46.53516" lon="-1.57569">
        <ele>-459</ele>
        <time>2021-03-23T09:31:55Z</time>
      </trkpt>
      <trkpt lat="46.53501" lon="-1.576">
        <ele>-459</ele>
        <time>2021-03-23T09:32:00Z</time>
      </trkpt>
      <trkpt lat="46.53495" lon="-1.57612">
        <ele>-459</ele>
        <time>2021-03-23T09:32:02Z</time>
      </trkpt>
      <trkpt lat="46.53473" lon="-1.57658">
        <ele>-459</ele>
        <time>2021-03-23T09:32:09Z</time>
      </trkpt>
      <trkpt lat="46.53449" lon="-1.57713">
        <ele>-459</ele>
        <time>2021-03-23T09:32:17Z</time>
      </trkpt>
      <trkpt lat="46.53446" lon="-1.57721">
        <ele>-459</ele>
        <time>2021-03-23T09:32:18Z</time>
      </trkpt>
      <trkpt lat="46.53436" lon="-1.57755">
        <ele>-459</ele>
        <time>2021-03-23T09:32:22Z</time>
      </trkpt>
      <trkpt lat="46.53416" lon="-1.57817">
        <ele>-459</ele>
        <time>2021-03-23T09:32:30Z</time>
      </trkpt>
      <trkpt lat="46.53391" lon="-1.57871">
        <ele>-459</ele>
        <time>2021-03-23T09:32:37Z</time>
      </trkpt>
      <trkpt lat="46.53372" lon="-1.579">
        <ele>-459.60000610352</ele>
        <time>2021-03-23T09:32:41Z</time>
      </trkpt>
      <trkpt lat="46.53367" lon="-1.57907">
        <ele>-460</ele>
        <time>2021-03-23T09:32:42Z</time>
      </trkpt>
      <trkpt lat="46.53362" lon="-1.57914">
        <ele>-460.39999389648</ele>
        <time>2021-03-23T09:32:43Z</time>
      </trkpt>
      <trkpt lat="46.53356" lon="-1.57923">
        <ele>-461</ele>
        <time>2021-03-23T09:32:44Z</time>
      </trkpt>
      <trkpt lat="46.53352" lon="-1.57932">
        <ele>-461.39999389648</ele>
        <time>2021-03-23T09:32:45Z</time>
      </trkpt>
      <trkpt lat="46.53342" lon="-1.57951">
        <ele>-461.79998779297</ele>
        <time>2021-03-23T09:32:47Z</time>
      </trkpt>
      <trkpt lat="46.53337" lon="-1.57959">
        <ele>-462.20001220703</ele>
        <time>2021-03-23T09:32:48Z</time>
      </trkpt>
      <trkpt lat="46.53331" lon="-1.57967">
        <ele>-462.60000610352</ele>
        <time>2021-03-23T09:32:49Z</time>
      </trkpt>
      <trkpt lat="46.53326" lon="-1.57975">
        <ele>-463</ele>
        <time>2021-03-23T09:32:50Z</time>
      </trkpt>
      <trkpt lat="46.53321" lon="-1.57982">
        <ele>-463.39999389648</ele>
        <time>2021-03-23T09:32:51Z</time>
      </trkpt>
      <trkpt lat="46.53312" lon="-1.57996">
        <ele>-463.39999389648</ele>
        <time>2021-03-23T09:32:53Z</time>
      </trkpt>
      <trkpt lat="46.53277" lon="-1.58039">
        <ele>-463.39999389648</ele>
        <time>2021-03-23T09:33:00Z</time>
      </trkpt>
      <trkpt lat="46.53241" lon="-1.58069">
        <ele>-463.39999389648</ele>
        <time>2021-03-23T09:33:06Z</time>
      </trkpt>
      <trkpt lat="46.53209" lon="-1.58095">
        <ele>-463.39999389648</ele>
        <time>2021-03-23T09:33:12Z</time>
      </trkpt>
      <trkpt lat="46.53174" lon="-1.58124">
        <ele>-463.39999389648</ele>
        <time>2021-03-23T09:33:19Z</time>
      </trkpt>
      <trkpt lat="46.53138" lon="-1.58152">
        <ele>-463.39999389648</ele>
        <time>2021-03-23T09:33:26Z</time>
      </trkpt>
      <trkpt lat="46.53127" lon="-1.58159">
        <ele>-463</ele>
        <time>2021-03-23T09:33:28Z</time>
      </trkpt>
      <trkpt lat="46.53122" lon="-1.58162">
        <ele>-462.60000610352</ele>
        <time>2021-03-23T09:33:29Z</time>
      </trkpt>
      <trkpt lat="46.53117" lon="-1.58166">
        <ele>-462.20001220703</ele>
        <time>2021-03-23T09:33:30Z</time>
      </trkpt>
      <trkpt lat="46.53112" lon="-1.58168">
        <ele>-461.79998779297</ele>
        <time>2021-03-23T09:33:31Z</time>
      </trkpt>
      <trkpt lat="46.53106" lon="-1.58171">
        <ele>-461.39999389648</ele>
        <time>2021-03-23T09:33:32Z</time>
      </trkpt>
      <trkpt lat="46.53096" lon="-1.58177">
        <ele>-461.39999389648</ele>
        <time>2021-03-23T09:33:34Z</time>
      </trkpt>
      <trkpt lat="46.53054" lon="-1.58202">
        <ele>-461.39999389648</ele>
        <time>2021-03-23T09:33:42Z</time>
      </trkpt>
      <trkpt lat="46.53017" lon="-1.58233">
        <ele>-461.39999389648</ele>
        <time>2021-03-23T09:33:50Z</time>
      </trkpt>
      <trkpt lat="46.52981" lon="-1.58268">
        <ele>-461.39999389648</ele>
        <time>2021-03-23T09:33:58Z</time>
      </trkpt>
      <trkpt lat="46.52939" lon="-1.58322">
        <ele>-461.39999389648</ele>
        <time>2021-03-23T09:34:08Z</time>
      </trkpt>
      <trkpt lat="46.52921" lon="-1.58341">
        <ele>-461</ele>
        <time>2021-03-23T09:34:12Z</time>
      </trkpt>
      <trkpt lat="46.52917" lon="-1.58345">
        <ele>-460.60000610352</ele>
        <time>2021-03-23T09:34:13Z</time>
      </trkpt>
      <trkpt lat="46.52913" lon="-1.5835">
        <ele>-460.20001220703</ele>
        <time>2021-03-23T09:34:14Z</time>
      </trkpt>
      <trkpt lat="46.52909" lon="-1.58354">
        <ele>-459.79998779297</ele>
        <time>2021-03-23T09:34:15Z</time>
      </trkpt>
      <trkpt lat="46.52903" lon="-1.58358">
        <ele>-459.39999389648</ele>
        <time>2021-03-23T09:34:16Z</time>
      </trkpt>
      <trkpt lat="46.52883" lon="-1.58371">
        <ele>-459.39999389648</ele>
        <time>2021-03-23T09:34:20Z</time>
      </trkpt>
      <trkpt lat="46.52845" lon="-1.58393">
        <ele>-459.39999389648</ele>
        <time>2021-03-23T09:34:27Z</time>
      </trkpt>
      <trkpt lat="46.52813" lon="-1.58412">
        <ele>-459.39999389648</ele>
        <time>2021-03-23T09:34:33Z</time>
      </trkpt>
      <trkpt lat="46.5276" lon="-1.58443">
        <ele>-459.39999389648</ele>
        <time>2021-03-23T09:34:43Z</time>
      </trkpt>
      <trkpt lat="46.5275" lon="-1.58449">
        <ele>-459.39999389648</ele>
        <time>2021-03-23T09:34:45Z</time>
      </trkpt>
      <trkpt lat="46.52707" lon="-1.58475">
        <ele>-459.39999389648</ele>
        <time>2021-03-23T09:34:53Z</time>
      </trkpt>
      <trkpt lat="46.52677" lon="-1.58493">
        <ele>-459.39999389648</ele>
        <time>2021-03-23T09:34:59Z</time>
      </trkpt>
      <trkpt lat="46.52667" lon="-1.58499">
        <ele>-459.39999389648</ele>
        <time>2021-03-23T09:35:01Z</time>
      </trkpt>
      <trkpt lat="46.52655" lon="-1.58515">
        <ele>-459.39999389648</ele>
        <time>2021-03-23T09:35:04Z</time>
      </trkpt>
      <trkpt lat="46.52649" lon="-1.58535">
        <ele>-459.39999389648</ele>
        <time>2021-03-23T09:35:07Z</time>
      </trkpt>
      <trkpt lat="46.52648" lon="-1.58542">
        <ele>-459.39999389648</ele>
        <time>2021-03-23T09:35:08Z</time>
      </trkpt>
      <trkpt lat="46.52646" lon="-1.5855">
        <ele>-459.39999389648</ele>
        <time>2021-03-23T09:35:09Z</time>
      </trkpt>
      <trkpt lat="46.52616" lon="-1.58488">
        <ele>54.1</ele>
        <time>2021-03-23T09:35:13Z</time>
      </trkpt>
      <trkpt lat="46.52584" lon="-1.58409">
        <ele>54</ele>
        <time>2021-03-23T09:35:21Z</time>
      </trkpt>
      <trkpt lat="46.52545" lon="-1.58347">
        <ele>53.8</ele>
        <time>2021-03-23T09:35:27Z</time>
      </trkpt>
      <trkpt lat="46.52484" lon="-1.58278">
        <ele>54</ele>
        <time>2021-03-23T09:35:36Z</time>
      </trkpt>
      <trkpt lat="46.52396" lon="-1.58239">
        <ele>53.2</ele>
        <time>2021-03-23T09:35:44Z</time>
      </trkpt>
      <trkpt lat="46.5234" lon="-1.58207">
        <ele>53</ele>
      </trkpt>
      <trkpt lat="46.52301" lon="-1.58175">
        <ele>53</ele>
      </trkpt>
      <trkpt lat="46.52243" lon="-1.58157">
        <ele>52.3</ele>
      </trkpt>
      <trkpt lat="46.52135" lon="-1.58098">
        <ele>51.9</ele>
      </trkpt>
      <trkpt lat="46.52052" lon="-1.58101">
        <ele>51</ele>
      </trkpt>
      <trkpt lat="46.51959" lon="-1.58081">
        <ele>50.1</ele>
      </trkpt>
      <trkpt lat="46.51842" lon="-1.58109">
        <ele>48.3</ele>
      </trkpt>
      <trkpt lat="46.51698" lon="-1.58126">
        <ele>45.1</ele>
      </trkpt>
      <trkpt lat="46.51542" lon="-1.58126">
        <ele>35.8</ele>
      </trkpt>
      <trkpt lat="46.51476" lon="-1.58035">
        <ele>40.8</ele>
      </trkpt>
      <trkpt lat="46.51437" lon="-1.57922">
        <ele>44.3</ele>
      </trkpt>
      <trkpt lat="46.51359" lon="-1.57763">
        <ele>45.5</ele>
      </trkpt>
      <trkpt lat="46.51215" lon="-1.5769">
        <ele>49.1</ele>
      </trkpt>
      <trkpt lat="46.51113" lon="-1.57577">
        <ele>50.9</ele>
      </trkpt>
      <trkpt lat="46.50992" lon="-1.57503">
        <ele>52.3</ele>
      </trkpt>
      <trkpt lat="46.5093" lon="-1.57361">
        <ele>53</ele>
      </trkpt>
      <trkpt lat="46.50868" lon="-1.57242">
        <ele>53</ele>
      </trkpt>
      <trkpt lat="46.50708" lon="-1.57039">
        <ele>53.7</ele>
      </trkpt>
      <trkpt lat="46.50536" lon="-1.57242">
        <ele>51.3</ele>
      </trkpt>
      <trkpt lat="46.50525" lon="-1.57061">
        <ele>52</ele>
      </trkpt>
      <trkpt lat="46.50435" lon="-1.56874">
        <ele>51.3</ele>
      </trkpt>
      <trkpt lat="46.50303" lon="-1.56704">
        <ele>43.2</ele>
      </trkpt>
      <trkpt lat="46.50197" lon="-1.56546">
        <ele>34</ele>
      </trkpt>
      <trkpt lat="46.50244" lon="-1.56421">
        <ele>35.5</ele>
      </trkpt>
      <trkpt lat="46.50201" lon="-1.56348">
        <ele>41</ele>
      </trkpt>
      <trkpt lat="46.50151" lon="-1.56229">
        <ele>48.7</ele>
      </trkpt>
      <trkpt lat="46.50153" lon="-1.56053">
        <ele>53</ele>
      </trkpt>
      <trkpt lat="46.50156" lon="-1.5596">
        <ele>53.5</ele>
        <time>2021-03-23T09:35:51Z</time>
      </trkpt>
      <trkpt lat="46.50148" lon="-1.55881">
        <ele>54</ele>
      </trkpt>
      <trkpt lat="46.50184" lon="-1.55653">
        <ele>54</ele>
      </trkpt>
      <trkpt lat="46.50194" lon="-1.55556">
        <ele>54</ele>
      </trkpt>
      <trkpt lat="46.50112" lon="-1.55418">
        <ele>55</ele>
      </trkpt>
      <trkpt lat="46.50067" lon="-1.55263">
        <ele>54.5</ele>
      </trkpt>
      <trkpt lat="46.5003" lon="-1.55155">
        <ele>52.6</ele>
      </trkpt>
      <trkpt lat="46.50015" lon="-1.55083">
        <ele>49.5</ele>
      </trkpt>
      <trkpt lat="46.50011" lon="-1.55016">
        <ele>45.7</ele>
      </trkpt>
      <trkpt lat="46.49988" lon="-1.54967">
        <ele>42</ele>
      </trkpt>
      <trkpt lat="46.49968" lon="-1.54909">
        <ele>38.2</ele>
      </trkpt>
      <trkpt lat="46.49932" lon="-1.54887">
        <ele>32</ele>
      </trkpt>
      <trkpt lat="46.49886" lon="-1.54874">
        <ele>27</ele>
      </trkpt>
      <trkpt lat="46.49829" lon="-1.54815">
        <ele>30.4</ele>
      </trkpt>
      <trkpt lat="46.49772" lon="-1.54899">
        <ele>32.4</ele>
      </trkpt>
      <trkpt lat="46.4976" lon="-1.54934">
        <ele>31.2</ele>
      </trkpt>
      <trkpt lat="46.49739" lon="-1.54982">
        <ele>29</ele>
      </trkpt>
      <trkpt lat="46.49711" lon="-1.55029">
        <ele>29.9</ele>
      </trkpt>
      <trkpt lat="46.49677" lon="-1.55047">
        <ele>29.8</ele>
      </trkpt>
      <trkpt lat="46.49626" lon="-1.55047">
        <ele>29.4</ele>
      </trkpt>
      <trkpt lat="46.49575" lon="-1.55056">
        <ele>29.1</ele>
      </trkpt>
      <trkpt lat="46.49489" lon="-1.55157">
        <ele>32</ele>
      </trkpt>
      <trkpt lat="46.49389" lon="-1.55181">
        <ele>28.5</ele>
      </trkpt>
      <trkpt lat="46.49209" lon="-1.55254">
        <ele>28.3</ele>
      </trkpt>
      <trkpt lat="46.491" lon="-1.55229">
        <ele>28.9</ele>
      </trkpt>
      <trkpt lat="46.48979" lon="-1.55296">
        <ele>36.4</ele>
      </trkpt>
      <trkpt lat="46.48927" lon="-1.55417">
        <ele>28.3</ele>
        <time>2021-03-23T09:35:57Z</time>
      </trkpt>
      <trkpt lat="46.48873" lon="-1.55401">
        <ele>28.8</ele>
      </trkpt>
      <trkpt lat="46.48774" lon="-1.55337">
        <ele>30.8</ele>
        <time>2021-03-23T09:35:58Z</time>
      </trkpt>
      <trkpt lat="46.48731" lon="-1.55422">
        <ele>30.5</ele>
        <time>2021-03-23T09:36:05Z</time>
      </trkpt>
      <trkpt lat="46.48672" lon="-1.55528">
        <ele>29.4</ele>
        <time>2021-03-23T09:36:13Z</time>
      </trkpt>
      <trkpt lat="46.48527" lon="-1.55602">
        <ele>29.4</ele>
        <time>2021-03-23T09:36:15Z</time>
      </trkpt>
      <trkpt lat="46.48425" lon="-1.55617">
        <ele>28.8</ele>
        <time>2021-03-23T09:36:23Z</time>
      </trkpt>
      <trkpt lat="46.48403" lon="-1.55776">
        <ele>29.4</ele>
        <time>2021-03-23T09:36:30Z</time>
      </trkpt>
      <trkpt lat="46.48403" lon="-1.55882">
        <ele>28.4</ele>
        <time>2021-03-23T09:36:35Z</time>
      </trkpt>
      <trkpt lat="46.48451" lon="-1.55956">
        <ele>22.6</ele>
        <time>2021-03-23T09:36:41Z</time>
      </trkpt>
      <trkpt lat="46.48411" lon="-1.56051">
        <ele>21.1</ele>
        <time>2021-03-23T09:36:43Z</time>
      </trkpt>
      <trkpt lat="46.48338" lon="-1.56119">
        <ele>16.5</ele>
        <time>2021-03-23T09:36:46Z</time>
      </trkpt>
      <trkpt lat="46.48371" lon="-1.56167">
        <ele>15</ele>
        <time>2021-03-23T09:36:54Z</time>
      </trkpt>
      <trkpt lat="46.48403" lon="-1.56294">
        <ele>19.3</ele>
        <time>2021-03-23T09:37:00Z</time>
      </trkpt>
      <trkpt lat="46.48338" lon="-1.56415">
        <ele>14.7</ele>
        <time>2021-03-23T09:37:02Z</time>
      </trkpt>
      <trkpt lat="46.48276" lon="-1.56574">
        <ele>13.6</ele>
        <time>2021-03-23T09:37:08Z</time>
      </trkpt>
      <trkpt lat="46.48396" lon="-1.56653">
        <ele>18.9</ele>
        <time>2021-03-23T09:37:15Z</time>
      </trkpt>
      <trkpt lat="46.4852" lon="-1.56843">
        <ele>30.5</ele>
        <time>2021-03-23T09:37:23Z</time>
      </trkpt>
      <trkpt lat="46.48582" lon="-1.57065">
        <ele>35</ele>
      </trkpt>
      <trkpt lat="46.48705" lon="-1.57181">
        <ele>35.2</ele>
        <time>2021-03-23T09:37:24Z</time>
      </trkpt>
      <trkpt lat="46.48865" lon="-1.57236">
        <ele>37.1</ele>
      </trkpt>
      <trkpt lat="46.49185" lon="-1.57287">
        <ele>43.7</ele>
        <time>2021-03-23T09:38:56Z</time>
      </trkpt>
      <trkpt lat="46.49386" lon="-1.57306">
        <ele>47</ele>
        <time>2021-03-23T09:38:59Z</time>
      </trkpt>
      <trkpt lat="46.49595" lon="-1.57298">
        <ele>46</ele>
        <time>2021-03-23T09:39:07Z</time>
      </trkpt>
      <trkpt lat="46.49882" lon="-1.57362">
        <ele>46</ele>
        <time>2021-03-23T09:39:15Z</time>
      </trkpt>
      <trkpt lat="46.50125" lon="-1.57442">
        <ele>47</ele>
        <time>2021-03-23T09:39:23Z</time>
      </trkpt>
      <trkpt lat="46.50235" lon="-1.5753">
        <ele>47</ele>
        <time>2021-03-23T09:39:27Z</time>
      </trkpt>
      <trkpt lat="46.50461" lon="-1.5765">
        <ele>49.8</ele>
        <time>2021-03-23T09:39:28Z</time>
      </trkpt>
      <trkpt lat="46.50599" lon="-1.57786">
        <ele>49.5</ele>
        <time>2021-03-23T09:39:29Z</time>
      </trkpt>
      <trkpt lat="46.50665" lon="-1.57922">
        <ele>49</ele>
        <time>2021-03-23T09:39:30Z</time>
      </trkpt>
      <trkpt lat="46.50791" lon="-1.58587">
        <ele>42.1</ele>
      </trkpt>
      <trkpt lat="46.5099" lon="-1.59196">
        <ele>28</ele>
        <time>2021-03-23T09:39:31Z</time>
      </trkpt>
      <trkpt lat="46.51017" lon="-1.5934">
        <ele>33.5</ele>
        <time>2021-03-23T09:39:38Z</time>
      </trkpt>
      <trkpt lat="46.51155" lon="-1.5962">
        <ele>35</ele>
        <time>2021-03-23T09:39:47Z</time>
      </trkpt>
      <trkpt lat="46.51293" lon="-1.59956">
        <ele>39.5</ele>
      </trkpt>
      <trkpt lat="46.51188" lon="-1.59764">
        <ele>36.9</ele>
        <time>2021-03-23T09:39:48Z</time>
      </trkpt>
      <trkpt lat="46.51381" lon="-1.60149">
        <ele>48.3</ele>
        <time>2021-03-23T09:39:56Z</time>
      </trkpt>
      <trkpt lat="46.5142" lon="-1.60269">
        <ele>50</ele>
        <time>2021-03-23T09:40:03Z</time>
      </trkpt>
      <trkpt lat="46.51431" lon="-1.60325">
        <ele>50.7</ele>
      </trkpt>
      <trkpt lat="46.51503" lon="-1.60469">
        <ele>-463.20001220703</ele>
        <time>2021-03-23T09:40:09Z</time>
      </trkpt>
      <trkpt lat="46.51497" lon="-1.60473">
        <ele>-462.79998779297</ele>
        <time>2021-03-23T09:40:10Z</time>
      </trkpt>
      <trkpt lat="46.51492" lon="-1.60478">
        <ele>-462.39999389648</ele>
        <time>2021-03-23T09:40:11Z</time>
      </trkpt>
      <trkpt lat="46.51486" lon="-1.60482">
        <ele>-462</ele>
        <time>2021-03-23T09:40:12Z</time>
      </trkpt>
      <trkpt lat="46.51481" lon="-1.60486">
        <ele>-461.60000610352</ele>
        <time>2021-03-23T09:40:13Z</time>
      </trkpt>
      <trkpt lat="46.51458" lon="-1.60506">
        <ele>-461.60000610352</ele>
        <time>2021-03-23T09:40:17Z</time>
      </trkpt>
      <trkpt lat="46.51409" lon="-1.60545">
        <ele>-461.60000610352</ele>
        <time>2021-03-23T09:40:25Z</time>
      </trkpt>
      <trkpt lat="46.51377" lon="-1.60571">
        <ele>-462</ele>
        <time>2021-03-23T09:40:30Z</time>
      </trkpt>
      <trkpt lat="46.5137" lon="-1.60576">
        <ele>-462.39999389648</ele>
        <time>2021-03-23T09:40:31Z</time>
      </trkpt>
      <trkpt lat="46.51364" lon="-1.60581">
        <ele>-463</ele>
        <time>2021-03-23T09:40:32Z</time>
      </trkpt>
      <trkpt lat="46.51357" lon="-1.60587">
        <ele>-463.39999389648</ele>
        <time>2021-03-23T09:40:33Z</time>
      </trkpt>
      <trkpt lat="46.51351" lon="-1.60592">
        <ele>-463.79998779297</ele>
        <time>2021-03-23T09:40:34Z</time>
      </trkpt>
      <trkpt lat="46.51324" lon="-1.60613">
        <ele>-464.39999389648</ele>
        <time>2021-03-23T09:40:38Z</time>
      </trkpt>
      <trkpt lat="46.51318" lon="-1.60619">
        <ele>-464.79998779297</ele>
        <time>2021-03-23T09:40:39Z</time>
      </trkpt>
      <trkpt lat="46.51312" lon="-1.60624">
        <ele>-465.20001220703</ele>
        <time>2021-03-23T09:40:40Z</time>
      </trkpt>
      <trkpt lat="46.51306" lon="-1.60629">
        <ele>-466.20001220703</ele>
        <time>2021-03-23T09:40:41Z</time>
      </trkpt>
      <trkpt lat="46.513" lon="-1.60635">
        <ele>-466.20001220703</ele>
        <time>2021-03-23T09:40:42Z</time>
      </trkpt>
      <trkpt lat="46.51276" lon="-1.60666">
        <ele>-466.20001220703</ele>
        <time>2021-03-23T09:40:47Z</time>
      </trkpt>
      <trkpt lat="46.51243" lon="-1.60717">
        <ele>-466.20001220703</ele>
        <time>2021-03-23T09:40:55Z</time>
      </trkpt>
      <trkpt lat="46.51203" lon="-1.60768">
        <ele>-466.20001220703</ele>
        <time>2021-03-23T09:41:04Z</time>
      </trkpt>
      <trkpt lat="46.5116" lon="-1.60821">
        <ele>-466.20001220703</ele>
        <time>2021-03-23T09:41:13Z</time>
      </trkpt>
      <trkpt lat="46.51121" lon="-1.60873">
        <ele>-466.20001220703</ele>
        <time>2021-03-23T09:41:20Z</time>
      </trkpt>
      <trkpt lat="46.51086" lon="-1.60907">
        <ele>-466.60000610352</ele>
        <time>2021-03-23T09:41:25Z</time>
      </trkpt>
      <trkpt lat="46.51079" lon="-1.60913">
        <ele>-467.20001220703</ele>
        <time>2021-03-23T09:41:26Z</time>
      </trkpt>
      <trkpt lat="46.51071" lon="-1.60918">
        <ele>-467.60000610352</ele>
        <time>2021-03-23T09:41:27Z</time>
      </trkpt>
      <trkpt lat="46.51064" lon="-1.60922">
        <ele>-468</ele>
        <time>2021-03-23T09:41:28Z</time>
      </trkpt>
      <trkpt lat="46.51055" lon="-1.60927">
        <ele>-468.60000610352</ele>
        <time>2021-03-23T09:41:29Z</time>
      </trkpt>
      <trkpt lat="46.51039" lon="-1.60936">
        <ele>-468.60000610352</ele>
        <time>2021-03-23T09:41:31Z</time>
      </trkpt>
      <trkpt lat="46.50988" lon="-1.60969">
        <ele>-469</ele>
        <time>2021-03-23T09:41:38Z</time>
      </trkpt>
      <trkpt lat="46.50981" lon="-1.60973">
        <ele>-469.39999389648</ele>
        <time>2021-03-23T09:41:39Z</time>
      </trkpt>
      <trkpt lat="46.50974" lon="-1.60977">
        <ele>-469.79998779297</ele>
        <time>2021-03-23T09:41:40Z</time>
      </trkpt>
      <trkpt lat="46.50967" lon="-1.6098">
        <ele>-470.20001220703</ele>
        <time>2021-03-23T09:41:41Z</time>
      </trkpt>
      <trkpt lat="46.5096" lon="-1.60984">
        <ele>-470.60000610352</ele>
        <time>2021-03-23T09:41:42Z</time>
      </trkpt>
      <trkpt lat="46.50941" lon="-1.60994">
        <ele>-470.60000610352</ele>
        <time>2021-03-23T09:41:45Z</time>
      </trkpt>
      <trkpt lat="46.5091" lon="-1.61009">
        <ele>-470.60000610352</ele>
        <time>2021-03-23T09:41:51Z</time>
      </trkpt>
      <trkpt lat="46.50882" lon="-1.61023">
        <ele>-470.20001220703</ele>
        <time>2021-03-23T09:41:57Z</time>
      </trkpt>
      <trkpt lat="46.50877" lon="-1.61026">
        <ele>-469.79998779297</ele>
        <time>2021-03-23T09:41:58Z</time>
      </trkpt>
      <trkpt lat="46.50872" lon="-1.61029">
        <ele>-469.39999389648</ele>
        <time>2021-03-23T09:41:59Z</time>
      </trkpt>
      <trkpt lat="46.50868" lon="-1.61031">
        <ele>-469</ele>
        <time>2021-03-23T09:42:00Z</time>
      </trkpt>
      <trkpt lat="46.50863" lon="-1.61034">
        <ele>-468.60000610352</ele>
        <time>2021-03-23T09:42:01Z</time>
      </trkpt>
      <trkpt lat="46.50848" lon="-1.61042">
        <ele>-468.60000610352</ele>
        <time>2021-03-23T09:42:04Z</time>
      </trkpt>
      <trkpt lat="46.50816" lon="-1.61056">
        <ele>-468.20001220703</ele>
        <time>2021-03-23T09:42:10Z</time>
      </trkpt>
      <trkpt lat="46.50811" lon="-1.61059">
        <ele>-467.79998779297</ele>
        <time>2021-03-23T09:42:11Z</time>
      </trkpt>
      <trkpt lat="46.50806" lon="-1.61061">
        <ele>-467.39999389648</ele>
        <time>2021-03-23T09:42:12Z</time>
      </trkpt>
      <trkpt lat="46.50801" lon="-1.61064">
        <ele>-467</ele>
        <time>2021-03-23T09:42:13Z</time>
      </trkpt>
      <trkpt lat="46.50795" lon="-1.61066">
        <ele>-466.60000610352</ele>
        <time>2021-03-23T09:42:14Z</time>
      </trkpt>
      <trkpt lat="46.50773" lon="-1.61076">
        <ele>-466.60000610352</ele>
        <time>2021-03-23T09:42:18Z</time>
      </trkpt>
      <trkpt lat="46.50761" lon="-1.6108">
        <ele>-466.20001220703</ele>
        <time>2021-03-23T09:42:20Z</time>
      </trkpt>
      <trkpt lat="46.50756" lon="-1.61082">
        <ele>-465.60000610352</ele>
        <time>2021-03-23T09:42:21Z</time>
      </trkpt>
      <trkpt lat="46.5075" lon="-1.61084">
        <ele>-465.20001220703</ele>
        <time>2021-03-23T09:42:22Z</time>
      </trkpt>
      <trkpt lat="46.50745" lon="-1.61087">
        <ele>-464.79998779297</ele>
        <time>2021-03-23T09:42:23Z</time>
      </trkpt>
      <trkpt lat="46.50739" lon="-1.61089">
        <ele>-464.20001220703</ele>
        <time>2021-03-23T09:42:24Z</time>
      </trkpt>
      <trkpt lat="46.50733" lon="-1.61093">
        <ele>-464.20001220703</ele>
        <time>2021-03-23T09:42:25Z</time>
      </trkpt>
      <trkpt lat="46.50697" lon="-1.61119">
        <ele>-464.20001220703</ele>
        <time>2021-03-23T09:42:31Z</time>
      </trkpt>
      <trkpt lat="46.50649" lon="-1.61158">
        <ele>-464.20001220703</ele>
        <time>2021-03-23T09:42:39Z</time>
      </trkpt>
      <trkpt lat="46.50608" lon="-1.61192">
        <ele>-464.20001220703</ele>
        <time>2021-03-23T09:42:46Z</time>
      </trkpt>
      <trkpt lat="46.50567" lon="-1.61225">
        <ele>-464.20001220703</ele>
        <time>2021-03-23T09:42:53Z</time>
      </trkpt>
      <trkpt lat="46.50555" lon="-1.61248">
        <ele>-464.20001220703</ele>
        <time>2021-03-23T09:42:56Z</time>
      </trkpt>
      <trkpt lat="46.50552" lon="-1.61257">
        <ele>-464.20001220703</ele>
        <time>2021-03-23T09:42:57Z</time>
      </trkpt>
      <trkpt lat="46.5053" lon="-1.61318">
        <ele>-464.20001220703</ele>
        <time>2021-03-23T09:43:04Z</time>
      </trkpt>
      <trkpt lat="46.50505" lon="-1.6139">
        <ele>-464.20001220703</ele>
        <time>2021-03-23T09:43:12Z</time>
      </trkpt>
      <trkpt lat="46.50501" lon="-1.61398">
        <ele>-464.20001220703</ele>
        <time>2021-03-23T09:43:13Z</time>
      </trkpt>
      <trkpt lat="46.50477" lon="-1.61424">
        <ele>-464.20001220703</ele>
        <time>2021-03-23T09:43:17Z</time>
      </trkpt>
      <trkpt lat="46.50471" lon="-1.61429">
        <ele>-464.79998779297</ele>
        <time>2021-03-23T09:43:18Z</time>
      </trkpt>
      <trkpt lat="46.50464" lon="-1.61431">
        <ele>-465.20001220703</ele>
        <time>2021-03-23T09:43:19Z</time>
      </trkpt>
      <trkpt lat="46.50456" lon="-1.61432">
        <ele>-465.60000610352</ele>
        <time>2021-03-23T09:43:20Z</time>
      </trkpt>
      <trkpt lat="46.50449" lon="-1.6143">
        <ele>-466</ele>
        <time>2021-03-23T09:43:21Z</time>
      </trkpt>
      <trkpt lat="46.50442" lon="-1.61428">
        <ele>-466.39999389648</ele>
        <time>2021-03-23T09:43:22Z</time>
      </trkpt>
      <trkpt lat="46.50427" lon="-1.61426">
        <ele>-466.39999389648</ele>
        <time>2021-03-23T09:43:24Z</time>
      </trkpt>
      <trkpt lat="46.5042" lon="-1.61426">
        <ele>-466.39999389648</ele>
        <time>2021-03-23T09:43:25Z</time>
      </trkpt>
      <trkpt lat="46.50382" lon="-1.61426">
        <ele>-466.39999389648</ele>
        <time>2021-03-23T09:43:31Z</time>
      </trkpt>
      <trkpt lat="46.5035" lon="-1.61431">
        <ele>-466.79998779297</ele>
        <time>2021-03-23T09:43:37Z</time>
      </trkpt>
      <trkpt lat="46.50346" lon="-1.61435">
        <ele>-467.20001220703</ele>
        <time>2021-03-23T09:43:38Z</time>
      </trkpt>
      <trkpt lat="46.50343" lon="-1.61442">
        <ele>-467.60000610352</ele>
        <time>2021-03-23T09:43:39Z</time>
      </trkpt>
      <trkpt lat="46.50342" lon="-1.6145">
        <ele>-468.20001220703</ele>
        <time>2021-03-23T09:43:40Z</time>
      </trkpt>
      <trkpt lat="46.50342" lon="-1.61458">
        <ele>-468.60000610352</ele>
        <time>2021-03-23T09:43:41Z</time>
      </trkpt>
      <trkpt lat="46.50342" lon="-1.61467">
        <ele>-469.20001220703</ele>
        <time>2021-03-23T09:43:42Z</time>
      </trkpt>
      <trkpt lat="46.50343" lon="-1.61476">
        <ele>-469.79998779297</ele>
        <time>2021-03-23T09:43:43Z</time>
      </trkpt>
      <trkpt lat="46.50344" lon="-1.61486">
        <ele>-470.20001220703</ele>
        <time>2021-03-23T09:43:44Z</time>
      </trkpt>
      <trkpt lat="46.50344" lon="-1.61497">
        <ele>-470.79998779297</ele>
        <time>2021-03-23T09:43:45Z</time>
      </trkpt>
      <trkpt lat="46.50345" lon="-1.61519">
        <ele>-471.20001220703</ele>
        <time>2021-03-23T09:43:47Z</time>
      </trkpt>
      <trkpt lat="46.50346" lon="-1.6153">
        <ele>-471.60000610352</ele>
        <time>2021-03-23T09:43:48Z</time>
      </trkpt>
      <trkpt lat="46.50347" lon="-1.61542">
        <ele>-472</ele>
        <time>2021-03-23T09:43:49Z</time>
      </trkpt>
      <trkpt lat="46.50348" lon="-1.61554">
        <ele>-472.39999389648</ele>
        <time>2021-03-23T09:43:50Z</time>
      </trkpt>
      <trkpt lat="46.50348" lon="-1.61566">
        <ele>-472.79998779297</ele>
        <time>2021-03-23T09:43:51Z</time>
      </trkpt>
      <trkpt lat="46.50352" lon="-1.61631">
        <ele>-472.79998779297</ele>
        <time>2021-03-23T09:43:57Z</time>
      </trkpt>
      <trkpt lat="46.50356" lon="-1.61687">
        <ele>-472.79998779297</ele>
        <time>2021-03-23T09:44:03Z</time>
      </trkpt>
      <trkpt lat="46.50359" lon="-1.6174">
        <ele>-472.79998779297</ele>
        <time>2021-03-23T09:44:10Z</time>
      </trkpt>
      <trkpt lat="46.50363" lon="-1.61795">
        <ele>-472.79998779297</ele>
        <time>2021-03-23T09:44:18Z</time>
      </trkpt>
      <trkpt lat="46.50363" lon="-1.61809">
        <ele>-472.79998779297</ele>
        <time>2021-03-23T09:44:20Z</time>
      </trkpt>
      <trkpt lat="46.50359" lon="-1.61822">
        <ele>-472.39999389648</ele>
        <time>2021-03-23T09:44:22Z</time>
      </trkpt>
      <trkpt lat="46.50355" lon="-1.61827">
        <ele>-471.60000610352</ele>
        <time>2021-03-23T09:44:23Z</time>
      </trkpt>
      <trkpt lat="46.50351" lon="-1.6183">
        <ele>-471.20001220703</ele>
        <time>2021-03-23T09:44:24Z</time>
      </trkpt>
      <trkpt lat="46.50346" lon="-1.61832">
        <ele>-470.60000610352</ele>
        <time>2021-03-23T09:44:25Z</time>
      </trkpt>
      <trkpt lat="46.50341" lon="-1.61832">
        <ele>-470</ele>
        <time>2021-03-23T09:44:26Z</time>
      </trkpt>
      <trkpt lat="46.50335" lon="-1.61832">
        <ele>-469.39999389648</ele>
        <time>2021-03-23T09:44:27Z</time>
      </trkpt>
      <trkpt lat="46.5033" lon="-1.61832">
        <ele>-468.79998779297</ele>
        <time>2021-03-23T09:44:28Z</time>
      </trkpt>
      <trkpt lat="46.50325" lon="-1.61832">
        <ele>-468.39999389648</ele>
        <time>2021-03-23T09:44:29Z</time>
      </trkpt>
      <trkpt lat="46.50309" lon="-1.61833">
        <ele>-468.39999389648</ele>
        <time>2021-03-23T09:44:32Z</time>
      </trkpt>
      <trkpt lat="46.50271" lon="-1.61833">
        <ele>-468.39999389648</ele>
        <time>2021-03-23T09:44:39Z</time>
      </trkpt>
      <trkpt lat="46.5023" lon="-1.61835">
        <ele>-468.39999389648</ele>
        <time>2021-03-23T09:44:46Z</time>
      </trkpt>
      <trkpt lat="46.50193" lon="-1.61836">
        <ele>-468.39999389648</ele>
        <time>2021-03-23T09:44:52Z</time>
      </trkpt>
      <trkpt lat="46.50174" lon="-1.61838">
        <ele>-468.39999389648</ele>
        <time>2021-03-23T09:44:55Z</time>
      </trkpt>
      <trkpt lat="46.50162" lon="-1.61847">
        <ele>-468.39999389648</ele>
        <time>2021-03-23T09:44:57Z</time>
      </trkpt>
      <trkpt lat="46.5015" lon="-1.61869">
        <ele>-468.79998779297</ele>
        <time>2021-03-23T09:45:00Z</time>
      </trkpt>
      <trkpt lat="46.50147" lon="-1.61877">
        <ele>-469.20001220703</ele>
        <time>2021-03-23T09:45:01Z</time>
      </trkpt>
      <trkpt lat="46.50145" lon="-1.61885">
        <ele>-469.60000610352</ele>
        <time>2021-03-23T09:45:02Z</time>
      </trkpt>
      <trkpt lat="46.50143" lon="-1.61893">
        <ele>-470</ele>
        <time>2021-03-23T09:45:03Z</time>
      </trkpt>
      <trkpt lat="46.5014" lon="-1.61901">
        <ele>-470.39999389648</ele>
        <time>2021-03-23T09:45:04Z</time>
      </trkpt>
      <trkpt lat="46.50137" lon="-1.61909">
        <ele>-470.39999389648</ele>
        <time>2021-03-23T09:45:05Z</time>
      </trkpt>
      <trkpt lat="46.50122" lon="-1.61958">
        <ele>-470.39999389648</ele>
        <time>2021-03-23T09:45:11Z</time>
      </trkpt>
      <trkpt lat="46.50106" lon="-1.62014">
        <ele>-470.39999389648</ele>
        <time>2021-03-23T09:45:18Z</time>
      </trkpt>
      <trkpt lat="46.50088" lon="-1.62068">
        <ele>-470.39999389648</ele>
        <time>2021-03-23T09:45:25Z</time>
      </trkpt>
      <trkpt lat="46.50066" lon="-1.62138">
        <ele>-470.39999389648</ele>
        <time>2021-03-23T09:45:34Z</time>
      </trkpt>
      <trkpt lat="46.50059" lon="-1.62178">
        <ele>-470</ele>
        <time>2021-03-23T09:45:39Z</time>
      </trkpt>
      <trkpt lat="46.50058" lon="-1.62186">
        <ele>-469.39999389648</ele>
        <time>2021-03-23T09:45:40Z</time>
      </trkpt>
      <trkpt lat="46.50057" lon="-1.62193">
        <ele>-469</ele>
        <time>2021-03-23T09:45:41Z</time>
      </trkpt>
      <trkpt lat="46.50056" lon="-1.62201">
        <ele>-468.60000610352</ele>
        <time>2021-03-23T09:45:42Z</time>
      </trkpt>
      <trkpt lat="46.50056" lon="-1.62208">
        <ele>-468.20001220703</ele>
        <time>2021-03-23T09:45:43Z</time>
      </trkpt>
      <trkpt lat="46.50049" lon="-1.62253">
        <ele>-468.20001220703</ele>
        <time>2021-03-23T09:45:49Z</time>
      </trkpt>
      <trkpt lat="46.50047" lon="-1.62267">
        <ele>-468.20001220703</ele>
        <time>2021-03-23T09:45:51Z</time>
      </trkpt>
      <trkpt lat="46.50051" lon="-1.62277">
        <ele>-468.20001220703</ele>
        <time>2021-03-23T09:45:53Z</time>
      </trkpt>
      <trkpt lat="46.50057" lon="-1.62282">
        <ele>-468.20001220703</ele>
        <time>2021-03-23T09:45:55Z</time>
      </trkpt>
      <trkpt lat="46.50063" lon="-1.62286">
        <ele>-468.20001220703</ele>
        <time>2021-03-23T09:45:57Z</time>
      </trkpt>
      <trkpt lat="46.50083" lon="-1.62303">
        <ele>-468.20001220703</ele>
        <time>2021-03-23T09:46:04Z</time>
      </trkpt>
      <trkpt lat="46.50095" lon="-1.62316">
        <ele>-468.20001220703</ele>
        <time>2021-03-23T09:46:09Z</time>
      </trkpt>
      <trkpt lat="46.50113" lon="-1.62323">
        <ele>-468.20001220703</ele>
        <time>2021-03-23T09:46:13Z</time>
      </trkpt>
      <trkpt lat="46.50146" lon="-1.62335">
        <ele>-468.20001220703</ele>
        <time>2021-03-23T09:46:19Z</time>
      </trkpt>
      <trkpt lat="46.50194" lon="-1.62352">
        <ele>-468.20001220703</ele>
        <time>2021-03-23T09:46:27Z</time>
      </trkpt>
      <trkpt lat="46.50236" lon="-1.62368">
        <ele>-468.20001220703</ele>
        <time>2021-03-23T09:46:34Z</time>
      </trkpt>
      <trkpt lat="46.50291" lon="-1.62389">
        <ele>-468.20001220703</ele>
        <time>2021-03-23T09:46:43Z</time>
      </trkpt>
      <trkpt lat="46.50347" lon="-1.6241">
        <ele>-468.20001220703</ele>
        <time>2021-03-23T09:46:52Z</time>
      </trkpt>
      <trkpt lat="46.50353" lon="-1.62412">
        <ele>-468.20001220703</ele>
        <time>2021-03-23T09:46:53Z</time>
      </trkpt>
      <trkpt lat="46.50406" lon="-1.62432">
        <ele>-468.20001220703</ele>
        <time>2021-03-23T09:47:01Z</time>
      </trkpt>
      <trkpt lat="46.50412" lon="-1.62435">
        <ele>-468.20001220703</ele>
        <time>2021-03-23T09:47:02Z</time>
      </trkpt>
      <trkpt lat="46.50465" lon="-1.62454">
        <ele>-468.20001220703</ele>
        <time>2021-03-23T09:47:10Z</time>
      </trkpt>
      <trkpt lat="46.50486" lon="-1.62462">
        <ele>-468.20001220703</ele>
        <time>2021-03-23T09:47:13Z</time>
      </trkpt>
      <trkpt lat="46.50535" lon="-1.6247">
        <ele>-468.20001220703</ele>
        <time>2021-03-23T09:47:20Z</time>
      </trkpt>
      <trkpt lat="46.50583" lon="-1.62465">
        <ele>-467.79998779297</ele>
        <time>2021-03-23T09:47:27Z</time>
      </trkpt>
      <trkpt lat="46.50589" lon="-1.62464">
        <ele>-467.39999389648</ele>
        <time>2021-03-23T09:47:28Z</time>
      </trkpt>
      <trkpt lat="46.50595" lon="-1.62462">
        <ele>-467</ele>
        <time>2021-03-23T09:47:29Z</time>
      </trkpt>
      <trkpt lat="46.506" lon="-1.6246">
        <ele>-466.60000610352</ele>
        <time>2021-03-23T09:47:30Z</time>
      </trkpt>
      <trkpt lat="46.50606" lon="-1.62459">
        <ele>-466.20001220703</ele>
        <time>2021-03-23T09:47:31Z</time>
      </trkpt>
      <trkpt lat="46.50627" lon="-1.62456">
        <ele>-466.20001220703</ele>
        <time>2021-03-23T09:47:35Z</time>
      </trkpt>
      <trkpt lat="46.50638" lon="-1.62455">
        <ele>-466.20001220703</ele>
        <time>2021-03-23T09:47:37Z</time>
      </trkpt>
      <trkpt lat="46.50651" lon="-1.62456">
        <ele>-466.20001220703</ele>
        <time>2021-03-23T09:47:39Z</time>
      </trkpt>
      <trkpt lat="46.5066" lon="-1.62464">
        <ele>-466.20001220703</ele>
        <time>2021-03-23T09:47:41Z</time>
      </trkpt>
      <trkpt lat="46.50665" lon="-1.62489">
        <ele>-466.20001220703</ele>
        <time>2021-03-23T09:47:44Z</time>
      </trkpt>
      <trkpt lat="46.50667" lon="-1.62498">
        <ele>-466.20001220703</ele>
        <time>2021-03-23T09:47:45Z</time>
      </trkpt>
      <trkpt lat="46.50673" lon="-1.62534">
        <ele>-466.20001220703</ele>
        <time>2021-03-23T09:47:49Z</time>
      </trkpt>
      <trkpt lat="46.50682" lon="-1.62614">
        <ele>-466.20001220703</ele>
        <time>2021-03-23T09:47:58Z</time>
      </trkpt>
      <trkpt lat="46.50684" lon="-1.62632">
        <ele>-466.20001220703</ele>
        <time>2021-03-23T09:48:00Z</time>
      </trkpt>
      <trkpt lat="46.50689" lon="-1.6265">
        <ele>-466.20001220703</ele>
        <time>2021-03-23T09:48:03Z</time>
      </trkpt>
      <trkpt lat="46.50693" lon="-1.62655">
        <ele>-466.20001220703</ele>
        <time>2021-03-23T09:48:04Z</time>
      </trkpt>
      <trkpt lat="46.50702" lon="-1.62662">
        <ele>-466.20001220703</ele>
        <time>2021-03-23T09:48:06Z</time>
      </trkpt>
      <trkpt lat="46.50706" lon="-1.62665">
        <ele>-466.20001220703</ele>
        <time>2021-03-23T09:48:07Z</time>
      </trkpt>
      <trkpt lat="46.50721" lon="-1.6268">
        <ele>-466.20001220703</ele>
        <time>2021-03-23T09:48:11Z</time>
      </trkpt>
      <trkpt lat="46.50751" lon="-1.62709">
        <ele>-466.20001220703</ele>
        <time>2021-03-23T09:48:19Z</time>
      </trkpt>
      <trkpt lat="46.50781" lon="-1.62738">
        <ele>-466.20001220703</ele>
        <time>2021-03-23T09:48:27Z</time>
      </trkpt>
      <trkpt lat="46.50806" lon="-1.62764">
        <ele>-466.20001220703</ele>
        <time>2021-03-23T09:48:33Z</time>
      </trkpt>
      <trkpt lat="46.50818" lon="-1.62777">
        <ele>-466.20001220703</ele>
        <time>2021-03-23T09:48:36Z</time>
      </trkpt>
      <trkpt lat="46.50831" lon="-1.62794">
        <ele>-466.20001220703</ele>
        <time>2021-03-23T09:48:39Z</time>
      </trkpt>
      <trkpt lat="46.50863" lon="-1.62839">
        <ele>-466.20001220703</ele>
        <time>2021-03-23T09:48:47Z</time>
      </trkpt>
      <trkpt lat="46.50888" lon="-1.62874">
        <ele>-466.20001220703</ele>
        <time>2021-03-23T09:48:53Z</time>
      </trkpt>
      <trkpt lat="46.50921" lon="-1.62923">
        <ele>-466.20001220703</ele>
        <time>2021-03-23T09:49:01Z</time>
      </trkpt>
      <trkpt lat="46.50933" lon="-1.62942">
        <ele>-465.79998779297</ele>
        <time>2021-03-23T09:49:04Z</time>
      </trkpt>
      <trkpt lat="46.50937" lon="-1.62948">
        <ele>-465.39999389648</ele>
        <time>2021-03-23T09:49:05Z</time>
      </trkpt>
      <trkpt lat="46.50941" lon="-1.62954">
        <ele>-465</ele>
        <time>2021-03-23T09:49:06Z</time>
      </trkpt>
      <trkpt lat="46.50945" lon="-1.62959">
        <ele>-464.20001220703</ele>
        <time>2021-03-23T09:49:07Z</time>
      </trkpt>
      <trkpt lat="46.50949" lon="-1.62966">
        <ele>-464.20001220703</ele>
        <time>2021-03-23T09:49:08Z</time>
      </trkpt>
      <trkpt lat="46.50976" lon="-1.63004">
        <ele>-464.20001220703</ele>
        <time>2021-03-23T09:49:15Z</time>
      </trkpt>
      <trkpt lat="46.50995" lon="-1.63035">
        <ele>-464.20001220703</ele>
        <time>2021-03-23T09:49:21Z</time>
      </trkpt>
      <trkpt lat="46.51005" lon="-1.63048">
        <ele>-464.20001220703</ele>
        <time>2021-03-23T09:49:24Z</time>
      </trkpt>
      <trkpt lat="46.51011" lon="-1.63055">
        <ele>-464.20001220703</ele>
        <time>2021-03-23T09:49:26Z</time>
      </trkpt>
      <trkpt lat="46.51033" lon="-1.63088">
        <ele>-464.20001220703</ele>
        <time>2021-03-23T09:49:33Z</time>
      </trkpt>
      <trkpt lat="46.51036" lon="-1.63094">
        <ele>-464.20001220703</ele>
        <time>2021-03-23T09:49:34Z</time>
      </trkpt>
      <trkpt lat="46.51042" lon="-1.63103">
        <ele>-464.20001220703</ele>
        <time>2021-03-23T09:49:36Z</time>
      </trkpt>
      <trkpt lat="46.51049" lon="-1.63114">
        <ele>-464.20001220703</ele>
        <time>2021-03-23T09:49:38Z</time>
      </trkpt>
      <trkpt lat="46.51079" lon="-1.63158">
        <ele>-464.20001220703</ele>
        <time>2021-03-23T09:49:46Z</time>
      </trkpt>
      <trkpt lat="46.51097" lon="-1.63169">
        <ele>-464.20001220703</ele>
        <time>2021-03-23T09:49:50Z</time>
      </trkpt>
      <trkpt lat="46.51102" lon="-1.63171">
        <ele>-464.20001220703</ele>
        <time>2021-03-23T09:49:51Z</time>
      </trkpt>
      <trkpt lat="46.51138" lon="-1.63192">
        <ele>-464.20001220703</ele>
        <time>2021-03-23T09:49:59Z</time>
      </trkpt>
      <trkpt lat="46.51154" lon="-1.63203">
        <ele>-464.20001220703</ele>
        <time>2021-03-23T09:50:04Z</time>
      </trkpt>
      <trkpt lat="46.51173" lon="-1.63214">
        <ele>-464.20001220703</ele>
        <time>2021-03-23T09:50:10Z</time>
      </trkpt>
      <trkpt lat="46.51204" lon="-1.63232">
        <ele>-464.20001220703</ele>
        <time>2021-03-23T09:50:19Z</time>
      </trkpt>
      <trkpt lat="46.51225" lon="-1.63244">
        <ele>-464.20001220703</ele>
        <time>2021-03-23T09:50:25Z</time>
      </trkpt>
      <trkpt lat="46.51248" lon="-1.63258">
        <ele>-464.20001220703</ele>
        <time>2021-03-23T09:50:31Z</time>
      </trkpt>
      <trkpt lat="46.51274" lon="-1.63274">
        <ele>-464.20001220703</ele>
        <time>2021-03-23T09:50:38Z</time>
      </trkpt>
      <trkpt lat="46.51306" lon="-1.63295">
        <ele>-464.20001220703</ele>
        <time>2021-03-23T09:50:46Z</time>
      </trkpt>
      <trkpt lat="46.51336" lon="-1.63315">
        <ele>-464.20001220703</ele>
        <time>2021-03-23T09:50:54Z</time>
      </trkpt>
      <trkpt lat="46.51365" lon="-1.63332">
        <ele>-464.20001220703</ele>
        <time>2021-03-23T09:51:01Z</time>
      </trkpt>
      <trkpt lat="46.51399" lon="-1.63352">
        <ele>-464.20001220703</ele>
        <time>2021-03-23T09:51:08Z</time>
      </trkpt>
      <trkpt lat="46.51445" lon="-1.6338">
        <ele>-464.20001220703</ele>
        <time>2021-03-23T09:51:17Z</time>
      </trkpt>
      <trkpt lat="46.51482" lon="-1.63404">
        <ele>-464.20001220703</ele>
        <time>2021-03-23T09:51:25Z</time>
      </trkpt>
      <trkpt lat="46.51491" lon="-1.63409">
        <ele>-464.20001220703</ele>
        <time>2021-03-23T09:51:27Z</time>
      </trkpt>
      <trkpt lat="46.51504" lon="-1.63417">
        <ele>-464.20001220703</ele>
        <time>2021-03-23T09:51:30Z</time>
      </trkpt>
      <trkpt lat="46.51509" lon="-1.6342">
        <ele>-464.20001220703</ele>
        <time>2021-03-23T09:51:31Z</time>
      </trkpt>
      <trkpt lat="46.51535" lon="-1.63435">
        <ele>-464.20001220703</ele>
        <time>2021-03-23T09:51:36Z</time>
      </trkpt>
      <trkpt lat="46.51583" lon="-1.63465">
        <ele>-464.20001220703</ele>
        <time>2021-03-23T09:51:45Z</time>
      </trkpt>
      <trkpt lat="46.51607" lon="-1.6348">
        <ele>-464.20001220703</ele>
        <time>2021-03-23T09:51:50Z</time>
      </trkpt>
      <trkpt lat="46.51612" lon="-1.63482">
        <ele>-463.60000610352</ele>
        <time>2021-03-23T09:51:51Z</time>
      </trkpt>
      <trkpt lat="46.51616" lon="-1.63485">
        <ele>-463.20001220703</ele>
        <time>2021-03-23T09:51:52Z</time>
      </trkpt>
      <trkpt lat="46.51619" lon="-1.63488">
        <ele>-462.79998779297</ele>
        <time>2021-03-23T09:51:53Z</time>
      </trkpt>
      <trkpt lat="46.51623" lon="-1.63491">
        <ele>-462.39999389648</ele>
        <time>2021-03-23T09:51:54Z</time>
      </trkpt>
      <trkpt lat="46.51626" lon="-1.63493">
        <ele>-462</ele>
        <time>2021-03-23T09:51:55Z</time>
      </trkpt>
      <trkpt lat="46.51628" lon="-1.63494">
        <ele>-462</ele>
        <time>2021-03-23T09:51:56Z</time>
      </trkpt>
      <trkpt lat="46.51633" lon="-1.63495">
        <ele>-462</ele>
        <time>2021-03-23T09:51:58Z</time>
      </trkpt>
      <trkpt lat="46.51634" lon="-1.63496">
        <ele>-462</ele>
        <time>2021-03-23T09:52:00Z</time>
      </trkpt>
      <trkpt lat="46.51633" lon="-1.63498">
        <ele>-462</ele>
        <time>2021-03-23T09:52:02Z</time>
      </trkpt>
      <trkpt lat="46.51632" lon="-1.63498">
        <ele>-462</ele>
        <time>2021-03-23T09:52:59Z</time>
      </trkpt>
      <trkpt lat="46.51631" lon="-1.63496">
        <ele>-462</ele>
        <time>2021-03-23T09:53:00Z</time>
      </trkpt>
      <trkpt lat="46.51634" lon="-1.63493">
        <ele>-462</ele>
        <time>2021-03-23T09:53:03Z</time>
      </trkpt>
      <trkpt lat="46.51637" lon="-1.63499">
        <ele>-462</ele>
        <time>2021-03-23T09:53:06Z</time>
      </trkpt>
      <trkpt lat="46.51637" lon="-1.63502">
        <ele>-462</ele>
        <time>2021-03-23T09:53:07Z</time>
      </trkpt>
      <trkpt lat="46.51636" lon="-1.63517">
        <ele>-462</ele>
        <time>2021-03-23T09:53:10Z</time>
      </trkpt>
      <trkpt lat="46.51634" lon="-1.63536">
        <ele>-462</ele>
        <time>2021-03-23T09:53:13Z</time>
      </trkpt>
      <trkpt lat="46.51631" lon="-1.63558">
        <ele>-462</ele>
        <time>2021-03-23T09:53:16Z</time>
      </trkpt>
      <trkpt lat="46.51628" lon="-1.63615">
        <ele>-462</ele>
        <time>2021-03-23T09:53:23Z</time>
      </trkpt>
      <trkpt lat="46.51634" lon="-1.63677">
        <ele>-462</ele>
        <time>2021-03-23T09:53:30Z</time>
      </trkpt>
      <trkpt lat="46.51641" lon="-1.6374">
        <ele>-462</ele>
        <time>2021-03-23T09:53:37Z</time>
      </trkpt>
      <trkpt lat="46.51649" lon="-1.63816">
        <ele>-462</ele>
        <time>2021-03-23T09:53:45Z</time>
      </trkpt>
      <trkpt lat="46.51657" lon="-1.63892">
        <ele>-462</ele>
        <time>2021-03-23T09:53:53Z</time>
      </trkpt>
      <trkpt lat="46.51664" lon="-1.6397">
        <ele>-462</ele>
        <time>2021-03-23T09:54:01Z</time>
      </trkpt>
      <trkpt lat="46.51666" lon="-1.64021">
        <ele>-462</ele>
        <time>2021-03-23T09:54:07Z</time>
      </trkpt>
      <trkpt lat="46.51665" lon="-1.64054">
        <ele>-462</ele>
        <time>2021-03-23T09:54:11Z</time>
      </trkpt>
      <trkpt lat="46.51666" lon="-1.64077">
        <ele>-462</ele>
        <time>2021-03-23T09:54:14Z</time>
      </trkpt>
      <trkpt lat="46.51678" lon="-1.64083">
        <ele>-462</ele>
        <time>2021-03-23T09:54:17Z</time>
      </trkpt>
      <trkpt lat="46.51688" lon="-1.64082">
        <ele>-462</ele>
        <time>2021-03-23T09:54:19Z</time>
      </trkpt>
      <trkpt lat="46.51701" lon="-1.64081">
        <ele>-462</ele>
        <time>2021-03-23T09:54:22Z</time>
      </trkpt>
      <trkpt lat="46.51704" lon="-1.64083">
        <ele>-462</ele>
        <time>2021-03-23T09:54:25Z</time>
      </trkpt>
      <trkpt lat="46.51713" lon="-1.64083">
        <ele>-462</ele>
        <time>2021-03-23T09:54:29Z</time>
      </trkpt>
      <trkpt lat="46.51723" lon="-1.64082">
        <ele>-462</ele>
        <time>2021-03-23T09:54:32Z</time>
      </trkpt>
      <trkpt lat="46.51732" lon="-1.64082">
        <ele>-461.60000610352</ele>
        <time>2021-03-23T09:54:34Z</time>
      </trkpt>
      <trkpt lat="46.51736" lon="-1.64082">
        <ele>-461.20001220703</ele>
        <time>2021-03-23T09:54:35Z</time>
      </trkpt>
      <trkpt lat="46.51741" lon="-1.64081">
        <ele>-460.60000610352</ele>
        <time>2021-03-23T09:54:36Z</time>
      </trkpt>
      <trkpt lat="46.51745" lon="-1.64081">
        <ele>-460.20001220703</ele>
        <time>2021-03-23T09:54:37Z</time>
      </trkpt>
      <trkpt lat="46.5175" lon="-1.64081">
        <ele>-459.79998779297</ele>
        <time>2021-03-23T09:54:38Z</time>
      </trkpt>
      <trkpt lat="46.51763" lon="-1.6408">
        <ele>-459.79998779297</ele>
        <time>2021-03-23T09:54:41Z</time>
      </trkpt>
      <trkpt lat="46.5177" lon="-1.64093">
        <ele>-459.79998779297</ele>
        <time>2021-03-23T09:54:44Z</time>
      </trkpt>
      <trkpt lat="46.5177" lon="-1.64104">
        <ele>-459.79998779297</ele>
        <time>2021-03-23T09:54:46Z</time>
      </trkpt>
      <trkpt lat="46.51771" lon="-1.64122">
        <ele>-459.79998779297</ele>
        <time>2021-03-23T09:54:49Z</time>
      </trkpt>
      <trkpt lat="46.51772" lon="-1.64129">
        <ele>-459.79998779297</ele>
        <time>2021-03-23T09:54:50Z</time>
      </trkpt>
      <trkpt lat="46.5178" lon="-1.6415">
        <ele>-459.79998779297</ele>
        <time>2021-03-23T09:54:53Z</time>
      </trkpt>
      <trkpt lat="46.51787" lon="-1.64161">
        <ele>-459.79998779297</ele>
        <time>2021-03-23T09:54:55Z</time>
      </trkpt>
      <trkpt lat="46.51799" lon="-1.64179">
        <ele>-459.79998779297</ele>
        <time>2021-03-23T09:54:58Z</time>
      </trkpt>
      <trkpt lat="46.51823" lon="-1.64207">
        <ele>-459.79998779297</ele>
        <time>2021-03-23T09:55:03Z</time>
      </trkpt>
      <trkpt lat="46.51859" lon="-1.64251">
        <ele>-459.79998779297</ele>
        <time>2021-03-23T09:55:10Z</time>
      </trkpt>
      <trkpt lat="46.51869" lon="-1.64263">
        <ele>-460.20001220703</ele>
        <time>2021-03-23T09:55:12Z</time>
      </trkpt>
      <trkpt lat="46.51874" lon="-1.64269">
        <ele>-460.60000610352</ele>
        <time>2021-03-23T09:55:13Z</time>
      </trkpt>
      <trkpt lat="46.51878" lon="-1.64274">
        <ele>-461.20001220703</ele>
        <time>2021-03-23T09:55:14Z</time>
      </trkpt>
      <trkpt lat="46.51882" lon="-1.64279">
        <ele>-461.60000610352</ele>
        <time>2021-03-23T09:55:15Z</time>
      </trkpt>
      <trkpt lat="46.51886" lon="-1.64284">
        <ele>-462</ele>
        <time>2021-03-23T09:55:16Z</time>
      </trkpt>
      <trkpt lat="46.51893" lon="-1.64292">
        <ele>-462</ele>
        <time>2021-03-23T09:55:18Z</time>
      </trkpt>
      <trkpt lat="46.51902" lon="-1.64293">
        <ele>-462</ele>
        <time>2021-03-23T09:55:20Z</time>
      </trkpt>
      <trkpt lat="46.51922" lon="-1.64291">
        <ele>-462</ele>
        <time>2021-03-23T09:55:24Z</time>
      </trkpt>
      <trkpt lat="46.51937" lon="-1.64293">
        <ele>-462</ele>
        <time>2021-03-23T09:55:27Z</time>
      </trkpt>
      <trkpt lat="46.51986" lon="-1.64298">
        <ele>-462</ele>
        <time>2021-03-23T09:55:35Z</time>
      </trkpt>
      <trkpt lat="46.52006" lon="-1.64301">
        <ele>-462</ele>
        <time>2021-03-23T09:55:38Z</time>
      </trkpt>
      <trkpt lat="46.52033" lon="-1.64305">
        <ele>-462.39999389648</ele>
        <time>2021-03-23T09:55:42Z</time>
      </trkpt>
      <trkpt lat="46.5204" lon="-1.64306">
        <ele>-463.20001220703</ele>
        <time>2021-03-23T09:55:43Z</time>
      </trkpt>
      <trkpt lat="46.52047" lon="-1.64307">
        <ele>-463.60000610352</ele>
        <time>2021-03-23T09:55:44Z</time>
      </trkpt>
      <trkpt lat="46.52054" lon="-1.64308">
        <ele>-464</ele>
        <time>2021-03-23T09:55:45Z</time>
      </trkpt>
      <trkpt lat="46.52088" lon="-1.64312">
        <ele>-464</ele>
        <time>2021-03-23T09:55:50Z</time>
      </trkpt>
      <trkpt lat="46.52136" lon="-1.64317">
        <ele>-464</ele>
        <time>2021-03-23T09:55:57Z</time>
      </trkpt>
      <trkpt lat="46.52153" lon="-1.64318">
        <ele>-464</ele>
        <time>2021-03-23T09:56:00Z</time>
      </trkpt>
      <trkpt lat="46.52162" lon="-1.64318">
        <ele>-464</ele>
        <time>2021-03-23T09:56:02Z</time>
      </trkpt>
      <trkpt lat="46.52172" lon="-1.64328">
        <ele>-464.39999389648</ele>
        <time>2021-03-23T09:56:05Z</time>
      </trkpt>
      <trkpt lat="46.52172" lon="-1.64334">
        <ele>-464.79998779297</ele>
        <time>2021-03-23T09:56:06Z</time>
      </trkpt>
      <trkpt lat="46.5217" lon="-1.64339">
        <ele>-465.60000610352</ele>
        <time>2021-03-23T09:56:07Z</time>
      </trkpt>
      <trkpt lat="46.52167" lon="-1.64343">
        <ele>-466</ele>
        <time>2021-03-23T09:56:08Z</time>
      </trkpt>
      <trkpt lat="46.52151" lon="-1.64369">
        <ele>-466</ele>
        <time>2021-03-23T09:56:13Z</time>
      </trkpt>
      <trkpt lat="46.52136" lon="-1.64391">
        <ele>-466</ele>
        <time>2021-03-23T09:56:18Z</time>
      </trkpt>
      <trkpt lat="46.5212" lon="-1.64418">
        <ele>-466</ele>
        <time>2021-03-23T09:56:23Z</time>
      </trkpt>
      <trkpt lat="46.52095" lon="-1.64453">
        <ele>-466</ele>
        <time>2021-03-23T09:56:30Z</time>
      </trkpt>
      <trkpt lat="46.52076" lon="-1.64483">
        <ele>-466</ele>
        <time>2021-03-23T09:56:36Z</time>
      </trkpt>
      <trkpt lat="46.52057" lon="-1.64512">
        <ele>-466</ele>
        <time>2021-03-23T09:56:42Z</time>
      </trkpt>
      <trkpt lat="46.52044" lon="-1.64551">
        <ele>-466</ele>
        <time>2021-03-23T09:56:48Z</time>
      </trkpt>
      <trkpt lat="46.52035" lon="-1.64583">
        <ele>-465.60000610352</ele>
        <time>2021-03-23T09:56:53Z</time>
      </trkpt>
      <trkpt lat="46.52033" lon="-1.6459">
        <ele>-465.20001220703</ele>
        <time>2021-03-23T09:56:54Z</time>
      </trkpt>
      <trkpt lat="46.52032" lon="-1.64596">
        <ele>-464.39999389648</ele>
        <time>2021-03-23T09:56:55Z</time>
      </trkpt>
      <trkpt lat="46.5203" lon="-1.64603">
        <ele>-464</ele>
        <time>2021-03-23T09:56:56Z</time>
      </trkpt>
      <trkpt lat="46.52016" lon="-1.6466">
        <ele>-464</ele>
        <time>2021-03-23T09:57:04Z</time>
      </trkpt>
      <trkpt lat="46.52003" lon="-1.64723">
        <ele>-464</ele>
        <time>2021-03-23T09:57:13Z</time>
      </trkpt>
      <trkpt lat="46.51998" lon="-1.64745">
        <ele>-463.60000610352</ele>
        <time>2021-03-23T09:57:16Z</time>
      </trkpt>
      <trkpt lat="46.51996" lon="-1.64752">
        <ele>-463.20001220703</ele>
        <time>2021-03-23T09:57:17Z</time>
      </trkpt>
      <trkpt lat="46.51994" lon="-1.6476">
        <ele>-462.79998779297</ele>
        <time>2021-03-23T09:57:18Z</time>
      </trkpt>
      <trkpt lat="46.51993" lon="-1.64769">
        <ele>-462.39999389648</ele>
        <time>2021-03-23T09:57:19Z</time>
      </trkpt>
      <trkpt lat="46.51992" lon="-1.64777">
        <ele>-462</ele>
        <time>2021-03-23T09:57:20Z</time>
      </trkpt>
      <trkpt lat="46.5198" lon="-1.64817">
        <ele>-462</ele>
        <time>2021-03-23T09:57:25Z</time>
      </trkpt>
      <trkpt lat="46.51961" lon="-1.64869">
        <ele>-462</ele>
        <time>2021-03-23T09:57:33Z</time>
      </trkpt>
      <trkpt lat="46.51955" lon="-1.64895">
        <ele>-462</ele>
        <time>2021-03-23T09:57:37Z</time>
      </trkpt>
      <trkpt lat="46.51953" lon="-1.64909">
        <ele>-462</ele>
        <time>2021-03-23T09:57:39Z</time>
      </trkpt>
      <trkpt lat="46.5195" lon="-1.64956">
        <ele>-462</ele>
        <time>2021-03-23T09:57:46Z</time>
      </trkpt>
      <trkpt lat="46.51948" lon="-1.64976">
        <ele>-462</ele>
        <time>2021-03-23T09:57:49Z</time>
      </trkpt>
      <trkpt lat="46.51942" lon="-1.65003">
        <ele>-462</ele>
        <time>2021-03-23T09:57:53Z</time>
      </trkpt>
      <trkpt lat="46.51934" lon="-1.65028">
        <ele>-462</ele>
        <time>2021-03-23T09:57:57Z</time>
      </trkpt>
      <trkpt lat="46.51928" lon="-1.65047">
        <ele>-462</ele>
        <time>2021-03-23T09:58:00Z</time>
      </trkpt>
      <trkpt lat="46.5191" lon="-1.65097">
        <ele>-462</ele>
        <time>2021-03-23T09:58:08Z</time>
      </trkpt>
      <trkpt lat="46.51893" lon="-1.65139">
        <ele>-462</ele>
        <time>2021-03-23T09:58:15Z</time>
      </trkpt>
      <trkpt lat="46.5189" lon="-1.65146">
        <ele>-461.60000610352</ele>
        <time>2021-03-23T09:58:16Z</time>
      </trkpt>
      <trkpt lat="46.51888" lon="-1.65152">
        <ele>-461</ele>
        <time>2021-03-23T09:58:17Z</time>
      </trkpt>
      <trkpt lat="46.51885" lon="-1.65159">
        <ele>-460.60000610352</ele>
        <time>2021-03-23T09:58:18Z</time>
      </trkpt>
      <trkpt lat="46.51882" lon="-1.65166">
        <ele>-460.20001220703</ele>
        <time>2021-03-23T09:58:19Z</time>
      </trkpt>
      <trkpt lat="46.51879" lon="-1.65173">
        <ele>-459.79998779297</ele>
        <time>2021-03-23T09:58:20Z</time>
      </trkpt>
      <trkpt lat="46.51873" lon="-1.65186">
        <ele>-459.79998779297</ele>
        <time>2021-03-23T09:58:22Z</time>
      </trkpt>
      <trkpt lat="46.51854" lon="-1.65227">
        <ele>-459.79998779297</ele>
        <time>2021-03-23T09:58:28Z</time>
      </trkpt>
      <trkpt lat="46.51851" lon="-1.65235">
        <ele>-459.79998779297</ele>
        <time>2021-03-23T09:58:29Z</time>
      </trkpt>
      <trkpt lat="46.51843" lon="-1.65256">
        <ele>-459.79998779297</ele>
        <time>2021-03-23T09:58:32Z</time>
      </trkpt>
      <trkpt lat="46.51833" lon="-1.65285">
        <ele>-459.79998779297</ele>
        <time>2021-03-23T09:58:36Z</time>
      </trkpt>
      <trkpt lat="46.51818" lon="-1.65325">
        <ele>-459.79998779297</ele>
        <time>2021-03-23T09:58:42Z</time>
      </trkpt>
      <trkpt lat="46.51804" lon="-1.65363">
        <ele>-459.79998779297</ele>
        <time>2021-03-23T09:58:49Z</time>
      </trkpt>
      <trkpt lat="46.51799" lon="-1.65374">
        <ele>-459.79998779297</ele>
        <time>2021-03-23T09:58:51Z</time>
      </trkpt>
      <trkpt lat="46.51793" lon="-1.65382">
        <ele>-459.79998779297</ele>
        <time>2021-03-23T09:58:53Z</time>
      </trkpt>
      <trkpt lat="46.51779" lon="-1.65387">
        <ele>-459.79998779297</ele>
        <time>2021-03-23T09:58:56Z</time>
      </trkpt>
      <trkpt lat="46.51774" lon="-1.65389">
        <ele>-459.79998779297</ele>
        <time>2021-03-23T09:58:57Z</time>
      </trkpt>
      <trkpt lat="46.51744" lon="-1.65404">
        <ele>-459.79998779297</ele>
        <time>2021-03-23T09:59:04Z</time>
      </trkpt>
      <trkpt lat="46.51718" lon="-1.65424">
        <ele>-459.79998779297</ele>
        <time>2021-03-23T09:59:10Z</time>
      </trkpt>
      <trkpt lat="46.51693" lon="-1.65442">
        <ele>-459.39999389648</ele>
        <time>2021-03-23T09:59:15Z</time>
      </trkpt>
      <trkpt lat="46.51688" lon="-1.65446">
        <ele>-459</ele>
        <time>2021-03-23T09:59:16Z</time>
      </trkpt>
      <trkpt lat="46.51683" lon="-1.6545">
        <ele>-458.60000610352</ele>
        <time>2021-03-23T09:59:17Z</time>
      </trkpt>
      <trkpt lat="46.51677" lon="-1.65454">
        <ele>-458.20001220703</ele>
        <time>2021-03-23T09:59:18Z</time>
      </trkpt>
      <trkpt lat="46.51672" lon="-1.65458">
        <ele>-457.79998779297</ele>
        <time>2021-03-23T09:59:19Z</time>
      </trkpt>
      <trkpt lat="46.51638" lon="-1.65482">
        <ele>-457.79998779297</ele>
        <time>2021-03-23T09:59:26Z</time>
      </trkpt>
      <trkpt lat="46.51625" lon="-1.65491">
        <ele>-457.79998779297</ele>
        <time>2021-03-23T09:59:29Z</time>
      </trkpt>
      <trkpt lat="46.51619" lon="-1.65501">
        <ele>-457.79998779297</ele>
        <time>2021-03-23T09:59:31Z</time>
      </trkpt>
      <trkpt lat="46.51615" lon="-1.65529">
        <ele>-457.79998779297</ele>
        <time>2021-03-23T09:59:35Z</time>
      </trkpt>
      <trkpt lat="46.51615" lon="-1.65536">
        <ele>-457.79998779297</ele>
        <time>2021-03-23T09:59:36Z</time>
      </trkpt>
      <trkpt lat="46.51615" lon="-1.65559">
        <ele>-457.79998779297</ele>
        <time>2021-03-23T09:59:39Z</time>
      </trkpt>
      <trkpt lat="46.51616" lon="-1.65583">
        <ele>-457.79998779297</ele>
        <time>2021-03-23T09:59:42Z</time>
      </trkpt>
      <trkpt lat="46.51617" lon="-1.65648">
        <ele>-457.79998779297</ele>
        <time>2021-03-23T09:59:50Z</time>
      </trkpt>
      <trkpt lat="46.51617" lon="-1.65657">
        <ele>-457.79998779297</ele>
        <time>2021-03-23T09:59:51Z</time>
      </trkpt>
      <trkpt lat="46.51616" lon="-1.65699">
        <ele>-457.79998779297</ele>
        <time>2021-03-23T09:59:56Z</time>
      </trkpt>
      <trkpt lat="46.51617" lon="-1.6576">
        <ele>-457.79998779297</ele>
        <time>2021-03-23T10:00:03Z</time>
      </trkpt>
      <trkpt lat="46.51617" lon="-1.65825">
        <ele>-457.79998779297</ele>
        <time>2021-03-23T10:00:10Z</time>
      </trkpt>
      <trkpt lat="46.51618" lon="-1.65862">
        <ele>-457.79998779297</ele>
        <time>2021-03-23T10:00:14Z</time>
      </trkpt>
      <trkpt lat="46.51619" lon="-1.65882">
        <ele>-457.79998779297</ele>
        <time>2021-03-23T10:00:16Z</time>
      </trkpt>
      <trkpt lat="46.51618" lon="-1.6594">
        <ele>-457.79998779297</ele>
        <time>2021-03-23T10:00:22Z</time>
      </trkpt>
      <trkpt lat="46.51619" lon="-1.66007">
        <ele>-457.79998779297</ele>
        <time>2021-03-23T10:00:29Z</time>
      </trkpt>
      <trkpt lat="46.5162" lon="-1.66092">
        <ele>-457.79998779297</ele>
        <time>2021-03-23T10:00:38Z</time>
      </trkpt>
      <trkpt lat="46.5162" lon="-1.66171">
        <ele>-457.79998779297</ele>
        <time>2021-03-23T10:00:46Z</time>
      </trkpt>
      <trkpt lat="46.5162" lon="-1.66181">
        <ele>-457.79998779297</ele>
        <time>2021-03-23T10:00:47Z</time>
      </trkpt>
      <trkpt lat="46.5162" lon="-1.66252">
        <ele>-457.79998779297</ele>
        <time>2021-03-23T10:00:55Z</time>
      </trkpt>
      <trkpt lat="46.5162" lon="-1.66312">
        <ele>-457.79998779297</ele>
        <time>2021-03-23T10:01:02Z</time>
      </trkpt>
      <trkpt lat="46.5162" lon="-1.6638">
        <ele>-457.79998779297</ele>
        <time>2021-03-23T10:01:10Z</time>
      </trkpt>
      <trkpt lat="46.5162" lon="-1.66432">
        <ele>-457.79998779297</ele>
        <time>2021-03-23T10:01:16Z</time>
      </trkpt>
      <trkpt lat="46.51621" lon="-1.66492">
        <ele>-457.79998779297</ele>
        <time>2021-03-23T10:01:23Z</time>
      </trkpt>
      <trkpt lat="46.5162" lon="-1.66574">
        <ele>-457.79998779297</ele>
        <time>2021-03-23T10:01:32Z</time>
      </trkpt>
      <trkpt lat="46.5162" lon="-1.6664">
        <ele>-457.79998779297</ele>
        <time>2021-03-23T10:01:39Z</time>
      </trkpt>
      <trkpt lat="46.51621" lon="-1.66698">
        <ele>-457.79998779297</ele>
        <time>2021-03-23T10:01:45Z</time>
      </trkpt>
      <trkpt lat="46.51622" lon="-1.66718">
        <ele>-458.20001220703</ele>
        <time>2021-03-23T10:01:47Z</time>
      </trkpt>
      <trkpt lat="46.51622" lon="-1.66727">
        <ele>-458.60000610352</ele>
        <time>2021-03-23T10:01:48Z</time>
      </trkpt>
      <trkpt lat="46.51622" lon="-1.66736">
        <ele>-459</ele>
        <time>2021-03-23T10:01:49Z</time>
      </trkpt>
      <trkpt lat="46.51622" lon="-1.66746">
        <ele>-459.39999389648</ele>
        <time>2021-03-23T10:01:50Z</time>
      </trkpt>
      <trkpt lat="46.51622" lon="-1.66755">
        <ele>-459.79998779297</ele>
        <time>2021-03-23T10:01:51Z</time>
      </trkpt>
      <trkpt lat="46.51624" lon="-1.66838">
        <ele>-459.79998779297</ele>
        <time>2021-03-23T10:02:00Z</time>
      </trkpt>
      <trkpt lat="46.51624" lon="-1.66876">
        <ele>-459.79998779297</ele>
        <time>2021-03-23T10:02:05Z</time>
      </trkpt>
      <trkpt lat="46.51625" lon="-1.66885">
        <ele>-459.79998779297</ele>
        <time>2021-03-23T10:02:08Z</time>
      </trkpt>
      <trkpt lat="46.51625" lon="-1.66903">
        <ele>-459.79998779297</ele>
        <time>2021-03-23T10:02:14Z</time>
      </trkpt>
      <trkpt lat="46.51624" lon="-1.66926">
        <ele>-459.79998779297</ele>
        <time>2021-03-23T10:02:18Z</time>
      </trkpt>
      <trkpt lat="46.51623" lon="-1.66971">
        <ele>-459.79998779297</ele>
        <time>2021-03-23T10:02:24Z</time>
      </trkpt>
      <trkpt lat="46.51619" lon="-1.67044">
        <ele>-459.79998779297</ele>
        <time>2021-03-23T10:02:32Z</time>
      </trkpt>
      <trkpt lat="46.51615" lon="-1.67129">
        <ele>-459.79998779297</ele>
        <time>2021-03-23T10:02:41Z</time>
      </trkpt>
      <trkpt lat="46.51612" lon="-1.67193">
        <ele>-459.79998779297</ele>
        <time>2021-03-23T10:02:48Z</time>
      </trkpt>
      <trkpt lat="46.51613" lon="-1.67278">
        <ele>-459.79998779297</ele>
        <time>2021-03-23T10:02:57Z</time>
      </trkpt>
      <trkpt lat="46.51613" lon="-1.67287">
        <ele>-459.79998779297</ele>
        <time>2021-03-23T10:02:58Z</time>
      </trkpt>
      <trkpt lat="46.51613" lon="-1.67368">
        <ele>-459.79998779297</ele>
        <time>2021-03-23T10:03:07Z</time>
      </trkpt>
      <trkpt lat="46.51613" lon="-1.6745">
        <ele>-459.79998779297</ele>
        <time>2021-03-23T10:03:16Z</time>
      </trkpt>
      <trkpt lat="46.51612" lon="-1.67503">
        <ele>-459.79998779297</ele>
        <time>2021-03-23T10:03:22Z</time>
      </trkpt>
      <trkpt lat="46.51612" lon="-1.67511">
        <ele>-459.79998779297</ele>
        <time>2021-03-23T10:03:23Z</time>
      </trkpt>
      <trkpt lat="46.51611" lon="-1.67543">
        <ele>-459.79998779297</ele>
        <time>2021-03-23T10:03:27Z</time>
      </trkpt>
      <trkpt lat="46.516" lon="-1.67562">
        <ele>-459.79998779297</ele>
        <time>2021-03-23T10:03:30Z</time>
      </trkpt>
      <trkpt lat="46.5157" lon="-1.67606">
        <ele>-459.79998779297</ele>
        <time>2021-03-23T10:03:37Z</time>
      </trkpt>
      <trkpt lat="46.51538" lon="-1.67653">
        <ele>-459.79998779297</ele>
        <time>2021-03-23T10:03:44Z</time>
      </trkpt>
      <trkpt lat="46.51506" lon="-1.67702">
        <ele>-459.79998779297</ele>
        <time>2021-03-23T10:03:51Z</time>
      </trkpt>
      <trkpt lat="46.51473" lon="-1.6775">
        <ele>-459.79998779297</ele>
        <time>2021-03-23T10:03:58Z</time>
      </trkpt>
      <trkpt lat="46.51437" lon="-1.67805">
        <ele>-459.79998779297</ele>
        <time>2021-03-23T10:04:06Z</time>
      </trkpt>
      <trkpt lat="46.51402" lon="-1.67859">
        <ele>-459.79998779297</ele>
        <time>2021-03-23T10:04:14Z</time>
      </trkpt>
      <trkpt lat="46.51372" lon="-1.67906">
        <ele>-459.79998779297</ele>
        <time>2021-03-23T10:04:21Z</time>
      </trkpt>
      <trkpt lat="46.51333" lon="-1.67966">
        <ele>-459.79998779297</ele>
        <time>2021-03-23T10:04:30Z</time>
      </trkpt>
      <trkpt lat="46.51302" lon="-1.6801">
        <ele>-459.79998779297</ele>
        <time>2021-03-23T10:04:37Z</time>
      </trkpt>
      <trkpt lat="46.51298" lon="-1.68016">
        <ele>-459.79998779297</ele>
        <time>2021-03-23T10:04:40Z</time>
      </trkpt>
      <trkpt lat="46.51298" lon="-1.68016">
        <ele>-459.79998779297</ele>
        <time>2021-03-23T10:04:41Z</time>
      </trkpt>
      <trkpt lat="46.51295" lon="-1.68019">
        <ele>-460.20001220703</ele>
        <time>2021-03-23T10:05:18Z</time>
      </trkpt>
      <trkpt lat="46.51292" lon="-1.68023">
        <ele>-460.20001220703</ele>
        <time>2021-03-23T10:05:20Z</time>
      </trkpt>
      <trkpt lat="46.51279" lon="-1.68039">
        <ele>-460.20001220703</ele>
        <time>2021-03-23T10:05:25Z</time>
      </trkpt>
      <trkpt lat="46.5127" lon="-1.68053">
        <ele>-460.20001220703</ele>
        <time>2021-03-23T10:05:28Z</time>
      </trkpt>
      <trkpt lat="46.51257" lon="-1.68074">
        <ele>-460.20001220703</ele>
        <time>2021-03-23T10:05:32Z</time>
      </trkpt>
      <trkpt lat="46.51232" lon="-1.68111">
        <ele>-460.20001220703</ele>
        <time>2021-03-23T10:05:39Z</time>
      </trkpt>
      <trkpt lat="46.51228" lon="-1.68115">
        <ele>-460.20001220703</ele>
        <time>2021-03-23T10:05:40Z</time>
      </trkpt>
      <trkpt lat="46.5122" lon="-1.68129">
        <ele>-460.20001220703</ele>
        <time>2021-03-23T10:05:43Z</time>
      </trkpt>
      <trkpt lat="46.51202" lon="-1.68155">
        <ele>-460.20001220703</ele>
        <time>2021-03-23T10:05:49Z</time>
      </trkpt>
      <trkpt lat="46.51179" lon="-1.6819">
        <ele>-460.20001220703</ele>
        <time>2021-03-23T10:05:56Z</time>
      </trkpt>
      <trkpt lat="46.51173" lon="-1.682">
        <ele>-460.20001220703</ele>
        <time>2021-03-23T10:05:58Z</time>
      </trkpt>
      <trkpt lat="46.5116" lon="-1.68221">
        <ele>-460.20001220703</ele>
        <time>2021-03-23T10:06:02Z</time>
      </trkpt>
      <trkpt lat="46.51147" lon="-1.68242">
        <ele>-460.20001220703</ele>
        <time>2021-03-23T10:06:06Z</time>
      </trkpt>
      <trkpt lat="46.5114" lon="-1.68254">
        <ele>-460.20001220703</ele>
        <time>2021-03-23T10:06:08Z</time>
      </trkpt>
      <trkpt lat="46.51133" lon="-1.68264">
        <ele>-460.20001220703</ele>
        <time>2021-03-23T10:06:10Z</time>
      </trkpt>
      <trkpt lat="46.51122" lon="-1.6828">
        <ele>-460.20001220703</ele>
        <time>2021-03-23T10:06:13Z</time>
      </trkpt>
      <trkpt lat="46.5111" lon="-1.68298">
        <ele>-459.79998779297</ele>
        <time>2021-03-23T10:06:16Z</time>
      </trkpt>
      <trkpt lat="46.51106" lon="-1.68304">
        <ele>-459.39999389648</ele>
        <time>2021-03-23T10:06:17Z</time>
      </trkpt>
      <trkpt lat="46.51102" lon="-1.6831">
        <ele>-459</ele>
        <time>2021-03-23T10:06:18Z</time>
      </trkpt>
      <trkpt lat="46.51098" lon="-1.68316">
        <ele>-458.60000610352</ele>
        <time>2021-03-23T10:06:19Z</time>
      </trkpt>
      <trkpt lat="46.51095" lon="-1.68322">
        <ele>-458.20001220703</ele>
        <time>2021-03-23T10:06:20Z</time>
      </trkpt>
      <trkpt lat="46.51091" lon="-1.68328">
        <ele>-458.20001220703</ele>
        <time>2021-03-23T10:06:21Z</time>
      </trkpt>
      <trkpt lat="46.51055" lon="-1.68383">
        <ele>-458.20001220703</ele>
        <time>2021-03-23T10:06:30Z</time>
      </trkpt>
      <trkpt lat="46.51032" lon="-1.68417">
        <ele>-458.20001220703</ele>
        <time>2021-03-23T10:06:36Z</time>
      </trkpt>
      <trkpt lat="46.51028" lon="-1.68422">
        <ele>-458.20001220703</ele>
        <time>2021-03-23T10:06:37Z</time>
      </trkpt>
      <trkpt lat="46.51003" lon="-1.68462">
        <ele>-458.20001220703</ele>
        <time>2021-03-23T10:06:44Z</time>
      </trkpt>
      <trkpt lat="46.50971" lon="-1.68511">
        <ele>-458.20001220703</ele>
        <time>2021-03-23T10:06:53Z</time>
      </trkpt>
      <trkpt lat="46.50948" lon="-1.68545">
        <ele>-458.20001220703</ele>
        <time>2021-03-23T10:07:00Z</time>
      </trkpt>
      <trkpt lat="46.50926" lon="-1.68581">
        <ele>-458.20001220703</ele>
        <time>2021-03-23T10:07:07Z</time>
      </trkpt>
      <trkpt lat="46.50914" lon="-1.68599">
        <ele>-458.20001220703</ele>
        <time>2021-03-23T10:07:11Z</time>
      </trkpt>
      <trkpt lat="46.5091" lon="-1.68608">
        <ele>-458.20001220703</ele>
        <time>2021-03-23T10:07:13Z</time>
      </trkpt>
      <trkpt lat="46.50909" lon="-1.68617">
        <ele>-458.20001220703</ele>
        <time>2021-03-23T10:07:15Z</time>
      </trkpt>
      <trkpt lat="46.5091" lon="-1.68626">
        <ele>-458.20001220703</ele>
        <time>2021-03-23T10:07:17Z</time>
      </trkpt>
      <trkpt lat="46.50906" lon="-1.6864">
        <ele>-458.20001220703</ele>
        <time>2021-03-23T10:07:20Z</time>
      </trkpt>
      <trkpt lat="46.50894" lon="-1.68652">
        <ele>-458.20001220703</ele>
        <time>2021-03-23T10:07:24Z</time>
      </trkpt>
      <trkpt lat="46.50889" lon="-1.68656">
        <ele>-457.79998779297</ele>
        <time>2021-03-23T10:07:25Z</time>
      </trkpt>
      <trkpt lat="46.50884" lon="-1.6866">
        <ele>-457.39999389648</ele>
        <time>2021-03-23T10:07:26Z</time>
      </trkpt>
      <trkpt lat="46.50879" lon="-1.68665">
        <ele>-457</ele>
        <time>2021-03-23T10:07:27Z</time>
      </trkpt>
      <trkpt lat="46.50874" lon="-1.6867">
        <ele>-456.39999389648</ele>
        <time>2021-03-23T10:07:28Z</time>
      </trkpt>
      <trkpt lat="46.50869" lon="-1.68675">
        <ele>-456</ele>
        <time>2021-03-23T10:07:29Z</time>
      </trkpt>
      <trkpt lat="46.50853" lon="-1.6869">
        <ele>-456</ele>
        <time>2021-03-23T10:07:32Z</time>
      </trkpt>
      <trkpt lat="46.50809" lon="-1.6873">
        <ele>-456</ele>
        <time>2021-03-23T10:07:40Z</time>
      </trkpt>
      <trkpt lat="46.5077" lon="-1.68767">
        <ele>-456</ele>
        <time>2021-03-23T10:07:47Z</time>
      </trkpt>
      <trkpt lat="46.50725" lon="-1.6881">
        <ele>-456</ele>
        <time>2021-03-23T10:07:55Z</time>
      </trkpt>
      <trkpt lat="46.50679" lon="-1.68854">
        <ele>-456</ele>
        <time>2021-03-23T10:08:03Z</time>
      </trkpt>
      <trkpt lat="46.50645" lon="-1.68885">
        <ele>-456</ele>
        <time>2021-03-23T10:08:09Z</time>
      </trkpt>
      <trkpt lat="46.50599" lon="-1.68929">
        <ele>-456</ele>
        <time>2021-03-23T10:08:17Z</time>
      </trkpt>
      <trkpt lat="46.50559" lon="-1.68966">
        <ele>-456</ele>
        <time>2021-03-23T10:08:24Z</time>
      </trkpt>
      <trkpt lat="46.50522" lon="-1.69003">
        <ele>-456</ele>
        <time>2021-03-23T10:08:31Z</time>
      </trkpt>
      <trkpt lat="46.50474" lon="-1.69048">
        <ele>-456</ele>
        <time>2021-03-23T10:08:40Z</time>
      </trkpt>
      <trkpt lat="46.50425" lon="-1.69094">
        <ele>-456</ele>
        <time>2021-03-23T10:08:49Z</time>
      </trkpt>
      <trkpt lat="46.50409" lon="-1.69109">
        <ele>-456.39999389648</ele>
        <time>2021-03-23T10:08:52Z</time>
      </trkpt>
      <trkpt lat="46.50403" lon="-1.69115">
        <ele>-457</ele>
        <time>2021-03-23T10:08:53Z</time>
      </trkpt>
      <trkpt lat="46.50398" lon="-1.6912">
        <ele>-457.39999389648</ele>
        <time>2021-03-23T10:08:54Z</time>
      </trkpt>
      <trkpt lat="46.50392" lon="-1.69125">
        <ele>-458.20001220703</ele>
        <time>2021-03-23T10:08:55Z</time>
      </trkpt>
      <trkpt lat="46.50382" lon="-1.69135">
        <ele>-458.20001220703</ele>
        <time>2021-03-23T10:08:57Z</time>
      </trkpt>
      <trkpt lat="46.50336" lon="-1.69178">
        <ele>-458.20001220703</ele>
        <time>2021-03-23T10:09:05Z</time>
      </trkpt>
      <trkpt lat="46.5033" lon="-1.69184">
        <ele>-458.20001220703</ele>
        <time>2021-03-23T10:09:06Z</time>
      </trkpt>
      <trkpt lat="46.50289" lon="-1.69223">
        <ele>-458.60000610352</ele>
        <time>2021-03-23T10:09:13Z</time>
      </trkpt>
      <trkpt lat="46.50283" lon="-1.69228">
        <ele>-459</ele>
        <time>2021-03-23T10:09:14Z</time>
      </trkpt>
      <trkpt lat="46.50277" lon="-1.69234">
        <ele>-459.39999389648</ele>
        <time>2021-03-23T10:09:15Z</time>
      </trkpt>
      <trkpt lat="46.50271" lon="-1.69239">
        <ele>-459.79998779297</ele>
        <time>2021-03-23T10:09:16Z</time>
      </trkpt>
      <trkpt lat="46.50266" lon="-1.69245">
        <ele>-460.20001220703</ele>
        <time>2021-03-23T10:09:17Z</time>
      </trkpt>
      <trkpt lat="46.50242" lon="-1.69267">
        <ele>-460.20001220703</ele>
        <time>2021-03-23T10:09:21Z</time>
      </trkpt>
      <trkpt lat="46.50197" lon="-1.69309">
        <ele>-460.20001220703</ele>
        <time>2021-03-23T10:09:28Z</time>
      </trkpt>
      <trkpt lat="46.50171" lon="-1.69333">
        <ele>-460.60000610352</ele>
        <time>2021-03-23T10:09:32Z</time>
      </trkpt>
      <trkpt lat="46.50165" lon="-1.69339">
        <ele>-461</ele>
        <time>2021-03-23T10:09:33Z</time>
      </trkpt>
      <trkpt lat="46.50158" lon="-1.69345">
        <ele>-461.39999389648</ele>
        <time>2021-03-23T10:09:34Z</time>
      </trkpt>
      <trkpt lat="46.50152" lon="-1.69351">
        <ele>-461.79998779297</ele>
        <time>2021-03-23T10:09:35Z</time>
      </trkpt>
      <trkpt lat="46.50146" lon="-1.69357">
        <ele>-462.20001220703</ele>
        <time>2021-03-23T10:09:36Z</time>
      </trkpt>
      <trkpt lat="46.5014" lon="-1.69363">
        <ele>-462.20001220703</ele>
        <time>2021-03-23T10:09:37Z</time>
      </trkpt>
      <trkpt lat="46.50092" lon="-1.69408">
        <ele>-462.20001220703</ele>
        <time>2021-03-23T10:09:45Z</time>
      </trkpt>
      <trkpt lat="46.50047" lon="-1.6945">
        <ele>-462.20001220703</ele>
        <time>2021-03-23T10:09:53Z</time>
      </trkpt>
      <trkpt lat="46.50043" lon="-1.69456">
        <ele>-462.20001220703</ele>
        <time>2021-03-23T10:09:54Z</time>
      </trkpt>
      <trkpt lat="46.5004" lon="-1.69463">
        <ele>-462.60000610352</ele>
        <time>2021-03-23T10:09:55Z</time>
      </trkpt>
      <trkpt lat="46.50039" lon="-1.69471">
        <ele>-463</ele>
        <time>2021-03-23T10:09:56Z</time>
      </trkpt>
      <trkpt lat="46.50039" lon="-1.69479">
        <ele>-463.39999389648</ele>
        <time>2021-03-23T10:09:57Z</time>
      </trkpt>
      <trkpt lat="46.5004" lon="-1.69487">
        <ele>-463.79998779297</ele>
        <time>2021-03-23T10:09:58Z</time>
      </trkpt>
      <trkpt lat="46.50042" lon="-1.69496">
        <ele>-464.20001220703</ele>
        <time>2021-03-23T10:09:59Z</time>
      </trkpt>
      <trkpt lat="46.50044" lon="-1.69505">
        <ele>-464.20001220703</ele>
        <time>2021-03-23T10:10:00Z</time>
      </trkpt>
      <trkpt lat="46.50048" lon="-1.69554">
        <ele>-464.20001220703</ele>
        <time>2021-03-23T10:10:05Z</time>
      </trkpt>
      <trkpt lat="46.5005" lon="-1.69572">
        <ele>-464.20001220703</ele>
        <time>2021-03-23T10:10:07Z</time>
      </trkpt>
      <trkpt lat="46.50054" lon="-1.696">
        <ele>-464.20001220703</ele>
        <time>2021-03-23T10:10:10Z</time>
      </trkpt>
      <trkpt lat="46.50063" lon="-1.69677">
        <ele>-464.20001220703</ele>
        <time>2021-03-23T10:10:18Z</time>
      </trkpt>
      <trkpt lat="46.50069" lon="-1.69723">
        <ele>-464.60000610352</ele>
        <time>2021-03-23T10:10:23Z</time>
      </trkpt>
      <trkpt lat="46.50072" lon="-1.69733">
        <ele>-465</ele>
        <time>2021-03-23T10:10:24Z</time>
      </trkpt>
      <trkpt lat="46.50075" lon="-1.69742">
        <ele>-465.39999389648</ele>
        <time>2021-03-23T10:10:25Z</time>
      </trkpt>
      <trkpt lat="46.50079" lon="-1.69751">
        <ele>-465.79998779297</ele>
        <time>2021-03-23T10:10:26Z</time>
      </trkpt>
      <trkpt lat="46.50082" lon="-1.6976">
        <ele>-466.20001220703</ele>
        <time>2021-03-23T10:10:27Z</time>
      </trkpt>
      <trkpt lat="46.50087" lon="-1.69768">
        <ele>-466.20001220703</ele>
        <time>2021-03-23T10:10:28Z</time>
      </trkpt>
      <trkpt lat="46.50091" lon="-1.69777">
        <ele>-466.20001220703</ele>
        <time>2021-03-23T10:10:29Z</time>
      </trkpt>
      <trkpt lat="46.50115" lon="-1.6982">
        <ele>-466.79998779297</ele>
        <time>2021-03-23T10:10:34Z</time>
      </trkpt>
      <trkpt lat="46.5012" lon="-1.69829">
        <ele>-467.20001220703</ele>
        <time>2021-03-23T10:10:35Z</time>
      </trkpt>
      <trkpt lat="46.50124" lon="-1.69838">
        <ele>-467.60000610352</ele>
        <time>2021-03-23T10:10:36Z</time>
      </trkpt>
      <trkpt lat="46.50127" lon="-1.69848">
        <ele>-468</ele>
        <time>2021-03-23T10:10:37Z</time>
      </trkpt>
      <trkpt lat="46.50131" lon="-1.69858">
        <ele>-468.60000610352</ele>
        <time>2021-03-23T10:10:38Z</time>
      </trkpt>
      <trkpt lat="46.50142" lon="-1.69888">
        <ele>-468.60000610352</ele>
        <time>2021-03-23T10:10:41Z</time>
      </trkpt>
      <trkpt lat="46.5015" lon="-1.69907">
        <ele>-469</ele>
        <time>2021-03-23T10:10:43Z</time>
      </trkpt>
      <trkpt lat="46.50154" lon="-1.69917">
        <ele>-469.39999389648</ele>
        <time>2021-03-23T10:10:44Z</time>
      </trkpt>
      <trkpt lat="46.50159" lon="-1.69926">
        <ele>-469.79998779297</ele>
        <time>2021-03-23T10:10:45Z</time>
      </trkpt>
      <trkpt lat="46.50163" lon="-1.69934">
        <ele>-470.20001220703</ele>
        <time>2021-03-23T10:10:46Z</time>
      </trkpt>
      <trkpt lat="46.50168" lon="-1.69943">
        <ele>-470.60000610352</ele>
        <time>2021-03-23T10:10:47Z</time>
      </trkpt>
      <trkpt lat="46.502" lon="-1.69997">
        <ele>-470.60000610352</ele>
        <time>2021-03-23T10:10:54Z</time>
      </trkpt>
      <trkpt lat="46.50221" lon="-1.70043">
        <ele>-470.60000610352</ele>
        <time>2021-03-23T10:11:00Z</time>
      </trkpt>
      <trkpt lat="46.50234" lon="-1.70078">
        <ele>-470.20001220703</ele>
        <time>2021-03-23T10:11:05Z</time>
      </trkpt>
      <trkpt lat="46.50236" lon="-1.70085">
        <ele>-469.79998779297</ele>
        <time>2021-03-23T10:11:06Z</time>
      </trkpt>
      <trkpt lat="46.50238" lon="-1.70092">
        <ele>-469.20001220703</ele>
        <time>2021-03-23T10:11:07Z</time>
      </trkpt>
      <trkpt lat="46.5024" lon="-1.70098">
        <ele>-468.79998779297</ele>
        <time>2021-03-23T10:11:08Z</time>
      </trkpt>
      <trkpt lat="46.50242" lon="-1.70105">
        <ele>-468.39999389648</ele>
        <time>2021-03-23T10:11:09Z</time>
      </trkpt>
      <trkpt lat="46.50251" lon="-1.70136">
        <ele>-468</ele>
        <time>2021-03-23T10:11:14Z</time>
      </trkpt>
      <trkpt lat="46.50252" lon="-1.70142">
        <ele>-467.60000610352</ele>
        <time>2021-03-23T10:11:15Z</time>
      </trkpt>
      <trkpt lat="46.50253" lon="-1.70149">
        <ele>-467.20001220703</ele>
        <time>2021-03-23T10:11:16Z</time>
      </trkpt>
      <trkpt lat="46.50255" lon="-1.70155">
        <ele>-466.60000610352</ele>
        <time>2021-03-23T10:11:17Z</time>
      </trkpt>
      <trkpt lat="46.50256" lon="-1.7016">
        <ele>-466.20001220703</ele>
        <time>2021-03-23T10:11:18Z</time>
      </trkpt>
      <trkpt lat="46.50261" lon="-1.70182">
        <ele>-466.20001220703</ele>
        <time>2021-03-23T10:11:22Z</time>
      </trkpt>
      <trkpt lat="46.50272" lon="-1.7023">
        <ele>-466.20001220703</ele>
        <time>2021-03-23T10:11:30Z</time>
      </trkpt>
      <trkpt lat="46.50276" lon="-1.70243">
        <ele>-466.20001220703</ele>
        <time>2021-03-23T10:11:32Z</time>
      </trkpt>
      <trkpt lat="46.50278" lon="-1.70258">
        <ele>-466.20001220703</ele>
        <time>2021-03-23T10:11:34Z</time>
      </trkpt>
      <trkpt lat="46.5028" lon="-1.70265">
        <ele>-466.20001220703</ele>
        <time>2021-03-23T10:11:35Z</time>
      </trkpt>
      <trkpt lat="46.50292" lon="-1.70316">
        <ele>-466.20001220703</ele>
        <time>2021-03-23T10:11:42Z</time>
      </trkpt>
      <trkpt lat="46.50304" lon="-1.70369">
        <ele>-466.20001220703</ele>
        <time>2021-03-23T10:11:48Z</time>
      </trkpt>
      <trkpt lat="46.50322" lon="-1.70445">
        <ele>-466.20001220703</ele>
        <time>2021-03-23T10:11:56Z</time>
      </trkpt>
      <trkpt lat="46.50325" lon="-1.70455">
        <ele>-466.20001220703</ele>
        <time>2021-03-23T10:11:57Z</time>
      </trkpt>
      <trkpt lat="46.50345" lon="-1.70527">
        <ele>-466.20001220703</ele>
        <time>2021-03-23T10:12:05Z</time>
      </trkpt>
      <trkpt lat="46.50351" lon="-1.70558">
        <ele>-466.60000610352</ele>
        <time>2021-03-23T10:12:08Z</time>
      </trkpt>
      <trkpt lat="46.50354" lon="-1.70569">
        <ele>-467</ele>
        <time>2021-03-23T10:12:09Z</time>
      </trkpt>
      <trkpt lat="46.50356" lon="-1.7058">
        <ele>-467.39999389648</ele>
        <time>2021-03-23T10:12:10Z</time>
      </trkpt>
      <trkpt lat="46.50359" lon="-1.70592">
        <ele>-467.79998779297</ele>
        <time>2021-03-23T10:12:11Z</time>
      </trkpt>
      <trkpt lat="46.50361" lon="-1.70602">
        <ele>-468.20001220703</ele>
        <time>2021-03-23T10:12:12Z</time>
      </trkpt>
      <trkpt lat="46.5037" lon="-1.70647">
        <ele>-468.60000610352</ele>
        <time>2021-03-23T10:12:16Z</time>
      </trkpt>
      <trkpt lat="46.50373" lon="-1.70658">
        <ele>-469</ele>
        <time>2021-03-23T10:12:17Z</time>
      </trkpt>
      <trkpt lat="46.50376" lon="-1.7067">
        <ele>-469.39999389648</ele>
        <time>2021-03-23T10:12:18Z</time>
      </trkpt>
      <trkpt lat="46.5038" lon="-1.7068">
        <ele>-470</ele>
        <time>2021-03-23T10:12:19Z</time>
      </trkpt>
      <trkpt lat="46.50385" lon="-1.70689">
        <ele>-470.39999389648</ele>
        <time>2021-03-23T10:12:20Z</time>
      </trkpt>
      <trkpt lat="46.50396" lon="-1.70705">
        <ele>-470.39999389648</ele>
        <time>2021-03-23T10:12:22Z</time>
      </trkpt>
      <trkpt lat="46.5041" lon="-1.70714">
        <ele>-470.39999389648</ele>
        <time>2021-03-23T10:12:24Z</time>
      </trkpt>
      <trkpt lat="46.50416" lon="-1.70718">
        <ele>-470.39999389648</ele>
        <time>2021-03-23T10:12:25Z</time>
      </trkpt>
      <trkpt lat="46.50441" lon="-1.70735">
        <ele>-470.39999389648</ele>
        <time>2021-03-23T10:12:30Z</time>
      </trkpt>
      <trkpt lat="46.50454" lon="-1.70739">
        <ele>-470.39999389648</ele>
        <time>2021-03-23T10:12:33Z</time>
      </trkpt>
      <trkpt lat="46.50463" lon="-1.70738">
        <ele>-470.39999389648</ele>
        <time>2021-03-23T10:12:35Z</time>
      </trkpt>
      <trkpt lat="46.50474" lon="-1.7074">
        <ele>-470</ele>
        <time>2021-03-23T10:12:38Z</time>
      </trkpt>
      <trkpt lat="46.50477" lon="-1.70741">
        <ele>-469.39999389648</ele>
        <time>2021-03-23T10:12:39Z</time>
      </trkpt>
      <trkpt lat="46.50481" lon="-1.70741">
        <ele>-469</ele>
        <time>2021-03-23T10:12:40Z</time>
      </trkpt>
      <trkpt lat="46.50484" lon="-1.70743">
        <ele>-468.60000610352</ele>
        <time>2021-03-23T10:12:41Z</time>
      </trkpt>
      <trkpt lat="46.50489" lon="-1.70744">
        <ele>-468.20001220703</ele>
        <time>2021-03-23T10:12:42Z</time>
      </trkpt>
      <trkpt lat="46.50501" lon="-1.7075">
        <ele>-468.20001220703</ele>
        <time>2021-03-23T10:12:45Z</time>
      </trkpt>
      <trkpt lat="46.50521" lon="-1.70759">
        <ele>-467.79998779297</ele>
        <time>2021-03-23T10:12:50Z</time>
      </trkpt>
      <trkpt lat="46.50525" lon="-1.70761">
        <ele>-467.39999389648</ele>
        <time>2021-03-23T10:12:51Z</time>
      </trkpt>
      <trkpt lat="46.50529" lon="-1.70763">
        <ele>-467</ele>
        <time>2021-03-23T10:12:52Z</time>
      </trkpt>
      <trkpt lat="46.50533" lon="-1.70764">
        <ele>-466.60000610352</ele>
        <time>2021-03-23T10:12:53Z</time>
      </trkpt>
      <trkpt lat="46.50537" lon="-1.70766">
        <ele>-466.20001220703</ele>
        <time>2021-03-23T10:12:54Z</time>
      </trkpt>
      <trkpt lat="46.50563" lon="-1.70783">
        <ele>-466.20001220703</ele>
        <time>2021-03-23T10:13:01Z</time>
      </trkpt>
      <trkpt lat="46.50576" lon="-1.70791">
        <ele>-465.79998779297</ele>
        <time>2021-03-23T10:13:04Z</time>
      </trkpt>
      <trkpt lat="46.5058" lon="-1.70793">
        <ele>-465.39999389648</ele>
        <time>2021-03-23T10:13:05Z</time>
      </trkpt>
      <trkpt lat="46.50584" lon="-1.70795">
        <ele>-465</ele>
        <time>2021-03-23T10:13:06Z</time>
      </trkpt>
      <trkpt lat="46.50588" lon="-1.70798">
        <ele>-464.60000610352</ele>
        <time>2021-03-23T10:13:07Z</time>
      </trkpt>
      <trkpt lat="46.50592" lon="-1.70801">
        <ele>-464.20001220703</ele>
        <time>2021-03-23T10:13:08Z</time>
      </trkpt>
      <trkpt lat="46.50601" lon="-1.70806">
        <ele>-464.20001220703</ele>
        <time>2021-03-23T10:13:10Z</time>
      </trkpt>
      <trkpt lat="46.50619" lon="-1.70816">
        <ele>-464.20001220703</ele>
        <time>2021-03-23T10:13:14Z</time>
      </trkpt>
      <trkpt lat="46.50653" lon="-1.70835">
        <ele>-464.20001220703</ele>
        <time>2021-03-23T10:13:22Z</time>
      </trkpt>
      <trkpt lat="46.50684" lon="-1.70853">
        <ele>-464.20001220703</ele>
        <time>2021-03-23T10:13:29Z</time>
      </trkpt>
      <trkpt lat="46.50699" lon="-1.70864">
        <ele>-464.20001220703</ele>
        <time>2021-03-23T10:13:32Z</time>
      </trkpt>
      <trkpt lat="46.50713" lon="-1.70875">
        <ele>-464.20001220703</ele>
        <time>2021-03-23T10:13:35Z</time>
      </trkpt>
      <trkpt lat="46.50737" lon="-1.709">
        <ele>-464.20001220703</ele>
        <time>2021-03-23T10:13:42Z</time>
      </trkpt>
      <trkpt lat="46.50747" lon="-1.7091">
        <ele>-464.20001220703</ele>
        <time>2021-03-23T10:13:45Z</time>
      </trkpt>
      <trkpt lat="46.50758" lon="-1.70921">
        <ele>-464.20001220703</ele>
        <time>2021-03-23T10:13:48Z</time>
      </trkpt>
      <trkpt lat="46.50762" lon="-1.70924">
        <ele>-463.60000610352</ele>
        <time>2021-03-23T10:13:49Z</time>
      </trkpt>
      <trkpt lat="46.50767" lon="-1.70927">
        <ele>-463.20001220703</ele>
        <time>2021-03-23T10:13:50Z</time>
      </trkpt>
      <trkpt lat="46.50771" lon="-1.70929">
        <ele>-462.79998779297</ele>
        <time>2021-03-23T10:13:51Z</time>
      </trkpt>
      <trkpt lat="46.50775" lon="-1.70931">
        <ele>-462</ele>
        <time>2021-03-23T10:13:52Z</time>
      </trkpt>
      <trkpt lat="46.50784" lon="-1.70935">
        <ele>-462</ele>
        <time>2021-03-23T10:13:54Z</time>
      </trkpt>
      <trkpt lat="46.50788" lon="-1.70937">
        <ele>-462</ele>
        <time>2021-03-23T10:13:55Z</time>
      </trkpt>
      <trkpt lat="46.50813" lon="-1.70939">
        <ele>-462</ele>
        <time>2021-03-23T10:14:00Z</time>
      </trkpt>
      <trkpt lat="46.50844" lon="-1.70944">
        <ele>-462</ele>
        <time>2021-03-23T10:14:06Z</time>
      </trkpt>
      <trkpt lat="46.50849" lon="-1.70946">
        <ele>-462</ele>
        <time>2021-03-23T10:14:07Z</time>
      </trkpt>
      <trkpt lat="46.50874" lon="-1.70962">
        <ele>-462</ele>
        <time>2021-03-23T10:14:12Z</time>
      </trkpt>
      <trkpt lat="46.50879" lon="-1.70966">
        <ele>-461.60000610352</ele>
        <time>2021-03-23T10:14:13Z</time>
      </trkpt>
      <trkpt lat="46.50883" lon="-1.7097">
        <ele>-461.20001220703</ele>
        <time>2021-03-23T10:14:14Z</time>
      </trkpt>
      <trkpt lat="46.50888" lon="-1.70974">
        <ele>-460.79998779297</ele>
        <time>2021-03-23T10:14:15Z</time>
      </trkpt>
      <trkpt lat="46.50892" lon="-1.70979">
        <ele>-460.39999389648</ele>
        <time>2021-03-23T10:14:16Z</time>
      </trkpt>
      <trkpt lat="46.50897" lon="-1.70984">
        <ele>-460</ele>
        <time>2021-03-23T10:14:17Z</time>
      </trkpt>
      <trkpt lat="46.50914" lon="-1.71003">
        <ele>-460</ele>
        <time>2021-03-23T10:14:21Z</time>
      </trkpt>
      <trkpt lat="46.50937" lon="-1.71021">
        <ele>-460</ele>
        <time>2021-03-23T10:14:26Z</time>
      </trkpt>
      <trkpt lat="46.50947" lon="-1.71027">
        <ele>-460</ele>
        <time>2021-03-23T10:14:28Z</time>
      </trkpt>
      <trkpt lat="46.5096" lon="-1.71033">
        <ele>-460</ele>
        <time>2021-03-23T10:14:31Z</time>
      </trkpt>
      <trkpt lat="46.50968" lon="-1.71033">
        <ele>-460</ele>
        <time>2021-03-23T10:14:33Z</time>
      </trkpt>
      <trkpt lat="46.50979" lon="-1.71034">
        <ele>-460</ele>
        <time>2021-03-23T10:14:38Z</time>
      </trkpt>
      <trkpt lat="46.50982" lon="-1.71033">
        <ele>-460</ele>
        <time>2021-03-23T10:14:42Z</time>
      </trkpt>
      <trkpt lat="46.50987" lon="-1.71034">
        <ele>-460</ele>
        <time>2021-03-23T10:14:44Z</time>
      </trkpt>
      <trkpt lat="46.51003" lon="-1.71039">
        <ele>-460</ele>
        <time>2021-03-23T10:14:49Z</time>
      </trkpt>
      <trkpt lat="46.51016" lon="-1.71044">
        <ele>-460</ele>
        <time>2021-03-23T10:14:52Z</time>
      </trkpt>
      <trkpt lat="46.51025" lon="-1.71048">
        <ele>-460</ele>
        <time>2021-03-23T10:14:54Z</time>
      </trkpt>
      <trkpt lat="46.51029" lon="-1.7105">
        <ele>-460</ele>
        <time>2021-03-23T10:14:55Z</time>
      </trkpt>
      <trkpt lat="46.51063" lon="-1.71068">
        <ele>-460</ele>
        <time>2021-03-23T10:15:02Z</time>
      </trkpt>
      <trkpt lat="46.51078" lon="-1.7108">
        <ele>-460</ele>
        <time>2021-03-23T10:15:05Z</time>
      </trkpt>
      <trkpt lat="46.51087" lon="-1.7109">
        <ele>-460</ele>
        <time>2021-03-23T10:15:07Z</time>
      </trkpt>
      <trkpt lat="46.51119" lon="-1.71131">
        <ele>-460</ele>
        <time>2021-03-23T10:15:14Z</time>
      </trkpt>
      <trkpt lat="46.51152" lon="-1.71159">
        <ele>-460</ele>
        <time>2021-03-23T10:15:20Z</time>
      </trkpt>
      <trkpt lat="46.51202" lon="-1.71188">
        <ele>-460</ele>
        <time>2021-03-23T10:15:28Z</time>
      </trkpt>
      <trkpt lat="46.51255" lon="-1.71213">
        <ele>-460</ele>
        <time>2021-03-23T10:15:36Z</time>
      </trkpt>
      <trkpt lat="46.51268" lon="-1.71219">
        <ele>-460.39999389648</ele>
        <time>2021-03-23T10:15:38Z</time>
      </trkpt>
      <trkpt lat="46.51275" lon="-1.71222">
        <ele>-460.79998779297</ele>
        <time>2021-03-23T10:15:39Z</time>
      </trkpt>
      <trkpt lat="46.51281" lon="-1.71225">
        <ele>-461.20001220703</ele>
        <time>2021-03-23T10:15:40Z</time>
      </trkpt>
      <trkpt lat="46.51287" lon="-1.71228">
        <ele>-461.60000610352</ele>
        <time>2021-03-23T10:15:41Z</time>
      </trkpt>
      <trkpt lat="46.51293" lon="-1.71231">
        <ele>-462</ele>
        <time>2021-03-23T10:15:42Z</time>
      </trkpt>
      <trkpt lat="46.51305" lon="-1.71237">
        <ele>-462</ele>
        <time>2021-03-23T10:15:44Z</time>
      </trkpt>
      <trkpt lat="46.51317" lon="-1.71246">
        <ele>-462</ele>
        <time>2021-03-23T10:15:46Z</time>
      </trkpt>
      <trkpt lat="46.51328" lon="-1.71257">
        <ele>-462</ele>
        <time>2021-03-23T10:15:48Z</time>
      </trkpt>
      <trkpt lat="46.51333" lon="-1.71265">
        <ele>-462</ele>
        <time>2021-03-23T10:15:49Z</time>
      </trkpt>
      <trkpt lat="46.51339" lon="-1.71283">
        <ele>-462</ele>
        <time>2021-03-23T10:15:51Z</time>
      </trkpt>
      <trkpt lat="46.5134" lon="-1.71315">
        <ele>-462</ele>
        <time>2021-03-23T10:15:54Z</time>
      </trkpt>
      <trkpt lat="46.51338" lon="-1.71336">
        <ele>-462</ele>
        <time>2021-03-23T10:15:56Z</time>
      </trkpt>
      <trkpt lat="46.51334" lon="-1.71374">
        <ele>-462</ele>
        <time>2021-03-23T10:16:00Z</time>
      </trkpt>
      <trkpt lat="46.5133" lon="-1.71454">
        <ele>-462</ele>
        <time>2021-03-23T10:16:08Z</time>
      </trkpt>
      <trkpt lat="46.51328" lon="-1.71524">
        <ele>-462</ele>
        <time>2021-03-23T10:16:15Z</time>
      </trkpt>
      <trkpt lat="46.51332" lon="-1.71575">
        <ele>-462.39999389648</ele>
        <time>2021-03-23T10:16:20Z</time>
      </trkpt>
      <trkpt lat="46.51333" lon="-1.71586">
        <ele>-463.39999389648</ele>
        <time>2021-03-23T10:16:21Z</time>
      </trkpt>
      <trkpt lat="46.51335" lon="-1.71596">
        <ele>-463.79998779297</ele>
        <time>2021-03-23T10:16:22Z</time>
      </trkpt>
      <trkpt lat="46.51336" lon="-1.71608">
        <ele>-464.39999389648</ele>
        <time>2021-03-23T10:16:23Z</time>
      </trkpt>
      <trkpt lat="46.5134" lon="-1.71641">
        <ele>-464.39999389648</ele>
        <time>2021-03-23T10:16:27Z</time>
      </trkpt>
      <trkpt lat="46.5134" lon="-1.71647">
        <ele>-464.79998779297</ele>
        <time>2021-03-23T10:16:28Z</time>
      </trkpt>
      <trkpt lat="46.5134" lon="-1.71652">
        <ele>-465.20001220703</ele>
        <time>2021-03-23T10:16:29Z</time>
      </trkpt>
      <trkpt lat="46.5134" lon="-1.71657">
        <ele>-465.60000610352</ele>
        <time>2021-03-23T10:16:30Z</time>
      </trkpt>
      <trkpt lat="46.5134" lon="-1.71664">
        <ele>-466</ele>
        <time>2021-03-23T10:16:31Z</time>
      </trkpt>
      <trkpt lat="46.51341" lon="-1.71671">
        <ele>-466.39999389648</ele>
        <time>2021-03-23T10:16:32Z</time>
      </trkpt>
      <trkpt lat="46.51344" lon="-1.71696">
        <ele>-466.39999389648</ele>
        <time>2021-03-23T10:16:35Z</time>
      </trkpt>
      <trkpt lat="46.5135" lon="-1.71734">
        <ele>-466.79998779297</ele>
        <time>2021-03-23T10:16:39Z</time>
      </trkpt>
      <trkpt lat="46.51351" lon="-1.71744">
        <ele>-467.20001220703</ele>
        <time>2021-03-23T10:16:40Z</time>
      </trkpt>
      <trkpt lat="46.51353" lon="-1.71754">
        <ele>-467.60000610352</ele>
        <time>2021-03-23T10:16:41Z</time>
      </trkpt>
      <trkpt lat="46.51354" lon="-1.71764">
        <ele>-468</ele>
        <time>2021-03-23T10:16:42Z</time>
      </trkpt>
      <trkpt lat="46.51354" lon="-1.71774">
        <ele>-468.39999389648</ele>
        <time>2021-03-23T10:16:43Z</time>
      </trkpt>
      <trkpt lat="46.51354" lon="-1.71784">
        <ele>-468.39999389648</ele>
        <time>2021-03-23T10:16:44Z</time>
      </trkpt>
      <trkpt lat="46.51352" lon="-1.71813">
        <ele>-468.39999389648</ele>
        <time>2021-03-23T10:16:47Z</time>
      </trkpt>
      <trkpt lat="46.51344" lon="-1.71864">
        <ele>-468.39999389648</ele>
        <time>2021-03-23T10:16:52Z</time>
      </trkpt>
      <trkpt lat="46.51323" lon="-1.71941">
        <ele>-468.39999389648</ele>
        <time>2021-03-23T10:17:00Z</time>
      </trkpt>
      <trkpt lat="46.5132" lon="-1.7195">
        <ele>-468.79998779297</ele>
        <time>2021-03-23T10:17:01Z</time>
      </trkpt>
      <trkpt lat="46.51316" lon="-1.71959">
        <ele>-469.20001220703</ele>
        <time>2021-03-23T10:17:02Z</time>
      </trkpt>
      <trkpt lat="46.51313" lon="-1.71968">
        <ele>-469.60000610352</ele>
        <time>2021-03-23T10:17:03Z</time>
      </trkpt>
      <trkpt lat="46.5131" lon="-1.71977">
        <ele>-470.20001220703</ele>
        <time>2021-03-23T10:17:04Z</time>
      </trkpt>
      <trkpt lat="46.51307" lon="-1.71985">
        <ele>-470.60000610352</ele>
        <time>2021-03-23T10:17:05Z</time>
      </trkpt>
      <trkpt lat="46.51294" lon="-1.72019">
        <ele>-470.60000610352</ele>
        <time>2021-03-23T10:17:09Z</time>
      </trkpt>
      <trkpt lat="46.51268" lon="-1.72076">
        <ele>-470.60000610352</ele>
        <time>2021-03-23T10:17:16Z</time>
      </trkpt>
      <trkpt lat="46.51238" lon="-1.72128">
        <ele>-470.60000610352</ele>
        <time>2021-03-23T10:17:23Z</time>
      </trkpt>
      <trkpt lat="46.51216" lon="-1.72165">
        <ele>-471</ele>
        <time>2021-03-23T10:17:28Z</time>
      </trkpt>
      <trkpt lat="46.51212" lon="-1.72173">
        <ele>-471.39999389648</ele>
        <time>2021-03-23T10:17:29Z</time>
      </trkpt>
      <trkpt lat="46.51207" lon="-1.72181">
        <ele>-471.79998779297</ele>
        <time>2021-03-23T10:17:30Z</time>
      </trkpt>
      <trkpt lat="46.51203" lon="-1.7219">
        <ele>-472.20001220703</ele>
        <time>2021-03-23T10:17:31Z</time>
      </trkpt>
      <trkpt lat="46.512" lon="-1.72199">
        <ele>-472.60000610352</ele>
        <time>2021-03-23T10:17:32Z</time>
      </trkpt>
      <trkpt lat="46.51191" lon="-1.72226">
        <ele>-472.60000610352</ele>
        <time>2021-03-23T10:17:35Z</time>
      </trkpt>
      <trkpt lat="46.51169" lon="-1.72287">
        <ele>-472.60000610352</ele>
        <time>2021-03-23T10:17:42Z</time>
      </trkpt>
      <trkpt lat="46.51143" lon="-1.72343">
        <ele>-472.60000610352</ele>
        <time>2021-03-23T10:17:49Z</time>
      </trkpt>
      <trkpt lat="46.51137" lon="-1.72361">
        <ele>-472.60000610352</ele>
        <time>2021-03-23T10:17:51Z</time>
      </trkpt>
      <trkpt lat="46.51133" lon="-1.72391">
        <ele>-473.20001220703</ele>
        <time>2021-03-23T10:17:54Z</time>
      </trkpt>
      <trkpt lat="46.51132" lon="-1.72402">
        <ele>-473.60000610352</ele>
        <time>2021-03-23T10:17:55Z</time>
      </trkpt>
      <trkpt lat="46.51132" lon="-1.72412">
        <ele>-474</ele>
        <time>2021-03-23T10:17:56Z</time>
      </trkpt>
      <trkpt lat="46.51132" lon="-1.72423">
        <ele>-474.39999389648</ele>
        <time>2021-03-23T10:17:57Z</time>
      </trkpt>
      <trkpt lat="46.51133" lon="-1.72435">
        <ele>-475</ele>
        <time>2021-03-23T10:17:58Z</time>
      </trkpt>
      <trkpt lat="46.51134" lon="-1.72456">
        <ele>-475</ele>
        <time>2021-03-23T10:18:00Z</time>
      </trkpt>
      <trkpt lat="46.51141" lon="-1.7253">
        <ele>-475</ele>
        <time>2021-03-23T10:18:07Z</time>
      </trkpt>
      <trkpt lat="46.51143" lon="-1.72539">
        <ele>-475.39999389648</ele>
        <time>2021-03-23T10:18:08Z</time>
      </trkpt>
      <trkpt lat="46.51144" lon="-1.7255">
        <ele>-475.79998779297</ele>
        <time>2021-03-23T10:18:09Z</time>
      </trkpt>
      <trkpt lat="46.51145" lon="-1.7256">
        <ele>-476.20001220703</ele>
        <time>2021-03-23T10:18:10Z</time>
      </trkpt>
      <trkpt lat="46.51146" lon="-1.7257">
        <ele>-476.60000610352</ele>
        <time>2021-03-23T10:18:11Z</time>
      </trkpt>
      <trkpt lat="46.51147" lon="-1.72581">
        <ele>-477.20001220703</ele>
        <time>2021-03-23T10:18:12Z</time>
      </trkpt>
      <trkpt lat="46.51149" lon="-1.72603">
        <ele>-477.20001220703</ele>
        <time>2021-03-23T10:18:14Z</time>
      </trkpt>
      <trkpt lat="46.51156" lon="-1.72665">
        <ele>-477.60000610352</ele>
        <time>2021-03-23T10:18:20Z</time>
      </trkpt>
      <trkpt lat="46.51158" lon="-1.72675">
        <ele>-478</ele>
        <time>2021-03-23T10:18:21Z</time>
      </trkpt>
      <trkpt lat="46.51159" lon="-1.72685">
        <ele>-478.39999389648</ele>
        <time>2021-03-23T10:18:22Z</time>
      </trkpt>
      <trkpt lat="46.5116" lon="-1.72695">
        <ele>-478.79998779297</ele>
        <time>2021-03-23T10:18:23Z</time>
      </trkpt>
      <trkpt lat="46.51161" lon="-1.72705">
        <ele>-479.20001220703</ele>
        <time>2021-03-23T10:18:24Z</time>
      </trkpt>
      <trkpt lat="46.51166" lon="-1.72747">
        <ele>-479.20001220703</ele>
        <time>2021-03-23T10:18:28Z</time>
      </trkpt>
      <trkpt lat="46.51174" lon="-1.72811">
        <ele>-479.20001220703</ele>
        <time>2021-03-23T10:18:34Z</time>
      </trkpt>
      <trkpt lat="46.51176" lon="-1.72822">
        <ele>-479.20001220703</ele>
        <time>2021-03-23T10:18:35Z</time>
      </trkpt>
      <trkpt lat="46.51179" lon="-1.72831">
        <ele>-479.20001220703</ele>
        <time>2021-03-23T10:18:36Z</time>
      </trkpt>
      <trkpt lat="46.51189" lon="-1.7286">
        <ele>-479.20001220703</ele>
        <time>2021-03-23T10:18:39Z</time>
      </trkpt>
      <trkpt lat="46.51214" lon="-1.72922">
        <ele>-479.20001220703</ele>
        <time>2021-03-23T10:18:46Z</time>
      </trkpt>
      <trkpt lat="46.5123" lon="-1.72979">
        <ele>-479.20001220703</ele>
        <time>2021-03-23T10:18:52Z</time>
      </trkpt>
      <trkpt lat="46.51237" lon="-1.72996">
        <ele>-479.60000610352</ele>
        <time>2021-03-23T10:18:54Z</time>
      </trkpt>
      <trkpt lat="46.5124" lon="-1.73004">
        <ele>-480</ele>
        <time>2021-03-23T10:18:55Z</time>
      </trkpt>
      <trkpt lat="46.51244" lon="-1.73011">
        <ele>-480.39999389648</ele>
        <time>2021-03-23T10:18:56Z</time>
      </trkpt>
      <trkpt lat="46.51248" lon="-1.73017">
        <ele>-480.79998779297</ele>
        <time>2021-03-23T10:18:57Z</time>
      </trkpt>
      <trkpt lat="46.51252" lon="-1.73022">
        <ele>-481.20001220703</ele>
        <time>2021-03-23T10:18:58Z</time>
      </trkpt>
      <trkpt lat="46.51254" lon="-1.73029">
        <ele>-481.20001220703</ele>
        <time>2021-03-23T10:18:59Z</time>
      </trkpt>
      <trkpt lat="46.51253" lon="-1.73045">
        <ele>-481.20001220703</ele>
        <time>2021-03-23T10:19:01Z</time>
      </trkpt>
      <trkpt lat="46.51248" lon="-1.73061">
        <ele>-481.20001220703</ele>
        <time>2021-03-23T10:19:03Z</time>
      </trkpt>
      <trkpt lat="46.51245" lon="-1.73068">
        <ele>-481.20001220703</ele>
        <time>2021-03-23T10:19:04Z</time>
      </trkpt>
      <trkpt lat="46.51241" lon="-1.73077">
        <ele>-481.60000610352</ele>
        <time>2021-03-23T10:19:05Z</time>
      </trkpt>
      <trkpt lat="46.51238" lon="-1.73085">
        <ele>-482.20001220703</ele>
        <time>2021-03-23T10:19:06Z</time>
      </trkpt>
      <trkpt lat="46.51234" lon="-1.73093">
        <ele>-482.60000610352</ele>
        <time>2021-03-23T10:19:07Z</time>
      </trkpt>
      <trkpt lat="46.51231" lon="-1.73102">
        <ele>-483</ele>
        <time>2021-03-23T10:19:08Z</time>
      </trkpt>
      <trkpt lat="46.51227" lon="-1.7311">
        <ele>-483.60000610352</ele>
        <time>2021-03-23T10:19:09Z</time>
      </trkpt>
      <trkpt lat="46.51221" lon="-1.73128">
        <ele>-483.60000610352</ele>
        <time>2021-03-23T10:19:11Z</time>
      </trkpt>
      <trkpt lat="46.51219" lon="-1.73138">
        <ele>-483.60000610352</ele>
        <time>2021-03-23T10:19:12Z</time>
      </trkpt>
      <trkpt lat="46.5122" lon="-1.73149">
        <ele>-484</ele>
        <time>2021-03-23T10:19:13Z</time>
      </trkpt>
      <trkpt lat="46.51222" lon="-1.73159">
        <ele>-484.39999389648</ele>
        <time>2021-03-23T10:19:14Z</time>
      </trkpt>
      <trkpt lat="46.51225" lon="-1.73167">
        <ele>-484.79998779297</ele>
        <time>2021-03-23T10:19:15Z</time>
      </trkpt>
      <trkpt lat="46.51228" lon="-1.73177">
        <ele>-485.20001220703</ele>
        <time>2021-03-23T10:19:16Z</time>
      </trkpt>
      <trkpt lat="46.51231" lon="-1.73187">
        <ele>-485.79998779297</ele>
        <time>2021-03-23T10:19:17Z</time>
      </trkpt>
      <trkpt lat="46.51233" lon="-1.73199">
        <ele>-486.20001220703</ele>
        <time>2021-03-23T10:19:18Z</time>
      </trkpt>
      <trkpt lat="46.51235" lon="-1.73211">
        <ele>-486.60000610352</ele>
        <time>2021-03-23T10:19:19Z</time>
      </trkpt>
      <trkpt lat="46.51234" lon="-1.73224">
        <ele>-487</ele>
        <time>2021-03-23T10:19:20Z</time>
      </trkpt>
      <trkpt lat="46.51233" lon="-1.73238">
        <ele>-487.39999389648</ele>
        <time>2021-03-23T10:19:21Z</time>
      </trkpt>
      <trkpt lat="46.51229" lon="-1.7325">
        <ele>-487.79998779297</ele>
        <time>2021-03-23T10:19:22Z</time>
      </trkpt>
      <trkpt lat="46.51227" lon="-1.73259">
        <ele>-487.79998779297</ele>
        <time>2021-03-23T10:19:23Z</time>
      </trkpt>
      <trkpt lat="46.51226" lon="-1.73265">
        <ele>-487.79998779297</ele>
        <time>2021-03-23T10:19:24Z</time>
      </trkpt>
      <trkpt lat="46.51221" lon="-1.73269">
        <ele>-488.20001220703</ele>
        <time>2021-03-23T10:19:26Z</time>
      </trkpt>
      <trkpt lat="46.51216" lon="-1.73271">
        <ele>-488.60000610352</ele>
        <time>2021-03-23T10:19:27Z</time>
      </trkpt>
      <trkpt lat="46.51212" lon="-1.73274">
        <ele>-489</ele>
        <time>2021-03-23T10:19:28Z</time>
      </trkpt>
      <trkpt lat="46.51209" lon="-1.73281">
        <ele>-489.60000610352</ele>
        <time>2021-03-23T10:19:29Z</time>
      </trkpt>
      <trkpt lat="46.51204" lon="-1.73288">
        <ele>-490</ele>
        <time>2021-03-23T10:19:30Z</time>
      </trkpt>
      <trkpt lat="46.51177" lon="-1.73337">
        <ele>-490</ele>
        <time>2021-03-23T10:19:37Z</time>
      </trkpt>
      <trkpt lat="46.51159" lon="-1.73375">
        <ele>-490</ele>
        <time>2021-03-23T10:19:42Z</time>
      </trkpt>
      <trkpt lat="46.51155" lon="-1.73381">
        <ele>-490</ele>
        <time>2021-03-23T10:19:43Z</time>
      </trkpt>
      <trkpt lat="46.51139" lon="-1.73398">
        <ele>-490</ele>
        <time>2021-03-23T10:19:46Z</time>
      </trkpt>
      <trkpt lat="46.51128" lon="-1.73409">
        <ele>-490</ele>
        <time>2021-03-23T10:19:48Z</time>
      </trkpt>
      <trkpt lat="46.5109" lon="-1.73447">
        <ele>-490</ele>
        <time>2021-03-23T10:19:56Z</time>
      </trkpt>
      <trkpt lat="46.51084" lon="-1.73456">
        <ele>-490</ele>
        <time>2021-03-23T10:19:58Z</time>
      </trkpt>
      <trkpt lat="46.51085" lon="-1.73467">
        <ele>-490</ele>
        <time>2021-03-23T10:20:00Z</time>
      </trkpt>
      <trkpt lat="46.51078" lon="-1.73482">
        <ele>-490</ele>
        <time>2021-03-23T10:20:03Z</time>
      </trkpt>
      <trkpt lat="46.5107" lon="-1.73497">
        <ele>-489.60000610352</ele>
        <time>2021-03-23T10:20:06Z</time>
      </trkpt>
      <trkpt lat="46.51067" lon="-1.73502">
        <ele>-489.20001220703</ele>
        <time>2021-03-23T10:20:07Z</time>
      </trkpt>
      <trkpt lat="46.51065" lon="-1.73507">
        <ele>-488.79998779297</ele>
        <time>2021-03-23T10:20:08Z</time>
      </trkpt>
      <trkpt lat="46.51063" lon="-1.7351">
        <ele>-488.39999389648</ele>
        <time>2021-03-23T10:20:09Z</time>
      </trkpt>
      <trkpt lat="46.5106" lon="-1.73513">
        <ele>-488</ele>
        <time>2021-03-23T10:20:10Z</time>
      </trkpt>
      <trkpt lat="46.5104" lon="-1.73533">
        <ele>-488</ele>
        <time>2021-03-23T10:20:15Z</time>
      </trkpt>
      <trkpt lat="46.51021" lon="-1.7355">
        <ele>-487.39999389648</ele>
        <time>2021-03-23T10:20:19Z</time>
      </trkpt>
      <trkpt lat="46.51016" lon="-1.73554">
        <ele>-487</ele>
        <time>2021-03-23T10:20:20Z</time>
      </trkpt>
      <trkpt lat="46.51011" lon="-1.73557">
        <ele>-486.60000610352</ele>
        <time>2021-03-23T10:20:21Z</time>
      </trkpt>
      <trkpt lat="46.51006" lon="-1.73561">
        <ele>-486.20001220703</ele>
        <time>2021-03-23T10:20:22Z</time>
      </trkpt>
      <trkpt lat="46.51" lon="-1.73564">
        <ele>-485.79998779297</ele>
        <time>2021-03-23T10:20:23Z</time>
      </trkpt>
      <trkpt lat="46.50976" lon="-1.73582">
        <ele>-485.79998779297</ele>
        <time>2021-03-23T10:20:28Z</time>
      </trkpt>
      <trkpt lat="46.5095" lon="-1.73615">
        <ele>-485.79998779297</ele>
        <time>2021-03-23T10:20:34Z</time>
      </trkpt>
      <trkpt lat="46.50928" lon="-1.73662">
        <ele>-485.79998779297</ele>
        <time>2021-03-23T10:20:40Z</time>
      </trkpt>
      <trkpt lat="46.50903" lon="-1.73704">
        <ele>-485.79998779297</ele>
        <time>2021-03-23T10:20:46Z</time>
      </trkpt>
      <trkpt lat="46.50866" lon="-1.73743">
        <ele>-485.79998779297</ele>
        <time>2021-03-23T10:20:53Z</time>
      </trkpt>
      <trkpt lat="46.50839" lon="-1.7376">
        <ele>-485.79998779297</ele>
        <time>2021-03-23T10:20:58Z</time>
      </trkpt>
      <trkpt lat="46.50804" lon="-1.73781">
        <ele>-485.79998779297</ele>
        <time>2021-03-23T10:21:05Z</time>
      </trkpt>
      <trkpt lat="46.50769" lon="-1.73805">
        <ele>-486.20001220703</ele>
        <time>2021-03-23T10:21:12Z</time>
      </trkpt>
      <trkpt lat="46.50764" lon="-1.73808">
        <ele>-486.60000610352</ele>
        <time>2021-03-23T10:21:13Z</time>
      </trkpt>
      <trkpt lat="46.50758" lon="-1.73811">
        <ele>-487</ele>
        <time>2021-03-23T10:21:14Z</time>
      </trkpt>
      <trkpt lat="46.50752" lon="-1.73814">
        <ele>-487.39999389648</ele>
        <time>2021-03-23T10:21:15Z</time>
      </trkpt>
      <trkpt lat="46.50747" lon="-1.73817">
        <ele>-487.79998779297</ele>
        <time>2021-03-23T10:21:16Z</time>
      </trkpt>
      <trkpt lat="46.50737" lon="-1.73826">
        <ele>-487.79998779297</ele>
        <time>2021-03-23T10:21:18Z</time>
      </trkpt>
      <trkpt lat="46.50729" lon="-1.73838">
        <ele>-487.79998779297</ele>
        <time>2021-03-23T10:21:20Z</time>
      </trkpt>
      <trkpt lat="46.50725" lon="-1.73863">
        <ele>-487.79998779297</ele>
        <time>2021-03-23T10:21:23Z</time>
      </trkpt>
      <trkpt lat="46.50724" lon="-1.73872">
        <ele>-487.79998779297</ele>
        <time>2021-03-23T10:21:24Z</time>
      </trkpt>
      <trkpt lat="46.50723" lon="-1.73888">
        <ele>-487.79998779297</ele>
        <time>2021-03-23T10:21:26Z</time>
      </trkpt>
      <trkpt lat="46.50714" lon="-1.73909">
        <ele>-487.79998779297</ele>
        <time>2021-03-23T10:21:29Z</time>
      </trkpt>
      <trkpt lat="46.50708" lon="-1.7392">
        <ele>-487.79998779297</ele>
        <time>2021-03-23T10:21:31Z</time>
      </trkpt>
      <trkpt lat="46.50701" lon="-1.7393">
        <ele>-487.79998779297</ele>
        <time>2021-03-23T10:21:33Z</time>
      </trkpt>
      <trkpt lat="46.50692" lon="-1.73939">
        <ele>-487.79998779297</ele>
        <time>2021-03-23T10:21:35Z</time>
      </trkpt>
      <trkpt lat="46.50685" lon="-1.7396">
        <ele>-487.79998779297</ele>
        <time>2021-03-23T10:21:38Z</time>
      </trkpt>
      <trkpt lat="46.5069" lon="-1.73981">
        <ele>-487.79998779297</ele>
        <time>2021-03-23T10:21:41Z</time>
      </trkpt>
      <trkpt lat="46.50693" lon="-1.7399">
        <ele>-487.79998779297</ele>
        <time>2021-03-23T10:21:42Z</time>
      </trkpt>
      <trkpt lat="46.50697" lon="-1.73998">
        <ele>-487.79998779297</ele>
        <time>2021-03-23T10:21:43Z</time>
      </trkpt>
      <trkpt lat="46.50704" lon="-1.74013">
        <ele>-487.79998779297</ele>
        <time>2021-03-23T10:21:45Z</time>
      </trkpt>
      <trkpt lat="46.50719" lon="-1.74054">
        <ele>-487.79998779297</ele>
        <time>2021-03-23T10:21:51Z</time>
      </trkpt>
      <trkpt lat="46.50723" lon="-1.7407">
        <ele>-487.79998779297</ele>
        <time>2021-03-23T10:21:55Z</time>
      </trkpt>
      <trkpt lat="46.50732" lon="-1.74093">
        <ele>-487.79998779297</ele>
        <time>2021-03-23T10:22:00Z</time>
      </trkpt>
      <trkpt lat="46.50743" lon="-1.74125">
        <ele>-487.79998779297</ele>
        <time>2021-03-23T10:22:05Z</time>
      </trkpt>
      <trkpt lat="46.50755" lon="-1.74175">
        <ele>-487.79998779297</ele>
        <time>2021-03-23T10:22:11Z</time>
      </trkpt>
      <trkpt lat="46.50764" lon="-1.74239">
        <ele>-487.79998779297</ele>
        <time>2021-03-23T10:22:18Z</time>
      </trkpt>
      <trkpt lat="46.50773" lon="-1.74306">
        <ele>-487.79998779297</ele>
        <time>2021-03-23T10:22:25Z</time>
      </trkpt>
      <trkpt lat="46.5078" lon="-1.74354">
        <ele>-488.20001220703</ele>
        <time>2021-03-23T10:22:30Z</time>
      </trkpt>
      <trkpt lat="46.50782" lon="-1.74363">
        <ele>-489</ele>
        <time>2021-03-23T10:22:31Z</time>
      </trkpt>
      <trkpt lat="46.50784" lon="-1.74371">
        <ele>-489.39999389648</ele>
        <time>2021-03-23T10:22:32Z</time>
      </trkpt>
      <trkpt lat="46.50786" lon="-1.74378">
        <ele>-489.79998779297</ele>
        <time>2021-03-23T10:22:33Z</time>
      </trkpt>
      <trkpt lat="46.50792" lon="-1.7442">
        <ele>-489.79998779297</ele>
        <time>2021-03-23T10:22:38Z</time>
      </trkpt>
      <trkpt lat="46.50797" lon="-1.74452">
        <ele>-489.79998779297</ele>
        <time>2021-03-23T10:22:42Z</time>
      </trkpt>
      <trkpt lat="46.50801" lon="-1.74457">
        <ele>-489.79998779297</ele>
        <time>2021-03-23T10:22:43Z</time>
      </trkpt>
      <trkpt lat="46.50812" lon="-1.74457">
        <ele>-489.79998779297</ele>
        <time>2021-03-23T10:22:45Z</time>
      </trkpt>
      <trkpt lat="46.50831" lon="-1.74453">
        <ele>-489.79998779297</ele>
        <time>2021-03-23T10:22:49Z</time>
      </trkpt>
      <trkpt lat="46.50838" lon="-1.74474">
        <ele>-489.79998779297</ele>
        <time>2021-03-23T10:22:52Z</time>
      </trkpt>
      <trkpt lat="46.5084" lon="-1.74499">
        <ele>-489.79998779297</ele>
        <time>2021-03-23T10:22:55Z</time>
      </trkpt>
      <trkpt lat="46.50841" lon="-1.74508">
        <ele>-489.79998779297</ele>
        <time>2021-03-23T10:22:56Z</time>
      </trkpt>
      <trkpt lat="46.50849" lon="-1.74563">
        <ele>-489.79998779297</ele>
        <time>2021-03-23T10:23:02Z</time>
      </trkpt>
      <trkpt lat="46.5086" lon="-1.74609">
        <ele>-489.79998779297</ele>
        <time>2021-03-23T10:23:08Z</time>
      </trkpt>
      <trkpt lat="46.50861" lon="-1.74616">
        <ele>-489.79998779297</ele>
        <time>2021-03-23T10:23:09Z</time>
      </trkpt>
      <trkpt lat="46.50863" lon="-1.74633">
        <ele>-489.79998779297</ele>
        <time>2021-03-23T10:23:12Z</time>
      </trkpt>
      <trkpt lat="46.50868" lon="-1.74677">
        <ele>-489.79998779297</ele>
        <time>2021-03-23T10:23:17Z</time>
      </trkpt>
      <trkpt lat="46.5087" lon="-1.74706">
        <ele>-489.79998779297</ele>
        <time>2021-03-23T10:23:20Z</time>
      </trkpt>
      <trkpt lat="46.50867" lon="-1.74724">
        <ele>-489.79998779297</ele>
        <time>2021-03-23T10:23:22Z</time>
      </trkpt>
      <trkpt lat="46.50854" lon="-1.7475">
        <ele>-489.79998779297</ele>
        <time>2021-03-23T10:23:26Z</time>
      </trkpt>
      <trkpt lat="46.50836" lon="-1.74757">
        <ele>-489.79998779297</ele>
        <time>2021-03-23T10:23:29Z</time>
      </trkpt>
      <trkpt lat="46.5083" lon="-1.74761">
        <ele>-489.79998779297</ele>
        <time>2021-03-23T10:23:30Z</time>
      </trkpt>
      <trkpt lat="46.50811" lon="-1.74777">
        <ele>-489.79998779297</ele>
        <time>2021-03-23T10:23:34Z</time>
      </trkpt>
      <trkpt lat="46.50807" lon="-1.74781">
        <ele>-489.79998779297</ele>
        <time>2021-03-23T10:23:35Z</time>
      </trkpt>
      <trkpt lat="46.50803" lon="-1.74791">
        <ele>-490.20001220703</ele>
        <time>2021-03-23T10:23:37Z</time>
      </trkpt>
      <trkpt lat="46.50804" lon="-1.74797">
        <ele>-490.60000610352</ele>
        <time>2021-03-23T10:23:38Z</time>
      </trkpt>
      <trkpt lat="46.50806" lon="-1.74804">
        <ele>-491</ele>
        <time>2021-03-23T10:23:39Z</time>
      </trkpt>
      <trkpt lat="46.5081" lon="-1.74811">
        <ele>-491.39999389648</ele>
        <time>2021-03-23T10:23:40Z</time>
      </trkpt>
      <trkpt lat="46.50813" lon="-1.74817">
        <ele>-492</ele>
        <time>2021-03-23T10:23:41Z</time>
      </trkpt>
      <trkpt lat="46.50819" lon="-1.74827">
        <ele>-492</ele>
        <time>2021-03-23T10:23:43Z</time>
      </trkpt>
      <trkpt lat="46.50824" lon="-1.74838">
        <ele>-492</ele>
        <time>2021-03-23T10:23:45Z</time>
      </trkpt>
      <trkpt lat="46.50824" lon="-1.74845">
        <ele>-492</ele>
        <time>2021-03-23T10:23:46Z</time>
      </trkpt>
      <trkpt lat="46.50822" lon="-1.74859">
        <ele>-492</ele>
        <time>2021-03-23T10:23:48Z</time>
      </trkpt>
      <trkpt lat="46.50821" lon="-1.74883">
        <ele>-492</ele>
        <time>2021-03-23T10:23:51Z</time>
      </trkpt>
      <trkpt lat="46.50822" lon="-1.74891">
        <ele>-492</ele>
        <time>2021-03-23T10:23:52Z</time>
      </trkpt>
      <trkpt lat="46.50823" lon="-1.74897">
        <ele>-492</ele>
        <time>2021-03-23T10:23:53Z</time>
      </trkpt>
      <trkpt lat="46.50826" lon="-1.74904">
        <ele>-492</ele>
        <time>2021-03-23T10:23:54Z</time>
      </trkpt>
      <trkpt lat="46.50836" lon="-1.74913">
        <ele>-492</ele>
        <time>2021-03-23T10:23:56Z</time>
      </trkpt>
      <trkpt lat="46.50852" lon="-1.74938">
        <ele>-492</ele>
        <time>2021-03-23T10:24:00Z</time>
      </trkpt>
      <trkpt lat="46.50863" lon="-1.74981">
        <ele>-492</ele>
        <time>2021-03-23T10:24:05Z</time>
      </trkpt>
      <trkpt lat="46.50878" lon="-1.75055">
        <ele>-492</ele>
        <time>2021-03-23T10:24:13Z</time>
      </trkpt>
      <trkpt lat="46.50891" lon="-1.7511">
        <ele>-492</ele>
        <time>2021-03-23T10:24:19Z</time>
      </trkpt>
      <trkpt lat="46.50894" lon="-1.75119">
        <ele>-492</ele>
        <time>2021-03-23T10:24:20Z</time>
      </trkpt>
      <trkpt lat="46.50907" lon="-1.75176">
        <ele>-492</ele>
        <time>2021-03-23T10:24:26Z</time>
      </trkpt>
      <trkpt lat="46.50914" lon="-1.75211">
        <ele>-492</ele>
        <time>2021-03-23T10:24:30Z</time>
      </trkpt>
      <trkpt lat="46.50915" lon="-1.75217">
        <ele>-492</ele>
        <time>2021-03-23T10:24:31Z</time>
      </trkpt>
      <trkpt lat="46.50917" lon="-1.75222">
        <ele>-492.39999389648</ele>
        <time>2021-03-23T10:24:32Z</time>
      </trkpt>
      <trkpt lat="46.50918" lon="-1.75228">
        <ele>-492.79998779297</ele>
        <time>2021-03-23T10:24:33Z</time>
      </trkpt>
      <trkpt lat="46.50918" lon="-1.75234">
        <ele>-493.60000610352</ele>
        <time>2021-03-23T10:24:34Z</time>
      </trkpt>
      <trkpt lat="46.50918" lon="-1.7524">
        <ele>-494</ele>
        <time>2021-03-23T10:24:35Z</time>
      </trkpt>
      <trkpt lat="46.50918" lon="-1.75282">
        <ele>-494</ele>
        <time>2021-03-23T10:24:40Z</time>
      </trkpt>
      <trkpt lat="46.50916" lon="-1.75355">
        <ele>-494</ele>
        <time>2021-03-23T10:24:47Z</time>
      </trkpt>
      <trkpt lat="46.50915" lon="-1.75436">
        <ele>-494</ele>
        <time>2021-03-23T10:24:54Z</time>
      </trkpt>
      <trkpt lat="46.50915" lon="-1.75448">
        <ele>-494</ele>
        <time>2021-03-23T10:24:55Z</time>
      </trkpt>
      <trkpt lat="46.50924" lon="-1.75515">
        <ele>-494</ele>
        <time>2021-03-23T10:25:01Z</time>
      </trkpt>
      <trkpt lat="46.50938" lon="-1.7559">
        <ele>-494</ele>
        <time>2021-03-23T10:25:08Z</time>
      </trkpt>
      <trkpt lat="46.50939" lon="-1.75602">
        <ele>-494</ele>
        <time>2021-03-23T10:25:09Z</time>
      </trkpt>
      <trkpt lat="46.50945" lon="-1.75679">
        <ele>-494</ele>
        <time>2021-03-23T10:25:16Z</time>
      </trkpt>
      <trkpt lat="46.50945" lon="-1.75702">
        <ele>-494.39999389648</ele>
        <time>2021-03-23T10:25:18Z</time>
      </trkpt>
      <trkpt lat="46.50945" lon="-1.75714">
        <ele>-495</ele>
        <time>2021-03-23T10:25:19Z</time>
      </trkpt>
      <trkpt lat="46.50945" lon="-1.75726">
        <ele>-495.39999389648</ele>
        <time>2021-03-23T10:25:20Z</time>
      </trkpt>
      <trkpt lat="46.50945" lon="-1.75736">
        <ele>-495.79998779297</ele>
        <time>2021-03-23T10:25:21Z</time>
      </trkpt>
      <trkpt lat="46.50943" lon="-1.75744">
        <ele>-496.20001220703</ele>
        <time>2021-03-23T10:25:22Z</time>
      </trkpt>
      <trkpt lat="46.50941" lon="-1.75748">
        <ele>-497</ele>
        <time>2021-03-23T10:25:23Z</time>
      </trkpt>
      <trkpt lat="46.5094" lon="-1.75751">
        <ele>-497.60000610352</ele>
        <time>2021-03-23T10:25:24Z</time>
      </trkpt>
      <trkpt lat="46.5094" lon="-1.75754">
        <ele>-498</ele>
        <time>2021-03-23T10:25:25Z</time>
      </trkpt>
      <trkpt lat="46.5094" lon="-1.75758">
        <ele>-498.39999389648</ele>
        <time>2021-03-23T10:25:26Z</time>
      </trkpt>
      <trkpt lat="46.50939" lon="-1.75762">
        <ele>-498.39999389648</ele>
        <time>2021-03-23T10:25:27Z</time>
      </trkpt>
      <trkpt lat="46.50929" lon="-1.75794">
        <ele>-498.39999389648</ele>
        <time>2021-03-23T10:25:34Z</time>
      </trkpt>
      <trkpt lat="46.50918" lon="-1.75819">
        <ele>-498.39999389648</ele>
        <time>2021-03-23T10:25:39Z</time>
      </trkpt>
      <trkpt lat="46.50907" lon="-1.75859">
        <ele>-498.39999389648</ele>
        <time>2021-03-23T10:25:46Z</time>
      </trkpt>
      <trkpt lat="46.50904" lon="-1.75885">
        <ele>-498.39999389648</ele>
        <time>2021-03-23T10:25:51Z</time>
      </trkpt>
      <trkpt lat="46.50913" lon="-1.7589">
        <ele>-498.39999389648</ele>
        <time>2021-03-23T10:25:54Z</time>
      </trkpt>
      <trkpt lat="46.5092" lon="-1.75891">
        <ele>-498.39999389648</ele>
        <time>2021-03-23T10:25:56Z</time>
      </trkpt>
      <trkpt lat="46.50932" lon="-1.75896">
        <ele>-498.39999389648</ele>
        <time>2021-03-23T10:25:59Z</time>
      </trkpt>
      <trkpt lat="46.5094" lon="-1.75898">
        <ele>-498.39999389648</ele>
        <time>2021-03-23T10:26:01Z</time>
      </trkpt>
      <trkpt lat="46.50958" lon="-1.759">
        <ele>-498.39999389648</ele>
        <time>2021-03-23T10:26:05Z</time>
      </trkpt>
      <trkpt lat="46.50967" lon="-1.75901">
        <ele>-498.39999389648</ele>
        <time>2021-03-23T10:26:07Z</time>
      </trkpt>
      <trkpt lat="46.50974" lon="-1.75909">
        <ele>-498.39999389648</ele>
        <time>2021-03-23T10:26:09Z</time>
      </trkpt>
      <trkpt lat="46.50975" lon="-1.75928">
        <ele>-498.39999389648</ele>
        <time>2021-03-23T10:26:12Z</time>
      </trkpt>
      <trkpt lat="46.50975" lon="-1.75933">
        <ele>-498.39999389648</ele>
        <time>2021-03-23T10:26:13Z</time>
      </trkpt>
      <trkpt lat="46.50973" lon="-1.75955">
        <ele>-498.39999389648</ele>
        <time>2021-03-23T10:26:18Z</time>
      </trkpt>
      <trkpt lat="46.50973" lon="-1.75971">
        <ele>-498.39999389648</ele>
        <time>2021-03-23T10:26:23Z</time>
      </trkpt>
      <trkpt lat="46.50972" lon="-1.75984">
        <ele>-498.39999389648</ele>
        <time>2021-03-23T10:26:28Z</time>
      </trkpt>
      <trkpt lat="46.50972" lon="-1.7599">
        <ele>-498.39999389648</ele>
        <time>2021-03-23T10:26:31Z</time>
      </trkpt>
      <trkpt lat="46.50975" lon="-1.75993">
        <ele>-498.79998779297</ele>
        <time>2021-03-23T10:26:34Z</time>
      </trkpt>
      <trkpt lat="46.50976" lon="-1.75994">
        <ele>-499.20001220703</ele>
        <time>2021-03-23T10:26:35Z</time>
      </trkpt>
      <trkpt lat="46.50978" lon="-1.75997">
        <ele>-499.60000610352</ele>
        <time>2021-03-23T10:26:36Z</time>
      </trkpt>
      <trkpt lat="46.50978" lon="-1.76">
        <ele>-500</ele>
        <time>2021-03-23T10:26:37Z</time>
      </trkpt>
      <trkpt lat="46.50977" lon="-1.76003">
        <ele>-500</ele>
        <time>2021-03-23T10:26:38Z</time>
      </trkpt>
      <trkpt lat="46.50977" lon="-1.7601">
        <ele>-500</ele>
        <time>2021-03-23T10:26:40Z</time>
      </trkpt>
      <trkpt lat="46.50971" lon="-1.76016">
        <ele>-500</ele>
        <time>2021-03-23T10:26:44Z</time>
      </trkpt>
      <trkpt lat="46.50971" lon="-1.76016">
        <ele>-500</ele>
        <time>2021-03-23T10:26:45Z</time>
      </trkpt>
    </trkseg>
  </trk>
</gpx>